<?xml version="1.0" encoding="UTF-8" standalone="no" ?>
<gpx xmlns="http://www.topografix.com/GPX/1/1" xmlns:xsi="http://www.w3.org/2001/XMLSchema-instance" xsi:schemaLocation="http://www.topografix.com/GPX/1/1 http://www.topografix.com/GPX/1/1/gpx.xsd" version="1.1" creator="VisuGPX - https://www.visugpx.com">
  <metadata>
    <name>foulées st etienne d\'albagnan</name>
    <desc><![CDATA[foulées st etienne d\'albagnan]]></desc>
  </metadata>
  <trk>
    <name><![CDATA[foulées st etienne d'albagnan]]></name>
    <desc><![CDATA[à bloc]]></desc>
    <trkseg>
      <trkpt lat="43.53488" lon="2.85931">
        <ele>226.39999389648</ele>
        <time>2012-05-06T08:45:26.000Z</time>
      </trkpt>
      <trkpt lat="43.53489" lon="2.85931">
        <ele>226.39999389648</ele>
        <time>2012-05-06T08:45:27.000Z</time>
      </trkpt>
      <trkpt lat="43.5349" lon="2.85932">
        <ele>226.39999389648</ele>
        <time>2012-05-06T08:45:28.000Z</time>
      </trkpt>
      <trkpt lat="43.53492" lon="2.85933">
        <ele>226.39999389648</ele>
        <time>2012-05-06T08:45:29.000Z</time>
      </trkpt>
      <trkpt lat="43.53495" lon="2.85936">
        <ele>226.39999389648</ele>
        <time>2012-05-06T08:45:30.000Z</time>
      </trkpt>
      <trkpt lat="43.53499" lon="2.85938">
        <ele>226.60000610352</ele>
        <time>2012-05-06T08:45:31.000Z</time>
      </trkpt>
      <trkpt lat="43.53503" lon="2.8594">
        <ele>226.60000610352</ele>
        <time>2012-05-06T08:45:32.000Z</time>
      </trkpt>
      <trkpt lat="43.53507" lon="2.85942">
        <ele>226.39999389648</ele>
        <time>2012-05-06T08:45:33.000Z</time>
      </trkpt>
      <trkpt lat="43.53511" lon="2.85944">
        <ele>226.19999694824</ele>
        <time>2012-05-06T08:45:34.000Z</time>
      </trkpt>
      <trkpt lat="43.53516" lon="2.85945">
        <ele>226.19999694824</ele>
        <time>2012-05-06T08:45:35.000Z</time>
      </trkpt>
      <trkpt lat="43.5352" lon="2.85947">
        <ele>226</ele>
        <time>2012-05-06T08:45:36.000Z</time>
      </trkpt>
      <trkpt lat="43.53525" lon="2.85949">
        <ele>226</ele>
        <time>2012-05-06T08:45:37.000Z</time>
      </trkpt>
      <trkpt lat="43.53529" lon="2.85949">
        <ele>226</ele>
        <time>2012-05-06T08:45:38.000Z</time>
      </trkpt>
      <trkpt lat="43.53534" lon="2.8595">
        <ele>226</ele>
        <time>2012-05-06T08:45:39.000Z</time>
      </trkpt>
      <trkpt lat="43.53538" lon="2.85951">
        <ele>226.19999694824</ele>
        <time>2012-05-06T08:45:40.000Z</time>
      </trkpt>
      <trkpt lat="43.53543" lon="2.85951">
        <ele>226.39999389648</ele>
        <time>2012-05-06T08:45:41.000Z</time>
      </trkpt>
      <trkpt lat="43.53547" lon="2.85952">
        <ele>226.39999389648</ele>
        <time>2012-05-06T08:45:42.000Z</time>
      </trkpt>
      <trkpt lat="43.53551" lon="2.85953">
        <ele>226.39999389648</ele>
        <time>2012-05-06T08:45:43.000Z</time>
      </trkpt>
      <trkpt lat="43.53555" lon="2.85953">
        <ele>226.39999389648</ele>
        <time>2012-05-06T08:45:44.000Z</time>
      </trkpt>
      <trkpt lat="43.5356" lon="2.85954">
        <ele>226.60000610352</ele>
        <time>2012-05-06T08:45:45.000Z</time>
      </trkpt>
      <trkpt lat="43.53564" lon="2.85955">
        <ele>226.60000610352</ele>
        <time>2012-05-06T08:45:46.000Z</time>
      </trkpt>
      <trkpt lat="43.53568" lon="2.85956">
        <ele>226.60000610352</ele>
        <time>2012-05-06T08:45:47.000Z</time>
      </trkpt>
      <trkpt lat="43.53572" lon="2.85956">
        <ele>226.80000305176</ele>
        <time>2012-05-06T08:45:48.000Z</time>
      </trkpt>
      <trkpt lat="43.53575" lon="2.85956">
        <ele>227</ele>
        <time>2012-05-06T08:45:49.000Z</time>
      </trkpt>
      <trkpt lat="43.53579" lon="2.85956">
        <ele>227</ele>
        <time>2012-05-06T08:45:50.000Z</time>
      </trkpt>
      <trkpt lat="43.53583" lon="2.85956">
        <ele>227.19999694824</ele>
        <time>2012-05-06T08:45:51.000Z</time>
      </trkpt>
      <trkpt lat="43.53586" lon="2.85955">
        <ele>227.60000610352</ele>
        <time>2012-05-06T08:45:52.000Z</time>
      </trkpt>
      <trkpt lat="43.5359" lon="2.85952">
        <ele>228.39999389648</ele>
        <time>2012-05-06T08:45:53.000Z</time>
      </trkpt>
      <trkpt lat="43.53593" lon="2.85947">
        <ele>229.39999389648</ele>
        <time>2012-05-06T08:45:54.000Z</time>
      </trkpt>
      <trkpt lat="43.53596" lon="2.85943">
        <ele>230.19999694824</ele>
        <time>2012-05-06T08:45:55.000Z</time>
      </trkpt>
      <trkpt lat="43.53599" lon="2.85939">
        <ele>231.19999694824</ele>
        <time>2012-05-06T08:45:56.000Z</time>
      </trkpt>
      <trkpt lat="43.53602" lon="2.85934">
        <ele>232</ele>
        <time>2012-05-06T08:45:57.000Z</time>
      </trkpt>
      <trkpt lat="43.53605" lon="2.85931">
        <ele>233</ele>
        <time>2012-05-06T08:45:58.000Z</time>
      </trkpt>
      <trkpt lat="43.53607" lon="2.85927">
        <ele>233.60000610352</ele>
        <time>2012-05-06T08:45:59.000Z</time>
      </trkpt>
      <trkpt lat="43.53608" lon="2.85924">
        <ele>234.19999694824</ele>
        <time>2012-05-06T08:46:00.000Z</time>
      </trkpt>
      <trkpt lat="43.53608" lon="2.8592">
        <ele>234.80000305176</ele>
        <time>2012-05-06T08:46:01.000Z</time>
      </trkpt>
      <trkpt lat="43.53606" lon="2.85916">
        <ele>235.19999694824</ele>
        <time>2012-05-06T08:46:02.000Z</time>
      </trkpt>
      <trkpt lat="43.53603" lon="2.85913">
        <ele>235.60000610352</ele>
        <time>2012-05-06T08:46:03.000Z</time>
      </trkpt>
      <trkpt lat="43.53599" lon="2.8591">
        <ele>235.80000305176</ele>
        <time>2012-05-06T08:46:04.000Z</time>
      </trkpt>
      <trkpt lat="43.53595" lon="2.85907">
        <ele>235.80000305176</ele>
        <time>2012-05-06T08:46:05.000Z</time>
      </trkpt>
      <trkpt lat="43.53592" lon="2.85905">
        <ele>236</ele>
        <time>2012-05-06T08:46:06.000Z</time>
      </trkpt>
      <trkpt lat="43.53589" lon="2.85903">
        <ele>236</ele>
        <time>2012-05-06T08:46:07.000Z</time>
      </trkpt>
      <trkpt lat="43.53586" lon="2.859">
        <ele>236.19999694824</ele>
        <time>2012-05-06T08:46:08.000Z</time>
      </trkpt>
      <trkpt lat="43.53583" lon="2.85897">
        <ele>236.60000610352</ele>
        <time>2012-05-06T08:46:09.000Z</time>
      </trkpt>
      <trkpt lat="43.53579" lon="2.85895">
        <ele>237</ele>
        <time>2012-05-06T08:46:10.000Z</time>
      </trkpt>
      <trkpt lat="43.53576" lon="2.85892">
        <ele>237.39999389648</ele>
        <time>2012-05-06T08:46:11.000Z</time>
      </trkpt>
      <trkpt lat="43.53574" lon="2.8589">
        <ele>237.60000610352</ele>
        <time>2012-05-06T08:46:12.000Z</time>
      </trkpt>
      <trkpt lat="43.53571" lon="2.85888">
        <ele>238</ele>
        <time>2012-05-06T08:46:13.000Z</time>
      </trkpt>
      <trkpt lat="43.53568" lon="2.85885">
        <ele>238.19999694824</ele>
        <time>2012-05-06T08:46:14.000Z</time>
      </trkpt>
      <trkpt lat="43.53564" lon="2.85883">
        <ele>238.60000610352</ele>
        <time>2012-05-06T08:46:15.000Z</time>
      </trkpt>
      <trkpt lat="43.53561" lon="2.8588">
        <ele>238.60000610352</ele>
        <time>2012-05-06T08:46:16.000Z</time>
      </trkpt>
      <trkpt lat="43.53557" lon="2.85878">
        <ele>238.80000305176</ele>
        <time>2012-05-06T08:46:17.000Z</time>
      </trkpt>
      <trkpt lat="43.53554" lon="2.85876">
        <ele>239</ele>
        <time>2012-05-06T08:46:18.000Z</time>
      </trkpt>
      <trkpt lat="43.53551" lon="2.85874">
        <ele>239</ele>
        <time>2012-05-06T08:46:19.000Z</time>
      </trkpt>
      <trkpt lat="43.53548" lon="2.85871">
        <ele>239</ele>
        <time>2012-05-06T08:46:20.000Z</time>
      </trkpt>
      <trkpt lat="43.53545" lon="2.85869">
        <ele>239</ele>
        <time>2012-05-06T08:46:21.000Z</time>
      </trkpt>
      <trkpt lat="43.53542" lon="2.85867">
        <ele>239.19999694824</ele>
        <time>2012-05-06T08:46:22.000Z</time>
      </trkpt>
      <trkpt lat="43.53538" lon="2.85865">
        <ele>239</ele>
        <time>2012-05-06T08:46:23.000Z</time>
      </trkpt>
      <trkpt lat="43.53534" lon="2.85862">
        <ele>238.80000305176</ele>
        <time>2012-05-06T08:46:24.000Z</time>
      </trkpt>
      <trkpt lat="43.5353" lon="2.8586">
        <ele>238.60000610352</ele>
        <time>2012-05-06T08:46:25.000Z</time>
      </trkpt>
      <trkpt lat="43.53527" lon="2.85858">
        <ele>238.60000610352</ele>
        <time>2012-05-06T08:46:26.000Z</time>
      </trkpt>
      <trkpt lat="43.53523" lon="2.85855">
        <ele>238.39999389648</ele>
        <time>2012-05-06T08:46:27.000Z</time>
      </trkpt>
      <trkpt lat="43.53519" lon="2.85852">
        <ele>238.19999694824</ele>
        <time>2012-05-06T08:46:28.000Z</time>
      </trkpt>
      <trkpt lat="43.53516" lon="2.8585">
        <ele>238</ele>
        <time>2012-05-06T08:46:29.000Z</time>
      </trkpt>
      <trkpt lat="43.53513" lon="2.85847">
        <ele>238</ele>
        <time>2012-05-06T08:46:30.000Z</time>
      </trkpt>
      <trkpt lat="43.5351" lon="2.85844">
        <ele>237.60000610352</ele>
        <time>2012-05-06T08:46:31.000Z</time>
      </trkpt>
      <trkpt lat="43.53506" lon="2.85841">
        <ele>237.39999389648</ele>
        <time>2012-05-06T08:46:32.000Z</time>
      </trkpt>
      <trkpt lat="43.53503" lon="2.85839">
        <ele>237</ele>
        <time>2012-05-06T08:46:33.000Z</time>
      </trkpt>
      <trkpt lat="43.535" lon="2.85836">
        <ele>236.60000610352</ele>
        <time>2012-05-06T08:46:34.000Z</time>
      </trkpt>
      <trkpt lat="43.53496" lon="2.85833">
        <ele>236.60000610352</ele>
        <time>2012-05-06T08:46:35.000Z</time>
      </trkpt>
      <trkpt lat="43.53493" lon="2.8583">
        <ele>236.80000305176</ele>
        <time>2012-05-06T08:46:36.000Z</time>
      </trkpt>
      <trkpt lat="43.5349" lon="2.85828">
        <ele>236.80000305176</ele>
        <time>2012-05-06T08:46:37.000Z</time>
      </trkpt>
      <trkpt lat="43.53487" lon="2.85824">
        <ele>236.80000305176</ele>
        <time>2012-05-06T08:46:38.000Z</time>
      </trkpt>
      <trkpt lat="43.53484" lon="2.85822">
        <ele>236.80000305176</ele>
        <time>2012-05-06T08:46:39.000Z</time>
      </trkpt>
      <trkpt lat="43.5348" lon="2.85819">
        <ele>236.60000610352</ele>
        <time>2012-05-06T08:46:40.000Z</time>
      </trkpt>
      <trkpt lat="43.53476" lon="2.85816">
        <ele>236.60000610352</ele>
        <time>2012-05-06T08:46:41.000Z</time>
      </trkpt>
      <trkpt lat="43.53473" lon="2.85813">
        <ele>236.60000610352</ele>
        <time>2012-05-06T08:46:42.000Z</time>
      </trkpt>
      <trkpt lat="43.53469" lon="2.8581">
        <ele>236.60000610352</ele>
        <time>2012-05-06T08:46:43.000Z</time>
      </trkpt>
      <trkpt lat="43.53466" lon="2.85807">
        <ele>236.60000610352</ele>
        <time>2012-05-06T08:46:44.000Z</time>
      </trkpt>
      <trkpt lat="43.53463" lon="2.85803">
        <ele>236.60000610352</ele>
        <time>2012-05-06T08:46:45.000Z</time>
      </trkpt>
      <trkpt lat="43.53459" lon="2.858">
        <ele>236.39999389648</ele>
        <time>2012-05-06T08:46:46.000Z</time>
      </trkpt>
      <trkpt lat="43.53457" lon="2.85797">
        <ele>236.39999389648</ele>
        <time>2012-05-06T08:46:47.000Z</time>
      </trkpt>
      <trkpt lat="43.53454" lon="2.85794">
        <ele>236.39999389648</ele>
        <time>2012-05-06T08:46:48.000Z</time>
      </trkpt>
      <trkpt lat="43.53451" lon="2.85792">
        <ele>236.19999694824</ele>
        <time>2012-05-06T08:46:49.000Z</time>
      </trkpt>
      <trkpt lat="43.53448" lon="2.85788">
        <ele>236.19999694824</ele>
        <time>2012-05-06T08:46:50.000Z</time>
      </trkpt>
      <trkpt lat="43.53445" lon="2.85784">
        <ele>236.19999694824</ele>
        <time>2012-05-06T08:46:51.000Z</time>
      </trkpt>
      <trkpt lat="43.53443" lon="2.8578">
        <ele>236.19999694824</ele>
        <time>2012-05-06T08:46:52.000Z</time>
      </trkpt>
      <trkpt lat="43.5344" lon="2.85776">
        <ele>236.39999389648</ele>
        <time>2012-05-06T08:46:53.000Z</time>
      </trkpt>
      <trkpt lat="43.53438" lon="2.85773">
        <ele>236.19999694824</ele>
        <time>2012-05-06T08:46:54.000Z</time>
      </trkpt>
      <trkpt lat="43.53435" lon="2.85769">
        <ele>236.19999694824</ele>
        <time>2012-05-06T08:46:55.000Z</time>
      </trkpt>
      <trkpt lat="43.53432" lon="2.85765">
        <ele>236.19999694824</ele>
        <time>2012-05-06T08:46:56.000Z</time>
      </trkpt>
      <trkpt lat="43.53429" lon="2.85761">
        <ele>236</ele>
        <time>2012-05-06T08:46:57.000Z</time>
      </trkpt>
      <trkpt lat="43.53426" lon="2.85757">
        <ele>236</ele>
        <time>2012-05-06T08:46:58.000Z</time>
      </trkpt>
      <trkpt lat="43.53423" lon="2.85753">
        <ele>235.80000305176</ele>
        <time>2012-05-06T08:46:59.000Z</time>
      </trkpt>
      <trkpt lat="43.53421" lon="2.85749">
        <ele>236</ele>
        <time>2012-05-06T08:47:00.000Z</time>
      </trkpt>
      <trkpt lat="43.53419" lon="2.85746">
        <ele>236</ele>
        <time>2012-05-06T08:47:01.000Z</time>
      </trkpt>
      <trkpt lat="43.53416" lon="2.85742">
        <ele>236.39999389648</ele>
        <time>2012-05-06T08:47:02.000Z</time>
      </trkpt>
      <trkpt lat="43.53413" lon="2.85738">
        <ele>236.39999389648</ele>
        <time>2012-05-06T08:47:03.000Z</time>
      </trkpt>
      <trkpt lat="43.5341" lon="2.85734">
        <ele>236.60000610352</ele>
        <time>2012-05-06T08:47:04.000Z</time>
      </trkpt>
      <trkpt lat="43.53408" lon="2.8573">
        <ele>236.60000610352</ele>
        <time>2012-05-06T08:47:05.000Z</time>
      </trkpt>
      <trkpt lat="43.53405" lon="2.85727">
        <ele>236.80000305176</ele>
        <time>2012-05-06T08:47:06.000Z</time>
      </trkpt>
      <trkpt lat="43.53402" lon="2.85724">
        <ele>236.80000305176</ele>
        <time>2012-05-06T08:47:07.000Z</time>
      </trkpt>
      <trkpt lat="43.534" lon="2.85721">
        <ele>236.80000305176</ele>
        <time>2012-05-06T08:47:08.000Z</time>
      </trkpt>
      <trkpt lat="43.53397" lon="2.85718">
        <ele>236.80000305176</ele>
        <time>2012-05-06T08:47:09.000Z</time>
      </trkpt>
      <trkpt lat="43.53394" lon="2.85715">
        <ele>236.60000610352</ele>
        <time>2012-05-06T08:47:10.000Z</time>
      </trkpt>
      <trkpt lat="43.53391" lon="2.85711">
        <ele>236.80000305176</ele>
        <time>2012-05-06T08:47:11.000Z</time>
      </trkpt>
      <trkpt lat="43.53388" lon="2.85708">
        <ele>236.80000305176</ele>
        <time>2012-05-06T08:47:12.000Z</time>
      </trkpt>
      <trkpt lat="43.53385" lon="2.85705">
        <ele>236.80000305176</ele>
        <time>2012-05-06T08:47:13.000Z</time>
      </trkpt>
      <trkpt lat="43.53382" lon="2.857">
        <ele>236.80000305176</ele>
        <time>2012-05-06T08:47:14.000Z</time>
      </trkpt>
      <trkpt lat="43.53379" lon="2.85696">
        <ele>237</ele>
        <time>2012-05-06T08:47:15.000Z</time>
      </trkpt>
      <trkpt lat="43.53377" lon="2.85692">
        <ele>237</ele>
        <time>2012-05-06T08:47:16.000Z</time>
      </trkpt>
      <trkpt lat="43.53375" lon="2.85688">
        <ele>237.19999694824</ele>
        <time>2012-05-06T08:47:17.000Z</time>
      </trkpt>
      <trkpt lat="43.53372" lon="2.85685">
        <ele>237.19999694824</ele>
        <time>2012-05-06T08:47:18.000Z</time>
      </trkpt>
      <trkpt lat="43.5337" lon="2.85681">
        <ele>237.39999389648</ele>
        <time>2012-05-06T08:47:19.000Z</time>
      </trkpt>
      <trkpt lat="43.53368" lon="2.85677">
        <ele>237.39999389648</ele>
        <time>2012-05-06T08:47:20.000Z</time>
      </trkpt>
      <trkpt lat="43.53365" lon="2.85674">
        <ele>237.39999389648</ele>
        <time>2012-05-06T08:47:21.000Z</time>
      </trkpt>
      <trkpt lat="43.53362" lon="2.8567">
        <ele>237.39999389648</ele>
        <time>2012-05-06T08:47:22.000Z</time>
      </trkpt>
      <trkpt lat="43.5336" lon="2.85667">
        <ele>237.39999389648</ele>
        <time>2012-05-06T08:47:23.000Z</time>
      </trkpt>
      <trkpt lat="43.53357" lon="2.85663">
        <ele>237.39999389648</ele>
        <time>2012-05-06T08:47:24.000Z</time>
      </trkpt>
      <trkpt lat="43.53355" lon="2.8566">
        <ele>237.39999389648</ele>
        <time>2012-05-06T08:47:25.000Z</time>
      </trkpt>
      <trkpt lat="43.53352" lon="2.85656">
        <ele>237.39999389648</ele>
        <time>2012-05-06T08:47:26.000Z</time>
      </trkpt>
      <trkpt lat="43.53349" lon="2.85653">
        <ele>237.39999389648</ele>
        <time>2012-05-06T08:47:27.000Z</time>
      </trkpt>
      <trkpt lat="43.53347" lon="2.85649">
        <ele>237.39999389648</ele>
        <time>2012-05-06T08:47:28.000Z</time>
      </trkpt>
      <trkpt lat="43.53345" lon="2.85646">
        <ele>237.39999389648</ele>
        <time>2012-05-06T08:47:29.000Z</time>
      </trkpt>
      <trkpt lat="43.53342" lon="2.85643">
        <ele>237.19999694824</ele>
        <time>2012-05-06T08:47:30.000Z</time>
      </trkpt>
      <trkpt lat="43.5334" lon="2.8564">
        <ele>237.19999694824</ele>
        <time>2012-05-06T08:47:31.000Z</time>
      </trkpt>
      <trkpt lat="43.53337" lon="2.85636">
        <ele>237.19999694824</ele>
        <time>2012-05-06T08:47:32.000Z</time>
      </trkpt>
      <trkpt lat="43.53335" lon="2.85633">
        <ele>237.19999694824</ele>
        <time>2012-05-06T08:47:33.000Z</time>
      </trkpt>
      <trkpt lat="43.53332" lon="2.85629">
        <ele>237.19999694824</ele>
        <time>2012-05-06T08:47:34.000Z</time>
      </trkpt>
      <trkpt lat="43.5333" lon="2.85625">
        <ele>237.39999389648</ele>
        <time>2012-05-06T08:47:35.000Z</time>
      </trkpt>
      <trkpt lat="43.53329" lon="2.85622">
        <ele>237.60000610352</ele>
        <time>2012-05-06T08:47:36.000Z</time>
      </trkpt>
      <trkpt lat="43.53327" lon="2.85618">
        <ele>237.80000305176</ele>
        <time>2012-05-06T08:47:37.000Z</time>
      </trkpt>
      <trkpt lat="43.53324" lon="2.85614">
        <ele>237.80000305176</ele>
        <time>2012-05-06T08:47:38.000Z</time>
      </trkpt>
      <trkpt lat="43.53322" lon="2.85611">
        <ele>237.80000305176</ele>
        <time>2012-05-06T08:47:39.000Z</time>
      </trkpt>
      <trkpt lat="43.5332" lon="2.85608">
        <ele>237.80000305176</ele>
        <time>2012-05-06T08:47:40.000Z</time>
      </trkpt>
      <trkpt lat="43.53318" lon="2.85603">
        <ele>237.80000305176</ele>
        <time>2012-05-06T08:47:41.000Z</time>
      </trkpt>
      <trkpt lat="43.53316" lon="2.85599">
        <ele>238</ele>
        <time>2012-05-06T08:47:42.000Z</time>
      </trkpt>
      <trkpt lat="43.53313" lon="2.85595">
        <ele>238</ele>
        <time>2012-05-06T08:47:43.000Z</time>
      </trkpt>
      <trkpt lat="43.53311" lon="2.85591">
        <ele>238</ele>
        <time>2012-05-06T08:47:44.000Z</time>
      </trkpt>
      <trkpt lat="43.53308" lon="2.85586">
        <ele>237.80000305176</ele>
        <time>2012-05-06T08:47:45.000Z</time>
      </trkpt>
      <trkpt lat="43.53305" lon="2.85582">
        <ele>237.60000610352</ele>
        <time>2012-05-06T08:47:46.000Z</time>
      </trkpt>
      <trkpt lat="43.53302" lon="2.85579">
        <ele>237</ele>
        <time>2012-05-06T08:47:47.000Z</time>
      </trkpt>
      <trkpt lat="43.533" lon="2.85576">
        <ele>236.60000610352</ele>
        <time>2012-05-06T08:47:48.000Z</time>
      </trkpt>
      <trkpt lat="43.53299" lon="2.85574">
        <ele>236.19999694824</ele>
        <time>2012-05-06T08:47:49.000Z</time>
      </trkpt>
      <trkpt lat="43.53298" lon="2.85573">
        <ele>236</ele>
        <time>2012-05-06T08:47:50.000Z</time>
      </trkpt>
      <trkpt lat="43.53295" lon="2.85572">
        <ele>235.60000610352</ele>
        <time>2012-05-06T08:47:51.000Z</time>
      </trkpt>
      <trkpt lat="43.53293" lon="2.85572">
        <ele>234.80000305176</ele>
        <time>2012-05-06T08:47:52.000Z</time>
      </trkpt>
      <trkpt lat="43.5329" lon="2.85573">
        <ele>234.19999694824</ele>
        <time>2012-05-06T08:47:53.000Z</time>
      </trkpt>
      <trkpt lat="43.53286" lon="2.85576">
        <ele>233.39999389648</ele>
        <time>2012-05-06T08:47:54.000Z</time>
      </trkpt>
      <trkpt lat="43.53283" lon="2.85579">
        <ele>232.60000610352</ele>
        <time>2012-05-06T08:47:55.000Z</time>
      </trkpt>
      <trkpt lat="43.5328" lon="2.85583">
        <ele>231.80000305176</ele>
        <time>2012-05-06T08:47:56.000Z</time>
      </trkpt>
      <trkpt lat="43.53277" lon="2.85586">
        <ele>231</ele>
        <time>2012-05-06T08:47:57.000Z</time>
      </trkpt>
      <trkpt lat="43.53274" lon="2.85589">
        <ele>230</ele>
        <time>2012-05-06T08:47:58.000Z</time>
      </trkpt>
      <trkpt lat="43.53272" lon="2.85592">
        <ele>229.19999694824</ele>
        <time>2012-05-06T08:47:59.000Z</time>
      </trkpt>
      <trkpt lat="43.5327" lon="2.85595">
        <ele>228.60000610352</ele>
        <time>2012-05-06T08:48:00.000Z</time>
      </trkpt>
      <trkpt lat="43.53269" lon="2.85601">
        <ele>228</ele>
        <time>2012-05-06T08:48:01.000Z</time>
      </trkpt>
      <trkpt lat="43.5327" lon="2.85606">
        <ele>227.60000610352</ele>
        <time>2012-05-06T08:48:02.000Z</time>
      </trkpt>
      <trkpt lat="43.53271" lon="2.85611">
        <ele>227.60000610352</ele>
        <time>2012-05-06T08:48:03.000Z</time>
      </trkpt>
      <trkpt lat="43.53274" lon="2.85614">
        <ele>227.80000305176</ele>
        <time>2012-05-06T08:48:04.000Z</time>
      </trkpt>
      <trkpt lat="43.53277" lon="2.85617">
        <ele>228.19999694824</ele>
        <time>2012-05-06T08:48:05.000Z</time>
      </trkpt>
      <trkpt lat="43.5328" lon="2.8562">
        <ele>228.39999389648</ele>
        <time>2012-05-06T08:48:06.000Z</time>
      </trkpt>
      <trkpt lat="43.53283" lon="2.85623">
        <ele>228.80000305176</ele>
        <time>2012-05-06T08:48:07.000Z</time>
      </trkpt>
      <trkpt lat="43.53286" lon="2.85626">
        <ele>229.19999694824</ele>
        <time>2012-05-06T08:48:08.000Z</time>
      </trkpt>
      <trkpt lat="43.53289" lon="2.85629">
        <ele>229.39999389648</ele>
        <time>2012-05-06T08:48:09.000Z</time>
      </trkpt>
      <trkpt lat="43.53291" lon="2.85632">
        <ele>229.39999389648</ele>
        <time>2012-05-06T08:48:10.000Z</time>
      </trkpt>
      <trkpt lat="43.53293" lon="2.85637">
        <ele>229.19999694824</ele>
        <time>2012-05-06T08:48:11.000Z</time>
      </trkpt>
      <trkpt lat="43.53294" lon="2.85641">
        <ele>229</ele>
        <time>2012-05-06T08:48:12.000Z</time>
      </trkpt>
      <trkpt lat="43.53292" lon="2.85644">
        <ele>228.39999389648</ele>
        <time>2012-05-06T08:48:13.000Z</time>
      </trkpt>
      <trkpt lat="43.53289" lon="2.85647">
        <ele>227.60000610352</ele>
        <time>2012-05-06T08:48:14.000Z</time>
      </trkpt>
      <trkpt lat="43.53285" lon="2.85649">
        <ele>226.80000305176</ele>
        <time>2012-05-06T08:48:15.000Z</time>
      </trkpt>
      <trkpt lat="43.53281" lon="2.85649">
        <ele>226</ele>
        <time>2012-05-06T08:48:16.000Z</time>
      </trkpt>
      <trkpt lat="43.53277" lon="2.85647">
        <ele>225.60000610352</ele>
        <time>2012-05-06T08:48:17.000Z</time>
      </trkpt>
      <trkpt lat="43.53273" lon="2.85645">
        <ele>225.19999694824</ele>
        <time>2012-05-06T08:48:18.000Z</time>
      </trkpt>
      <trkpt lat="43.5327" lon="2.85642">
        <ele>224.80000305176</ele>
        <time>2012-05-06T08:48:19.000Z</time>
      </trkpt>
      <trkpt lat="43.53268" lon="2.85639">
        <ele>224.80000305176</ele>
        <time>2012-05-06T08:48:20.000Z</time>
      </trkpt>
      <trkpt lat="43.53265" lon="2.85637">
        <ele>224.39999389648</ele>
        <time>2012-05-06T08:48:21.000Z</time>
      </trkpt>
      <trkpt lat="43.53262" lon="2.85637">
        <ele>223.80000305176</ele>
        <time>2012-05-06T08:48:22.000Z</time>
      </trkpt>
      <trkpt lat="43.53258" lon="2.85637">
        <ele>223</ele>
        <time>2012-05-06T08:48:23.000Z</time>
      </trkpt>
      <trkpt lat="43.53253" lon="2.85639">
        <ele>222.19999694824</ele>
        <time>2012-05-06T08:48:24.000Z</time>
      </trkpt>
      <trkpt lat="43.53249" lon="2.85641">
        <ele>221.60000610352</ele>
        <time>2012-05-06T08:48:25.000Z</time>
      </trkpt>
      <trkpt lat="43.53245" lon="2.85643">
        <ele>221.19999694824</ele>
        <time>2012-05-06T08:48:26.000Z</time>
      </trkpt>
      <trkpt lat="43.53241" lon="2.85644">
        <ele>221</ele>
        <time>2012-05-06T08:48:27.000Z</time>
      </trkpt>
      <trkpt lat="43.53238" lon="2.85644">
        <ele>221</ele>
        <time>2012-05-06T08:48:28.000Z</time>
      </trkpt>
      <trkpt lat="43.53235" lon="2.85641">
        <ele>221</ele>
        <time>2012-05-06T08:48:29.000Z</time>
      </trkpt>
      <trkpt lat="43.53232" lon="2.85638">
        <ele>221</ele>
        <time>2012-05-06T08:48:30.000Z</time>
      </trkpt>
      <trkpt lat="43.53229" lon="2.85634">
        <ele>221.19999694824</ele>
        <time>2012-05-06T08:48:31.000Z</time>
      </trkpt>
      <trkpt lat="43.53227" lon="2.8563">
        <ele>221.19999694824</ele>
        <time>2012-05-06T08:48:32.000Z</time>
      </trkpt>
      <trkpt lat="43.53224" lon="2.85625">
        <ele>221.39999389648</ele>
        <time>2012-05-06T08:48:33.000Z</time>
      </trkpt>
      <trkpt lat="43.53221" lon="2.85621">
        <ele>221.60000610352</ele>
        <time>2012-05-06T08:48:34.000Z</time>
      </trkpt>
      <trkpt lat="43.53218" lon="2.85616">
        <ele>221.60000610352</ele>
        <time>2012-05-06T08:48:35.000Z</time>
      </trkpt>
      <trkpt lat="43.53216" lon="2.85611">
        <ele>221.80000305176</ele>
        <time>2012-05-06T08:48:36.000Z</time>
      </trkpt>
      <trkpt lat="43.53213" lon="2.85608">
        <ele>221.80000305176</ele>
        <time>2012-05-06T08:48:37.000Z</time>
      </trkpt>
      <trkpt lat="43.53209" lon="2.85605">
        <ele>221.80000305176</ele>
        <time>2012-05-06T08:48:38.000Z</time>
      </trkpt>
      <trkpt lat="43.53205" lon="2.85605">
        <ele>221.80000305176</ele>
        <time>2012-05-06T08:48:39.000Z</time>
      </trkpt>
      <trkpt lat="43.53201" lon="2.85605">
        <ele>221.39999389648</ele>
        <time>2012-05-06T08:48:40.000Z</time>
      </trkpt>
      <trkpt lat="43.53197" lon="2.85606">
        <ele>221.19999694824</ele>
        <time>2012-05-06T08:48:41.000Z</time>
      </trkpt>
      <trkpt lat="43.53193" lon="2.85607">
        <ele>221</ele>
        <time>2012-05-06T08:48:42.000Z</time>
      </trkpt>
      <trkpt lat="43.53189" lon="2.85606">
        <ele>221</ele>
        <time>2012-05-06T08:48:43.000Z</time>
      </trkpt>
      <trkpt lat="43.53186" lon="2.85604">
        <ele>220.80000305176</ele>
        <time>2012-05-06T08:48:44.000Z</time>
      </trkpt>
      <trkpt lat="43.53183" lon="2.85601">
        <ele>221</ele>
        <time>2012-05-06T08:48:45.000Z</time>
      </trkpt>
      <trkpt lat="43.5318" lon="2.85597">
        <ele>221</ele>
        <time>2012-05-06T08:48:46.000Z</time>
      </trkpt>
      <trkpt lat="43.53177" lon="2.85595">
        <ele>221</ele>
        <time>2012-05-06T08:48:47.000Z</time>
      </trkpt>
      <trkpt lat="43.53175" lon="2.85592">
        <ele>221</ele>
        <time>2012-05-06T08:48:48.000Z</time>
      </trkpt>
      <trkpt lat="43.53172" lon="2.8559">
        <ele>221</ele>
        <time>2012-05-06T08:48:49.000Z</time>
      </trkpt>
      <trkpt lat="43.5317" lon="2.85588">
        <ele>221</ele>
        <time>2012-05-06T08:48:50.000Z</time>
      </trkpt>
      <trkpt lat="43.53167" lon="2.85586">
        <ele>220.80000305176</ele>
        <time>2012-05-06T08:48:51.000Z</time>
      </trkpt>
      <trkpt lat="43.53164" lon="2.85584">
        <ele>220.80000305176</ele>
        <time>2012-05-06T08:48:52.000Z</time>
      </trkpt>
      <trkpt lat="43.53162" lon="2.8558">
        <ele>220.80000305176</ele>
        <time>2012-05-06T08:48:53.000Z</time>
      </trkpt>
      <trkpt lat="43.53159" lon="2.85576">
        <ele>221</ele>
        <time>2012-05-06T08:48:54.000Z</time>
      </trkpt>
      <trkpt lat="43.53157" lon="2.85572">
        <ele>221</ele>
        <time>2012-05-06T08:48:55.000Z</time>
      </trkpt>
      <trkpt lat="43.53155" lon="2.85568">
        <ele>221</ele>
        <time>2012-05-06T08:48:56.000Z</time>
      </trkpt>
      <trkpt lat="43.53153" lon="2.85564">
        <ele>221</ele>
        <time>2012-05-06T08:48:57.000Z</time>
      </trkpt>
      <trkpt lat="43.53151" lon="2.8556">
        <ele>221</ele>
        <time>2012-05-06T08:48:58.000Z</time>
      </trkpt>
      <trkpt lat="43.53149" lon="2.85555">
        <ele>221</ele>
        <time>2012-05-06T08:48:59.000Z</time>
      </trkpt>
      <trkpt lat="43.53147" lon="2.85551">
        <ele>221.19999694824</ele>
        <time>2012-05-06T08:49:00.000Z</time>
      </trkpt>
      <trkpt lat="43.53145" lon="2.85547">
        <ele>221.19999694824</ele>
        <time>2012-05-06T08:49:01.000Z</time>
      </trkpt>
      <trkpt lat="43.53143" lon="2.85543">
        <ele>221.19999694824</ele>
        <time>2012-05-06T08:49:02.000Z</time>
      </trkpt>
      <trkpt lat="43.53141" lon="2.85539">
        <ele>221.19999694824</ele>
        <time>2012-05-06T08:49:03.000Z</time>
      </trkpt>
      <trkpt lat="43.53138" lon="2.85535">
        <ele>221.19999694824</ele>
        <time>2012-05-06T08:49:04.000Z</time>
      </trkpt>
      <trkpt lat="43.53135" lon="2.85532">
        <ele>221.19999694824</ele>
        <time>2012-05-06T08:49:05.000Z</time>
      </trkpt>
      <trkpt lat="43.53132" lon="2.85529">
        <ele>221</ele>
        <time>2012-05-06T08:49:06.000Z</time>
      </trkpt>
      <trkpt lat="43.53128" lon="2.85527">
        <ele>220.80000305176</ele>
        <time>2012-05-06T08:49:07.000Z</time>
      </trkpt>
      <trkpt lat="43.53124" lon="2.85526">
        <ele>220.60000610352</ele>
        <time>2012-05-06T08:49:08.000Z</time>
      </trkpt>
      <trkpt lat="43.5312" lon="2.85525">
        <ele>220.39999389648</ele>
        <time>2012-05-06T08:49:09.000Z</time>
      </trkpt>
      <trkpt lat="43.53116" lon="2.85525">
        <ele>220.19999694824</ele>
        <time>2012-05-06T08:49:10.000Z</time>
      </trkpt>
      <trkpt lat="43.53111" lon="2.85523">
        <ele>220</ele>
        <time>2012-05-06T08:49:11.000Z</time>
      </trkpt>
      <trkpt lat="43.53107" lon="2.8552">
        <ele>219.80000305176</ele>
        <time>2012-05-06T08:49:12.000Z</time>
      </trkpt>
      <trkpt lat="43.53104" lon="2.85515">
        <ele>219.80000305176</ele>
        <time>2012-05-06T08:49:13.000Z</time>
      </trkpt>
      <trkpt lat="43.53102" lon="2.85511">
        <ele>219.80000305176</ele>
        <time>2012-05-06T08:49:14.000Z</time>
      </trkpt>
      <trkpt lat="43.531" lon="2.85505">
        <ele>219.80000305176</ele>
        <time>2012-05-06T08:49:15.000Z</time>
      </trkpt>
      <trkpt lat="43.53098" lon="2.855">
        <ele>219.80000305176</ele>
        <time>2012-05-06T08:49:16.000Z</time>
      </trkpt>
      <trkpt lat="43.53097" lon="2.85494">
        <ele>219.80000305176</ele>
        <time>2012-05-06T08:49:17.000Z</time>
      </trkpt>
      <trkpt lat="43.53096" lon="2.85489">
        <ele>219.60000610352</ele>
        <time>2012-05-06T08:49:18.000Z</time>
      </trkpt>
      <trkpt lat="43.53095" lon="2.85484">
        <ele>219.39999389648</ele>
        <time>2012-05-06T08:49:19.000Z</time>
      </trkpt>
      <trkpt lat="43.53094" lon="2.8548">
        <ele>219.19999694824</ele>
        <time>2012-05-06T08:49:20.000Z</time>
      </trkpt>
      <trkpt lat="43.53093" lon="2.85475">
        <ele>219.19999694824</ele>
        <time>2012-05-06T08:49:21.000Z</time>
      </trkpt>
      <trkpt lat="43.53092" lon="2.8547">
        <ele>219</ele>
        <time>2012-05-06T08:49:22.000Z</time>
      </trkpt>
      <trkpt lat="43.53091" lon="2.85465">
        <ele>218.80000305176</ele>
        <time>2012-05-06T08:49:23.000Z</time>
      </trkpt>
      <trkpt lat="43.5309" lon="2.8546">
        <ele>218.60000610352</ele>
        <time>2012-05-06T08:49:24.000Z</time>
      </trkpt>
      <trkpt lat="43.53089" lon="2.85455">
        <ele>218.39999389648</ele>
        <time>2012-05-06T08:49:25.000Z</time>
      </trkpt>
      <trkpt lat="43.53089" lon="2.8545">
        <ele>218.19999694824</ele>
        <time>2012-05-06T08:49:26.000Z</time>
      </trkpt>
      <trkpt lat="43.53089" lon="2.85446">
        <ele>218.19999694824</ele>
        <time>2012-05-06T08:49:27.000Z</time>
      </trkpt>
      <trkpt lat="43.53088" lon="2.85441">
        <ele>218</ele>
        <time>2012-05-06T08:49:28.000Z</time>
      </trkpt>
      <trkpt lat="43.53086" lon="2.85437">
        <ele>217.80000305176</ele>
        <time>2012-05-06T08:49:29.000Z</time>
      </trkpt>
      <trkpt lat="43.53084" lon="2.85434">
        <ele>217.39999389648</ele>
        <time>2012-05-06T08:49:30.000Z</time>
      </trkpt>
      <trkpt lat="43.53081" lon="2.85432">
        <ele>217.39999389648</ele>
        <time>2012-05-06T08:49:31.000Z</time>
      </trkpt>
      <trkpt lat="43.53077" lon="2.85432">
        <ele>217.60000610352</ele>
        <time>2012-05-06T08:49:32.000Z</time>
      </trkpt>
      <trkpt lat="43.53073" lon="2.85433">
        <ele>217.60000610352</ele>
        <time>2012-05-06T08:49:33.000Z</time>
      </trkpt>
      <trkpt lat="43.5307" lon="2.85433">
        <ele>217.80000305176</ele>
        <time>2012-05-06T08:49:34.000Z</time>
      </trkpt>
      <trkpt lat="43.53066" lon="2.85433">
        <ele>218</ele>
        <time>2012-05-06T08:49:35.000Z</time>
      </trkpt>
      <trkpt lat="43.53063" lon="2.85433">
        <ele>218</ele>
        <time>2012-05-06T08:49:36.000Z</time>
      </trkpt>
      <trkpt lat="43.53059" lon="2.85434">
        <ele>218.19999694824</ele>
        <time>2012-05-06T08:49:37.000Z</time>
      </trkpt>
      <trkpt lat="43.53055" lon="2.85434">
        <ele>218.19999694824</ele>
        <time>2012-05-06T08:49:38.000Z</time>
      </trkpt>
      <trkpt lat="43.53052" lon="2.85434">
        <ele>218.39999389648</ele>
        <time>2012-05-06T08:49:39.000Z</time>
      </trkpt>
      <trkpt lat="43.53048" lon="2.85435">
        <ele>218.60000610352</ele>
        <time>2012-05-06T08:49:40.000Z</time>
      </trkpt>
      <trkpt lat="43.53044" lon="2.85436">
        <ele>218.80000305176</ele>
        <time>2012-05-06T08:49:41.000Z</time>
      </trkpt>
      <trkpt lat="43.5304" lon="2.85437">
        <ele>218.80000305176</ele>
        <time>2012-05-06T08:49:42.000Z</time>
      </trkpt>
      <trkpt lat="43.53036" lon="2.85438">
        <ele>219</ele>
        <time>2012-05-06T08:49:43.000Z</time>
      </trkpt>
      <trkpt lat="43.53032" lon="2.85439">
        <ele>219.19999694824</ele>
        <time>2012-05-06T08:49:44.000Z</time>
      </trkpt>
      <trkpt lat="43.53028" lon="2.85439">
        <ele>219.39999389648</ele>
        <time>2012-05-06T08:49:45.000Z</time>
      </trkpt>
      <trkpt lat="43.53024" lon="2.85439">
        <ele>219.60000610352</ele>
        <time>2012-05-06T08:49:46.000Z</time>
      </trkpt>
      <trkpt lat="43.5302" lon="2.8544">
        <ele>219.80000305176</ele>
        <time>2012-05-06T08:49:47.000Z</time>
      </trkpt>
      <trkpt lat="43.53016" lon="2.85442">
        <ele>220</ele>
        <time>2012-05-06T08:49:48.000Z</time>
      </trkpt>
      <trkpt lat="43.53012" lon="2.85444">
        <ele>220.19999694824</ele>
        <time>2012-05-06T08:49:49.000Z</time>
      </trkpt>
      <trkpt lat="43.53008" lon="2.85447">
        <ele>220.39999389648</ele>
        <time>2012-05-06T08:49:50.000Z</time>
      </trkpt>
      <trkpt lat="43.53006" lon="2.8545">
        <ele>220.80000305176</ele>
        <time>2012-05-06T08:49:51.000Z</time>
      </trkpt>
      <trkpt lat="43.53004" lon="2.85454">
        <ele>221.19999694824</ele>
        <time>2012-05-06T08:49:52.000Z</time>
      </trkpt>
      <trkpt lat="43.53003" lon="2.85459">
        <ele>221.39999389648</ele>
        <time>2012-05-06T08:49:53.000Z</time>
      </trkpt>
      <trkpt lat="43.53003" lon="2.85464">
        <ele>221.80000305176</ele>
        <time>2012-05-06T08:49:54.000Z</time>
      </trkpt>
      <trkpt lat="43.53002" lon="2.8547">
        <ele>222.19999694824</ele>
        <time>2012-05-06T08:49:55.000Z</time>
      </trkpt>
      <trkpt lat="43.53002" lon="2.85477">
        <ele>222.39999389648</ele>
        <time>2012-05-06T08:49:56.000Z</time>
      </trkpt>
      <trkpt lat="43.53003" lon="2.85482">
        <ele>222.80000305176</ele>
        <time>2012-05-06T08:49:57.000Z</time>
      </trkpt>
      <trkpt lat="43.53004" lon="2.85488">
        <ele>223</ele>
        <time>2012-05-06T08:49:58.000Z</time>
      </trkpt>
      <trkpt lat="43.53005" lon="2.85493">
        <ele>223.39999389648</ele>
        <time>2012-05-06T08:49:59.000Z</time>
      </trkpt>
      <trkpt lat="43.53006" lon="2.85498">
        <ele>223.60000610352</ele>
        <time>2012-05-06T08:50:00.000Z</time>
      </trkpt>
      <trkpt lat="43.53008" lon="2.85504">
        <ele>223.60000610352</ele>
        <time>2012-05-06T08:50:01.000Z</time>
      </trkpt>
      <trkpt lat="43.5301" lon="2.85508">
        <ele>223.60000610352</ele>
        <time>2012-05-06T08:50:02.000Z</time>
      </trkpt>
      <trkpt lat="43.53012" lon="2.85513">
        <ele>223.60000610352</ele>
        <time>2012-05-06T08:50:03.000Z</time>
      </trkpt>
      <trkpt lat="43.53015" lon="2.85518">
        <ele>223.60000610352</ele>
        <time>2012-05-06T08:50:04.000Z</time>
      </trkpt>
      <trkpt lat="43.53018" lon="2.85523">
        <ele>223.39999389648</ele>
        <time>2012-05-06T08:50:05.000Z</time>
      </trkpt>
      <trkpt lat="43.5302" lon="2.85527">
        <ele>223.39999389648</ele>
        <time>2012-05-06T08:50:06.000Z</time>
      </trkpt>
      <trkpt lat="43.53022" lon="2.85532">
        <ele>223.19999694824</ele>
        <time>2012-05-06T08:50:07.000Z</time>
      </trkpt>
      <trkpt lat="43.53024" lon="2.85537">
        <ele>223.19999694824</ele>
        <time>2012-05-06T08:50:08.000Z</time>
      </trkpt>
      <trkpt lat="43.53027" lon="2.85541">
        <ele>223</ele>
        <time>2012-05-06T08:50:09.000Z</time>
      </trkpt>
      <trkpt lat="43.5303" lon="2.85546">
        <ele>222.80000305176</ele>
        <time>2012-05-06T08:50:10.000Z</time>
      </trkpt>
      <trkpt lat="43.53032" lon="2.8555">
        <ele>222.60000610352</ele>
        <time>2012-05-06T08:50:11.000Z</time>
      </trkpt>
      <trkpt lat="43.53035" lon="2.85554">
        <ele>222.60000610352</ele>
        <time>2012-05-06T08:50:12.000Z</time>
      </trkpt>
      <trkpt lat="43.53037" lon="2.85559">
        <ele>222.39999389648</ele>
        <time>2012-05-06T08:50:13.000Z</time>
      </trkpt>
      <trkpt lat="43.5304" lon="2.85563">
        <ele>222</ele>
        <time>2012-05-06T08:50:14.000Z</time>
      </trkpt>
      <trkpt lat="43.53042" lon="2.85568">
        <ele>221.80000305176</ele>
        <time>2012-05-06T08:50:15.000Z</time>
      </trkpt>
      <trkpt lat="43.53044" lon="2.85572">
        <ele>221.60000610352</ele>
        <time>2012-05-06T08:50:16.000Z</time>
      </trkpt>
      <trkpt lat="43.53046" lon="2.85577">
        <ele>221.39999389648</ele>
        <time>2012-05-06T08:50:17.000Z</time>
      </trkpt>
      <trkpt lat="43.53048" lon="2.85582">
        <ele>221.19999694824</ele>
        <time>2012-05-06T08:50:18.000Z</time>
      </trkpt>
      <trkpt lat="43.53049" lon="2.85586">
        <ele>221</ele>
        <time>2012-05-06T08:50:19.000Z</time>
      </trkpt>
      <trkpt lat="43.53051" lon="2.85591">
        <ele>220.60000610352</ele>
        <time>2012-05-06T08:50:20.000Z</time>
      </trkpt>
      <trkpt lat="43.53053" lon="2.85596">
        <ele>220.19999694824</ele>
        <time>2012-05-06T08:50:21.000Z</time>
      </trkpt>
      <trkpt lat="43.53055" lon="2.85601">
        <ele>219.80000305176</ele>
        <time>2012-05-06T08:50:22.000Z</time>
      </trkpt>
      <trkpt lat="43.53056" lon="2.85606">
        <ele>219.60000610352</ele>
        <time>2012-05-06T08:50:23.000Z</time>
      </trkpt>
      <trkpt lat="43.53058" lon="2.85611">
        <ele>219.19999694824</ele>
        <time>2012-05-06T08:50:24.000Z</time>
      </trkpt>
      <trkpt lat="43.53059" lon="2.85616">
        <ele>218.80000305176</ele>
        <time>2012-05-06T08:50:25.000Z</time>
      </trkpt>
      <trkpt lat="43.5306" lon="2.85622">
        <ele>218.60000610352</ele>
        <time>2012-05-06T08:50:26.000Z</time>
      </trkpt>
      <trkpt lat="43.53059" lon="2.85627">
        <ele>218.60000610352</ele>
        <time>2012-05-06T08:50:27.000Z</time>
      </trkpt>
      <trkpt lat="43.53058" lon="2.85632">
        <ele>218.60000610352</ele>
        <time>2012-05-06T08:50:28.000Z</time>
      </trkpt>
      <trkpt lat="43.53055" lon="2.85637">
        <ele>218.60000610352</ele>
        <time>2012-05-06T08:50:29.000Z</time>
      </trkpt>
      <trkpt lat="43.53051" lon="2.8564">
        <ele>218.80000305176</ele>
        <time>2012-05-06T08:50:30.000Z</time>
      </trkpt>
      <trkpt lat="43.53047" lon="2.85643">
        <ele>219</ele>
        <time>2012-05-06T08:50:31.000Z</time>
      </trkpt>
      <trkpt lat="43.53044" lon="2.85646">
        <ele>219.19999694824</ele>
        <time>2012-05-06T08:50:32.000Z</time>
      </trkpt>
      <trkpt lat="43.5304" lon="2.85647">
        <ele>219.39999389648</ele>
        <time>2012-05-06T08:50:33.000Z</time>
      </trkpt>
      <trkpt lat="43.53037" lon="2.85649">
        <ele>219.60000610352</ele>
        <time>2012-05-06T08:50:34.000Z</time>
      </trkpt>
      <trkpt lat="43.53033" lon="2.85651">
        <ele>219.80000305176</ele>
        <time>2012-05-06T08:50:35.000Z</time>
      </trkpt>
      <trkpt lat="43.5303" lon="2.85653">
        <ele>220</ele>
        <time>2012-05-06T08:50:36.000Z</time>
      </trkpt>
      <trkpt lat="43.53027" lon="2.85654">
        <ele>220</ele>
        <time>2012-05-06T08:50:37.000Z</time>
      </trkpt>
      <trkpt lat="43.53024" lon="2.85655">
        <ele>220.19999694824</ele>
        <time>2012-05-06T08:50:38.000Z</time>
      </trkpt>
      <trkpt lat="43.53021" lon="2.85656">
        <ele>220.39999389648</ele>
        <time>2012-05-06T08:50:39.000Z</time>
      </trkpt>
      <trkpt lat="43.53017" lon="2.85658">
        <ele>220.39999389648</ele>
        <time>2012-05-06T08:50:40.000Z</time>
      </trkpt>
      <trkpt lat="43.53014" lon="2.85659">
        <ele>220.60000610352</ele>
        <time>2012-05-06T08:50:41.000Z</time>
      </trkpt>
      <trkpt lat="43.5301" lon="2.8566">
        <ele>220.80000305176</ele>
        <time>2012-05-06T08:50:42.000Z</time>
      </trkpt>
      <trkpt lat="43.53007" lon="2.85661">
        <ele>221</ele>
        <time>2012-05-06T08:50:43.000Z</time>
      </trkpt>
      <trkpt lat="43.53003" lon="2.85663">
        <ele>221</ele>
        <time>2012-05-06T08:50:44.000Z</time>
      </trkpt>
      <trkpt lat="43.53" lon="2.85665">
        <ele>221.19999694824</ele>
        <time>2012-05-06T08:50:45.000Z</time>
      </trkpt>
      <trkpt lat="43.52996" lon="2.85665">
        <ele>221.39999389648</ele>
        <time>2012-05-06T08:50:46.000Z</time>
      </trkpt>
      <trkpt lat="43.52993" lon="2.85667">
        <ele>221.60000610352</ele>
        <time>2012-05-06T08:50:47.000Z</time>
      </trkpt>
      <trkpt lat="43.5299" lon="2.85668">
        <ele>222</ele>
        <time>2012-05-06T08:50:48.000Z</time>
      </trkpt>
      <trkpt lat="43.52987" lon="2.8567">
        <ele>222.39999389648</ele>
        <time>2012-05-06T08:50:49.000Z</time>
      </trkpt>
      <trkpt lat="43.52984" lon="2.85671">
        <ele>222.80000305176</ele>
        <time>2012-05-06T08:50:50.000Z</time>
      </trkpt>
      <trkpt lat="43.52981" lon="2.85673">
        <ele>223.19999694824</ele>
        <time>2012-05-06T08:50:51.000Z</time>
      </trkpt>
      <trkpt lat="43.52978" lon="2.85676">
        <ele>223.60000610352</ele>
        <time>2012-05-06T08:50:52.000Z</time>
      </trkpt>
      <trkpt lat="43.52974" lon="2.85678">
        <ele>224</ele>
        <time>2012-05-06T08:50:53.000Z</time>
      </trkpt>
      <trkpt lat="43.52972" lon="2.85681">
        <ele>224.39999389648</ele>
        <time>2012-05-06T08:50:54.000Z</time>
      </trkpt>
      <trkpt lat="43.5297" lon="2.85685">
        <ele>224.60000610352</ele>
        <time>2012-05-06T08:50:55.000Z</time>
      </trkpt>
      <trkpt lat="43.52968" lon="2.85689">
        <ele>224.80000305176</ele>
        <time>2012-05-06T08:50:56.000Z</time>
      </trkpt>
      <trkpt lat="43.52968" lon="2.85693">
        <ele>225</ele>
        <time>2012-05-06T08:50:57.000Z</time>
      </trkpt>
      <trkpt lat="43.52968" lon="2.85698">
        <ele>225.19999694824</ele>
        <time>2012-05-06T08:50:58.000Z</time>
      </trkpt>
      <trkpt lat="43.52969" lon="2.85703">
        <ele>225.39999389648</ele>
        <time>2012-05-06T08:50:59.000Z</time>
      </trkpt>
      <trkpt lat="43.5297" lon="2.85708">
        <ele>225.39999389648</ele>
        <time>2012-05-06T08:51:00.000Z</time>
      </trkpt>
      <trkpt lat="43.52972" lon="2.85712">
        <ele>225.60000610352</ele>
        <time>2012-05-06T08:51:01.000Z</time>
      </trkpt>
      <trkpt lat="43.52973" lon="2.85717">
        <ele>225.60000610352</ele>
        <time>2012-05-06T08:51:02.000Z</time>
      </trkpt>
      <trkpt lat="43.52975" lon="2.85722">
        <ele>225.80000305176</ele>
        <time>2012-05-06T08:51:03.000Z</time>
      </trkpt>
      <trkpt lat="43.52976" lon="2.85727">
        <ele>225.80000305176</ele>
        <time>2012-05-06T08:51:04.000Z</time>
      </trkpt>
      <trkpt lat="43.52977" lon="2.85731">
        <ele>226</ele>
        <time>2012-05-06T08:51:05.000Z</time>
      </trkpt>
      <trkpt lat="43.52978" lon="2.85736">
        <ele>226.19999694824</ele>
        <time>2012-05-06T08:51:06.000Z</time>
      </trkpt>
      <trkpt lat="43.52978" lon="2.8574">
        <ele>226.39999389648</ele>
        <time>2012-05-06T08:51:07.000Z</time>
      </trkpt>
      <trkpt lat="43.52977" lon="2.85744">
        <ele>226.60000610352</ele>
        <time>2012-05-06T08:51:08.000Z</time>
      </trkpt>
      <trkpt lat="43.52975" lon="2.85749">
        <ele>226.80000305176</ele>
        <time>2012-05-06T08:51:09.000Z</time>
      </trkpt>
      <trkpt lat="43.52974" lon="2.85754">
        <ele>227.60000610352</ele>
        <time>2012-05-06T08:51:10.000Z</time>
      </trkpt>
      <trkpt lat="43.52972" lon="2.85759">
        <ele>228.39999389648</ele>
        <time>2012-05-06T08:51:11.000Z</time>
      </trkpt>
      <trkpt lat="43.52969" lon="2.85763">
        <ele>229.19999694824</ele>
        <time>2012-05-06T08:51:12.000Z</time>
      </trkpt>
      <trkpt lat="43.52966" lon="2.85768">
        <ele>230</ele>
        <time>2012-05-06T08:51:13.000Z</time>
      </trkpt>
      <trkpt lat="43.52962" lon="2.85772">
        <ele>231</ele>
        <time>2012-05-06T08:51:14.000Z</time>
      </trkpt>
      <trkpt lat="43.52959" lon="2.85776">
        <ele>231.80000305176</ele>
        <time>2012-05-06T08:51:15.000Z</time>
      </trkpt>
      <trkpt lat="43.52955" lon="2.85779">
        <ele>232.39999389648</ele>
        <time>2012-05-06T08:51:16.000Z</time>
      </trkpt>
      <trkpt lat="43.52952" lon="2.8578">
        <ele>232.80000305176</ele>
        <time>2012-05-06T08:51:17.000Z</time>
      </trkpt>
      <trkpt lat="43.52948" lon="2.85781">
        <ele>233</ele>
        <time>2012-05-06T08:51:18.000Z</time>
      </trkpt>
      <trkpt lat="43.52944" lon="2.85782">
        <ele>233.60000610352</ele>
        <time>2012-05-06T08:51:19.000Z</time>
      </trkpt>
      <trkpt lat="43.5294" lon="2.85782">
        <ele>233.80000305176</ele>
        <time>2012-05-06T08:51:20.000Z</time>
      </trkpt>
      <trkpt lat="43.52937" lon="2.85782">
        <ele>233.80000305176</ele>
        <time>2012-05-06T08:51:21.000Z</time>
      </trkpt>
      <trkpt lat="43.52934" lon="2.85781">
        <ele>233.80000305176</ele>
        <time>2012-05-06T08:51:22.000Z</time>
      </trkpt>
      <trkpt lat="43.5293" lon="2.85779">
        <ele>233.80000305176</ele>
        <time>2012-05-06T08:51:23.000Z</time>
      </trkpt>
      <trkpt lat="43.52927" lon="2.85777">
        <ele>233.60000610352</ele>
        <time>2012-05-06T08:51:24.000Z</time>
      </trkpt>
      <trkpt lat="43.52923" lon="2.85776">
        <ele>233.60000610352</ele>
        <time>2012-05-06T08:51:25.000Z</time>
      </trkpt>
      <trkpt lat="43.52919" lon="2.85774">
        <ele>233.39999389648</ele>
        <time>2012-05-06T08:51:26.000Z</time>
      </trkpt>
      <trkpt lat="43.52916" lon="2.85773">
        <ele>233.39999389648</ele>
        <time>2012-05-06T08:51:27.000Z</time>
      </trkpt>
      <trkpt lat="43.52912" lon="2.85771">
        <ele>233.39999389648</ele>
        <time>2012-05-06T08:51:28.000Z</time>
      </trkpt>
      <trkpt lat="43.52909" lon="2.85768">
        <ele>233.39999389648</ele>
        <time>2012-05-06T08:51:29.000Z</time>
      </trkpt>
      <trkpt lat="43.52906" lon="2.85766">
        <ele>233.39999389648</ele>
        <time>2012-05-06T08:51:30.000Z</time>
      </trkpt>
      <trkpt lat="43.52903" lon="2.85764">
        <ele>233.19999694824</ele>
        <time>2012-05-06T08:51:31.000Z</time>
      </trkpt>
      <trkpt lat="43.529" lon="2.85762">
        <ele>233</ele>
        <time>2012-05-06T08:51:32.000Z</time>
      </trkpt>
      <trkpt lat="43.52897" lon="2.8576">
        <ele>232.80000305176</ele>
        <time>2012-05-06T08:51:33.000Z</time>
      </trkpt>
      <trkpt lat="43.52894" lon="2.85757">
        <ele>232.60000610352</ele>
        <time>2012-05-06T08:51:34.000Z</time>
      </trkpt>
      <trkpt lat="43.52891" lon="2.85756">
        <ele>232.39999389648</ele>
        <time>2012-05-06T08:51:35.000Z</time>
      </trkpt>
      <trkpt lat="43.52888" lon="2.85754">
        <ele>232.19999694824</ele>
        <time>2012-05-06T08:51:36.000Z</time>
      </trkpt>
      <trkpt lat="43.52886" lon="2.85752">
        <ele>232</ele>
        <time>2012-05-06T08:51:37.000Z</time>
      </trkpt>
      <trkpt lat="43.52882" lon="2.8575">
        <ele>231.80000305176</ele>
        <time>2012-05-06T08:51:38.000Z</time>
      </trkpt>
      <trkpt lat="43.52879" lon="2.85748">
        <ele>232</ele>
        <time>2012-05-06T08:51:39.000Z</time>
      </trkpt>
      <trkpt lat="43.52876" lon="2.85746">
        <ele>232.19999694824</ele>
        <time>2012-05-06T08:51:40.000Z</time>
      </trkpt>
      <trkpt lat="43.52873" lon="2.85744">
        <ele>232.39999389648</ele>
        <time>2012-05-06T08:51:41.000Z</time>
      </trkpt>
      <trkpt lat="43.5287" lon="2.85742">
        <ele>232.60000610352</ele>
        <time>2012-05-06T08:51:42.000Z</time>
      </trkpt>
      <trkpt lat="43.52867" lon="2.85741">
        <ele>232.80000305176</ele>
        <time>2012-05-06T08:51:43.000Z</time>
      </trkpt>
      <trkpt lat="43.52864" lon="2.8574">
        <ele>233</ele>
        <time>2012-05-06T08:51:44.000Z</time>
      </trkpt>
      <trkpt lat="43.52861" lon="2.8574">
        <ele>233.39999389648</ele>
        <time>2012-05-06T08:51:45.000Z</time>
      </trkpt>
      <trkpt lat="43.52857" lon="2.8574">
        <ele>233.60000610352</ele>
        <time>2012-05-06T08:51:46.000Z</time>
      </trkpt>
      <trkpt lat="43.52854" lon="2.8574">
        <ele>233.80000305176</ele>
        <time>2012-05-06T08:51:47.000Z</time>
      </trkpt>
      <trkpt lat="43.5285" lon="2.85739">
        <ele>234</ele>
        <time>2012-05-06T08:51:48.000Z</time>
      </trkpt>
      <trkpt lat="43.52847" lon="2.85739">
        <ele>234.39999389648</ele>
        <time>2012-05-06T08:51:49.000Z</time>
      </trkpt>
      <trkpt lat="43.52844" lon="2.85739">
        <ele>234.60000610352</ele>
        <time>2012-05-06T08:51:50.000Z</time>
      </trkpt>
      <trkpt lat="43.5284" lon="2.85739">
        <ele>234.80000305176</ele>
        <time>2012-05-06T08:51:51.000Z</time>
      </trkpt>
      <trkpt lat="43.52838" lon="2.85738">
        <ele>235</ele>
        <time>2012-05-06T08:51:52.000Z</time>
      </trkpt>
      <trkpt lat="43.52834" lon="2.85738">
        <ele>235.19999694824</ele>
        <time>2012-05-06T08:51:53.000Z</time>
      </trkpt>
      <trkpt lat="43.52831" lon="2.85738">
        <ele>235.19999694824</ele>
        <time>2012-05-06T08:51:54.000Z</time>
      </trkpt>
      <trkpt lat="43.52828" lon="2.85738">
        <ele>235.19999694824</ele>
        <time>2012-05-06T08:51:55.000Z</time>
      </trkpt>
      <trkpt lat="43.52825" lon="2.85737">
        <ele>235.19999694824</ele>
        <time>2012-05-06T08:51:56.000Z</time>
      </trkpt>
      <trkpt lat="43.52821" lon="2.85737">
        <ele>235.19999694824</ele>
        <time>2012-05-06T08:51:57.000Z</time>
      </trkpt>
      <trkpt lat="43.52818" lon="2.85737">
        <ele>235.19999694824</ele>
        <time>2012-05-06T08:51:58.000Z</time>
      </trkpt>
      <trkpt lat="43.52815" lon="2.85738">
        <ele>235.19999694824</ele>
        <time>2012-05-06T08:51:59.000Z</time>
      </trkpt>
      <trkpt lat="43.52812" lon="2.85738">
        <ele>235.19999694824</ele>
        <time>2012-05-06T08:52:00.000Z</time>
      </trkpt>
      <trkpt lat="43.52809" lon="2.85738">
        <ele>235.19999694824</ele>
        <time>2012-05-06T08:52:01.000Z</time>
      </trkpt>
      <trkpt lat="43.52806" lon="2.85738">
        <ele>235.19999694824</ele>
        <time>2012-05-06T08:52:02.000Z</time>
      </trkpt>
      <trkpt lat="43.52802" lon="2.85738">
        <ele>235.19999694824</ele>
        <time>2012-05-06T08:52:03.000Z</time>
      </trkpt>
      <trkpt lat="43.52799" lon="2.85739">
        <ele>235.19999694824</ele>
        <time>2012-05-06T08:52:04.000Z</time>
      </trkpt>
      <trkpt lat="43.52796" lon="2.85739">
        <ele>235.19999694824</ele>
        <time>2012-05-06T08:52:05.000Z</time>
      </trkpt>
      <trkpt lat="43.52793" lon="2.8574">
        <ele>235.19999694824</ele>
        <time>2012-05-06T08:52:06.000Z</time>
      </trkpt>
      <trkpt lat="43.5279" lon="2.85741">
        <ele>235</ele>
        <time>2012-05-06T08:52:07.000Z</time>
      </trkpt>
      <trkpt lat="43.52787" lon="2.85741">
        <ele>235</ele>
        <time>2012-05-06T08:52:08.000Z</time>
      </trkpt>
      <trkpt lat="43.52784" lon="2.85742">
        <ele>235</ele>
        <time>2012-05-06T08:52:09.000Z</time>
      </trkpt>
      <trkpt lat="43.52781" lon="2.85743">
        <ele>235</ele>
        <time>2012-05-06T08:52:10.000Z</time>
      </trkpt>
      <trkpt lat="43.52778" lon="2.85743">
        <ele>235</ele>
        <time>2012-05-06T08:52:11.000Z</time>
      </trkpt>
      <trkpt lat="43.52775" lon="2.85744">
        <ele>234.80000305176</ele>
        <time>2012-05-06T08:52:12.000Z</time>
      </trkpt>
      <trkpt lat="43.52772" lon="2.85746">
        <ele>234.80000305176</ele>
        <time>2012-05-06T08:52:13.000Z</time>
      </trkpt>
      <trkpt lat="43.52769" lon="2.85748">
        <ele>234.60000610352</ele>
        <time>2012-05-06T08:52:14.000Z</time>
      </trkpt>
      <trkpt lat="43.52766" lon="2.85751">
        <ele>234.60000610352</ele>
        <time>2012-05-06T08:52:15.000Z</time>
      </trkpt>
      <trkpt lat="43.52763" lon="2.85754">
        <ele>235.39999389648</ele>
        <time>2012-05-06T08:52:16.000Z</time>
      </trkpt>
      <trkpt lat="43.52761" lon="2.85756">
        <ele>236</ele>
        <time>2012-05-06T08:52:17.000Z</time>
      </trkpt>
      <trkpt lat="43.52758" lon="2.85758">
        <ele>236.39999389648</ele>
        <time>2012-05-06T08:52:18.000Z</time>
      </trkpt>
      <trkpt lat="43.52755" lon="2.8576">
        <ele>237</ele>
        <time>2012-05-06T08:52:19.000Z</time>
      </trkpt>
      <trkpt lat="43.52751" lon="2.85763">
        <ele>237.60000610352</ele>
        <time>2012-05-06T08:52:20.000Z</time>
      </trkpt>
      <trkpt lat="43.52748" lon="2.85765">
        <ele>238.39999389648</ele>
        <time>2012-05-06T08:52:21.000Z</time>
      </trkpt>
      <trkpt lat="43.52745" lon="2.85767">
        <ele>239</ele>
        <time>2012-05-06T08:52:22.000Z</time>
      </trkpt>
      <trkpt lat="43.52742" lon="2.85769">
        <ele>239.60000610352</ele>
        <time>2012-05-06T08:52:23.000Z</time>
      </trkpt>
      <trkpt lat="43.52739" lon="2.85772">
        <ele>240.39999389648</ele>
        <time>2012-05-06T08:52:24.000Z</time>
      </trkpt>
      <trkpt lat="43.52736" lon="2.85775">
        <ele>241.19999694824</ele>
        <time>2012-05-06T08:52:25.000Z</time>
      </trkpt>
      <trkpt lat="43.52733" lon="2.85778">
        <ele>241.80000305176</ele>
        <time>2012-05-06T08:52:26.000Z</time>
      </trkpt>
      <trkpt lat="43.5273" lon="2.85781">
        <ele>242.39999389648</ele>
        <time>2012-05-06T08:52:27.000Z</time>
      </trkpt>
      <trkpt lat="43.52728" lon="2.85784">
        <ele>243</ele>
        <time>2012-05-06T08:52:28.000Z</time>
      </trkpt>
      <trkpt lat="43.52724" lon="2.85787">
        <ele>243.60000610352</ele>
        <time>2012-05-06T08:52:29.000Z</time>
      </trkpt>
      <trkpt lat="43.52722" lon="2.8579">
        <ele>244</ele>
        <time>2012-05-06T08:52:30.000Z</time>
      </trkpt>
      <trkpt lat="43.52719" lon="2.85793">
        <ele>244.39999389648</ele>
        <time>2012-05-06T08:52:31.000Z</time>
      </trkpt>
      <trkpt lat="43.52716" lon="2.85795">
        <ele>244.60000610352</ele>
        <time>2012-05-06T08:52:32.000Z</time>
      </trkpt>
      <trkpt lat="43.52714" lon="2.85798">
        <ele>245</ele>
        <time>2012-05-06T08:52:33.000Z</time>
      </trkpt>
      <trkpt lat="43.52711" lon="2.85801">
        <ele>245.19999694824</ele>
        <time>2012-05-06T08:52:34.000Z</time>
      </trkpt>
      <trkpt lat="43.52708" lon="2.85804">
        <ele>245.39999389648</ele>
        <time>2012-05-06T08:52:35.000Z</time>
      </trkpt>
      <trkpt lat="43.52705" lon="2.85807">
        <ele>245.60000610352</ele>
        <time>2012-05-06T08:52:36.000Z</time>
      </trkpt>
      <trkpt lat="43.52703" lon="2.8581">
        <ele>245.80000305176</ele>
        <time>2012-05-06T08:52:37.000Z</time>
      </trkpt>
      <trkpt lat="43.52701" lon="2.85813">
        <ele>245.80000305176</ele>
        <time>2012-05-06T08:52:38.000Z</time>
      </trkpt>
      <trkpt lat="43.52698" lon="2.85816">
        <ele>245.80000305176</ele>
        <time>2012-05-06T08:52:39.000Z</time>
      </trkpt>
      <trkpt lat="43.52695" lon="2.85819">
        <ele>246</ele>
        <time>2012-05-06T08:52:40.000Z</time>
      </trkpt>
      <trkpt lat="43.52693" lon="2.85823">
        <ele>245.80000305176</ele>
        <time>2012-05-06T08:52:41.000Z</time>
      </trkpt>
      <trkpt lat="43.5269" lon="2.85826">
        <ele>245.80000305176</ele>
        <time>2012-05-06T08:52:42.000Z</time>
      </trkpt>
      <trkpt lat="43.52688" lon="2.85829">
        <ele>245.60000610352</ele>
        <time>2012-05-06T08:52:43.000Z</time>
      </trkpt>
      <trkpt lat="43.52685" lon="2.85833">
        <ele>245.60000610352</ele>
        <time>2012-05-06T08:52:44.000Z</time>
      </trkpt>
      <trkpt lat="43.52683" lon="2.85836">
        <ele>245.80000305176</ele>
        <time>2012-05-06T08:52:45.000Z</time>
      </trkpt>
      <trkpt lat="43.52681" lon="2.85839">
        <ele>246.39999389648</ele>
        <time>2012-05-06T08:52:46.000Z</time>
      </trkpt>
      <trkpt lat="43.52679" lon="2.85843">
        <ele>246.80000305176</ele>
        <time>2012-05-06T08:52:47.000Z</time>
      </trkpt>
      <trkpt lat="43.52677" lon="2.85846">
        <ele>247.19999694824</ele>
        <time>2012-05-06T08:52:48.000Z</time>
      </trkpt>
      <trkpt lat="43.52674" lon="2.8585">
        <ele>247.60000610352</ele>
        <time>2012-05-06T08:52:49.000Z</time>
      </trkpt>
      <trkpt lat="43.52672" lon="2.85853">
        <ele>248</ele>
        <time>2012-05-06T08:52:50.000Z</time>
      </trkpt>
      <trkpt lat="43.5267" lon="2.85856">
        <ele>248.39999389648</ele>
        <time>2012-05-06T08:52:51.000Z</time>
      </trkpt>
      <trkpt lat="43.52668" lon="2.85859">
        <ele>248.60000610352</ele>
        <time>2012-05-06T08:52:52.000Z</time>
      </trkpt>
      <trkpt lat="43.52665" lon="2.85862">
        <ele>249</ele>
        <time>2012-05-06T08:52:53.000Z</time>
      </trkpt>
      <trkpt lat="43.52662" lon="2.85865">
        <ele>249.60000610352</ele>
        <time>2012-05-06T08:52:54.000Z</time>
      </trkpt>
      <trkpt lat="43.5266" lon="2.85869">
        <ele>250</ele>
        <time>2012-05-06T08:52:55.000Z</time>
      </trkpt>
      <trkpt lat="43.52657" lon="2.85872">
        <ele>250.39999389648</ele>
        <time>2012-05-06T08:52:56.000Z</time>
      </trkpt>
      <trkpt lat="43.52655" lon="2.85875">
        <ele>250.60000610352</ele>
        <time>2012-05-06T08:52:57.000Z</time>
      </trkpt>
      <trkpt lat="43.52652" lon="2.85877">
        <ele>250.80000305176</ele>
        <time>2012-05-06T08:52:58.000Z</time>
      </trkpt>
      <trkpt lat="43.5265" lon="2.85881">
        <ele>251</ele>
        <time>2012-05-06T08:52:59.000Z</time>
      </trkpt>
      <trkpt lat="43.52647" lon="2.85884">
        <ele>251.19999694824</ele>
        <time>2012-05-06T08:53:00.000Z</time>
      </trkpt>
      <trkpt lat="43.52645" lon="2.85887">
        <ele>251.39999389648</ele>
        <time>2012-05-06T08:53:01.000Z</time>
      </trkpt>
      <trkpt lat="43.52643" lon="2.8589">
        <ele>251.60000610352</ele>
        <time>2012-05-06T08:53:02.000Z</time>
      </trkpt>
      <trkpt lat="43.52641" lon="2.85893">
        <ele>251.80000305176</ele>
        <time>2012-05-06T08:53:03.000Z</time>
      </trkpt>
      <trkpt lat="43.52638" lon="2.85896">
        <ele>251.80000305176</ele>
        <time>2012-05-06T08:53:04.000Z</time>
      </trkpt>
      <trkpt lat="43.52636" lon="2.85898">
        <ele>251.80000305176</ele>
        <time>2012-05-06T08:53:05.000Z</time>
      </trkpt>
      <trkpt lat="43.52634" lon="2.85901">
        <ele>251.80000305176</ele>
        <time>2012-05-06T08:53:06.000Z</time>
      </trkpt>
      <trkpt lat="43.52631" lon="2.85904">
        <ele>251.60000610352</ele>
        <time>2012-05-06T08:53:07.000Z</time>
      </trkpt>
      <trkpt lat="43.52629" lon="2.85908">
        <ele>251.80000305176</ele>
        <time>2012-05-06T08:53:08.000Z</time>
      </trkpt>
      <trkpt lat="43.52627" lon="2.85911">
        <ele>251.60000610352</ele>
        <time>2012-05-06T08:53:09.000Z</time>
      </trkpt>
      <trkpt lat="43.52624" lon="2.85913">
        <ele>251.39999389648</ele>
        <time>2012-05-06T08:53:10.000Z</time>
      </trkpt>
      <trkpt lat="43.52622" lon="2.85916">
        <ele>251.19999694824</ele>
        <time>2012-05-06T08:53:11.000Z</time>
      </trkpt>
      <trkpt lat="43.52619" lon="2.85919">
        <ele>251.39999389648</ele>
        <time>2012-05-06T08:53:12.000Z</time>
      </trkpt>
      <trkpt lat="43.52617" lon="2.85922">
        <ele>251.60000610352</ele>
        <time>2012-05-06T08:53:13.000Z</time>
      </trkpt>
      <trkpt lat="43.52614" lon="2.85924">
        <ele>251.60000610352</ele>
        <time>2012-05-06T08:53:14.000Z</time>
      </trkpt>
      <trkpt lat="43.52611" lon="2.85927">
        <ele>251.60000610352</ele>
        <time>2012-05-06T08:53:15.000Z</time>
      </trkpt>
      <trkpt lat="43.52609" lon="2.85929">
        <ele>251.60000610352</ele>
        <time>2012-05-06T08:53:16.000Z</time>
      </trkpt>
      <trkpt lat="43.52606" lon="2.85931">
        <ele>251.60000610352</ele>
        <time>2012-05-06T08:53:17.000Z</time>
      </trkpt>
      <trkpt lat="43.52603" lon="2.85933">
        <ele>251.39999389648</ele>
        <time>2012-05-06T08:53:18.000Z</time>
      </trkpt>
      <trkpt lat="43.52601" lon="2.85935">
        <ele>251.39999389648</ele>
        <time>2012-05-06T08:53:19.000Z</time>
      </trkpt>
      <trkpt lat="43.52598" lon="2.85937">
        <ele>251.39999389648</ele>
        <time>2012-05-06T08:53:20.000Z</time>
      </trkpt>
      <trkpt lat="43.52595" lon="2.85939">
        <ele>251.19999694824</ele>
        <time>2012-05-06T08:53:21.000Z</time>
      </trkpt>
      <trkpt lat="43.52592" lon="2.85942">
        <ele>251.19999694824</ele>
        <time>2012-05-06T08:53:22.000Z</time>
      </trkpt>
      <trkpt lat="43.5259" lon="2.85944">
        <ele>251.19999694824</ele>
        <time>2012-05-06T08:53:23.000Z</time>
      </trkpt>
      <trkpt lat="43.52587" lon="2.85946">
        <ele>251</ele>
        <time>2012-05-06T08:53:24.000Z</time>
      </trkpt>
      <trkpt lat="43.52584" lon="2.85947">
        <ele>250.80000305176</ele>
        <time>2012-05-06T08:53:25.000Z</time>
      </trkpt>
      <trkpt lat="43.52581" lon="2.85949">
        <ele>250.80000305176</ele>
        <time>2012-05-06T08:53:26.000Z</time>
      </trkpt>
      <trkpt lat="43.52579" lon="2.85951">
        <ele>251</ele>
        <time>2012-05-06T08:53:27.000Z</time>
      </trkpt>
      <trkpt lat="43.52576" lon="2.85953">
        <ele>251.19999694824</ele>
        <time>2012-05-06T08:53:28.000Z</time>
      </trkpt>
      <trkpt lat="43.52573" lon="2.85955">
        <ele>251.39999389648</ele>
        <time>2012-05-06T08:53:29.000Z</time>
      </trkpt>
      <trkpt lat="43.52571" lon="2.85957">
        <ele>251.60000610352</ele>
        <time>2012-05-06T08:53:30.000Z</time>
      </trkpt>
      <trkpt lat="43.52568" lon="2.85959">
        <ele>251.80000305176</ele>
        <time>2012-05-06T08:53:31.000Z</time>
      </trkpt>
      <trkpt lat="43.52565" lon="2.85962">
        <ele>252</ele>
        <time>2012-05-06T08:53:32.000Z</time>
      </trkpt>
      <trkpt lat="43.52562" lon="2.85965">
        <ele>252.39999389648</ele>
        <time>2012-05-06T08:53:33.000Z</time>
      </trkpt>
      <trkpt lat="43.52559" lon="2.85967">
        <ele>252.60000610352</ele>
        <time>2012-05-06T08:53:34.000Z</time>
      </trkpt>
      <trkpt lat="43.52556" lon="2.8597">
        <ele>252.80000305176</ele>
        <time>2012-05-06T08:53:35.000Z</time>
      </trkpt>
      <trkpt lat="43.52554" lon="2.85973">
        <ele>253</ele>
        <time>2012-05-06T08:53:36.000Z</time>
      </trkpt>
      <trkpt lat="43.52552" lon="2.85976">
        <ele>253.60000610352</ele>
        <time>2012-05-06T08:53:37.000Z</time>
      </trkpt>
      <trkpt lat="43.52552" lon="2.85979">
        <ele>254.19999694824</ele>
        <time>2012-05-06T08:53:38.000Z</time>
      </trkpt>
      <trkpt lat="43.52553" lon="2.8598">
        <ele>254.80000305176</ele>
        <time>2012-05-06T08:53:39.000Z</time>
      </trkpt>
      <trkpt lat="43.52556" lon="2.85979">
        <ele>255.19999694824</ele>
        <time>2012-05-06T08:53:40.000Z</time>
      </trkpt>
      <trkpt lat="43.52558" lon="2.85977">
        <ele>255</ele>
        <time>2012-05-06T08:53:41.000Z</time>
      </trkpt>
      <trkpt lat="43.52561" lon="2.85974">
        <ele>254.60000610352</ele>
        <time>2012-05-06T08:53:42.000Z</time>
      </trkpt>
      <trkpt lat="43.52564" lon="2.85972">
        <ele>254.60000610352</ele>
        <time>2012-05-06T08:53:43.000Z</time>
      </trkpt>
      <trkpt lat="43.52567" lon="2.85969">
        <ele>254.60000610352</ele>
        <time>2012-05-06T08:53:44.000Z</time>
      </trkpt>
      <trkpt lat="43.5257" lon="2.85967">
        <ele>254.39999389648</ele>
        <time>2012-05-06T08:53:45.000Z</time>
      </trkpt>
      <trkpt lat="43.52573" lon="2.85965">
        <ele>254.39999389648</ele>
        <time>2012-05-06T08:53:46.000Z</time>
      </trkpt>
      <trkpt lat="43.52576" lon="2.85964">
        <ele>254.39999389648</ele>
        <time>2012-05-06T08:53:47.000Z</time>
      </trkpt>
      <trkpt lat="43.52579" lon="2.85961">
        <ele>254.19999694824</ele>
        <time>2012-05-06T08:53:48.000Z</time>
      </trkpt>
      <trkpt lat="43.52581" lon="2.85959">
        <ele>254</ele>
        <time>2012-05-06T08:53:49.000Z</time>
      </trkpt>
      <trkpt lat="43.52584" lon="2.85957">
        <ele>254</ele>
        <time>2012-05-06T08:53:50.000Z</time>
      </trkpt>
      <trkpt lat="43.52587" lon="2.85956">
        <ele>254.19999694824</ele>
        <time>2012-05-06T08:53:51.000Z</time>
      </trkpt>
      <trkpt lat="43.5259" lon="2.85954">
        <ele>254.39999389648</ele>
        <time>2012-05-06T08:53:52.000Z</time>
      </trkpt>
      <trkpt lat="43.52593" lon="2.85952">
        <ele>254.39999389648</ele>
        <time>2012-05-06T08:53:53.000Z</time>
      </trkpt>
      <trkpt lat="43.52595" lon="2.8595">
        <ele>254.80000305176</ele>
        <time>2012-05-06T08:53:54.000Z</time>
      </trkpt>
      <trkpt lat="43.52599" lon="2.85949">
        <ele>255.19999694824</ele>
        <time>2012-05-06T08:53:55.000Z</time>
      </trkpt>
      <trkpt lat="43.52602" lon="2.85947">
        <ele>255.19999694824</ele>
        <time>2012-05-06T08:53:56.000Z</time>
      </trkpt>
      <trkpt lat="43.52604" lon="2.85944">
        <ele>255.19999694824</ele>
        <time>2012-05-06T08:53:57.000Z</time>
      </trkpt>
      <trkpt lat="43.52607" lon="2.85942">
        <ele>255.19999694824</ele>
        <time>2012-05-06T08:53:58.000Z</time>
      </trkpt>
      <trkpt lat="43.5261" lon="2.8594">
        <ele>255.39999389648</ele>
        <time>2012-05-06T08:53:59.000Z</time>
      </trkpt>
      <trkpt lat="43.52612" lon="2.85939">
        <ele>255.60000610352</ele>
        <time>2012-05-06T08:54:00.000Z</time>
      </trkpt>
      <trkpt lat="43.52615" lon="2.85937">
        <ele>256</ele>
        <time>2012-05-06T08:54:01.000Z</time>
      </trkpt>
      <trkpt lat="43.52618" lon="2.85936">
        <ele>256.39999389648</ele>
        <time>2012-05-06T08:54:02.000Z</time>
      </trkpt>
      <trkpt lat="43.52621" lon="2.85935">
        <ele>256.79998779297</ele>
        <time>2012-05-06T08:54:03.000Z</time>
      </trkpt>
      <trkpt lat="43.52624" lon="2.85933">
        <ele>257</ele>
        <time>2012-05-06T08:54:04.000Z</time>
      </trkpt>
      <trkpt lat="43.52626" lon="2.85932">
        <ele>257.39999389648</ele>
        <time>2012-05-06T08:54:05.000Z</time>
      </trkpt>
      <trkpt lat="43.52629" lon="2.85931">
        <ele>257.60000610352</ele>
        <time>2012-05-06T08:54:06.000Z</time>
      </trkpt>
      <trkpt lat="43.52632" lon="2.85929">
        <ele>257.79998779297</ele>
        <time>2012-05-06T08:54:07.000Z</time>
      </trkpt>
      <trkpt lat="43.52634" lon="2.85927">
        <ele>257.79998779297</ele>
        <time>2012-05-06T08:54:08.000Z</time>
      </trkpt>
      <trkpt lat="43.52637" lon="2.85925">
        <ele>257.79998779297</ele>
        <time>2012-05-06T08:54:09.000Z</time>
      </trkpt>
      <trkpt lat="43.5264" lon="2.85923">
        <ele>258</ele>
        <time>2012-05-06T08:54:10.000Z</time>
      </trkpt>
      <trkpt lat="43.52643" lon="2.85922">
        <ele>258.20001220703</ele>
        <time>2012-05-06T08:54:11.000Z</time>
      </trkpt>
      <trkpt lat="43.52645" lon="2.8592">
        <ele>258.60000610352</ele>
        <time>2012-05-06T08:54:12.000Z</time>
      </trkpt>
      <trkpt lat="43.52648" lon="2.85918">
        <ele>258.60000610352</ele>
        <time>2012-05-06T08:54:13.000Z</time>
      </trkpt>
      <trkpt lat="43.52651" lon="2.85917">
        <ele>258.79998779297</ele>
        <time>2012-05-06T08:54:14.000Z</time>
      </trkpt>
      <trkpt lat="43.52653" lon="2.85915">
        <ele>259</ele>
        <time>2012-05-06T08:54:15.000Z</time>
      </trkpt>
      <trkpt lat="43.52656" lon="2.85913">
        <ele>259.39999389648</ele>
        <time>2012-05-06T08:54:16.000Z</time>
      </trkpt>
      <trkpt lat="43.52658" lon="2.85912">
        <ele>259.79998779297</ele>
        <time>2012-05-06T08:54:17.000Z</time>
      </trkpt>
      <trkpt lat="43.5266" lon="2.85911">
        <ele>259.79998779297</ele>
        <time>2012-05-06T08:54:18.000Z</time>
      </trkpt>
      <trkpt lat="43.52663" lon="2.85909">
        <ele>260.20001220703</ele>
        <time>2012-05-06T08:54:19.000Z</time>
      </trkpt>
      <trkpt lat="43.52665" lon="2.85907">
        <ele>260.39999389648</ele>
        <time>2012-05-06T08:54:20.000Z</time>
      </trkpt>
      <trkpt lat="43.52667" lon="2.85906">
        <ele>260.39999389648</ele>
        <time>2012-05-06T08:54:21.000Z</time>
      </trkpt>
      <trkpt lat="43.5267" lon="2.85904">
        <ele>260.79998779297</ele>
        <time>2012-05-06T08:54:22.000Z</time>
      </trkpt>
      <trkpt lat="43.52673" lon="2.85902">
        <ele>261</ele>
        <time>2012-05-06T08:54:23.000Z</time>
      </trkpt>
      <trkpt lat="43.52676" lon="2.859">
        <ele>261.20001220703</ele>
        <time>2012-05-06T08:54:24.000Z</time>
      </trkpt>
      <trkpt lat="43.52678" lon="2.85899">
        <ele>261.60000610352</ele>
        <time>2012-05-06T08:54:25.000Z</time>
      </trkpt>
      <trkpt lat="43.52681" lon="2.85898">
        <ele>262</ele>
        <time>2012-05-06T08:54:26.000Z</time>
      </trkpt>
      <trkpt lat="43.52683" lon="2.85896">
        <ele>262</ele>
        <time>2012-05-06T08:54:27.000Z</time>
      </trkpt>
      <trkpt lat="43.52685" lon="2.85895">
        <ele>262.20001220703</ele>
        <time>2012-05-06T08:54:28.000Z</time>
      </trkpt>
      <trkpt lat="43.52688" lon="2.85893">
        <ele>262.20001220703</ele>
        <time>2012-05-06T08:54:29.000Z</time>
      </trkpt>
      <trkpt lat="43.52689" lon="2.85891">
        <ele>262.20001220703</ele>
        <time>2012-05-06T08:54:30.000Z</time>
      </trkpt>
      <trkpt lat="43.52692" lon="2.8589">
        <ele>262.39999389648</ele>
        <time>2012-05-06T08:54:31.000Z</time>
      </trkpt>
      <trkpt lat="43.52694" lon="2.85888">
        <ele>262.39999389648</ele>
        <time>2012-05-06T08:54:32.000Z</time>
      </trkpt>
      <trkpt lat="43.52697" lon="2.85886">
        <ele>262.60000610352</ele>
        <time>2012-05-06T08:54:33.000Z</time>
      </trkpt>
      <trkpt lat="43.527" lon="2.85884">
        <ele>262.79998779297</ele>
        <time>2012-05-06T08:54:34.000Z</time>
      </trkpt>
      <trkpt lat="43.52702" lon="2.85883">
        <ele>263</ele>
        <time>2012-05-06T08:54:35.000Z</time>
      </trkpt>
      <trkpt lat="43.52704" lon="2.85882">
        <ele>263.20001220703</ele>
        <time>2012-05-06T08:54:36.000Z</time>
      </trkpt>
      <trkpt lat="43.52707" lon="2.8588">
        <ele>263.39999389648</ele>
        <time>2012-05-06T08:54:37.000Z</time>
      </trkpt>
      <trkpt lat="43.52709" lon="2.85878">
        <ele>263.20001220703</ele>
        <time>2012-05-06T08:54:38.000Z</time>
      </trkpt>
      <trkpt lat="43.52711" lon="2.85876">
        <ele>263.39999389648</ele>
        <time>2012-05-06T08:54:39.000Z</time>
      </trkpt>
      <trkpt lat="43.52714" lon="2.85876">
        <ele>263.79998779297</ele>
        <time>2012-05-06T08:54:40.000Z</time>
      </trkpt>
      <trkpt lat="43.52716" lon="2.85874">
        <ele>264</ele>
        <time>2012-05-06T08:54:41.000Z</time>
      </trkpt>
      <trkpt lat="43.52719" lon="2.85874">
        <ele>264.39999389648</ele>
        <time>2012-05-06T08:54:42.000Z</time>
      </trkpt>
      <trkpt lat="43.52721" lon="2.85873">
        <ele>264.79998779297</ele>
        <time>2012-05-06T08:54:43.000Z</time>
      </trkpt>
      <trkpt lat="43.52724" lon="2.85872">
        <ele>265</ele>
        <time>2012-05-06T08:54:44.000Z</time>
      </trkpt>
      <trkpt lat="43.52727" lon="2.85871">
        <ele>265.20001220703</ele>
        <time>2012-05-06T08:54:45.000Z</time>
      </trkpt>
      <trkpt lat="43.52729" lon="2.8587">
        <ele>265.39999389648</ele>
        <time>2012-05-06T08:54:46.000Z</time>
      </trkpt>
      <trkpt lat="43.52732" lon="2.85869">
        <ele>265.79998779297</ele>
        <time>2012-05-06T08:54:47.000Z</time>
      </trkpt>
      <trkpt lat="43.52734" lon="2.85868">
        <ele>266</ele>
        <time>2012-05-06T08:54:48.000Z</time>
      </trkpt>
      <trkpt lat="43.52737" lon="2.85867">
        <ele>266.20001220703</ele>
        <time>2012-05-06T08:54:49.000Z</time>
      </trkpt>
      <trkpt lat="43.5274" lon="2.85866">
        <ele>266.60000610352</ele>
        <time>2012-05-06T08:54:50.000Z</time>
      </trkpt>
      <trkpt lat="43.52742" lon="2.85865">
        <ele>266.79998779297</ele>
        <time>2012-05-06T08:54:51.000Z</time>
      </trkpt>
      <trkpt lat="43.52745" lon="2.85865">
        <ele>267.39999389648</ele>
        <time>2012-05-06T08:54:52.000Z</time>
      </trkpt>
      <trkpt lat="43.52748" lon="2.85864">
        <ele>267.79998779297</ele>
        <time>2012-05-06T08:54:53.000Z</time>
      </trkpt>
      <trkpt lat="43.52751" lon="2.85863">
        <ele>267.79998779297</ele>
        <time>2012-05-06T08:54:54.000Z</time>
      </trkpt>
      <trkpt lat="43.52754" lon="2.85862">
        <ele>267.60000610352</ele>
        <time>2012-05-06T08:54:55.000Z</time>
      </trkpt>
      <trkpt lat="43.52757" lon="2.85861">
        <ele>267.20001220703</ele>
        <time>2012-05-06T08:54:56.000Z</time>
      </trkpt>
      <trkpt lat="43.5276" lon="2.8586">
        <ele>266.79998779297</ele>
        <time>2012-05-06T08:54:57.000Z</time>
      </trkpt>
      <trkpt lat="43.52763" lon="2.85859">
        <ele>266.60000610352</ele>
        <time>2012-05-06T08:54:58.000Z</time>
      </trkpt>
      <trkpt lat="43.52766" lon="2.85858">
        <ele>266.20001220703</ele>
        <time>2012-05-06T08:54:59.000Z</time>
      </trkpt>
      <trkpt lat="43.52768" lon="2.85856">
        <ele>265.79998779297</ele>
        <time>2012-05-06T08:55:00.000Z</time>
      </trkpt>
      <trkpt lat="43.52771" lon="2.85856">
        <ele>265.60000610352</ele>
        <time>2012-05-06T08:55:01.000Z</time>
      </trkpt>
      <trkpt lat="43.52774" lon="2.85855">
        <ele>265.39999389648</ele>
        <time>2012-05-06T08:55:02.000Z</time>
      </trkpt>
      <trkpt lat="43.52777" lon="2.85855">
        <ele>265.60000610352</ele>
        <time>2012-05-06T08:55:03.000Z</time>
      </trkpt>
      <trkpt lat="43.52781" lon="2.85855">
        <ele>265.39999389648</ele>
        <time>2012-05-06T08:55:04.000Z</time>
      </trkpt>
      <trkpt lat="43.52784" lon="2.85855">
        <ele>265.39999389648</ele>
        <time>2012-05-06T08:55:05.000Z</time>
      </trkpt>
      <trkpt lat="43.52787" lon="2.85855">
        <ele>265.60000610352</ele>
        <time>2012-05-06T08:55:06.000Z</time>
      </trkpt>
      <trkpt lat="43.5279" lon="2.85856">
        <ele>265.79998779297</ele>
        <time>2012-05-06T08:55:07.000Z</time>
      </trkpt>
      <trkpt lat="43.52794" lon="2.85857">
        <ele>266</ele>
        <time>2012-05-06T08:55:08.000Z</time>
      </trkpt>
      <trkpt lat="43.52797" lon="2.85858">
        <ele>266.39999389648</ele>
        <time>2012-05-06T08:55:09.000Z</time>
      </trkpt>
      <trkpt lat="43.528" lon="2.8586">
        <ele>266.79998779297</ele>
        <time>2012-05-06T08:55:10.000Z</time>
      </trkpt>
      <trkpt lat="43.52803" lon="2.85861">
        <ele>267</ele>
        <time>2012-05-06T08:55:11.000Z</time>
      </trkpt>
      <trkpt lat="43.52806" lon="2.85863">
        <ele>267.60000610352</ele>
        <time>2012-05-06T08:55:12.000Z</time>
      </trkpt>
      <trkpt lat="43.52809" lon="2.85864">
        <ele>268</ele>
        <time>2012-05-06T08:55:13.000Z</time>
      </trkpt>
      <trkpt lat="43.52812" lon="2.85866">
        <ele>268.39999389648</ele>
        <time>2012-05-06T08:55:14.000Z</time>
      </trkpt>
      <trkpt lat="43.52814" lon="2.85868">
        <ele>268.79998779297</ele>
        <time>2012-05-06T08:55:15.000Z</time>
      </trkpt>
      <trkpt lat="43.52817" lon="2.8587">
        <ele>269</ele>
        <time>2012-05-06T08:55:16.000Z</time>
      </trkpt>
      <trkpt lat="43.5282" lon="2.85871">
        <ele>269.39999389648</ele>
        <time>2012-05-06T08:55:17.000Z</time>
      </trkpt>
      <trkpt lat="43.52824" lon="2.85873">
        <ele>269.79998779297</ele>
        <time>2012-05-06T08:55:18.000Z</time>
      </trkpt>
      <trkpt lat="43.52827" lon="2.85877">
        <ele>270.60000610352</ele>
        <time>2012-05-06T08:55:19.000Z</time>
      </trkpt>
      <trkpt lat="43.5283" lon="2.85881">
        <ele>271.39999389648</ele>
        <time>2012-05-06T08:55:20.000Z</time>
      </trkpt>
      <trkpt lat="43.52832" lon="2.85884">
        <ele>272</ele>
        <time>2012-05-06T08:55:21.000Z</time>
      </trkpt>
      <trkpt lat="43.52835" lon="2.85888">
        <ele>272.60000610352</ele>
        <time>2012-05-06T08:55:22.000Z</time>
      </trkpt>
      <trkpt lat="43.52837" lon="2.85892">
        <ele>272.79998779297</ele>
        <time>2012-05-06T08:55:23.000Z</time>
      </trkpt>
      <trkpt lat="43.5284" lon="2.85896">
        <ele>273</ele>
        <time>2012-05-06T08:55:24.000Z</time>
      </trkpt>
      <trkpt lat="43.52842" lon="2.859">
        <ele>273.20001220703</ele>
        <time>2012-05-06T08:55:25.000Z</time>
      </trkpt>
      <trkpt lat="43.52845" lon="2.85905">
        <ele>273.60000610352</ele>
        <time>2012-05-06T08:55:26.000Z</time>
      </trkpt>
      <trkpt lat="43.52846" lon="2.8591">
        <ele>274.20001220703</ele>
        <time>2012-05-06T08:55:27.000Z</time>
      </trkpt>
      <trkpt lat="43.52847" lon="2.85916">
        <ele>275</ele>
        <time>2012-05-06T08:55:28.000Z</time>
      </trkpt>
      <trkpt lat="43.52848" lon="2.85921">
        <ele>275.60000610352</ele>
        <time>2012-05-06T08:55:29.000Z</time>
      </trkpt>
      <trkpt lat="43.52848" lon="2.85927">
        <ele>276.20001220703</ele>
        <time>2012-05-06T08:55:30.000Z</time>
      </trkpt>
      <trkpt lat="43.52849" lon="2.85932">
        <ele>276.60000610352</ele>
        <time>2012-05-06T08:55:31.000Z</time>
      </trkpt>
      <trkpt lat="43.52851" lon="2.85937">
        <ele>276.79998779297</ele>
        <time>2012-05-06T08:55:32.000Z</time>
      </trkpt>
      <trkpt lat="43.52852" lon="2.85941">
        <ele>276.79998779297</ele>
        <time>2012-05-06T08:55:33.000Z</time>
      </trkpt>
      <trkpt lat="43.52854" lon="2.85946">
        <ele>276.60000610352</ele>
        <time>2012-05-06T08:55:34.000Z</time>
      </trkpt>
      <trkpt lat="43.52857" lon="2.8595">
        <ele>276.20001220703</ele>
        <time>2012-05-06T08:55:35.000Z</time>
      </trkpt>
      <trkpt lat="43.5286" lon="2.85954">
        <ele>275.79998779297</ele>
        <time>2012-05-06T08:55:36.000Z</time>
      </trkpt>
      <trkpt lat="43.52863" lon="2.85957">
        <ele>275</ele>
        <time>2012-05-06T08:55:37.000Z</time>
      </trkpt>
      <trkpt lat="43.52867" lon="2.85961">
        <ele>274.20001220703</ele>
        <time>2012-05-06T08:55:38.000Z</time>
      </trkpt>
      <trkpt lat="43.5287" lon="2.85965">
        <ele>273.60000610352</ele>
        <time>2012-05-06T08:55:39.000Z</time>
      </trkpt>
      <trkpt lat="43.52874" lon="2.85968">
        <ele>272.79998779297</ele>
        <time>2012-05-06T08:55:40.000Z</time>
      </trkpt>
      <trkpt lat="43.52877" lon="2.85972">
        <ele>272</ele>
        <time>2012-05-06T08:55:41.000Z</time>
      </trkpt>
      <trkpt lat="43.5288" lon="2.85976">
        <ele>271.39999389648</ele>
        <time>2012-05-06T08:55:42.000Z</time>
      </trkpt>
      <trkpt lat="43.52883" lon="2.8598">
        <ele>270.60000610352</ele>
        <time>2012-05-06T08:55:43.000Z</time>
      </trkpt>
      <trkpt lat="43.52886" lon="2.85984">
        <ele>270</ele>
        <time>2012-05-06T08:55:44.000Z</time>
      </trkpt>
      <trkpt lat="43.52889" lon="2.85988">
        <ele>269.20001220703</ele>
        <time>2012-05-06T08:55:45.000Z</time>
      </trkpt>
      <trkpt lat="43.52892" lon="2.85993">
        <ele>268.39999389648</ele>
        <time>2012-05-06T08:55:46.000Z</time>
      </trkpt>
      <trkpt lat="43.52895" lon="2.85997">
        <ele>267.60000610352</ele>
        <time>2012-05-06T08:55:47.000Z</time>
      </trkpt>
      <trkpt lat="43.52898" lon="2.86">
        <ele>266.60000610352</ele>
        <time>2012-05-06T08:55:48.000Z</time>
      </trkpt>
      <trkpt lat="43.52901" lon="2.86002">
        <ele>265.60000610352</ele>
        <time>2012-05-06T08:55:49.000Z</time>
      </trkpt>
      <trkpt lat="43.52905" lon="2.86003">
        <ele>264.39999389648</ele>
        <time>2012-05-06T08:55:50.000Z</time>
      </trkpt>
      <trkpt lat="43.52909" lon="2.86001">
        <ele>262.60000610352</ele>
        <time>2012-05-06T08:55:51.000Z</time>
      </trkpt>
      <trkpt lat="43.52913" lon="2.85997">
        <ele>261.20001220703</ele>
        <time>2012-05-06T08:55:52.000Z</time>
      </trkpt>
      <trkpt lat="43.52917" lon="2.85993">
        <ele>259.79998779297</ele>
        <time>2012-05-06T08:55:53.000Z</time>
      </trkpt>
      <trkpt lat="43.5292" lon="2.85989">
        <ele>259</ele>
        <time>2012-05-06T08:55:54.000Z</time>
      </trkpt>
      <trkpt lat="43.52924" lon="2.85987">
        <ele>258.20001220703</ele>
        <time>2012-05-06T08:55:55.000Z</time>
      </trkpt>
      <trkpt lat="43.52928" lon="2.85985">
        <ele>257.39999389648</ele>
        <time>2012-05-06T08:55:56.000Z</time>
      </trkpt>
      <trkpt lat="43.52932" lon="2.85984">
        <ele>256.60000610352</ele>
        <time>2012-05-06T08:55:57.000Z</time>
      </trkpt>
      <trkpt lat="43.52936" lon="2.85983">
        <ele>256</ele>
        <time>2012-05-06T08:55:58.000Z</time>
      </trkpt>
      <trkpt lat="43.5294" lon="2.85982">
        <ele>255.19999694824</ele>
        <time>2012-05-06T08:55:59.000Z</time>
      </trkpt>
      <trkpt lat="43.52944" lon="2.85982">
        <ele>254.39999389648</ele>
        <time>2012-05-06T08:56:00.000Z</time>
      </trkpt>
      <trkpt lat="43.52949" lon="2.85981">
        <ele>253.60000610352</ele>
        <time>2012-05-06T08:56:01.000Z</time>
      </trkpt>
      <trkpt lat="43.52953" lon="2.8598">
        <ele>252.80000305176</ele>
        <time>2012-05-06T08:56:02.000Z</time>
      </trkpt>
      <trkpt lat="43.52957" lon="2.85979">
        <ele>252.19999694824</ele>
        <time>2012-05-06T08:56:03.000Z</time>
      </trkpt>
      <trkpt lat="43.52961" lon="2.85977">
        <ele>251.39999389648</ele>
        <time>2012-05-06T08:56:04.000Z</time>
      </trkpt>
      <trkpt lat="43.52965" lon="2.85974">
        <ele>250.60000610352</ele>
        <time>2012-05-06T08:56:05.000Z</time>
      </trkpt>
      <trkpt lat="43.52969" lon="2.85971">
        <ele>249.80000305176</ele>
        <time>2012-05-06T08:56:06.000Z</time>
      </trkpt>
      <trkpt lat="43.52972" lon="2.85969">
        <ele>249</ele>
        <time>2012-05-06T08:56:07.000Z</time>
      </trkpt>
      <trkpt lat="43.52976" lon="2.85966">
        <ele>248.39999389648</ele>
        <time>2012-05-06T08:56:08.000Z</time>
      </trkpt>
      <trkpt lat="43.5298" lon="2.85963">
        <ele>247.60000610352</ele>
        <time>2012-05-06T08:56:09.000Z</time>
      </trkpt>
      <trkpt lat="43.52984" lon="2.8596">
        <ele>246.80000305176</ele>
        <time>2012-05-06T08:56:10.000Z</time>
      </trkpt>
      <trkpt lat="43.52987" lon="2.85957">
        <ele>246.19999694824</ele>
        <time>2012-05-06T08:56:11.000Z</time>
      </trkpt>
      <trkpt lat="43.52991" lon="2.85953">
        <ele>245.39999389648</ele>
        <time>2012-05-06T08:56:12.000Z</time>
      </trkpt>
      <trkpt lat="43.52994" lon="2.85949">
        <ele>244.80000305176</ele>
        <time>2012-05-06T08:56:13.000Z</time>
      </trkpt>
      <trkpt lat="43.52998" lon="2.85946">
        <ele>244</ele>
        <time>2012-05-06T08:56:14.000Z</time>
      </trkpt>
      <trkpt lat="43.53001" lon="2.85942">
        <ele>243.39999389648</ele>
        <time>2012-05-06T08:56:15.000Z</time>
      </trkpt>
      <trkpt lat="43.53005" lon="2.85939">
        <ele>242.80000305176</ele>
        <time>2012-05-06T08:56:16.000Z</time>
      </trkpt>
      <trkpt lat="43.53009" lon="2.85935">
        <ele>242.19999694824</ele>
        <time>2012-05-06T08:56:17.000Z</time>
      </trkpt>
      <trkpt lat="43.53012" lon="2.85932">
        <ele>241.60000610352</ele>
        <time>2012-05-06T08:56:18.000Z</time>
      </trkpt>
      <trkpt lat="43.53016" lon="2.85928">
        <ele>241.19999694824</ele>
        <time>2012-05-06T08:56:19.000Z</time>
      </trkpt>
      <trkpt lat="43.53019" lon="2.85925">
        <ele>240.60000610352</ele>
        <time>2012-05-06T08:56:20.000Z</time>
      </trkpt>
      <trkpt lat="43.53023" lon="2.85921">
        <ele>240</ele>
        <time>2012-05-06T08:56:21.000Z</time>
      </trkpt>
      <trkpt lat="43.53026" lon="2.85917">
        <ele>239.60000610352</ele>
        <time>2012-05-06T08:56:22.000Z</time>
      </trkpt>
      <trkpt lat="43.53029" lon="2.85913">
        <ele>239</ele>
        <time>2012-05-06T08:56:23.000Z</time>
      </trkpt>
      <trkpt lat="43.53031" lon="2.85909">
        <ele>238.39999389648</ele>
        <time>2012-05-06T08:56:24.000Z</time>
      </trkpt>
      <trkpt lat="43.53034" lon="2.85904">
        <ele>237.80000305176</ele>
        <time>2012-05-06T08:56:25.000Z</time>
      </trkpt>
      <trkpt lat="43.53037" lon="2.859">
        <ele>237.39999389648</ele>
        <time>2012-05-06T08:56:26.000Z</time>
      </trkpt>
      <trkpt lat="43.53039" lon="2.85895">
        <ele>237</ele>
        <time>2012-05-06T08:56:27.000Z</time>
      </trkpt>
      <trkpt lat="43.53041" lon="2.8589">
        <ele>236.39999389648</ele>
        <time>2012-05-06T08:56:28.000Z</time>
      </trkpt>
      <trkpt lat="43.53043" lon="2.85888">
        <ele>236.19999694824</ele>
        <time>2012-05-06T08:56:29.000Z</time>
      </trkpt>
      <trkpt lat="43.53047" lon="2.85888">
        <ele>235.80000305176</ele>
        <time>2012-05-06T08:56:30.000Z</time>
      </trkpt>
      <trkpt lat="43.53051" lon="2.85891">
        <ele>235.39999389648</ele>
        <time>2012-05-06T08:56:31.000Z</time>
      </trkpt>
      <trkpt lat="43.53054" lon="2.85896">
        <ele>235.19999694824</ele>
        <time>2012-05-06T08:56:32.000Z</time>
      </trkpt>
      <trkpt lat="43.53057" lon="2.85901">
        <ele>235</ele>
        <time>2012-05-06T08:56:33.000Z</time>
      </trkpt>
      <trkpt lat="43.5306" lon="2.85905">
        <ele>234.60000610352</ele>
        <time>2012-05-06T08:56:34.000Z</time>
      </trkpt>
      <trkpt lat="43.53064" lon="2.85909">
        <ele>234.39999389648</ele>
        <time>2012-05-06T08:56:35.000Z</time>
      </trkpt>
      <trkpt lat="43.53068" lon="2.85913">
        <ele>234</ele>
        <time>2012-05-06T08:56:36.000Z</time>
      </trkpt>
      <trkpt lat="43.53072" lon="2.85917">
        <ele>233.60000610352</ele>
        <time>2012-05-06T08:56:37.000Z</time>
      </trkpt>
      <trkpt lat="43.53075" lon="2.8592">
        <ele>233</ele>
        <time>2012-05-06T08:56:38.000Z</time>
      </trkpt>
      <trkpt lat="43.53078" lon="2.85924">
        <ele>232.60000610352</ele>
        <time>2012-05-06T08:56:39.000Z</time>
      </trkpt>
      <trkpt lat="43.53082" lon="2.85927">
        <ele>232</ele>
        <time>2012-05-06T08:56:40.000Z</time>
      </trkpt>
      <trkpt lat="43.53085" lon="2.85928">
        <ele>231.39999389648</ele>
        <time>2012-05-06T08:56:41.000Z</time>
      </trkpt>
      <trkpt lat="43.53088" lon="2.85929">
        <ele>231</ele>
        <time>2012-05-06T08:56:42.000Z</time>
      </trkpt>
      <trkpt lat="43.53092" lon="2.85928">
        <ele>230.60000610352</ele>
        <time>2012-05-06T08:56:43.000Z</time>
      </trkpt>
      <trkpt lat="43.53095" lon="2.85925">
        <ele>230.19999694824</ele>
        <time>2012-05-06T08:56:44.000Z</time>
      </trkpt>
      <trkpt lat="43.53099" lon="2.85923">
        <ele>229.80000305176</ele>
        <time>2012-05-06T08:56:45.000Z</time>
      </trkpt>
      <trkpt lat="43.53103" lon="2.8592">
        <ele>229.19999694824</ele>
        <time>2012-05-06T08:56:46.000Z</time>
      </trkpt>
      <trkpt lat="43.53106" lon="2.85917">
        <ele>228.60000610352</ele>
        <time>2012-05-06T08:56:47.000Z</time>
      </trkpt>
      <trkpt lat="43.5311" lon="2.85913">
        <ele>228.19999694824</ele>
        <time>2012-05-06T08:56:48.000Z</time>
      </trkpt>
      <trkpt lat="43.53113" lon="2.85911">
        <ele>227.60000610352</ele>
        <time>2012-05-06T08:56:49.000Z</time>
      </trkpt>
      <trkpt lat="43.53116" lon="2.85908">
        <ele>227.19999694824</ele>
        <time>2012-05-06T08:56:50.000Z</time>
      </trkpt>
      <trkpt lat="43.5312" lon="2.85904">
        <ele>226.60000610352</ele>
        <time>2012-05-06T08:56:51.000Z</time>
      </trkpt>
      <trkpt lat="43.53123" lon="2.85901">
        <ele>226</ele>
        <time>2012-05-06T08:56:52.000Z</time>
      </trkpt>
      <trkpt lat="43.53127" lon="2.85897">
        <ele>225.39999389648</ele>
        <time>2012-05-06T08:56:53.000Z</time>
      </trkpt>
      <trkpt lat="43.53131" lon="2.85894">
        <ele>224.80000305176</ele>
        <time>2012-05-06T08:56:54.000Z</time>
      </trkpt>
      <trkpt lat="43.53135" lon="2.8589">
        <ele>224.19999694824</ele>
        <time>2012-05-06T08:56:55.000Z</time>
      </trkpt>
      <trkpt lat="43.53139" lon="2.85887">
        <ele>223.60000610352</ele>
        <time>2012-05-06T08:56:56.000Z</time>
      </trkpt>
      <trkpt lat="43.53143" lon="2.85884">
        <ele>223</ele>
        <time>2012-05-06T08:56:57.000Z</time>
      </trkpt>
      <trkpt lat="43.53146" lon="2.85883">
        <ele>222.39999389648</ele>
        <time>2012-05-06T08:56:58.000Z</time>
      </trkpt>
      <trkpt lat="43.5315" lon="2.85881">
        <ele>222</ele>
        <time>2012-05-06T08:56:59.000Z</time>
      </trkpt>
      <trkpt lat="43.53154" lon="2.8588">
        <ele>221.39999389648</ele>
        <time>2012-05-06T08:57:00.000Z</time>
      </trkpt>
      <trkpt lat="43.53159" lon="2.85879">
        <ele>220.80000305176</ele>
        <time>2012-05-06T08:57:01.000Z</time>
      </trkpt>
      <trkpt lat="43.53162" lon="2.85877">
        <ele>220.19999694824</ele>
        <time>2012-05-06T08:57:02.000Z</time>
      </trkpt>
      <trkpt lat="43.53165" lon="2.85874">
        <ele>219.60000610352</ele>
        <time>2012-05-06T08:57:03.000Z</time>
      </trkpt>
      <trkpt lat="43.53169" lon="2.85871">
        <ele>219.19999694824</ele>
        <time>2012-05-06T08:57:04.000Z</time>
      </trkpt>
      <trkpt lat="43.53172" lon="2.85866">
        <ele>219</ele>
        <time>2012-05-06T08:57:05.000Z</time>
      </trkpt>
      <trkpt lat="43.53174" lon="2.85861">
        <ele>218.80000305176</ele>
        <time>2012-05-06T08:57:06.000Z</time>
      </trkpt>
      <trkpt lat="43.53177" lon="2.85856">
        <ele>218.39999389648</ele>
        <time>2012-05-06T08:57:07.000Z</time>
      </trkpt>
      <trkpt lat="43.5318" lon="2.85852">
        <ele>218.19999694824</ele>
        <time>2012-05-06T08:57:08.000Z</time>
      </trkpt>
      <trkpt lat="43.53181" lon="2.85847">
        <ele>218</ele>
        <time>2012-05-06T08:57:09.000Z</time>
      </trkpt>
      <trkpt lat="43.53182" lon="2.85841">
        <ele>217.80000305176</ele>
        <time>2012-05-06T08:57:10.000Z</time>
      </trkpt>
      <trkpt lat="43.53182" lon="2.85836">
        <ele>217.80000305176</ele>
        <time>2012-05-06T08:57:11.000Z</time>
      </trkpt>
      <trkpt lat="43.53182" lon="2.8583">
        <ele>217.60000610352</ele>
        <time>2012-05-06T08:57:12.000Z</time>
      </trkpt>
      <trkpt lat="43.53181" lon="2.85825">
        <ele>217.60000610352</ele>
        <time>2012-05-06T08:57:13.000Z</time>
      </trkpt>
      <trkpt lat="43.53179" lon="2.8582">
        <ele>217.60000610352</ele>
        <time>2012-05-06T08:57:14.000Z</time>
      </trkpt>
      <trkpt lat="43.53177" lon="2.85816">
        <ele>217.80000305176</ele>
        <time>2012-05-06T08:57:15.000Z</time>
      </trkpt>
      <trkpt lat="43.53175" lon="2.85811">
        <ele>217.60000610352</ele>
        <time>2012-05-06T08:57:16.000Z</time>
      </trkpt>
      <trkpt lat="43.53174" lon="2.85806">
        <ele>217.60000610352</ele>
        <time>2012-05-06T08:57:17.000Z</time>
      </trkpt>
      <trkpt lat="43.53173" lon="2.85802">
        <ele>217.60000610352</ele>
        <time>2012-05-06T08:57:18.000Z</time>
      </trkpt>
      <trkpt lat="43.53173" lon="2.85797">
        <ele>217.39999389648</ele>
        <time>2012-05-06T08:57:19.000Z</time>
      </trkpt>
      <trkpt lat="43.53175" lon="2.85792">
        <ele>217.19999694824</ele>
        <time>2012-05-06T08:57:20.000Z</time>
      </trkpt>
      <trkpt lat="43.53177" lon="2.85788">
        <ele>217</ele>
        <time>2012-05-06T08:57:21.000Z</time>
      </trkpt>
      <trkpt lat="43.53179" lon="2.85783">
        <ele>216.80000305176</ele>
        <time>2012-05-06T08:57:22.000Z</time>
      </trkpt>
      <trkpt lat="43.53182" lon="2.85779">
        <ele>216.80000305176</ele>
        <time>2012-05-06T08:57:23.000Z</time>
      </trkpt>
      <trkpt lat="43.53184" lon="2.85775">
        <ele>216.60000610352</ele>
        <time>2012-05-06T08:57:24.000Z</time>
      </trkpt>
      <trkpt lat="43.53186" lon="2.85771">
        <ele>216.60000610352</ele>
        <time>2012-05-06T08:57:25.000Z</time>
      </trkpt>
      <trkpt lat="43.53187" lon="2.85766">
        <ele>216.39999389648</ele>
        <time>2012-05-06T08:57:26.000Z</time>
      </trkpt>
      <trkpt lat="43.53188" lon="2.85762">
        <ele>216.39999389648</ele>
        <time>2012-05-06T08:57:27.000Z</time>
      </trkpt>
      <trkpt lat="43.53188" lon="2.85757">
        <ele>216.39999389648</ele>
        <time>2012-05-06T08:57:28.000Z</time>
      </trkpt>
      <trkpt lat="43.53189" lon="2.85752">
        <ele>216.19999694824</ele>
        <time>2012-05-06T08:57:29.000Z</time>
      </trkpt>
      <trkpt lat="43.53189" lon="2.85747">
        <ele>216.39999389648</ele>
        <time>2012-05-06T08:57:30.000Z</time>
      </trkpt>
      <trkpt lat="43.53189" lon="2.85742">
        <ele>216.39999389648</ele>
        <time>2012-05-06T08:57:31.000Z</time>
      </trkpt>
      <trkpt lat="43.5319" lon="2.85737">
        <ele>216.60000610352</ele>
        <time>2012-05-06T08:57:32.000Z</time>
      </trkpt>
      <trkpt lat="43.53191" lon="2.85732">
        <ele>216.60000610352</ele>
        <time>2012-05-06T08:57:33.000Z</time>
      </trkpt>
      <trkpt lat="43.53192" lon="2.85728">
        <ele>216.80000305176</ele>
        <time>2012-05-06T08:57:34.000Z</time>
      </trkpt>
      <trkpt lat="43.53193" lon="2.85722">
        <ele>216.80000305176</ele>
        <time>2012-05-06T08:57:35.000Z</time>
      </trkpt>
      <trkpt lat="43.53194" lon="2.85717">
        <ele>217</ele>
        <time>2012-05-06T08:57:36.000Z</time>
      </trkpt>
      <trkpt lat="43.53196" lon="2.85713">
        <ele>217.19999694824</ele>
        <time>2012-05-06T08:57:37.000Z</time>
      </trkpt>
      <trkpt lat="43.53198" lon="2.85709">
        <ele>217.19999694824</ele>
        <time>2012-05-06T08:57:38.000Z</time>
      </trkpt>
      <trkpt lat="43.53201" lon="2.85706">
        <ele>217.39999389648</ele>
        <time>2012-05-06T08:57:39.000Z</time>
      </trkpt>
      <trkpt lat="43.53203" lon="2.85702">
        <ele>217.60000610352</ele>
        <time>2012-05-06T08:57:40.000Z</time>
      </trkpt>
      <trkpt lat="43.53206" lon="2.85699">
        <ele>217.60000610352</ele>
        <time>2012-05-06T08:57:41.000Z</time>
      </trkpt>
      <trkpt lat="43.53208" lon="2.85696">
        <ele>217.80000305176</ele>
        <time>2012-05-06T08:57:42.000Z</time>
      </trkpt>
      <trkpt lat="43.53211" lon="2.85694">
        <ele>218</ele>
        <time>2012-05-06T08:57:43.000Z</time>
      </trkpt>
      <trkpt lat="43.53214" lon="2.85692">
        <ele>218</ele>
        <time>2012-05-06T08:57:44.000Z</time>
      </trkpt>
      <trkpt lat="43.53217" lon="2.85692">
        <ele>218.19999694824</ele>
        <time>2012-05-06T08:57:45.000Z</time>
      </trkpt>
      <trkpt lat="43.5322" lon="2.85692">
        <ele>218.19999694824</ele>
        <time>2012-05-06T08:57:46.000Z</time>
      </trkpt>
      <trkpt lat="43.53224" lon="2.85694">
        <ele>218.19999694824</ele>
        <time>2012-05-06T08:57:47.000Z</time>
      </trkpt>
      <trkpt lat="43.53227" lon="2.85697">
        <ele>218.19999694824</ele>
        <time>2012-05-06T08:57:48.000Z</time>
      </trkpt>
      <trkpt lat="43.5323" lon="2.857">
        <ele>218.19999694824</ele>
        <time>2012-05-06T08:57:49.000Z</time>
      </trkpt>
      <trkpt lat="43.53233" lon="2.85704">
        <ele>218.19999694824</ele>
        <time>2012-05-06T08:57:50.000Z</time>
      </trkpt>
      <trkpt lat="43.53236" lon="2.85707">
        <ele>218.19999694824</ele>
        <time>2012-05-06T08:57:51.000Z</time>
      </trkpt>
      <trkpt lat="43.53239" lon="2.8571">
        <ele>218.19999694824</ele>
        <time>2012-05-06T08:57:52.000Z</time>
      </trkpt>
      <trkpt lat="43.53242" lon="2.85714">
        <ele>218.19999694824</ele>
        <time>2012-05-06T08:57:53.000Z</time>
      </trkpt>
      <trkpt lat="43.53244" lon="2.85717">
        <ele>218</ele>
        <time>2012-05-06T08:57:54.000Z</time>
      </trkpt>
      <trkpt lat="43.53247" lon="2.85721">
        <ele>218</ele>
        <time>2012-05-06T08:57:55.000Z</time>
      </trkpt>
      <trkpt lat="43.5325" lon="2.85725">
        <ele>217.80000305176</ele>
        <time>2012-05-06T08:57:56.000Z</time>
      </trkpt>
      <trkpt lat="43.53252" lon="2.85729">
        <ele>218</ele>
        <time>2012-05-06T08:57:57.000Z</time>
      </trkpt>
      <trkpt lat="43.53255" lon="2.85733">
        <ele>218</ele>
        <time>2012-05-06T08:57:58.000Z</time>
      </trkpt>
      <trkpt lat="43.53258" lon="2.85737">
        <ele>218</ele>
        <time>2012-05-06T08:57:59.000Z</time>
      </trkpt>
      <trkpt lat="43.5326" lon="2.85741">
        <ele>218</ele>
        <time>2012-05-06T08:58:00.000Z</time>
      </trkpt>
      <trkpt lat="43.53263" lon="2.85743">
        <ele>218</ele>
        <time>2012-05-06T08:58:01.000Z</time>
      </trkpt>
      <trkpt lat="43.53266" lon="2.85745">
        <ele>218</ele>
        <time>2012-05-06T08:58:02.000Z</time>
      </trkpt>
      <trkpt lat="43.53269" lon="2.85745">
        <ele>218.19999694824</ele>
        <time>2012-05-06T08:58:03.000Z</time>
      </trkpt>
      <trkpt lat="43.53272" lon="2.85744">
        <ele>218.39999389648</ele>
        <time>2012-05-06T08:58:04.000Z</time>
      </trkpt>
      <trkpt lat="43.53276" lon="2.85742">
        <ele>218.80000305176</ele>
        <time>2012-05-06T08:58:05.000Z</time>
      </trkpt>
      <trkpt lat="43.53279" lon="2.85739">
        <ele>219.19999694824</ele>
        <time>2012-05-06T08:58:06.000Z</time>
      </trkpt>
      <trkpt lat="43.53282" lon="2.85736">
        <ele>219.60000610352</ele>
        <time>2012-05-06T08:58:07.000Z</time>
      </trkpt>
      <trkpt lat="43.53284" lon="2.85732">
        <ele>220</ele>
        <time>2012-05-06T08:58:08.000Z</time>
      </trkpt>
      <trkpt lat="43.53286" lon="2.85729">
        <ele>220.39999389648</ele>
        <time>2012-05-06T08:58:09.000Z</time>
      </trkpt>
      <trkpt lat="43.53289" lon="2.85726">
        <ele>220.80000305176</ele>
        <time>2012-05-06T08:58:10.000Z</time>
      </trkpt>
      <trkpt lat="43.53291" lon="2.85722">
        <ele>221.19999694824</ele>
        <time>2012-05-06T08:58:11.000Z</time>
      </trkpt>
      <trkpt lat="43.53294" lon="2.8572">
        <ele>221.80000305176</ele>
        <time>2012-05-06T08:58:12.000Z</time>
      </trkpt>
      <trkpt lat="43.53297" lon="2.85717">
        <ele>222.19999694824</ele>
        <time>2012-05-06T08:58:13.000Z</time>
      </trkpt>
      <trkpt lat="43.533" lon="2.85714">
        <ele>222.80000305176</ele>
        <time>2012-05-06T08:58:14.000Z</time>
      </trkpt>
      <trkpt lat="43.53302" lon="2.85711">
        <ele>223.19999694824</ele>
        <time>2012-05-06T08:58:15.000Z</time>
      </trkpt>
      <trkpt lat="43.53306" lon="2.8571">
        <ele>223.80000305176</ele>
        <time>2012-05-06T08:58:16.000Z</time>
      </trkpt>
      <trkpt lat="43.53309" lon="2.85709">
        <ele>224.19999694824</ele>
        <time>2012-05-06T08:58:17.000Z</time>
      </trkpt>
      <trkpt lat="43.53312" lon="2.85708">
        <ele>224.60000610352</ele>
        <time>2012-05-06T08:58:18.000Z</time>
      </trkpt>
      <trkpt lat="43.53316" lon="2.85708">
        <ele>224.80000305176</ele>
        <time>2012-05-06T08:58:19.000Z</time>
      </trkpt>
      <trkpt lat="43.53319" lon="2.85708">
        <ele>225.19999694824</ele>
        <time>2012-05-06T08:58:20.000Z</time>
      </trkpt>
      <trkpt lat="43.53322" lon="2.85708">
        <ele>225.60000610352</ele>
        <time>2012-05-06T08:58:21.000Z</time>
      </trkpt>
      <trkpt lat="43.53326" lon="2.85709">
        <ele>225.80000305176</ele>
        <time>2012-05-06T08:58:22.000Z</time>
      </trkpt>
      <trkpt lat="43.53329" lon="2.8571">
        <ele>226</ele>
        <time>2012-05-06T08:58:23.000Z</time>
      </trkpt>
      <trkpt lat="43.53333" lon="2.85711">
        <ele>226.19999694824</ele>
        <time>2012-05-06T08:58:24.000Z</time>
      </trkpt>
      <trkpt lat="43.53336" lon="2.85712">
        <ele>226.39999389648</ele>
        <time>2012-05-06T08:58:25.000Z</time>
      </trkpt>
      <trkpt lat="43.53339" lon="2.85714">
        <ele>226.80000305176</ele>
        <time>2012-05-06T08:58:26.000Z</time>
      </trkpt>
      <trkpt lat="43.53342" lon="2.85715">
        <ele>227.19999694824</ele>
        <time>2012-05-06T08:58:27.000Z</time>
      </trkpt>
      <trkpt lat="43.53346" lon="2.85717">
        <ele>227.60000610352</ele>
        <time>2012-05-06T08:58:28.000Z</time>
      </trkpt>
      <trkpt lat="43.53349" lon="2.8572">
        <ele>227.80000305176</ele>
        <time>2012-05-06T08:58:29.000Z</time>
      </trkpt>
      <trkpt lat="43.53352" lon="2.85722">
        <ele>228</ele>
        <time>2012-05-06T08:58:30.000Z</time>
      </trkpt>
      <trkpt lat="43.53355" lon="2.85725">
        <ele>228.19999694824</ele>
        <time>2012-05-06T08:58:31.000Z</time>
      </trkpt>
      <trkpt lat="43.53358" lon="2.85728">
        <ele>228.19999694824</ele>
        <time>2012-05-06T08:58:32.000Z</time>
      </trkpt>
      <trkpt lat="43.53361" lon="2.85731">
        <ele>228.39999389648</ele>
        <time>2012-05-06T08:58:33.000Z</time>
      </trkpt>
      <trkpt lat="43.53363" lon="2.85734">
        <ele>228.39999389648</ele>
        <time>2012-05-06T08:58:34.000Z</time>
      </trkpt>
      <trkpt lat="43.53366" lon="2.85737">
        <ele>228.39999389648</ele>
        <time>2012-05-06T08:58:35.000Z</time>
      </trkpt>
      <trkpt lat="43.53369" lon="2.8574">
        <ele>228.39999389648</ele>
        <time>2012-05-06T08:58:36.000Z</time>
      </trkpt>
      <trkpt lat="43.53372" lon="2.85744">
        <ele>228.19999694824</ele>
        <time>2012-05-06T08:58:37.000Z</time>
      </trkpt>
      <trkpt lat="43.53374" lon="2.85748">
        <ele>228.19999694824</ele>
        <time>2012-05-06T08:58:38.000Z</time>
      </trkpt>
      <trkpt lat="43.53376" lon="2.85751">
        <ele>228</ele>
        <time>2012-05-06T08:58:39.000Z</time>
      </trkpt>
      <trkpt lat="43.53378" lon="2.85755">
        <ele>228.19999694824</ele>
        <time>2012-05-06T08:58:40.000Z</time>
      </trkpt>
      <trkpt lat="43.5338" lon="2.85758">
        <ele>228.19999694824</ele>
        <time>2012-05-06T08:58:41.000Z</time>
      </trkpt>
      <trkpt lat="43.53381" lon="2.85762">
        <ele>228</ele>
        <time>2012-05-06T08:58:42.000Z</time>
      </trkpt>
      <trkpt lat="43.53383" lon="2.85766">
        <ele>228</ele>
        <time>2012-05-06T08:58:43.000Z</time>
      </trkpt>
      <trkpt lat="43.53385" lon="2.8577">
        <ele>228</ele>
        <time>2012-05-06T08:58:44.000Z</time>
      </trkpt>
      <trkpt lat="43.53387" lon="2.85774">
        <ele>228</ele>
        <time>2012-05-06T08:58:45.000Z</time>
      </trkpt>
      <trkpt lat="43.53389" lon="2.85778">
        <ele>228</ele>
        <time>2012-05-06T08:58:46.000Z</time>
      </trkpt>
      <trkpt lat="43.5339" lon="2.85782">
        <ele>227.80000305176</ele>
        <time>2012-05-06T08:58:47.000Z</time>
      </trkpt>
      <trkpt lat="43.53391" lon="2.85786">
        <ele>227.80000305176</ele>
        <time>2012-05-06T08:58:48.000Z</time>
      </trkpt>
      <trkpt lat="43.53393" lon="2.8579">
        <ele>227.60000610352</ele>
        <time>2012-05-06T08:58:49.000Z</time>
      </trkpt>
      <trkpt lat="43.53395" lon="2.85794">
        <ele>227.60000610352</ele>
        <time>2012-05-06T08:58:50.000Z</time>
      </trkpt>
      <trkpt lat="43.53396" lon="2.85798">
        <ele>227.60000610352</ele>
        <time>2012-05-06T08:58:51.000Z</time>
      </trkpt>
      <trkpt lat="43.53398" lon="2.85802">
        <ele>227.60000610352</ele>
        <time>2012-05-06T08:58:52.000Z</time>
      </trkpt>
      <trkpt lat="43.53401" lon="2.85805">
        <ele>227.60000610352</ele>
        <time>2012-05-06T08:58:53.000Z</time>
      </trkpt>
      <trkpt lat="43.53403" lon="2.85809">
        <ele>227.80000305176</ele>
        <time>2012-05-06T08:58:54.000Z</time>
      </trkpt>
      <trkpt lat="43.53405" lon="2.85813">
        <ele>227.80000305176</ele>
        <time>2012-05-06T08:58:55.000Z</time>
      </trkpt>
      <trkpt lat="43.53407" lon="2.85816">
        <ele>227.80000305176</ele>
        <time>2012-05-06T08:58:56.000Z</time>
      </trkpt>
      <trkpt lat="43.53408" lon="2.8582">
        <ele>227.80000305176</ele>
        <time>2012-05-06T08:58:57.000Z</time>
      </trkpt>
      <trkpt lat="43.5341" lon="2.85823">
        <ele>227.80000305176</ele>
        <time>2012-05-06T08:58:58.000Z</time>
      </trkpt>
      <trkpt lat="43.53412" lon="2.85827">
        <ele>227.80000305176</ele>
        <time>2012-05-06T08:58:59.000Z</time>
      </trkpt>
      <trkpt lat="43.53414" lon="2.8583">
        <ele>227.80000305176</ele>
        <time>2012-05-06T08:59:00.000Z</time>
      </trkpt>
      <trkpt lat="43.53416" lon="2.85834">
        <ele>227.80000305176</ele>
        <time>2012-05-06T08:59:01.000Z</time>
      </trkpt>
      <trkpt lat="43.53417" lon="2.85837">
        <ele>227.60000610352</ele>
        <time>2012-05-06T08:59:02.000Z</time>
      </trkpt>
      <trkpt lat="43.53419" lon="2.85841">
        <ele>227.39999389648</ele>
        <time>2012-05-06T08:59:03.000Z</time>
      </trkpt>
      <trkpt lat="43.53421" lon="2.85845">
        <ele>227.19999694824</ele>
        <time>2012-05-06T08:59:04.000Z</time>
      </trkpt>
      <trkpt lat="43.53422" lon="2.85848">
        <ele>227</ele>
        <time>2012-05-06T08:59:05.000Z</time>
      </trkpt>
      <trkpt lat="43.53424" lon="2.85852">
        <ele>226.80000305176</ele>
        <time>2012-05-06T08:59:06.000Z</time>
      </trkpt>
      <trkpt lat="43.53425" lon="2.85855">
        <ele>226.60000610352</ele>
        <time>2012-05-06T08:59:07.000Z</time>
      </trkpt>
      <trkpt lat="43.53427" lon="2.85859">
        <ele>226.39999389648</ele>
        <time>2012-05-06T08:59:08.000Z</time>
      </trkpt>
      <trkpt lat="43.53429" lon="2.85862">
        <ele>226.39999389648</ele>
        <time>2012-05-06T08:59:09.000Z</time>
      </trkpt>
      <trkpt lat="43.53431" lon="2.85865">
        <ele>226.19999694824</ele>
        <time>2012-05-06T08:59:10.000Z</time>
      </trkpt>
      <trkpt lat="43.53433" lon="2.85868">
        <ele>226.19999694824</ele>
        <time>2012-05-06T08:59:11.000Z</time>
      </trkpt>
      <trkpt lat="43.53435" lon="2.85872">
        <ele>226</ele>
        <time>2012-05-06T08:59:12.000Z</time>
      </trkpt>
      <trkpt lat="43.53437" lon="2.85875">
        <ele>226</ele>
        <time>2012-05-06T08:59:13.000Z</time>
      </trkpt>
      <trkpt lat="43.53439" lon="2.85878">
        <ele>225.80000305176</ele>
        <time>2012-05-06T08:59:14.000Z</time>
      </trkpt>
      <trkpt lat="43.53441" lon="2.85881">
        <ele>225.80000305176</ele>
        <time>2012-05-06T08:59:15.000Z</time>
      </trkpt>
      <trkpt lat="43.53443" lon="2.85883">
        <ele>225.80000305176</ele>
        <time>2012-05-06T08:59:16.000Z</time>
      </trkpt>
      <trkpt lat="43.53445" lon="2.85886">
        <ele>225.80000305176</ele>
        <time>2012-05-06T08:59:17.000Z</time>
      </trkpt>
      <trkpt lat="43.53446" lon="2.8589">
        <ele>225.60000610352</ele>
        <time>2012-05-06T08:59:18.000Z</time>
      </trkpt>
      <trkpt lat="43.53448" lon="2.85893">
        <ele>225.60000610352</ele>
        <time>2012-05-06T08:59:19.000Z</time>
      </trkpt>
      <trkpt lat="43.5345" lon="2.85896">
        <ele>225.39999389648</ele>
        <time>2012-05-06T08:59:20.000Z</time>
      </trkpt>
      <trkpt lat="43.53453" lon="2.85899">
        <ele>225.60000610352</ele>
        <time>2012-05-06T08:59:21.000Z</time>
      </trkpt>
      <trkpt lat="43.53455" lon="2.85901">
        <ele>225.60000610352</ele>
        <time>2012-05-06T08:59:22.000Z</time>
      </trkpt>
      <trkpt lat="43.53458" lon="2.85904">
        <ele>225.60000610352</ele>
        <time>2012-05-06T08:59:23.000Z</time>
      </trkpt>
      <trkpt lat="43.5346" lon="2.85907">
        <ele>225.60000610352</ele>
        <time>2012-05-06T08:59:24.000Z</time>
      </trkpt>
      <trkpt lat="43.53463" lon="2.8591">
        <ele>225.80000305176</ele>
        <time>2012-05-06T08:59:25.000Z</time>
      </trkpt>
      <trkpt lat="43.53466" lon="2.85912">
        <ele>226</ele>
        <time>2012-05-06T08:59:26.000Z</time>
      </trkpt>
      <trkpt lat="43.53469" lon="2.85913">
        <ele>226.19999694824</ele>
        <time>2012-05-06T08:59:27.000Z</time>
      </trkpt>
      <trkpt lat="43.53472" lon="2.85915">
        <ele>226.39999389648</ele>
        <time>2012-05-06T08:59:28.000Z</time>
      </trkpt>
      <trkpt lat="43.53475" lon="2.85916">
        <ele>226.60000610352</ele>
        <time>2012-05-06T08:59:29.000Z</time>
      </trkpt>
      <trkpt lat="43.53478" lon="2.85918">
        <ele>227</ele>
        <time>2012-05-06T08:59:30.000Z</time>
      </trkpt>
      <trkpt lat="43.53482" lon="2.8592">
        <ele>227.19999694824</ele>
        <time>2012-05-06T08:59:31.000Z</time>
      </trkpt>
      <trkpt lat="43.53485" lon="2.85922">
        <ele>227.19999694824</ele>
        <time>2012-05-06T08:59:32.000Z</time>
      </trkpt>
      <trkpt lat="43.53489" lon="2.85924">
        <ele>227.39999389648</ele>
        <time>2012-05-06T08:59:33.000Z</time>
      </trkpt>
      <trkpt lat="43.53489" lon="2.85924">
        <ele>227.39999389648</ele>
        <time>2012-05-06T08:59:33.000Z</time>
      </trkpt>
      <trkpt lat="43.53492" lon="2.85925">
        <ele>227.60000610352</ele>
        <time>2012-05-06T08:59:34.000Z</time>
      </trkpt>
      <trkpt lat="43.53495" lon="2.85927">
        <ele>227.80000305176</ele>
        <time>2012-05-06T08:59:35.000Z</time>
      </trkpt>
      <trkpt lat="43.53498" lon="2.85928">
        <ele>228</ele>
        <time>2012-05-06T08:59:36.000Z</time>
      </trkpt>
      <trkpt lat="43.53502" lon="2.8593">
        <ele>228</ele>
        <time>2012-05-06T08:59:37.000Z</time>
      </trkpt>
      <trkpt lat="43.53505" lon="2.85932">
        <ele>227.80000305176</ele>
        <time>2012-05-06T08:59:38.000Z</time>
      </trkpt>
      <trkpt lat="43.53509" lon="2.85934">
        <ele>227.60000610352</ele>
        <time>2012-05-06T08:59:39.000Z</time>
      </trkpt>
      <trkpt lat="43.53512" lon="2.85935">
        <ele>227.60000610352</ele>
        <time>2012-05-06T08:59:40.000Z</time>
      </trkpt>
      <trkpt lat="43.53515" lon="2.85936">
        <ele>227.39999389648</ele>
        <time>2012-05-06T08:59:41.000Z</time>
      </trkpt>
      <trkpt lat="43.53518" lon="2.85937">
        <ele>227.39999389648</ele>
        <time>2012-05-06T08:59:42.000Z</time>
      </trkpt>
      <trkpt lat="43.53522" lon="2.85938">
        <ele>227.39999389648</ele>
        <time>2012-05-06T08:59:43.000Z</time>
      </trkpt>
      <trkpt lat="43.53525" lon="2.8594">
        <ele>227.19999694824</ele>
        <time>2012-05-06T08:59:44.000Z</time>
      </trkpt>
      <trkpt lat="43.53528" lon="2.85941">
        <ele>227.19999694824</ele>
        <time>2012-05-06T08:59:45.000Z</time>
      </trkpt>
      <trkpt lat="43.53531" lon="2.85942">
        <ele>227.19999694824</ele>
        <time>2012-05-06T08:59:46.000Z</time>
      </trkpt>
      <trkpt lat="43.53535" lon="2.85942">
        <ele>227.19999694824</ele>
        <time>2012-05-06T08:59:47.000Z</time>
      </trkpt>
      <trkpt lat="43.53539" lon="2.85943">
        <ele>227.19999694824</ele>
        <time>2012-05-06T08:59:48.000Z</time>
      </trkpt>
      <trkpt lat="43.53542" lon="2.85943">
        <ele>227.39999389648</ele>
        <time>2012-05-06T08:59:49.000Z</time>
      </trkpt>
      <trkpt lat="43.53545" lon="2.85944">
        <ele>227.39999389648</ele>
        <time>2012-05-06T08:59:50.000Z</time>
      </trkpt>
      <trkpt lat="43.53549" lon="2.85945">
        <ele>227.39999389648</ele>
        <time>2012-05-06T08:59:51.000Z</time>
      </trkpt>
      <trkpt lat="43.53553" lon="2.85946">
        <ele>227.39999389648</ele>
        <time>2012-05-06T08:59:52.000Z</time>
      </trkpt>
      <trkpt lat="43.53556" lon="2.85947">
        <ele>227.39999389648</ele>
        <time>2012-05-06T08:59:53.000Z</time>
      </trkpt>
      <trkpt lat="43.5356" lon="2.85948">
        <ele>227.39999389648</ele>
        <time>2012-05-06T08:59:54.000Z</time>
      </trkpt>
      <trkpt lat="43.53564" lon="2.85949">
        <ele>227.39999389648</ele>
        <time>2012-05-06T08:59:55.000Z</time>
      </trkpt>
      <trkpt lat="43.53567" lon="2.8595">
        <ele>227.39999389648</ele>
        <time>2012-05-06T08:59:56.000Z</time>
      </trkpt>
      <trkpt lat="43.53571" lon="2.8595">
        <ele>227.60000610352</ele>
        <time>2012-05-06T08:59:57.000Z</time>
      </trkpt>
      <trkpt lat="43.53575" lon="2.8595">
        <ele>227.60000610352</ele>
        <time>2012-05-06T08:59:58.000Z</time>
      </trkpt>
      <trkpt lat="43.53578" lon="2.85949">
        <ele>227.80000305176</ele>
        <time>2012-05-06T08:59:59.000Z</time>
      </trkpt>
      <trkpt lat="43.53582" lon="2.85948">
        <ele>228.19999694824</ele>
        <time>2012-05-06T09:00:00.000Z</time>
      </trkpt>
      <trkpt lat="43.53585" lon="2.85946">
        <ele>228.60000610352</ele>
        <time>2012-05-06T09:00:01.000Z</time>
      </trkpt>
      <trkpt lat="43.53588" lon="2.85943">
        <ele>229.39999389648</ele>
        <time>2012-05-06T09:00:02.000Z</time>
      </trkpt>
      <trkpt lat="43.53591" lon="2.85939">
        <ele>230.19999694824</ele>
        <time>2012-05-06T09:00:03.000Z</time>
      </trkpt>
      <trkpt lat="43.53593" lon="2.85935">
        <ele>231</ele>
        <time>2012-05-06T09:00:04.000Z</time>
      </trkpt>
      <trkpt lat="43.53596" lon="2.85931">
        <ele>231.80000305176</ele>
        <time>2012-05-06T09:00:05.000Z</time>
      </trkpt>
      <trkpt lat="43.53599" lon="2.85927">
        <ele>232.60000610352</ele>
        <time>2012-05-06T09:00:06.000Z</time>
      </trkpt>
      <trkpt lat="43.53601" lon="2.85924">
        <ele>233.39999389648</ele>
        <time>2012-05-06T09:00:07.000Z</time>
      </trkpt>
      <trkpt lat="43.53603" lon="2.8592">
        <ele>234.19999694824</ele>
        <time>2012-05-06T09:00:08.000Z</time>
      </trkpt>
      <trkpt lat="43.53604" lon="2.85918">
        <ele>234.60000610352</ele>
        <time>2012-05-06T09:00:09.000Z</time>
      </trkpt>
      <trkpt lat="43.53604" lon="2.85915">
        <ele>235</ele>
        <time>2012-05-06T09:00:10.000Z</time>
      </trkpt>
      <trkpt lat="43.53602" lon="2.85912">
        <ele>235.60000610352</ele>
        <time>2012-05-06T09:00:11.000Z</time>
      </trkpt>
      <trkpt lat="43.53599" lon="2.8591">
        <ele>235.80000305176</ele>
        <time>2012-05-06T09:00:12.000Z</time>
      </trkpt>
      <trkpt lat="43.53596" lon="2.85908">
        <ele>236</ele>
        <time>2012-05-06T09:00:13.000Z</time>
      </trkpt>
      <trkpt lat="43.53594" lon="2.85905">
        <ele>236.19999694824</ele>
        <time>2012-05-06T09:00:14.000Z</time>
      </trkpt>
      <trkpt lat="43.53591" lon="2.85903">
        <ele>236.19999694824</ele>
        <time>2012-05-06T09:00:15.000Z</time>
      </trkpt>
      <trkpt lat="43.53588" lon="2.85902">
        <ele>236.39999389648</ele>
        <time>2012-05-06T09:00:16.000Z</time>
      </trkpt>
      <trkpt lat="43.53585" lon="2.859">
        <ele>236.39999389648</ele>
        <time>2012-05-06T09:00:17.000Z</time>
      </trkpt>
      <trkpt lat="43.53583" lon="2.85898">
        <ele>236.60000610352</ele>
        <time>2012-05-06T09:00:18.000Z</time>
      </trkpt>
      <trkpt lat="43.53581" lon="2.85896">
        <ele>236.80000305176</ele>
        <time>2012-05-06T09:00:19.000Z</time>
      </trkpt>
      <trkpt lat="43.53578" lon="2.85894">
        <ele>237.19999694824</ele>
        <time>2012-05-06T09:00:20.000Z</time>
      </trkpt>
      <trkpt lat="43.53576" lon="2.85892">
        <ele>237.39999389648</ele>
        <time>2012-05-06T09:00:21.000Z</time>
      </trkpt>
      <trkpt lat="43.53573" lon="2.8589">
        <ele>237.60000610352</ele>
        <time>2012-05-06T09:00:22.000Z</time>
      </trkpt>
      <trkpt lat="43.53571" lon="2.85888">
        <ele>237.80000305176</ele>
        <time>2012-05-06T09:00:23.000Z</time>
      </trkpt>
      <trkpt lat="43.53568" lon="2.85886">
        <ele>238</ele>
        <time>2012-05-06T09:00:24.000Z</time>
      </trkpt>
      <trkpt lat="43.53566" lon="2.85885">
        <ele>238.19999694824</ele>
        <time>2012-05-06T09:00:25.000Z</time>
      </trkpt>
      <trkpt lat="43.53563" lon="2.85882">
        <ele>238.39999389648</ele>
        <time>2012-05-06T09:00:26.000Z</time>
      </trkpt>
      <trkpt lat="43.53561" lon="2.8588">
        <ele>238.60000610352</ele>
        <time>2012-05-06T09:00:27.000Z</time>
      </trkpt>
      <trkpt lat="43.53558" lon="2.85878">
        <ele>238.80000305176</ele>
        <time>2012-05-06T09:00:28.000Z</time>
      </trkpt>
      <trkpt lat="43.53556" lon="2.85875">
        <ele>239.19999694824</ele>
        <time>2012-05-06T09:00:29.000Z</time>
      </trkpt>
      <trkpt lat="43.53553" lon="2.85873">
        <ele>239.39999389648</ele>
        <time>2012-05-06T09:00:30.000Z</time>
      </trkpt>
      <trkpt lat="43.53551" lon="2.85871">
        <ele>239.39999389648</ele>
        <time>2012-05-06T09:00:31.000Z</time>
      </trkpt>
      <trkpt lat="43.53548" lon="2.85868">
        <ele>239.39999389648</ele>
        <time>2012-05-06T09:00:32.000Z</time>
      </trkpt>
      <trkpt lat="43.53544" lon="2.85867">
        <ele>239.39999389648</ele>
        <time>2012-05-06T09:00:33.000Z</time>
      </trkpt>
      <trkpt lat="43.53541" lon="2.85865">
        <ele>239.39999389648</ele>
        <time>2012-05-06T09:00:34.000Z</time>
      </trkpt>
      <trkpt lat="43.53538" lon="2.85863">
        <ele>239.39999389648</ele>
        <time>2012-05-06T09:00:35.000Z</time>
      </trkpt>
      <trkpt lat="43.53535" lon="2.85861">
        <ele>239.19999694824</ele>
        <time>2012-05-06T09:00:36.000Z</time>
      </trkpt>
      <trkpt lat="43.53531" lon="2.85859">
        <ele>239</ele>
        <time>2012-05-06T09:00:37.000Z</time>
      </trkpt>
      <trkpt lat="43.53528" lon="2.85857">
        <ele>238.80000305176</ele>
        <time>2012-05-06T09:00:38.000Z</time>
      </trkpt>
      <trkpt lat="43.53525" lon="2.85854">
        <ele>238.60000610352</ele>
        <time>2012-05-06T09:00:39.000Z</time>
      </trkpt>
      <trkpt lat="43.53522" lon="2.85852">
        <ele>238.60000610352</ele>
        <time>2012-05-06T09:00:40.000Z</time>
      </trkpt>
      <trkpt lat="43.53518" lon="2.85849">
        <ele>238.39999389648</ele>
        <time>2012-05-06T09:00:41.000Z</time>
      </trkpt>
      <trkpt lat="43.53515" lon="2.85847">
        <ele>238.19999694824</ele>
        <time>2012-05-06T09:00:42.000Z</time>
      </trkpt>
      <trkpt lat="43.53512" lon="2.85844">
        <ele>238</ele>
        <time>2012-05-06T09:00:43.000Z</time>
      </trkpt>
      <trkpt lat="43.53509" lon="2.85842">
        <ele>237.80000305176</ele>
        <time>2012-05-06T09:00:44.000Z</time>
      </trkpt>
      <trkpt lat="43.53506" lon="2.85839">
        <ele>237.39999389648</ele>
        <time>2012-05-06T09:00:45.000Z</time>
      </trkpt>
      <trkpt lat="43.53502" lon="2.85836">
        <ele>237.19999694824</ele>
        <time>2012-05-06T09:00:46.000Z</time>
      </trkpt>
      <trkpt lat="43.53499" lon="2.85834">
        <ele>236.80000305176</ele>
        <time>2012-05-06T09:00:47.000Z</time>
      </trkpt>
      <trkpt lat="43.53496" lon="2.8583">
        <ele>237</ele>
        <time>2012-05-06T09:00:48.000Z</time>
      </trkpt>
      <trkpt lat="43.53494" lon="2.85827">
        <ele>237.19999694824</ele>
        <time>2012-05-06T09:00:49.000Z</time>
      </trkpt>
      <trkpt lat="43.53491" lon="2.85825">
        <ele>237.19999694824</ele>
        <time>2012-05-06T09:00:50.000Z</time>
      </trkpt>
      <trkpt lat="43.53488" lon="2.85822">
        <ele>237.19999694824</ele>
        <time>2012-05-06T09:00:51.000Z</time>
      </trkpt>
      <trkpt lat="43.53485" lon="2.85818">
        <ele>237.39999389648</ele>
        <time>2012-05-06T09:00:52.000Z</time>
      </trkpt>
      <trkpt lat="43.53482" lon="2.85816">
        <ele>237.39999389648</ele>
        <time>2012-05-06T09:00:53.000Z</time>
      </trkpt>
      <trkpt lat="43.5348" lon="2.85813">
        <ele>237.39999389648</ele>
        <time>2012-05-06T09:00:54.000Z</time>
      </trkpt>
      <trkpt lat="43.53476" lon="2.85811">
        <ele>237.39999389648</ele>
        <time>2012-05-06T09:00:55.000Z</time>
      </trkpt>
      <trkpt lat="43.53473" lon="2.85808">
        <ele>237.19999694824</ele>
        <time>2012-05-06T09:00:56.000Z</time>
      </trkpt>
      <trkpt lat="43.5347" lon="2.85806">
        <ele>237</ele>
        <time>2012-05-06T09:00:57.000Z</time>
      </trkpt>
      <trkpt lat="43.53467" lon="2.85804">
        <ele>236.80000305176</ele>
        <time>2012-05-06T09:00:58.000Z</time>
      </trkpt>
      <trkpt lat="43.53464" lon="2.85801">
        <ele>236.80000305176</ele>
        <time>2012-05-06T09:00:59.000Z</time>
      </trkpt>
      <trkpt lat="43.53461" lon="2.85798">
        <ele>236.80000305176</ele>
        <time>2012-05-06T09:01:00.000Z</time>
      </trkpt>
      <trkpt lat="43.53459" lon="2.85795">
        <ele>237</ele>
        <time>2012-05-06T09:01:01.000Z</time>
      </trkpt>
      <trkpt lat="43.53456" lon="2.85793">
        <ele>236.80000305176</ele>
        <time>2012-05-06T09:01:02.000Z</time>
      </trkpt>
      <trkpt lat="43.53453" lon="2.8579">
        <ele>236.80000305176</ele>
        <time>2012-05-06T09:01:03.000Z</time>
      </trkpt>
      <trkpt lat="43.5345" lon="2.85787">
        <ele>236.60000610352</ele>
        <time>2012-05-06T09:01:04.000Z</time>
      </trkpt>
      <trkpt lat="43.53447" lon="2.85784">
        <ele>236.39999389648</ele>
        <time>2012-05-06T09:01:05.000Z</time>
      </trkpt>
      <trkpt lat="43.53444" lon="2.85781">
        <ele>236.39999389648</ele>
        <time>2012-05-06T09:01:06.000Z</time>
      </trkpt>
      <trkpt lat="43.53441" lon="2.85777">
        <ele>236.19999694824</ele>
        <time>2012-05-06T09:01:07.000Z</time>
      </trkpt>
      <trkpt lat="43.53439" lon="2.85774">
        <ele>236.19999694824</ele>
        <time>2012-05-06T09:01:08.000Z</time>
      </trkpt>
      <trkpt lat="43.53436" lon="2.8577">
        <ele>236.19999694824</ele>
        <time>2012-05-06T09:01:09.000Z</time>
      </trkpt>
      <trkpt lat="43.53433" lon="2.85766">
        <ele>236.19999694824</ele>
        <time>2012-05-06T09:01:10.000Z</time>
      </trkpt>
      <trkpt lat="43.53431" lon="2.85763">
        <ele>236.19999694824</ele>
        <time>2012-05-06T09:01:11.000Z</time>
      </trkpt>
      <trkpt lat="43.53428" lon="2.85759">
        <ele>236.19999694824</ele>
        <time>2012-05-06T09:01:12.000Z</time>
      </trkpt>
      <trkpt lat="43.53426" lon="2.85755">
        <ele>236</ele>
        <time>2012-05-06T09:01:13.000Z</time>
      </trkpt>
      <trkpt lat="43.53423" lon="2.85752">
        <ele>236</ele>
        <time>2012-05-06T09:01:14.000Z</time>
      </trkpt>
      <trkpt lat="43.53421" lon="2.85749">
        <ele>236</ele>
        <time>2012-05-06T09:01:15.000Z</time>
      </trkpt>
      <trkpt lat="43.53418" lon="2.85745">
        <ele>236</ele>
        <time>2012-05-06T09:01:16.000Z</time>
      </trkpt>
      <trkpt lat="43.53416" lon="2.85742">
        <ele>236.19999694824</ele>
        <time>2012-05-06T09:01:17.000Z</time>
      </trkpt>
      <trkpt lat="43.53413" lon="2.85738">
        <ele>236.39999389648</ele>
        <time>2012-05-06T09:01:18.000Z</time>
      </trkpt>
      <trkpt lat="43.53411" lon="2.85736">
        <ele>236.39999389648</ele>
        <time>2012-05-06T09:01:19.000Z</time>
      </trkpt>
      <trkpt lat="43.53408" lon="2.85733">
        <ele>236.39999389648</ele>
        <time>2012-05-06T09:01:20.000Z</time>
      </trkpt>
      <trkpt lat="43.53406" lon="2.8573">
        <ele>236.39999389648</ele>
        <time>2012-05-06T09:01:21.000Z</time>
      </trkpt>
      <trkpt lat="43.53403" lon="2.85728">
        <ele>236.39999389648</ele>
        <time>2012-05-06T09:01:22.000Z</time>
      </trkpt>
      <trkpt lat="43.53401" lon="2.85725">
        <ele>236.39999389648</ele>
        <time>2012-05-06T09:01:23.000Z</time>
      </trkpt>
      <trkpt lat="43.53398" lon="2.85722">
        <ele>236.19999694824</ele>
        <time>2012-05-06T09:01:24.000Z</time>
      </trkpt>
      <trkpt lat="43.53395" lon="2.85719">
        <ele>236.19999694824</ele>
        <time>2012-05-06T09:01:25.000Z</time>
      </trkpt>
      <trkpt lat="43.53393" lon="2.85716">
        <ele>236.39999389648</ele>
        <time>2012-05-06T09:01:26.000Z</time>
      </trkpt>
      <trkpt lat="43.5339" lon="2.85713">
        <ele>236.39999389648</ele>
        <time>2012-05-06T09:01:27.000Z</time>
      </trkpt>
      <trkpt lat="43.53388" lon="2.8571">
        <ele>236.39999389648</ele>
        <time>2012-05-06T09:01:28.000Z</time>
      </trkpt>
      <trkpt lat="43.53386" lon="2.85706">
        <ele>236.60000610352</ele>
        <time>2012-05-06T09:01:29.000Z</time>
      </trkpt>
      <trkpt lat="43.53383" lon="2.85703">
        <ele>236.60000610352</ele>
        <time>2012-05-06T09:01:30.000Z</time>
      </trkpt>
      <trkpt lat="43.53381" lon="2.85699">
        <ele>236.80000305176</ele>
        <time>2012-05-06T09:01:31.000Z</time>
      </trkpt>
      <trkpt lat="43.53379" lon="2.85695">
        <ele>237</ele>
        <time>2012-05-06T09:01:32.000Z</time>
      </trkpt>
      <trkpt lat="43.53377" lon="2.85692">
        <ele>237.19999694824</ele>
        <time>2012-05-06T09:01:33.000Z</time>
      </trkpt>
      <trkpt lat="43.53375" lon="2.85688">
        <ele>237.19999694824</ele>
        <time>2012-05-06T09:01:34.000Z</time>
      </trkpt>
      <trkpt lat="43.53372" lon="2.85684">
        <ele>237.19999694824</ele>
        <time>2012-05-06T09:01:35.000Z</time>
      </trkpt>
      <trkpt lat="43.5337" lon="2.8568">
        <ele>237.39999389648</ele>
        <time>2012-05-06T09:01:36.000Z</time>
      </trkpt>
      <trkpt lat="43.53367" lon="2.85677">
        <ele>237.39999389648</ele>
        <time>2012-05-06T09:01:37.000Z</time>
      </trkpt>
      <trkpt lat="43.53364" lon="2.85674">
        <ele>237.19999694824</ele>
        <time>2012-05-06T09:01:38.000Z</time>
      </trkpt>
      <trkpt lat="43.53362" lon="2.85671">
        <ele>237.19999694824</ele>
        <time>2012-05-06T09:01:39.000Z</time>
      </trkpt>
      <trkpt lat="43.5336" lon="2.85667">
        <ele>237.19999694824</ele>
        <time>2012-05-06T09:01:40.000Z</time>
      </trkpt>
      <trkpt lat="43.53358" lon="2.85664">
        <ele>237.39999389648</ele>
        <time>2012-05-06T09:01:41.000Z</time>
      </trkpt>
      <trkpt lat="43.53355" lon="2.85661">
        <ele>237.39999389648</ele>
        <time>2012-05-06T09:01:42.000Z</time>
      </trkpt>
      <trkpt lat="43.53353" lon="2.85658">
        <ele>237.60000610352</ele>
        <time>2012-05-06T09:01:43.000Z</time>
      </trkpt>
      <trkpt lat="43.53352" lon="2.85655">
        <ele>237.60000610352</ele>
        <time>2012-05-06T09:01:44.000Z</time>
      </trkpt>
      <trkpt lat="43.5335" lon="2.85652">
        <ele>237.60000610352</ele>
        <time>2012-05-06T09:01:45.000Z</time>
      </trkpt>
      <trkpt lat="43.53347" lon="2.8565">
        <ele>237.39999389648</ele>
        <time>2012-05-06T09:01:46.000Z</time>
      </trkpt>
      <trkpt lat="43.53344" lon="2.85648">
        <ele>237.19999694824</ele>
        <time>2012-05-06T09:01:47.000Z</time>
      </trkpt>
      <trkpt lat="43.53342" lon="2.85645">
        <ele>236.80000305176</ele>
        <time>2012-05-06T09:01:48.000Z</time>
      </trkpt>
      <trkpt lat="43.53339" lon="2.85642">
        <ele>236.60000610352</ele>
        <time>2012-05-06T09:01:49.000Z</time>
      </trkpt>
      <trkpt lat="43.53336" lon="2.8564">
        <ele>236.39999389648</ele>
        <time>2012-05-06T09:01:50.000Z</time>
      </trkpt>
      <trkpt lat="43.53334" lon="2.85638">
        <ele>236.19999694824</ele>
        <time>2012-05-06T09:01:51.000Z</time>
      </trkpt>
      <trkpt lat="43.53331" lon="2.85635">
        <ele>236.19999694824</ele>
        <time>2012-05-06T09:01:52.000Z</time>
      </trkpt>
      <trkpt lat="43.53329" lon="2.85632">
        <ele>236.19999694824</ele>
        <time>2012-05-06T09:01:53.000Z</time>
      </trkpt>
      <trkpt lat="43.53327" lon="2.85628">
        <ele>236.19999694824</ele>
        <time>2012-05-06T09:01:54.000Z</time>
      </trkpt>
      <trkpt lat="43.53324" lon="2.85625">
        <ele>236.19999694824</ele>
        <time>2012-05-06T09:01:55.000Z</time>
      </trkpt>
      <trkpt lat="43.53322" lon="2.85622">
        <ele>236.19999694824</ele>
        <time>2012-05-06T09:01:56.000Z</time>
      </trkpt>
      <trkpt lat="43.53319" lon="2.85619">
        <ele>236.19999694824</ele>
        <time>2012-05-06T09:01:57.000Z</time>
      </trkpt>
      <trkpt lat="43.53317" lon="2.85615">
        <ele>236.19999694824</ele>
        <time>2012-05-06T09:01:58.000Z</time>
      </trkpt>
      <trkpt lat="43.53315" lon="2.85612">
        <ele>236.39999389648</ele>
        <time>2012-05-06T09:01:59.000Z</time>
      </trkpt>
      <trkpt lat="43.53313" lon="2.85608">
        <ele>236.39999389648</ele>
        <time>2012-05-06T09:02:00.000Z</time>
      </trkpt>
      <trkpt lat="43.53311" lon="2.85605">
        <ele>236.39999389648</ele>
        <time>2012-05-06T09:02:01.000Z</time>
      </trkpt>
      <trkpt lat="43.53309" lon="2.85601">
        <ele>236.39999389648</ele>
        <time>2012-05-06T09:02:02.000Z</time>
      </trkpt>
      <trkpt lat="43.53307" lon="2.85597">
        <ele>236.39999389648</ele>
        <time>2012-05-06T09:02:03.000Z</time>
      </trkpt>
      <trkpt lat="43.53304" lon="2.85593">
        <ele>236.19999694824</ele>
        <time>2012-05-06T09:02:04.000Z</time>
      </trkpt>
      <trkpt lat="43.53302" lon="2.85588">
        <ele>236.19999694824</ele>
        <time>2012-05-06T09:02:05.000Z</time>
      </trkpt>
      <trkpt lat="43.533" lon="2.85585">
        <ele>236.19999694824</ele>
        <time>2012-05-06T09:02:06.000Z</time>
      </trkpt>
      <trkpt lat="43.53297" lon="2.85581">
        <ele>235.80000305176</ele>
        <time>2012-05-06T09:02:07.000Z</time>
      </trkpt>
      <trkpt lat="43.53295" lon="2.85578">
        <ele>235.39999389648</ele>
        <time>2012-05-06T09:02:08.000Z</time>
      </trkpt>
      <trkpt lat="43.53293" lon="2.85577">
        <ele>235</ele>
        <time>2012-05-06T09:02:09.000Z</time>
      </trkpt>
      <trkpt lat="43.53291" lon="2.85576">
        <ele>234.39999389648</ele>
        <time>2012-05-06T09:02:10.000Z</time>
      </trkpt>
      <trkpt lat="43.53287" lon="2.85578">
        <ele>233.60000610352</ele>
        <time>2012-05-06T09:02:11.000Z</time>
      </trkpt>
      <trkpt lat="43.53284" lon="2.85581">
        <ele>233</ele>
        <time>2012-05-06T09:02:12.000Z</time>
      </trkpt>
      <trkpt lat="43.53282" lon="2.85585">
        <ele>232</ele>
        <time>2012-05-06T09:02:13.000Z</time>
      </trkpt>
      <trkpt lat="43.53278" lon="2.85588">
        <ele>231</ele>
        <time>2012-05-06T09:02:14.000Z</time>
      </trkpt>
      <trkpt lat="43.53275" lon="2.85591">
        <ele>230.19999694824</ele>
        <time>2012-05-06T09:02:15.000Z</time>
      </trkpt>
      <trkpt lat="43.53273" lon="2.85594">
        <ele>229.39999389648</ele>
        <time>2012-05-06T09:02:16.000Z</time>
      </trkpt>
      <trkpt lat="43.53271" lon="2.85597">
        <ele>228.60000610352</ele>
        <time>2012-05-06T09:02:17.000Z</time>
      </trkpt>
      <trkpt lat="43.5327" lon="2.85602">
        <ele>228.19999694824</ele>
        <time>2012-05-06T09:02:18.000Z</time>
      </trkpt>
      <trkpt lat="43.53271" lon="2.85607">
        <ele>227.80000305176</ele>
        <time>2012-05-06T09:02:19.000Z</time>
      </trkpt>
      <trkpt lat="43.53272" lon="2.85612">
        <ele>227.80000305176</ele>
        <time>2012-05-06T09:02:20.000Z</time>
      </trkpt>
      <trkpt lat="43.53275" lon="2.85616">
        <ele>227.80000305176</ele>
        <time>2012-05-06T09:02:21.000Z</time>
      </trkpt>
      <trkpt lat="43.53277" lon="2.85619">
        <ele>228</ele>
        <time>2012-05-06T09:02:22.000Z</time>
      </trkpt>
      <trkpt lat="43.5328" lon="2.85622">
        <ele>228.39999389648</ele>
        <time>2012-05-06T09:02:23.000Z</time>
      </trkpt>
      <trkpt lat="43.53284" lon="2.85625">
        <ele>228.80000305176</ele>
        <time>2012-05-06T09:02:24.000Z</time>
      </trkpt>
      <trkpt lat="43.53287" lon="2.85627">
        <ele>229.19999694824</ele>
        <time>2012-05-06T09:02:25.000Z</time>
      </trkpt>
      <trkpt lat="43.53291" lon="2.85629">
        <ele>229.60000610352</ele>
        <time>2012-05-06T09:02:26.000Z</time>
      </trkpt>
      <trkpt lat="43.53293" lon="2.85633">
        <ele>229.80000305176</ele>
        <time>2012-05-06T09:02:27.000Z</time>
      </trkpt>
      <trkpt lat="43.53296" lon="2.85637">
        <ele>229.80000305176</ele>
        <time>2012-05-06T09:02:28.000Z</time>
      </trkpt>
      <trkpt lat="43.53296" lon="2.85641">
        <ele>229.39999389648</ele>
        <time>2012-05-06T09:02:29.000Z</time>
      </trkpt>
      <trkpt lat="43.53294" lon="2.85646">
        <ele>228.60000610352</ele>
        <time>2012-05-06T09:02:30.000Z</time>
      </trkpt>
      <trkpt lat="43.53291" lon="2.85649">
        <ele>227.60000610352</ele>
        <time>2012-05-06T09:02:31.000Z</time>
      </trkpt>
      <trkpt lat="43.53287" lon="2.85652">
        <ele>226.80000305176</ele>
        <time>2012-05-06T09:02:32.000Z</time>
      </trkpt>
      <trkpt lat="43.53282" lon="2.85652">
        <ele>226</ele>
        <time>2012-05-06T09:02:33.000Z</time>
      </trkpt>
      <trkpt lat="43.53278" lon="2.8565">
        <ele>225.60000610352</ele>
        <time>2012-05-06T09:02:34.000Z</time>
      </trkpt>
      <trkpt lat="43.53275" lon="2.85648">
        <ele>225.19999694824</ele>
        <time>2012-05-06T09:02:35.000Z</time>
      </trkpt>
      <trkpt lat="43.53271" lon="2.85645">
        <ele>224.80000305176</ele>
        <time>2012-05-06T09:02:36.000Z</time>
      </trkpt>
      <trkpt lat="43.53268" lon="2.85643">
        <ele>224.39999389648</ele>
        <time>2012-05-06T09:02:37.000Z</time>
      </trkpt>
      <trkpt lat="43.53264" lon="2.85642">
        <ele>224</ele>
        <time>2012-05-06T09:02:38.000Z</time>
      </trkpt>
      <trkpt lat="43.5326" lon="2.85642">
        <ele>223.19999694824</ele>
        <time>2012-05-06T09:02:39.000Z</time>
      </trkpt>
      <trkpt lat="43.53256" lon="2.85643">
        <ele>222.39999389648</ele>
        <time>2012-05-06T09:02:40.000Z</time>
      </trkpt>
      <trkpt lat="43.53253" lon="2.85644">
        <ele>221.80000305176</ele>
        <time>2012-05-06T09:02:41.000Z</time>
      </trkpt>
      <trkpt lat="43.53249" lon="2.85645">
        <ele>221.19999694824</ele>
        <time>2012-05-06T09:02:42.000Z</time>
      </trkpt>
      <trkpt lat="43.53244" lon="2.85646">
        <ele>221</ele>
        <time>2012-05-06T09:02:43.000Z</time>
      </trkpt>
      <trkpt lat="43.5324" lon="2.85646">
        <ele>220.80000305176</ele>
        <time>2012-05-06T09:02:44.000Z</time>
      </trkpt>
      <trkpt lat="43.53237" lon="2.85645">
        <ele>220.80000305176</ele>
        <time>2012-05-06T09:02:45.000Z</time>
      </trkpt>
      <trkpt lat="43.53233" lon="2.85643">
        <ele>220.80000305176</ele>
        <time>2012-05-06T09:02:46.000Z</time>
      </trkpt>
      <trkpt lat="43.5323" lon="2.85639">
        <ele>220.80000305176</ele>
        <time>2012-05-06T09:02:47.000Z</time>
      </trkpt>
      <trkpt lat="43.53227" lon="2.85634">
        <ele>221</ele>
        <time>2012-05-06T09:02:48.000Z</time>
      </trkpt>
      <trkpt lat="43.53225" lon="2.85629">
        <ele>221.19999694824</ele>
        <time>2012-05-06T09:02:49.000Z</time>
      </trkpt>
      <trkpt lat="43.53222" lon="2.85624">
        <ele>221.39999389648</ele>
        <time>2012-05-06T09:02:50.000Z</time>
      </trkpt>
      <trkpt lat="43.53219" lon="2.8562">
        <ele>221.60000610352</ele>
        <time>2012-05-06T09:02:51.000Z</time>
      </trkpt>
      <trkpt lat="43.53217" lon="2.85615">
        <ele>221.60000610352</ele>
        <time>2012-05-06T09:02:52.000Z</time>
      </trkpt>
      <trkpt lat="43.53214" lon="2.85611">
        <ele>221.80000305176</ele>
        <time>2012-05-06T09:02:53.000Z</time>
      </trkpt>
      <trkpt lat="43.5321" lon="2.85609">
        <ele>221.80000305176</ele>
        <time>2012-05-06T09:02:54.000Z</time>
      </trkpt>
      <trkpt lat="43.53207" lon="2.85608">
        <ele>221.60000610352</ele>
        <time>2012-05-06T09:02:55.000Z</time>
      </trkpt>
      <trkpt lat="43.53203" lon="2.85608">
        <ele>221.39999389648</ele>
        <time>2012-05-06T09:02:56.000Z</time>
      </trkpt>
      <trkpt lat="43.53199" lon="2.85609">
        <ele>221.19999694824</ele>
        <time>2012-05-06T09:02:57.000Z</time>
      </trkpt>
      <trkpt lat="43.53196" lon="2.85609">
        <ele>221</ele>
        <time>2012-05-06T09:02:58.000Z</time>
      </trkpt>
      <trkpt lat="43.53193" lon="2.85608">
        <ele>221</ele>
        <time>2012-05-06T09:02:59.000Z</time>
      </trkpt>
      <trkpt lat="43.53189" lon="2.85608">
        <ele>220.80000305176</ele>
        <time>2012-05-06T09:03:00.000Z</time>
      </trkpt>
      <trkpt lat="43.53186" lon="2.85606">
        <ele>220.80000305176</ele>
        <time>2012-05-06T09:03:01.000Z</time>
      </trkpt>
      <trkpt lat="43.53183" lon="2.85604">
        <ele>220.80000305176</ele>
        <time>2012-05-06T09:03:02.000Z</time>
      </trkpt>
      <trkpt lat="43.53181" lon="2.856">
        <ele>220.80000305176</ele>
        <time>2012-05-06T09:03:03.000Z</time>
      </trkpt>
      <trkpt lat="43.5318" lon="2.85598">
        <ele>221</ele>
        <time>2012-05-06T09:03:04.000Z</time>
      </trkpt>
      <trkpt lat="43.53178" lon="2.85596">
        <ele>221</ele>
        <time>2012-05-06T09:03:05.000Z</time>
      </trkpt>
      <trkpt lat="43.53175" lon="2.85594">
        <ele>220.80000305176</ele>
        <time>2012-05-06T09:03:06.000Z</time>
      </trkpt>
      <trkpt lat="43.53172" lon="2.85591">
        <ele>220.80000305176</ele>
        <time>2012-05-06T09:03:07.000Z</time>
      </trkpt>
      <trkpt lat="43.53169" lon="2.85589">
        <ele>220.80000305176</ele>
        <time>2012-05-06T09:03:08.000Z</time>
      </trkpt>
      <trkpt lat="43.53166" lon="2.85587">
        <ele>220.80000305176</ele>
        <time>2012-05-06T09:03:09.000Z</time>
      </trkpt>
      <trkpt lat="43.53163" lon="2.85585">
        <ele>220.80000305176</ele>
        <time>2012-05-06T09:03:10.000Z</time>
      </trkpt>
      <trkpt lat="43.53162" lon="2.85582">
        <ele>220.80000305176</ele>
        <time>2012-05-06T09:03:11.000Z</time>
      </trkpt>
      <trkpt lat="43.53159" lon="2.85578">
        <ele>220.80000305176</ele>
        <time>2012-05-06T09:03:12.000Z</time>
      </trkpt>
      <trkpt lat="43.53157" lon="2.85574">
        <ele>220.80000305176</ele>
        <time>2012-05-06T09:03:13.000Z</time>
      </trkpt>
      <trkpt lat="43.53155" lon="2.85569">
        <ele>221</ele>
        <time>2012-05-06T09:03:14.000Z</time>
      </trkpt>
      <trkpt lat="43.53153" lon="2.85565">
        <ele>221</ele>
        <time>2012-05-06T09:03:15.000Z</time>
      </trkpt>
      <trkpt lat="43.53151" lon="2.85561">
        <ele>221</ele>
        <time>2012-05-06T09:03:16.000Z</time>
      </trkpt>
      <trkpt lat="43.53148" lon="2.85558">
        <ele>221</ele>
        <time>2012-05-06T09:03:17.000Z</time>
      </trkpt>
      <trkpt lat="43.53146" lon="2.85554">
        <ele>221</ele>
        <time>2012-05-06T09:03:18.000Z</time>
      </trkpt>
      <trkpt lat="43.53144" lon="2.8555">
        <ele>221</ele>
        <time>2012-05-06T09:03:19.000Z</time>
      </trkpt>
      <trkpt lat="43.53142" lon="2.85545">
        <ele>221</ele>
        <time>2012-05-06T09:03:20.000Z</time>
      </trkpt>
      <trkpt lat="43.53141" lon="2.8554">
        <ele>221.19999694824</ele>
        <time>2012-05-06T09:03:21.000Z</time>
      </trkpt>
      <trkpt lat="43.53138" lon="2.85536">
        <ele>221.19999694824</ele>
        <time>2012-05-06T09:03:22.000Z</time>
      </trkpt>
      <trkpt lat="43.53136" lon="2.85532">
        <ele>221.19999694824</ele>
        <time>2012-05-06T09:03:23.000Z</time>
      </trkpt>
      <trkpt lat="43.53133" lon="2.8553">
        <ele>221</ele>
        <time>2012-05-06T09:03:24.000Z</time>
      </trkpt>
      <trkpt lat="43.5313" lon="2.85527">
        <ele>221</ele>
        <time>2012-05-06T09:03:25.000Z</time>
      </trkpt>
      <trkpt lat="43.53126" lon="2.85526">
        <ele>220.80000305176</ele>
        <time>2012-05-06T09:03:26.000Z</time>
      </trkpt>
      <trkpt lat="43.53123" lon="2.85525">
        <ele>220.60000610352</ele>
        <time>2012-05-06T09:03:27.000Z</time>
      </trkpt>
      <trkpt lat="43.53119" lon="2.85523">
        <ele>220.39999389648</ele>
        <time>2012-05-06T09:03:28.000Z</time>
      </trkpt>
      <trkpt lat="43.53115" lon="2.85522">
        <ele>220.19999694824</ele>
        <time>2012-05-06T09:03:29.000Z</time>
      </trkpt>
      <trkpt lat="43.5311" lon="2.85521">
        <ele>220</ele>
        <time>2012-05-06T09:03:30.000Z</time>
      </trkpt>
      <trkpt lat="43.53107" lon="2.8552">
        <ele>219.80000305176</ele>
        <time>2012-05-06T09:03:31.000Z</time>
      </trkpt>
      <trkpt lat="43.53105" lon="2.85517">
        <ele>219.80000305176</ele>
        <time>2012-05-06T09:03:32.000Z</time>
      </trkpt>
      <trkpt lat="43.53103" lon="2.85512">
        <ele>219.80000305176</ele>
        <time>2012-05-06T09:03:33.000Z</time>
      </trkpt>
      <trkpt lat="43.53101" lon="2.85508">
        <ele>219.80000305176</ele>
        <time>2012-05-06T09:03:34.000Z</time>
      </trkpt>
      <trkpt lat="43.531" lon="2.85504">
        <ele>219.80000305176</ele>
        <time>2012-05-06T09:03:35.000Z</time>
      </trkpt>
      <trkpt lat="43.53098" lon="2.855">
        <ele>219.80000305176</ele>
        <time>2012-05-06T09:03:36.000Z</time>
      </trkpt>
      <trkpt lat="43.53097" lon="2.85496">
        <ele>219.80000305176</ele>
        <time>2012-05-06T09:03:37.000Z</time>
      </trkpt>
      <trkpt lat="43.53095" lon="2.85491">
        <ele>219.60000610352</ele>
        <time>2012-05-06T09:03:38.000Z</time>
      </trkpt>
      <trkpt lat="43.53094" lon="2.85486">
        <ele>219.39999389648</ele>
        <time>2012-05-06T09:03:39.000Z</time>
      </trkpt>
      <trkpt lat="43.53094" lon="2.85481">
        <ele>219.19999694824</ele>
        <time>2012-05-06T09:03:40.000Z</time>
      </trkpt>
      <trkpt lat="43.53092" lon="2.85477">
        <ele>219.19999694824</ele>
        <time>2012-05-06T09:03:41.000Z</time>
      </trkpt>
      <trkpt lat="43.53091" lon="2.85473">
        <ele>219</ele>
        <time>2012-05-06T09:03:42.000Z</time>
      </trkpt>
      <trkpt lat="43.5309" lon="2.85468">
        <ele>218.80000305176</ele>
        <time>2012-05-06T09:03:43.000Z</time>
      </trkpt>
      <trkpt lat="43.53089" lon="2.85464">
        <ele>218.60000610352</ele>
        <time>2012-05-06T09:03:44.000Z</time>
      </trkpt>
      <trkpt lat="43.53088" lon="2.85459">
        <ele>218.39999389648</ele>
        <time>2012-05-06T09:03:45.000Z</time>
      </trkpt>
      <trkpt lat="43.53087" lon="2.85454">
        <ele>218.19999694824</ele>
        <time>2012-05-06T09:03:46.000Z</time>
      </trkpt>
      <trkpt lat="43.53087" lon="2.8545">
        <ele>218</ele>
        <time>2012-05-06T09:03:47.000Z</time>
      </trkpt>
      <trkpt lat="43.53086" lon="2.85445">
        <ele>218</ele>
        <time>2012-05-06T09:03:48.000Z</time>
      </trkpt>
      <trkpt lat="43.53085" lon="2.85441">
        <ele>217.80000305176</ele>
        <time>2012-05-06T09:03:49.000Z</time>
      </trkpt>
      <trkpt lat="43.53084" lon="2.85437">
        <ele>217.60000610352</ele>
        <time>2012-05-06T09:03:50.000Z</time>
      </trkpt>
      <trkpt lat="43.53083" lon="2.85433">
        <ele>217.39999389648</ele>
        <time>2012-05-06T09:03:51.000Z</time>
      </trkpt>
      <trkpt lat="43.5308" lon="2.85431">
        <ele>217.39999389648</ele>
        <time>2012-05-06T09:03:52.000Z</time>
      </trkpt>
      <trkpt lat="43.53077" lon="2.8543">
        <ele>217.60000610352</ele>
        <time>2012-05-06T09:03:53.000Z</time>
      </trkpt>
      <trkpt lat="43.53074" lon="2.8543">
        <ele>217.60000610352</ele>
        <time>2012-05-06T09:03:54.000Z</time>
      </trkpt>
      <trkpt lat="43.53071" lon="2.85431">
        <ele>217.80000305176</ele>
        <time>2012-05-06T09:03:55.000Z</time>
      </trkpt>
      <trkpt lat="43.53068" lon="2.85432">
        <ele>217.80000305176</ele>
        <time>2012-05-06T09:03:56.000Z</time>
      </trkpt>
      <trkpt lat="43.53064" lon="2.85432">
        <ele>218</ele>
        <time>2012-05-06T09:03:57.000Z</time>
      </trkpt>
      <trkpt lat="43.53061" lon="2.85432">
        <ele>218</ele>
        <time>2012-05-06T09:03:58.000Z</time>
      </trkpt>
      <trkpt lat="43.53058" lon="2.85433">
        <ele>218.19999694824</ele>
        <time>2012-05-06T09:03:59.000Z</time>
      </trkpt>
      <trkpt lat="43.53055" lon="2.85433">
        <ele>218.19999694824</ele>
        <time>2012-05-06T09:04:00.000Z</time>
      </trkpt>
      <trkpt lat="43.53052" lon="2.85434">
        <ele>218.39999389648</ele>
        <time>2012-05-06T09:04:01.000Z</time>
      </trkpt>
      <trkpt lat="43.53048" lon="2.85434">
        <ele>218.60000610352</ele>
        <time>2012-05-06T09:04:02.000Z</time>
      </trkpt>
      <trkpt lat="43.53045" lon="2.85435">
        <ele>218.60000610352</ele>
        <time>2012-05-06T09:04:03.000Z</time>
      </trkpt>
      <trkpt lat="43.53042" lon="2.85435">
        <ele>218.80000305176</ele>
        <time>2012-05-06T09:04:04.000Z</time>
      </trkpt>
      <trkpt lat="43.53038" lon="2.85436">
        <ele>219</ele>
        <time>2012-05-06T09:04:05.000Z</time>
      </trkpt>
      <trkpt lat="43.53035" lon="2.85436">
        <ele>219</ele>
        <time>2012-05-06T09:04:06.000Z</time>
      </trkpt>
      <trkpt lat="43.53031" lon="2.85437">
        <ele>219.19999694824</ele>
        <time>2012-05-06T09:04:07.000Z</time>
      </trkpt>
      <trkpt lat="43.53028" lon="2.85437">
        <ele>219.39999389648</ele>
        <time>2012-05-06T09:04:08.000Z</time>
      </trkpt>
      <trkpt lat="43.53024" lon="2.85438">
        <ele>219.39999389648</ele>
        <time>2012-05-06T09:04:09.000Z</time>
      </trkpt>
      <trkpt lat="43.53021" lon="2.85439">
        <ele>219.60000610352</ele>
        <time>2012-05-06T09:04:10.000Z</time>
      </trkpt>
      <trkpt lat="43.53017" lon="2.8544">
        <ele>219.80000305176</ele>
        <time>2012-05-06T09:04:11.000Z</time>
      </trkpt>
      <trkpt lat="43.53014" lon="2.85441">
        <ele>220</ele>
        <time>2012-05-06T09:04:12.000Z</time>
      </trkpt>
      <trkpt lat="43.53011" lon="2.85443">
        <ele>220.19999694824</ele>
        <time>2012-05-06T09:04:13.000Z</time>
      </trkpt>
      <trkpt lat="43.53008" lon="2.85446">
        <ele>220.39999389648</ele>
        <time>2012-05-06T09:04:14.000Z</time>
      </trkpt>
      <trkpt lat="43.53006" lon="2.8545">
        <ele>220.80000305176</ele>
        <time>2012-05-06T09:04:15.000Z</time>
      </trkpt>
      <trkpt lat="43.53005" lon="2.85454">
        <ele>221</ele>
        <time>2012-05-06T09:04:16.000Z</time>
      </trkpt>
      <trkpt lat="43.53004" lon="2.85459">
        <ele>221.39999389648</ele>
        <time>2012-05-06T09:04:17.000Z</time>
      </trkpt>
      <trkpt lat="43.53004" lon="2.85464">
        <ele>221.60000610352</ele>
        <time>2012-05-06T09:04:18.000Z</time>
      </trkpt>
      <trkpt lat="43.53005" lon="2.85469">
        <ele>222</ele>
        <time>2012-05-06T09:04:19.000Z</time>
      </trkpt>
      <trkpt lat="43.53005" lon="2.85474">
        <ele>222.19999694824</ele>
        <time>2012-05-06T09:04:20.000Z</time>
      </trkpt>
      <trkpt lat="43.53006" lon="2.85479">
        <ele>222.39999389648</ele>
        <time>2012-05-06T09:04:21.000Z</time>
      </trkpt>
      <trkpt lat="43.53006" lon="2.85484">
        <ele>222.80000305176</ele>
        <time>2012-05-06T09:04:22.000Z</time>
      </trkpt>
      <trkpt lat="43.53007" lon="2.85489">
        <ele>223</ele>
        <time>2012-05-06T09:04:23.000Z</time>
      </trkpt>
      <trkpt lat="43.53009" lon="2.85494">
        <ele>223.19999694824</ele>
        <time>2012-05-06T09:04:24.000Z</time>
      </trkpt>
      <trkpt lat="43.5301" lon="2.85499">
        <ele>223.39999389648</ele>
        <time>2012-05-06T09:04:25.000Z</time>
      </trkpt>
      <trkpt lat="43.53011" lon="2.85504">
        <ele>223.39999389648</ele>
        <time>2012-05-06T09:04:26.000Z</time>
      </trkpt>
      <trkpt lat="43.53013" lon="2.85508">
        <ele>223.39999389648</ele>
        <time>2012-05-06T09:04:27.000Z</time>
      </trkpt>
      <trkpt lat="43.53014" lon="2.85513">
        <ele>223.60000610352</ele>
        <time>2012-05-06T09:04:28.000Z</time>
      </trkpt>
      <trkpt lat="43.53015" lon="2.85518">
        <ele>223.60000610352</ele>
        <time>2012-05-06T09:04:29.000Z</time>
      </trkpt>
      <trkpt lat="43.53017" lon="2.85522">
        <ele>223.39999389648</ele>
        <time>2012-05-06T09:04:30.000Z</time>
      </trkpt>
      <trkpt lat="43.53019" lon="2.85527">
        <ele>223.39999389648</ele>
        <time>2012-05-06T09:04:31.000Z</time>
      </trkpt>
      <trkpt lat="43.53021" lon="2.85531">
        <ele>223.39999389648</ele>
        <time>2012-05-06T09:04:32.000Z</time>
      </trkpt>
      <trkpt lat="43.53023" lon="2.85535">
        <ele>223.39999389648</ele>
        <time>2012-05-06T09:04:33.000Z</time>
      </trkpt>
      <trkpt lat="43.53025" lon="2.85539">
        <ele>223.19999694824</ele>
        <time>2012-05-06T09:04:34.000Z</time>
      </trkpt>
      <trkpt lat="43.53027" lon="2.85543">
        <ele>223</ele>
        <time>2012-05-06T09:04:35.000Z</time>
      </trkpt>
      <trkpt lat="43.53029" lon="2.85547">
        <ele>223</ele>
        <time>2012-05-06T09:04:36.000Z</time>
      </trkpt>
      <trkpt lat="43.53032" lon="2.8555">
        <ele>222.80000305176</ele>
        <time>2012-05-06T09:04:37.000Z</time>
      </trkpt>
      <trkpt lat="43.53034" lon="2.85554">
        <ele>222.60000610352</ele>
        <time>2012-05-06T09:04:38.000Z</time>
      </trkpt>
      <trkpt lat="43.53037" lon="2.85559">
        <ele>222.39999389648</ele>
        <time>2012-05-06T09:04:39.000Z</time>
      </trkpt>
      <trkpt lat="43.53039" lon="2.85563">
        <ele>222.19999694824</ele>
        <time>2012-05-06T09:04:40.000Z</time>
      </trkpt>
      <trkpt lat="43.53042" lon="2.85567">
        <ele>221.80000305176</ele>
        <time>2012-05-06T09:04:41.000Z</time>
      </trkpt>
      <trkpt lat="43.53044" lon="2.85571">
        <ele>221.60000610352</ele>
        <time>2012-05-06T09:04:42.000Z</time>
      </trkpt>
      <trkpt lat="43.53046" lon="2.85575">
        <ele>221.39999389648</ele>
        <time>2012-05-06T09:04:43.000Z</time>
      </trkpt>
      <trkpt lat="43.53048" lon="2.8558">
        <ele>221.19999694824</ele>
        <time>2012-05-06T09:04:44.000Z</time>
      </trkpt>
      <trkpt lat="43.53049" lon="2.85584">
        <ele>221</ele>
        <time>2012-05-06T09:04:45.000Z</time>
      </trkpt>
      <trkpt lat="43.53051" lon="2.85589">
        <ele>220.60000610352</ele>
        <time>2012-05-06T09:04:46.000Z</time>
      </trkpt>
      <trkpt lat="43.53053" lon="2.85593">
        <ele>220.39999389648</ele>
        <time>2012-05-06T09:04:47.000Z</time>
      </trkpt>
      <trkpt lat="43.53054" lon="2.85597">
        <ele>220</ele>
        <time>2012-05-06T09:04:48.000Z</time>
      </trkpt>
      <trkpt lat="43.53055" lon="2.85602">
        <ele>219.80000305176</ele>
        <time>2012-05-06T09:04:49.000Z</time>
      </trkpt>
      <trkpt lat="43.53056" lon="2.85607">
        <ele>219.60000610352</ele>
        <time>2012-05-06T09:04:50.000Z</time>
      </trkpt>
      <trkpt lat="43.53056" lon="2.85612">
        <ele>219.39999389648</ele>
        <time>2012-05-06T09:04:51.000Z</time>
      </trkpt>
      <trkpt lat="43.53057" lon="2.85617">
        <ele>219.19999694824</ele>
        <time>2012-05-06T09:04:52.000Z</time>
      </trkpt>
      <trkpt lat="43.53056" lon="2.85622">
        <ele>219</ele>
        <time>2012-05-06T09:04:53.000Z</time>
      </trkpt>
      <trkpt lat="43.53055" lon="2.85627">
        <ele>219</ele>
        <time>2012-05-06T09:04:54.000Z</time>
      </trkpt>
      <trkpt lat="43.53054" lon="2.85631">
        <ele>219</ele>
        <time>2012-05-06T09:04:55.000Z</time>
      </trkpt>
      <trkpt lat="43.53052" lon="2.85635">
        <ele>219</ele>
        <time>2012-05-06T09:04:56.000Z</time>
      </trkpt>
      <trkpt lat="43.53049" lon="2.85638">
        <ele>219.19999694824</ele>
        <time>2012-05-06T09:04:57.000Z</time>
      </trkpt>
      <trkpt lat="43.53046" lon="2.8564">
        <ele>219.19999694824</ele>
        <time>2012-05-06T09:04:58.000Z</time>
      </trkpt>
      <trkpt lat="43.53044" lon="2.85642">
        <ele>219.39999389648</ele>
        <time>2012-05-06T09:04:59.000Z</time>
      </trkpt>
      <trkpt lat="43.5304" lon="2.85644">
        <ele>219.60000610352</ele>
        <time>2012-05-06T09:05:00.000Z</time>
      </trkpt>
      <trkpt lat="43.53037" lon="2.85646">
        <ele>219.80000305176</ele>
        <time>2012-05-06T09:05:01.000Z</time>
      </trkpt>
      <trkpt lat="43.53034" lon="2.85647">
        <ele>219.80000305176</ele>
        <time>2012-05-06T09:05:02.000Z</time>
      </trkpt>
      <trkpt lat="43.53031" lon="2.85649">
        <ele>220</ele>
        <time>2012-05-06T09:05:03.000Z</time>
      </trkpt>
      <trkpt lat="43.53028" lon="2.8565">
        <ele>220.19999694824</ele>
        <time>2012-05-06T09:05:04.000Z</time>
      </trkpt>
      <trkpt lat="43.53025" lon="2.85652">
        <ele>220.39999389648</ele>
        <time>2012-05-06T09:05:05.000Z</time>
      </trkpt>
      <trkpt lat="43.53022" lon="2.85653">
        <ele>220.39999389648</ele>
        <time>2012-05-06T09:05:06.000Z</time>
      </trkpt>
      <trkpt lat="43.53019" lon="2.85654">
        <ele>220.60000610352</ele>
        <time>2012-05-06T09:05:07.000Z</time>
      </trkpt>
      <trkpt lat="43.53016" lon="2.85655">
        <ele>220.80000305176</ele>
        <time>2012-05-06T09:05:08.000Z</time>
      </trkpt>
      <trkpt lat="43.53013" lon="2.85656">
        <ele>220.80000305176</ele>
        <time>2012-05-06T09:05:09.000Z</time>
      </trkpt>
      <trkpt lat="43.5301" lon="2.85659">
        <ele>221</ele>
        <time>2012-05-06T09:05:10.000Z</time>
      </trkpt>
      <trkpt lat="43.53007" lon="2.85661">
        <ele>221</ele>
        <time>2012-05-06T09:05:11.000Z</time>
      </trkpt>
      <trkpt lat="43.53004" lon="2.85663">
        <ele>221</ele>
        <time>2012-05-06T09:05:12.000Z</time>
      </trkpt>
      <trkpt lat="43.53001" lon="2.85664">
        <ele>221.19999694824</ele>
        <time>2012-05-06T09:05:13.000Z</time>
      </trkpt>
      <trkpt lat="43.52997" lon="2.85665">
        <ele>221.39999389648</ele>
        <time>2012-05-06T09:05:14.000Z</time>
      </trkpt>
      <trkpt lat="43.52995" lon="2.85666">
        <ele>221.60000610352</ele>
        <time>2012-05-06T09:05:15.000Z</time>
      </trkpt>
      <trkpt lat="43.52992" lon="2.85667">
        <ele>221.80000305176</ele>
        <time>2012-05-06T09:05:16.000Z</time>
      </trkpt>
      <trkpt lat="43.52989" lon="2.85669">
        <ele>222.19999694824</ele>
        <time>2012-05-06T09:05:17.000Z</time>
      </trkpt>
      <trkpt lat="43.52986" lon="2.8567">
        <ele>222.60000610352</ele>
        <time>2012-05-06T09:05:18.000Z</time>
      </trkpt>
      <trkpt lat="43.52983" lon="2.85672">
        <ele>222.80000305176</ele>
        <time>2012-05-06T09:05:19.000Z</time>
      </trkpt>
      <trkpt lat="43.5298" lon="2.85674">
        <ele>223.19999694824</ele>
        <time>2012-05-06T09:05:20.000Z</time>
      </trkpt>
      <trkpt lat="43.52977" lon="2.85676">
        <ele>223.60000610352</ele>
        <time>2012-05-06T09:05:21.000Z</time>
      </trkpt>
      <trkpt lat="43.52974" lon="2.85679">
        <ele>224</ele>
        <time>2012-05-06T09:05:22.000Z</time>
      </trkpt>
      <trkpt lat="43.52972" lon="2.85681">
        <ele>224.19999694824</ele>
        <time>2012-05-06T09:05:23.000Z</time>
      </trkpt>
      <trkpt lat="43.5297" lon="2.85684">
        <ele>224.60000610352</ele>
        <time>2012-05-06T09:05:24.000Z</time>
      </trkpt>
      <trkpt lat="43.52968" lon="2.85688">
        <ele>224.80000305176</ele>
        <time>2012-05-06T09:05:25.000Z</time>
      </trkpt>
      <trkpt lat="43.52968" lon="2.85692">
        <ele>225</ele>
        <time>2012-05-06T09:05:26.000Z</time>
      </trkpt>
      <trkpt lat="43.52968" lon="2.85697">
        <ele>225.19999694824</ele>
        <time>2012-05-06T09:05:27.000Z</time>
      </trkpt>
      <trkpt lat="43.52969" lon="2.85701">
        <ele>225.19999694824</ele>
        <time>2012-05-06T09:05:28.000Z</time>
      </trkpt>
      <trkpt lat="43.5297" lon="2.85704">
        <ele>225.39999389648</ele>
        <time>2012-05-06T09:05:29.000Z</time>
      </trkpt>
      <trkpt lat="43.52972" lon="2.85708">
        <ele>225.39999389648</ele>
        <time>2012-05-06T09:05:30.000Z</time>
      </trkpt>
      <trkpt lat="43.52973" lon="2.85713">
        <ele>225.39999389648</ele>
        <time>2012-05-06T09:05:31.000Z</time>
      </trkpt>
      <trkpt lat="43.52974" lon="2.85717">
        <ele>225.60000610352</ele>
        <time>2012-05-06T09:05:32.000Z</time>
      </trkpt>
      <trkpt lat="43.52975" lon="2.85721">
        <ele>225.60000610352</ele>
        <time>2012-05-06T09:05:33.000Z</time>
      </trkpt>
      <trkpt lat="43.52976" lon="2.85726">
        <ele>225.80000305176</ele>
        <time>2012-05-06T09:05:34.000Z</time>
      </trkpt>
      <trkpt lat="43.52977" lon="2.8573">
        <ele>226</ele>
        <time>2012-05-06T09:05:35.000Z</time>
      </trkpt>
      <trkpt lat="43.52977" lon="2.85735">
        <ele>226.19999694824</ele>
        <time>2012-05-06T09:05:36.000Z</time>
      </trkpt>
      <trkpt lat="43.52977" lon="2.8574">
        <ele>226.39999389648</ele>
        <time>2012-05-06T09:05:37.000Z</time>
      </trkpt>
      <trkpt lat="43.52976" lon="2.85744">
        <ele>226.60000610352</ele>
        <time>2012-05-06T09:05:38.000Z</time>
      </trkpt>
      <trkpt lat="43.52974" lon="2.85749">
        <ele>226.80000305176</ele>
        <time>2012-05-06T09:05:39.000Z</time>
      </trkpt>
      <trkpt lat="43.52973" lon="2.85753">
        <ele>227.39999389648</ele>
        <time>2012-05-06T09:05:40.000Z</time>
      </trkpt>
      <trkpt lat="43.52971" lon="2.85757">
        <ele>228</ele>
        <time>2012-05-06T09:05:41.000Z</time>
      </trkpt>
      <trkpt lat="43.52969" lon="2.8576">
        <ele>228.80000305176</ele>
        <time>2012-05-06T09:05:42.000Z</time>
      </trkpt>
      <trkpt lat="43.52966" lon="2.85764">
        <ele>229.39999389648</ele>
        <time>2012-05-06T09:05:43.000Z</time>
      </trkpt>
      <trkpt lat="43.52963" lon="2.85767">
        <ele>230</ele>
        <time>2012-05-06T09:05:44.000Z</time>
      </trkpt>
      <trkpt lat="43.52961" lon="2.8577">
        <ele>230.60000610352</ele>
        <time>2012-05-06T09:05:45.000Z</time>
      </trkpt>
      <trkpt lat="43.52958" lon="2.85772">
        <ele>231</ele>
        <time>2012-05-06T09:05:46.000Z</time>
      </trkpt>
      <trkpt lat="43.52955" lon="2.85773">
        <ele>231.39999389648</ele>
        <time>2012-05-06T09:05:47.000Z</time>
      </trkpt>
      <trkpt lat="43.52952" lon="2.85775">
        <ele>231.80000305176</ele>
        <time>2012-05-06T09:05:48.000Z</time>
      </trkpt>
      <trkpt lat="43.52949" lon="2.85776">
        <ele>232.19999694824</ele>
        <time>2012-05-06T09:05:49.000Z</time>
      </trkpt>
      <trkpt lat="43.52945" lon="2.85776">
        <ele>232.39999389648</ele>
        <time>2012-05-06T09:05:50.000Z</time>
      </trkpt>
      <trkpt lat="43.52942" lon="2.85777">
        <ele>232.80000305176</ele>
        <time>2012-05-06T09:05:51.000Z</time>
      </trkpt>
      <trkpt lat="43.52938" lon="2.85777">
        <ele>233</ele>
        <time>2012-05-06T09:05:52.000Z</time>
      </trkpt>
      <trkpt lat="43.52935" lon="2.85776">
        <ele>233</ele>
        <time>2012-05-06T09:05:53.000Z</time>
      </trkpt>
      <trkpt lat="43.52932" lon="2.85775">
        <ele>233</ele>
        <time>2012-05-06T09:05:54.000Z</time>
      </trkpt>
      <trkpt lat="43.52929" lon="2.85774">
        <ele>233</ele>
        <time>2012-05-06T09:05:55.000Z</time>
      </trkpt>
      <trkpt lat="43.52926" lon="2.85774">
        <ele>233</ele>
        <time>2012-05-06T09:05:56.000Z</time>
      </trkpt>
      <trkpt lat="43.52922" lon="2.85773">
        <ele>233.19999694824</ele>
        <time>2012-05-06T09:05:57.000Z</time>
      </trkpt>
      <trkpt lat="43.52919" lon="2.85772">
        <ele>233</ele>
        <time>2012-05-06T09:05:58.000Z</time>
      </trkpt>
      <trkpt lat="43.52916" lon="2.8577">
        <ele>233</ele>
        <time>2012-05-06T09:05:59.000Z</time>
      </trkpt>
      <trkpt lat="43.52913" lon="2.85768">
        <ele>232.80000305176</ele>
        <time>2012-05-06T09:06:00.000Z</time>
      </trkpt>
      <trkpt lat="43.5291" lon="2.85765">
        <ele>232.60000610352</ele>
        <time>2012-05-06T09:06:01.000Z</time>
      </trkpt>
      <trkpt lat="43.52907" lon="2.85764">
        <ele>232.60000610352</ele>
        <time>2012-05-06T09:06:02.000Z</time>
      </trkpt>
      <trkpt lat="43.52905" lon="2.85763">
        <ele>232.80000305176</ele>
        <time>2012-05-06T09:06:03.000Z</time>
      </trkpt>
      <trkpt lat="43.52902" lon="2.85761">
        <ele>232.60000610352</ele>
        <time>2012-05-06T09:06:04.000Z</time>
      </trkpt>
      <trkpt lat="43.52899" lon="2.8576">
        <ele>232.60000610352</ele>
        <time>2012-05-06T09:06:05.000Z</time>
      </trkpt>
      <trkpt lat="43.52896" lon="2.85759">
        <ele>232.80000305176</ele>
        <time>2012-05-06T09:06:06.000Z</time>
      </trkpt>
      <trkpt lat="43.52893" lon="2.85758">
        <ele>232.80000305176</ele>
        <time>2012-05-06T09:06:07.000Z</time>
      </trkpt>
      <trkpt lat="43.5289" lon="2.85757">
        <ele>232.80000305176</ele>
        <time>2012-05-06T09:06:08.000Z</time>
      </trkpt>
      <trkpt lat="43.52887" lon="2.85755">
        <ele>232.60000610352</ele>
        <time>2012-05-06T09:06:09.000Z</time>
      </trkpt>
      <trkpt lat="43.52884" lon="2.85753">
        <ele>232.60000610352</ele>
        <time>2012-05-06T09:06:10.000Z</time>
      </trkpt>
      <trkpt lat="43.52881" lon="2.85751">
        <ele>232.19999694824</ele>
        <time>2012-05-06T09:06:11.000Z</time>
      </trkpt>
      <trkpt lat="43.52879" lon="2.85749">
        <ele>232.19999694824</ele>
        <time>2012-05-06T09:06:12.000Z</time>
      </trkpt>
      <trkpt lat="43.52876" lon="2.85748">
        <ele>232.39999389648</ele>
        <time>2012-05-06T09:06:13.000Z</time>
      </trkpt>
      <trkpt lat="43.52873" lon="2.85747">
        <ele>232.60000610352</ele>
        <time>2012-05-06T09:06:14.000Z</time>
      </trkpt>
      <trkpt lat="43.5287" lon="2.85746">
        <ele>232.80000305176</ele>
        <time>2012-05-06T09:06:15.000Z</time>
      </trkpt>
      <trkpt lat="43.52868" lon="2.85745">
        <ele>233</ele>
        <time>2012-05-06T09:06:16.000Z</time>
      </trkpt>
      <trkpt lat="43.52865" lon="2.85744">
        <ele>233.19999694824</ele>
        <time>2012-05-06T09:06:17.000Z</time>
      </trkpt>
      <trkpt lat="43.52862" lon="2.85745">
        <ele>233.39999389648</ele>
        <time>2012-05-06T09:06:18.000Z</time>
      </trkpt>
      <trkpt lat="43.52859" lon="2.85744">
        <ele>233.60000610352</ele>
        <time>2012-05-06T09:06:19.000Z</time>
      </trkpt>
      <trkpt lat="43.52856" lon="2.85744">
        <ele>233.80000305176</ele>
        <time>2012-05-06T09:06:20.000Z</time>
      </trkpt>
      <trkpt lat="43.52853" lon="2.85743">
        <ele>234</ele>
        <time>2012-05-06T09:06:21.000Z</time>
      </trkpt>
      <trkpt lat="43.52851" lon="2.85743">
        <ele>234.19999694824</ele>
        <time>2012-05-06T09:06:22.000Z</time>
      </trkpt>
      <trkpt lat="43.52848" lon="2.85742">
        <ele>234.39999389648</ele>
        <time>2012-05-06T09:06:23.000Z</time>
      </trkpt>
      <trkpt lat="43.52845" lon="2.85742">
        <ele>234.60000610352</ele>
        <time>2012-05-06T09:06:24.000Z</time>
      </trkpt>
      <trkpt lat="43.52842" lon="2.85742">
        <ele>234.80000305176</ele>
        <time>2012-05-06T09:06:25.000Z</time>
      </trkpt>
      <trkpt lat="43.52839" lon="2.85742">
        <ele>235</ele>
        <time>2012-05-06T09:06:26.000Z</time>
      </trkpt>
      <trkpt lat="43.52836" lon="2.85742">
        <ele>235.19999694824</ele>
        <time>2012-05-06T09:06:27.000Z</time>
      </trkpt>
      <trkpt lat="43.52834" lon="2.85741">
        <ele>235.39999389648</ele>
        <time>2012-05-06T09:06:28.000Z</time>
      </trkpt>
      <trkpt lat="43.52832" lon="2.8574">
        <ele>235.39999389648</ele>
        <time>2012-05-06T09:06:29.000Z</time>
      </trkpt>
      <trkpt lat="43.52829" lon="2.85739">
        <ele>235.39999389648</ele>
        <time>2012-05-06T09:06:30.000Z</time>
      </trkpt>
      <trkpt lat="43.52826" lon="2.85738">
        <ele>235.19999694824</ele>
        <time>2012-05-06T09:06:31.000Z</time>
      </trkpt>
      <trkpt lat="43.52824" lon="2.85738">
        <ele>235.19999694824</ele>
        <time>2012-05-06T09:06:32.000Z</time>
      </trkpt>
      <trkpt lat="43.52821" lon="2.85738">
        <ele>235.19999694824</ele>
        <time>2012-05-06T09:06:33.000Z</time>
      </trkpt>
      <trkpt lat="43.52817" lon="2.8574">
        <ele>235.19999694824</ele>
        <time>2012-05-06T09:06:34.000Z</time>
      </trkpt>
      <trkpt lat="43.52814" lon="2.85741">
        <ele>235.19999694824</ele>
        <time>2012-05-06T09:06:35.000Z</time>
      </trkpt>
      <trkpt lat="43.52811" lon="2.85741">
        <ele>235.19999694824</ele>
        <time>2012-05-06T09:06:36.000Z</time>
      </trkpt>
      <trkpt lat="43.52808" lon="2.85742">
        <ele>235.19999694824</ele>
        <time>2012-05-06T09:06:37.000Z</time>
      </trkpt>
      <trkpt lat="43.52805" lon="2.85742">
        <ele>235.19999694824</ele>
        <time>2012-05-06T09:06:38.000Z</time>
      </trkpt>
      <trkpt lat="43.52802" lon="2.85742">
        <ele>235.19999694824</ele>
        <time>2012-05-06T09:06:39.000Z</time>
      </trkpt>
      <trkpt lat="43.52799" lon="2.85742">
        <ele>235.19999694824</ele>
        <time>2012-05-06T09:06:40.000Z</time>
      </trkpt>
      <trkpt lat="43.52796" lon="2.85742">
        <ele>235.19999694824</ele>
        <time>2012-05-06T09:06:41.000Z</time>
      </trkpt>
      <trkpt lat="43.52794" lon="2.85742">
        <ele>235.19999694824</ele>
        <time>2012-05-06T09:06:42.000Z</time>
      </trkpt>
      <trkpt lat="43.5279" lon="2.85743">
        <ele>235</ele>
        <time>2012-05-06T09:06:43.000Z</time>
      </trkpt>
      <trkpt lat="43.52787" lon="2.85743">
        <ele>235</ele>
        <time>2012-05-06T09:06:44.000Z</time>
      </trkpt>
      <trkpt lat="43.52785" lon="2.85743">
        <ele>235</ele>
        <time>2012-05-06T09:06:45.000Z</time>
      </trkpt>
      <trkpt lat="43.52782" lon="2.85744">
        <ele>235</ele>
        <time>2012-05-06T09:06:46.000Z</time>
      </trkpt>
      <trkpt lat="43.5278" lon="2.85746">
        <ele>234.80000305176</ele>
        <time>2012-05-06T09:06:47.000Z</time>
      </trkpt>
      <trkpt lat="43.52777" lon="2.85747">
        <ele>234.80000305176</ele>
        <time>2012-05-06T09:06:48.000Z</time>
      </trkpt>
      <trkpt lat="43.52774" lon="2.85749">
        <ele>234.60000610352</ele>
        <time>2012-05-06T09:06:49.000Z</time>
      </trkpt>
      <trkpt lat="43.52772" lon="2.85751">
        <ele>234.80000305176</ele>
        <time>2012-05-06T09:06:50.000Z</time>
      </trkpt>
      <trkpt lat="43.52769" lon="2.85753">
        <ele>235.19999694824</ele>
        <time>2012-05-06T09:06:51.000Z</time>
      </trkpt>
      <trkpt lat="43.52767" lon="2.85755">
        <ele>235.80000305176</ele>
        <time>2012-05-06T09:06:52.000Z</time>
      </trkpt>
      <trkpt lat="43.52764" lon="2.85757">
        <ele>236.19999694824</ele>
        <time>2012-05-06T09:06:53.000Z</time>
      </trkpt>
      <trkpt lat="43.52762" lon="2.85759">
        <ele>236.80000305176</ele>
        <time>2012-05-06T09:06:54.000Z</time>
      </trkpt>
      <trkpt lat="43.52758" lon="2.85761">
        <ele>237.39999389648</ele>
        <time>2012-05-06T09:06:55.000Z</time>
      </trkpt>
      <trkpt lat="43.52755" lon="2.85763">
        <ele>238</ele>
        <time>2012-05-06T09:06:56.000Z</time>
      </trkpt>
      <trkpt lat="43.52753" lon="2.85765">
        <ele>238.39999389648</ele>
        <time>2012-05-06T09:06:57.000Z</time>
      </trkpt>
      <trkpt lat="43.52751" lon="2.85767">
        <ele>238.80000305176</ele>
        <time>2012-05-06T09:06:58.000Z</time>
      </trkpt>
      <trkpt lat="43.52748" lon="2.85769">
        <ele>239.39999389648</ele>
        <time>2012-05-06T09:06:59.000Z</time>
      </trkpt>
      <trkpt lat="43.52746" lon="2.85771">
        <ele>240</ele>
        <time>2012-05-06T09:07:00.000Z</time>
      </trkpt>
      <trkpt lat="43.52744" lon="2.85773">
        <ele>240.60000610352</ele>
        <time>2012-05-06T09:07:01.000Z</time>
      </trkpt>
      <trkpt lat="43.52741" lon="2.85775">
        <ele>241</ele>
        <time>2012-05-06T09:07:02.000Z</time>
      </trkpt>
      <trkpt lat="43.52739" lon="2.85777">
        <ele>241.60000610352</ele>
        <time>2012-05-06T09:07:03.000Z</time>
      </trkpt>
      <trkpt lat="43.52736" lon="2.8578">
        <ele>242.19999694824</ele>
        <time>2012-05-06T09:07:04.000Z</time>
      </trkpt>
      <trkpt lat="43.52733" lon="2.85782">
        <ele>242.60000610352</ele>
        <time>2012-05-06T09:07:05.000Z</time>
      </trkpt>
      <trkpt lat="43.52731" lon="2.85784">
        <ele>243</ele>
        <time>2012-05-06T09:07:06.000Z</time>
      </trkpt>
      <trkpt lat="43.52728" lon="2.85786">
        <ele>243.60000610352</ele>
        <time>2012-05-06T09:07:07.000Z</time>
      </trkpt>
      <trkpt lat="43.52725" lon="2.8579">
        <ele>244</ele>
        <time>2012-05-06T09:07:08.000Z</time>
      </trkpt>
      <trkpt lat="43.52722" lon="2.85793">
        <ele>244.60000610352</ele>
        <time>2012-05-06T09:07:09.000Z</time>
      </trkpt>
      <trkpt lat="43.52719" lon="2.85796">
        <ele>245</ele>
        <time>2012-05-06T09:07:10.000Z</time>
      </trkpt>
      <trkpt lat="43.52717" lon="2.85799">
        <ele>245.39999389648</ele>
        <time>2012-05-06T09:07:11.000Z</time>
      </trkpt>
      <trkpt lat="43.52714" lon="2.85802">
        <ele>245.60000610352</ele>
        <time>2012-05-06T09:07:12.000Z</time>
      </trkpt>
      <trkpt lat="43.52711" lon="2.85805">
        <ele>245.80000305176</ele>
        <time>2012-05-06T09:07:13.000Z</time>
      </trkpt>
      <trkpt lat="43.52709" lon="2.85807">
        <ele>246</ele>
        <time>2012-05-06T09:07:14.000Z</time>
      </trkpt>
      <trkpt lat="43.52707" lon="2.8581">
        <ele>246.19999694824</ele>
        <time>2012-05-06T09:07:15.000Z</time>
      </trkpt>
      <trkpt lat="43.52704" lon="2.85812">
        <ele>246.19999694824</ele>
        <time>2012-05-06T09:07:16.000Z</time>
      </trkpt>
      <trkpt lat="43.52702" lon="2.85816">
        <ele>246.39999389648</ele>
        <time>2012-05-06T09:07:17.000Z</time>
      </trkpt>
      <trkpt lat="43.527" lon="2.85818">
        <ele>246.60000610352</ele>
        <time>2012-05-06T09:07:18.000Z</time>
      </trkpt>
      <trkpt lat="43.52698" lon="2.85821">
        <ele>246.39999389648</ele>
        <time>2012-05-06T09:07:19.000Z</time>
      </trkpt>
      <trkpt lat="43.52695" lon="2.85823">
        <ele>246.19999694824</ele>
        <time>2012-05-06T09:07:20.000Z</time>
      </trkpt>
      <trkpt lat="43.52693" lon="2.85825">
        <ele>246.19999694824</ele>
        <time>2012-05-06T09:07:21.000Z</time>
      </trkpt>
      <trkpt lat="43.52691" lon="2.85828">
        <ele>246</ele>
        <time>2012-05-06T09:07:22.000Z</time>
      </trkpt>
      <trkpt lat="43.52689" lon="2.85831">
        <ele>246</ele>
        <time>2012-05-06T09:07:23.000Z</time>
      </trkpt>
      <trkpt lat="43.52687" lon="2.85833">
        <ele>245.80000305176</ele>
        <time>2012-05-06T09:07:24.000Z</time>
      </trkpt>
      <trkpt lat="43.52685" lon="2.85836">
        <ele>246.19999694824</ele>
        <time>2012-05-06T09:07:25.000Z</time>
      </trkpt>
      <trkpt lat="43.52682" lon="2.85839">
        <ele>246.60000610352</ele>
        <time>2012-05-06T09:07:26.000Z</time>
      </trkpt>
      <trkpt lat="43.5268" lon="2.85842">
        <ele>246.80000305176</ele>
        <time>2012-05-06T09:07:27.000Z</time>
      </trkpt>
      <trkpt lat="43.52677" lon="2.85845">
        <ele>247.19999694824</ele>
        <time>2012-05-06T09:07:28.000Z</time>
      </trkpt>
      <trkpt lat="43.52675" lon="2.85848">
        <ele>247.39999389648</ele>
        <time>2012-05-06T09:07:29.000Z</time>
      </trkpt>
      <trkpt lat="43.52673" lon="2.85851">
        <ele>247.80000305176</ele>
        <time>2012-05-06T09:07:30.000Z</time>
      </trkpt>
      <trkpt lat="43.5267" lon="2.85854">
        <ele>248</ele>
        <time>2012-05-06T09:07:31.000Z</time>
      </trkpt>
      <trkpt lat="43.52668" lon="2.85857">
        <ele>248.39999389648</ele>
        <time>2012-05-06T09:07:32.000Z</time>
      </trkpt>
      <trkpt lat="43.52666" lon="2.8586">
        <ele>248.60000610352</ele>
        <time>2012-05-06T09:07:33.000Z</time>
      </trkpt>
      <trkpt lat="43.52664" lon="2.85863">
        <ele>249.19999694824</ele>
        <time>2012-05-06T09:07:34.000Z</time>
      </trkpt>
      <trkpt lat="43.52662" lon="2.85866">
        <ele>249.60000610352</ele>
        <time>2012-05-06T09:07:35.000Z</time>
      </trkpt>
      <trkpt lat="43.52659" lon="2.85869">
        <ele>250</ele>
        <time>2012-05-06T09:07:36.000Z</time>
      </trkpt>
      <trkpt lat="43.52657" lon="2.85873">
        <ele>250.39999389648</ele>
        <time>2012-05-06T09:07:37.000Z</time>
      </trkpt>
      <trkpt lat="43.52654" lon="2.85876">
        <ele>250.80000305176</ele>
        <time>2012-05-06T09:07:38.000Z</time>
      </trkpt>
      <trkpt lat="43.52652" lon="2.85879">
        <ele>251</ele>
        <time>2012-05-06T09:07:39.000Z</time>
      </trkpt>
      <trkpt lat="43.5265" lon="2.85882">
        <ele>251.39999389648</ele>
        <time>2012-05-06T09:07:40.000Z</time>
      </trkpt>
      <trkpt lat="43.52648" lon="2.85884">
        <ele>251.39999389648</ele>
        <time>2012-05-06T09:07:41.000Z</time>
      </trkpt>
      <trkpt lat="43.52647" lon="2.85886">
        <ele>251.60000610352</ele>
        <time>2012-05-06T09:07:42.000Z</time>
      </trkpt>
      <trkpt lat="43.52644" lon="2.85889">
        <ele>251.80000305176</ele>
        <time>2012-05-06T09:07:43.000Z</time>
      </trkpt>
      <trkpt lat="43.52642" lon="2.85892">
        <ele>251.80000305176</ele>
        <time>2012-05-06T09:07:44.000Z</time>
      </trkpt>
      <trkpt lat="43.5264" lon="2.85895">
        <ele>252</ele>
        <time>2012-05-06T09:07:45.000Z</time>
      </trkpt>
      <trkpt lat="43.52638" lon="2.85897">
        <ele>252</ele>
        <time>2012-05-06T09:07:46.000Z</time>
      </trkpt>
      <trkpt lat="43.52636" lon="2.859">
        <ele>252</ele>
        <time>2012-05-06T09:07:47.000Z</time>
      </trkpt>
      <trkpt lat="43.52634" lon="2.85903">
        <ele>252</ele>
        <time>2012-05-06T09:07:48.000Z</time>
      </trkpt>
      <trkpt lat="43.52631" lon="2.85906">
        <ele>252</ele>
        <time>2012-05-06T09:07:49.000Z</time>
      </trkpt>
      <trkpt lat="43.52628" lon="2.85909">
        <ele>251.80000305176</ele>
        <time>2012-05-06T09:07:50.000Z</time>
      </trkpt>
      <trkpt lat="43.52626" lon="2.85912">
        <ele>251.60000610352</ele>
        <time>2012-05-06T09:07:51.000Z</time>
      </trkpt>
      <trkpt lat="43.52623" lon="2.85915">
        <ele>251.19999694824</ele>
        <time>2012-05-06T09:07:52.000Z</time>
      </trkpt>
      <trkpt lat="43.52621" lon="2.85918">
        <ele>251.19999694824</ele>
        <time>2012-05-06T09:07:53.000Z</time>
      </trkpt>
      <trkpt lat="43.52618" lon="2.8592">
        <ele>251.19999694824</ele>
        <time>2012-05-06T09:07:54.000Z</time>
      </trkpt>
      <trkpt lat="43.52615" lon="2.85922">
        <ele>251.19999694824</ele>
        <time>2012-05-06T09:07:55.000Z</time>
      </trkpt>
      <trkpt lat="43.52612" lon="2.85924">
        <ele>251</ele>
        <time>2012-05-06T09:07:56.000Z</time>
      </trkpt>
      <trkpt lat="43.5261" lon="2.85926">
        <ele>250.80000305176</ele>
        <time>2012-05-06T09:07:57.000Z</time>
      </trkpt>
      <trkpt lat="43.52607" lon="2.85928">
        <ele>250.80000305176</ele>
        <time>2012-05-06T09:07:58.000Z</time>
      </trkpt>
      <trkpt lat="43.52604" lon="2.8593">
        <ele>250.60000610352</ele>
        <time>2012-05-06T09:07:59.000Z</time>
      </trkpt>
      <trkpt lat="43.52601" lon="2.85932">
        <ele>250.60000610352</ele>
        <time>2012-05-06T09:08:00.000Z</time>
      </trkpt>
      <trkpt lat="43.52598" lon="2.85935">
        <ele>250.60000610352</ele>
        <time>2012-05-06T09:08:01.000Z</time>
      </trkpt>
      <trkpt lat="43.52596" lon="2.85937">
        <ele>250.60000610352</ele>
        <time>2012-05-06T09:08:02.000Z</time>
      </trkpt>
      <trkpt lat="43.52593" lon="2.85939">
        <ele>250.60000610352</ele>
        <time>2012-05-06T09:08:03.000Z</time>
      </trkpt>
      <trkpt lat="43.5259" lon="2.85941">
        <ele>250.39999389648</ele>
        <time>2012-05-06T09:08:04.000Z</time>
      </trkpt>
      <trkpt lat="43.52587" lon="2.85943">
        <ele>250.19999694824</ele>
        <time>2012-05-06T09:08:05.000Z</time>
      </trkpt>
      <trkpt lat="43.52584" lon="2.85945">
        <ele>250</ele>
        <time>2012-05-06T09:08:06.000Z</time>
      </trkpt>
      <trkpt lat="43.52581" lon="2.85947">
        <ele>250.19999694824</ele>
        <time>2012-05-06T09:08:07.000Z</time>
      </trkpt>
      <trkpt lat="43.52579" lon="2.85948">
        <ele>250.19999694824</ele>
        <time>2012-05-06T09:08:08.000Z</time>
      </trkpt>
      <trkpt lat="43.52577" lon="2.85949">
        <ele>250.19999694824</ele>
        <time>2012-05-06T09:08:09.000Z</time>
      </trkpt>
      <trkpt lat="43.52574" lon="2.85951">
        <ele>250.39999389648</ele>
        <time>2012-05-06T09:08:10.000Z</time>
      </trkpt>
      <trkpt lat="43.52572" lon="2.85953">
        <ele>250.60000610352</ele>
        <time>2012-05-06T09:08:11.000Z</time>
      </trkpt>
      <trkpt lat="43.52569" lon="2.85955">
        <ele>250.80000305176</ele>
        <time>2012-05-06T09:08:12.000Z</time>
      </trkpt>
      <trkpt lat="43.52566" lon="2.85957">
        <ele>251</ele>
        <time>2012-05-06T09:08:13.000Z</time>
      </trkpt>
      <trkpt lat="43.52564" lon="2.8596">
        <ele>251.19999694824</ele>
        <time>2012-05-06T09:08:14.000Z</time>
      </trkpt>
      <trkpt lat="43.52561" lon="2.85961">
        <ele>251.39999389648</ele>
        <time>2012-05-06T09:08:15.000Z</time>
      </trkpt>
      <trkpt lat="43.52559" lon="2.85963">
        <ele>251.60000610352</ele>
        <time>2012-05-06T09:08:16.000Z</time>
      </trkpt>
      <trkpt lat="43.52557" lon="2.85966">
        <ele>251.80000305176</ele>
        <time>2012-05-06T09:08:17.000Z</time>
      </trkpt>
      <trkpt lat="43.52554" lon="2.85968">
        <ele>252</ele>
        <time>2012-05-06T09:08:18.000Z</time>
      </trkpt>
      <trkpt lat="43.52553" lon="2.8597">
        <ele>252.19999694824</ele>
        <time>2012-05-06T09:08:19.000Z</time>
      </trkpt>
      <trkpt lat="43.52552" lon="2.85972">
        <ele>252.60000610352</ele>
        <time>2012-05-06T09:08:20.000Z</time>
      </trkpt>
      <trkpt lat="43.52553" lon="2.85974">
        <ele>253.39999389648</ele>
        <time>2012-05-06T09:08:21.000Z</time>
      </trkpt>
      <trkpt lat="43.52555" lon="2.85974">
        <ele>253.80000305176</ele>
        <time>2012-05-06T09:08:22.000Z</time>
      </trkpt>
      <trkpt lat="43.52558" lon="2.85973">
        <ele>254</ele>
        <time>2012-05-06T09:08:23.000Z</time>
      </trkpt>
      <trkpt lat="43.5256" lon="2.85972">
        <ele>254</ele>
        <time>2012-05-06T09:08:24.000Z</time>
      </trkpt>
      <trkpt lat="43.52563" lon="2.8597">
        <ele>254</ele>
        <time>2012-05-06T09:08:25.000Z</time>
      </trkpt>
      <trkpt lat="43.52565" lon="2.85967">
        <ele>253.60000610352</ele>
        <time>2012-05-06T09:08:26.000Z</time>
      </trkpt>
      <trkpt lat="43.52567" lon="2.85965">
        <ele>253.39999389648</ele>
        <time>2012-05-06T09:08:27.000Z</time>
      </trkpt>
      <trkpt lat="43.5257" lon="2.85963">
        <ele>253.19999694824</ele>
        <time>2012-05-06T09:08:28.000Z</time>
      </trkpt>
      <trkpt lat="43.52572" lon="2.85961">
        <ele>253.19999694824</ele>
        <time>2012-05-06T09:08:29.000Z</time>
      </trkpt>
      <trkpt lat="43.52575" lon="2.8596">
        <ele>253</ele>
        <time>2012-05-06T09:08:30.000Z</time>
      </trkpt>
      <trkpt lat="43.52577" lon="2.85958">
        <ele>253</ele>
        <time>2012-05-06T09:08:31.000Z</time>
      </trkpt>
      <trkpt lat="43.5258" lon="2.85957">
        <ele>253</ele>
        <time>2012-05-06T09:08:32.000Z</time>
      </trkpt>
      <trkpt lat="43.52583" lon="2.85956">
        <ele>253</ele>
        <time>2012-05-06T09:08:33.000Z</time>
      </trkpt>
      <trkpt lat="43.52585" lon="2.85954">
        <ele>253.19999694824</ele>
        <time>2012-05-06T09:08:34.000Z</time>
      </trkpt>
      <trkpt lat="43.52588" lon="2.85953">
        <ele>253.60000610352</ele>
        <time>2012-05-06T09:08:35.000Z</time>
      </trkpt>
      <trkpt lat="43.52591" lon="2.85952">
        <ele>254</ele>
        <time>2012-05-06T09:08:36.000Z</time>
      </trkpt>
      <trkpt lat="43.52593" lon="2.85951">
        <ele>254.39999389648</ele>
        <time>2012-05-06T09:08:37.000Z</time>
      </trkpt>
      <trkpt lat="43.52595" lon="2.8595">
        <ele>254.60000610352</ele>
        <time>2012-05-06T09:08:38.000Z</time>
      </trkpt>
      <trkpt lat="43.52598" lon="2.85949">
        <ele>255.19999694824</ele>
        <time>2012-05-06T09:08:39.000Z</time>
      </trkpt>
      <trkpt lat="43.526" lon="2.85948">
        <ele>255.39999389648</ele>
        <time>2012-05-06T09:08:40.000Z</time>
      </trkpt>
      <trkpt lat="43.52603" lon="2.85947">
        <ele>255.80000305176</ele>
        <time>2012-05-06T09:08:41.000Z</time>
      </trkpt>
      <trkpt lat="43.52605" lon="2.85946">
        <ele>256</ele>
        <time>2012-05-06T09:08:42.000Z</time>
      </trkpt>
      <trkpt lat="43.52607" lon="2.85945">
        <ele>256.39999389648</ele>
        <time>2012-05-06T09:08:43.000Z</time>
      </trkpt>
      <trkpt lat="43.5261" lon="2.85944">
        <ele>256.60000610352</ele>
        <time>2012-05-06T09:08:44.000Z</time>
      </trkpt>
      <trkpt lat="43.52613" lon="2.85943">
        <ele>257</ele>
        <time>2012-05-06T09:08:45.000Z</time>
      </trkpt>
      <trkpt lat="43.52615" lon="2.85942">
        <ele>257.39999389648</ele>
        <time>2012-05-06T09:08:46.000Z</time>
      </trkpt>
      <trkpt lat="43.52617" lon="2.8594">
        <ele>257.60000610352</ele>
        <time>2012-05-06T09:08:47.000Z</time>
      </trkpt>
      <trkpt lat="43.5262" lon="2.85939">
        <ele>257.79998779297</ele>
        <time>2012-05-06T09:08:48.000Z</time>
      </trkpt>
      <trkpt lat="43.52622" lon="2.85938">
        <ele>258.20001220703</ele>
        <time>2012-05-06T09:08:49.000Z</time>
      </trkpt>
      <trkpt lat="43.52625" lon="2.85937">
        <ele>258.39999389648</ele>
        <time>2012-05-06T09:08:50.000Z</time>
      </trkpt>
      <trkpt lat="43.52627" lon="2.85935">
        <ele>258.60000610352</ele>
        <time>2012-05-06T09:08:51.000Z</time>
      </trkpt>
      <trkpt lat="43.5263" lon="2.85934">
        <ele>258.79998779297</ele>
        <time>2012-05-06T09:08:52.000Z</time>
      </trkpt>
      <trkpt lat="43.52632" lon="2.85933">
        <ele>259.20001220703</ele>
        <time>2012-05-06T09:08:53.000Z</time>
      </trkpt>
      <trkpt lat="43.52635" lon="2.85931">
        <ele>259.39999389648</ele>
        <time>2012-05-06T09:08:54.000Z</time>
      </trkpt>
      <trkpt lat="43.52637" lon="2.8593">
        <ele>259.39999389648</ele>
        <time>2012-05-06T09:08:55.000Z</time>
      </trkpt>
      <trkpt lat="43.5264" lon="2.85929">
        <ele>259.79998779297</ele>
        <time>2012-05-06T09:08:56.000Z</time>
      </trkpt>
      <trkpt lat="43.52642" lon="2.85927">
        <ele>260</ele>
        <time>2012-05-06T09:08:57.000Z</time>
      </trkpt>
      <trkpt lat="43.52645" lon="2.85926">
        <ele>260.20001220703</ele>
        <time>2012-05-06T09:08:58.000Z</time>
      </trkpt>
      <trkpt lat="43.52647" lon="2.85925">
        <ele>260.39999389648</ele>
        <time>2012-05-06T09:08:59.000Z</time>
      </trkpt>
      <trkpt lat="43.5265" lon="2.85923">
        <ele>260.79998779297</ele>
        <time>2012-05-06T09:09:00.000Z</time>
      </trkpt>
      <trkpt lat="43.52652" lon="2.85922">
        <ele>261</ele>
        <time>2012-05-06T09:09:01.000Z</time>
      </trkpt>
      <trkpt lat="43.52655" lon="2.8592">
        <ele>261</ele>
        <time>2012-05-06T09:09:02.000Z</time>
      </trkpt>
      <trkpt lat="43.52657" lon="2.85919">
        <ele>261.20001220703</ele>
        <time>2012-05-06T09:09:03.000Z</time>
      </trkpt>
      <trkpt lat="43.52659" lon="2.85917">
        <ele>261.20001220703</ele>
        <time>2012-05-06T09:09:04.000Z</time>
      </trkpt>
      <trkpt lat="43.52662" lon="2.85916">
        <ele>261.39999389648</ele>
        <time>2012-05-06T09:09:05.000Z</time>
      </trkpt>
      <trkpt lat="43.52664" lon="2.85914">
        <ele>261.60000610352</ele>
        <time>2012-05-06T09:09:06.000Z</time>
      </trkpt>
      <trkpt lat="43.52667" lon="2.85912">
        <ele>261.79998779297</ele>
        <time>2012-05-06T09:09:07.000Z</time>
      </trkpt>
      <trkpt lat="43.52669" lon="2.85911">
        <ele>262.20001220703</ele>
        <time>2012-05-06T09:09:08.000Z</time>
      </trkpt>
      <trkpt lat="43.52671" lon="2.8591">
        <ele>262.60000610352</ele>
        <time>2012-05-06T09:09:09.000Z</time>
      </trkpt>
      <trkpt lat="43.52674" lon="2.85909">
        <ele>263</ele>
        <time>2012-05-06T09:09:10.000Z</time>
      </trkpt>
      <trkpt lat="43.52676" lon="2.85907">
        <ele>263.20001220703</ele>
        <time>2012-05-06T09:09:11.000Z</time>
      </trkpt>
      <trkpt lat="43.52679" lon="2.85905">
        <ele>263.39999389648</ele>
        <time>2012-05-06T09:09:12.000Z</time>
      </trkpt>
      <trkpt lat="43.52681" lon="2.85904">
        <ele>263.39999389648</ele>
        <time>2012-05-06T09:09:13.000Z</time>
      </trkpt>
      <trkpt lat="43.52683" lon="2.85902">
        <ele>263.60000610352</ele>
        <time>2012-05-06T09:09:14.000Z</time>
      </trkpt>
      <trkpt lat="43.52685" lon="2.859">
        <ele>263.60000610352</ele>
        <time>2012-05-06T09:09:15.000Z</time>
      </trkpt>
      <trkpt lat="43.52688" lon="2.85898">
        <ele>263.79998779297</ele>
        <time>2012-05-06T09:09:16.000Z</time>
      </trkpt>
      <trkpt lat="43.5269" lon="2.85897">
        <ele>263.79998779297</ele>
        <time>2012-05-06T09:09:17.000Z</time>
      </trkpt>
      <trkpt lat="43.52692" lon="2.85895">
        <ele>264</ele>
        <time>2012-05-06T09:09:18.000Z</time>
      </trkpt>
      <trkpt lat="43.52694" lon="2.85893">
        <ele>264</ele>
        <time>2012-05-06T09:09:19.000Z</time>
      </trkpt>
      <trkpt lat="43.52696" lon="2.85891">
        <ele>264</ele>
        <time>2012-05-06T09:09:20.000Z</time>
      </trkpt>
      <trkpt lat="43.52698" lon="2.85889">
        <ele>263.79998779297</ele>
        <time>2012-05-06T09:09:21.000Z</time>
      </trkpt>
      <trkpt lat="43.527" lon="2.85886">
        <ele>263.60000610352</ele>
        <time>2012-05-06T09:09:22.000Z</time>
      </trkpt>
      <trkpt lat="43.52702" lon="2.85884">
        <ele>263.39999389648</ele>
        <time>2012-05-06T09:09:23.000Z</time>
      </trkpt>
      <trkpt lat="43.52704" lon="2.85882">
        <ele>263.20001220703</ele>
        <time>2012-05-06T09:09:24.000Z</time>
      </trkpt>
      <trkpt lat="43.52706" lon="2.85879">
        <ele>263</ele>
        <time>2012-05-06T09:09:25.000Z</time>
      </trkpt>
      <trkpt lat="43.52708" lon="2.85877">
        <ele>262.79998779297</ele>
        <time>2012-05-06T09:09:26.000Z</time>
      </trkpt>
      <trkpt lat="43.5271" lon="2.85875">
        <ele>262.60000610352</ele>
        <time>2012-05-06T09:09:27.000Z</time>
      </trkpt>
      <trkpt lat="43.52713" lon="2.85873">
        <ele>262.79998779297</ele>
        <time>2012-05-06T09:09:28.000Z</time>
      </trkpt>
      <trkpt lat="43.52715" lon="2.85872">
        <ele>263</ele>
        <time>2012-05-06T09:09:29.000Z</time>
      </trkpt>
      <trkpt lat="43.52717" lon="2.85871">
        <ele>263.20001220703</ele>
        <time>2012-05-06T09:09:30.000Z</time>
      </trkpt>
      <trkpt lat="43.5272" lon="2.85871">
        <ele>263.60000610352</ele>
        <time>2012-05-06T09:09:31.000Z</time>
      </trkpt>
      <trkpt lat="43.52722" lon="2.8587">
        <ele>264</ele>
        <time>2012-05-06T09:09:32.000Z</time>
      </trkpt>
      <trkpt lat="43.52725" lon="2.85869">
        <ele>264.39999389648</ele>
        <time>2012-05-06T09:09:33.000Z</time>
      </trkpt>
      <trkpt lat="43.52728" lon="2.85869">
        <ele>264.79998779297</ele>
        <time>2012-05-06T09:09:34.000Z</time>
      </trkpt>
      <trkpt lat="43.5273" lon="2.85868">
        <ele>265</ele>
        <time>2012-05-06T09:09:35.000Z</time>
      </trkpt>
      <trkpt lat="43.52733" lon="2.85867">
        <ele>265.39999389648</ele>
        <time>2012-05-06T09:09:36.000Z</time>
      </trkpt>
      <trkpt lat="43.52735" lon="2.85866">
        <ele>265.79998779297</ele>
        <time>2012-05-06T09:09:37.000Z</time>
      </trkpt>
      <trkpt lat="43.52738" lon="2.85865">
        <ele>265.79998779297</ele>
        <time>2012-05-06T09:09:38.000Z</time>
      </trkpt>
      <trkpt lat="43.5274" lon="2.85864">
        <ele>266.20001220703</ele>
        <time>2012-05-06T09:09:39.000Z</time>
      </trkpt>
      <trkpt lat="43.52743" lon="2.85864">
        <ele>266.60000610352</ele>
        <time>2012-05-06T09:09:40.000Z</time>
      </trkpt>
      <trkpt lat="43.52746" lon="2.85863">
        <ele>267</ele>
        <time>2012-05-06T09:09:41.000Z</time>
      </trkpt>
      <trkpt lat="43.52749" lon="2.85862">
        <ele>267.20001220703</ele>
        <time>2012-05-06T09:09:42.000Z</time>
      </trkpt>
      <trkpt lat="43.52751" lon="2.85861">
        <ele>267.20001220703</ele>
        <time>2012-05-06T09:09:43.000Z</time>
      </trkpt>
      <trkpt lat="43.52754" lon="2.8586">
        <ele>267</ele>
        <time>2012-05-06T09:09:44.000Z</time>
      </trkpt>
      <trkpt lat="43.52757" lon="2.8586">
        <ele>266.79998779297</ele>
        <time>2012-05-06T09:09:45.000Z</time>
      </trkpt>
      <trkpt lat="43.5276" lon="2.85859">
        <ele>266.60000610352</ele>
        <time>2012-05-06T09:09:46.000Z</time>
      </trkpt>
      <trkpt lat="43.52763" lon="2.85859">
        <ele>266.60000610352</ele>
        <time>2012-05-06T09:09:47.000Z</time>
      </trkpt>
      <trkpt lat="43.52766" lon="2.85858">
        <ele>266.20001220703</ele>
        <time>2012-05-06T09:09:48.000Z</time>
      </trkpt>
      <trkpt lat="43.52768" lon="2.85857">
        <ele>266.20001220703</ele>
        <time>2012-05-06T09:09:49.000Z</time>
      </trkpt>
      <trkpt lat="43.52772" lon="2.85857">
        <ele>266</ele>
        <time>2012-05-06T09:09:50.000Z</time>
      </trkpt>
      <trkpt lat="43.52775" lon="2.85857">
        <ele>266</ele>
        <time>2012-05-06T09:09:51.000Z</time>
      </trkpt>
      <trkpt lat="43.52778" lon="2.85857">
        <ele>266</ele>
        <time>2012-05-06T09:09:52.000Z</time>
      </trkpt>
      <trkpt lat="43.52781" lon="2.85857">
        <ele>266</ele>
        <time>2012-05-06T09:09:53.000Z</time>
      </trkpt>
      <trkpt lat="43.52784" lon="2.85857">
        <ele>266</ele>
        <time>2012-05-06T09:09:54.000Z</time>
      </trkpt>
      <trkpt lat="43.52786" lon="2.85857">
        <ele>266</ele>
        <time>2012-05-06T09:09:55.000Z</time>
      </trkpt>
      <trkpt lat="43.52789" lon="2.85857">
        <ele>266.20001220703</ele>
        <time>2012-05-06T09:09:56.000Z</time>
      </trkpt>
      <trkpt lat="43.52793" lon="2.85858">
        <ele>266.39999389648</ele>
        <time>2012-05-06T09:09:57.000Z</time>
      </trkpt>
      <trkpt lat="43.52795" lon="2.85859">
        <ele>266.60000610352</ele>
        <time>2012-05-06T09:09:58.000Z</time>
      </trkpt>
      <trkpt lat="43.52798" lon="2.8586">
        <ele>266.79998779297</ele>
        <time>2012-05-06T09:09:59.000Z</time>
      </trkpt>
      <trkpt lat="43.52801" lon="2.85861">
        <ele>267</ele>
        <time>2012-05-06T09:10:00.000Z</time>
      </trkpt>
      <trkpt lat="43.52804" lon="2.85862">
        <ele>267.20001220703</ele>
        <time>2012-05-06T09:10:01.000Z</time>
      </trkpt>
      <trkpt lat="43.52807" lon="2.85863">
        <ele>267.60000610352</ele>
        <time>2012-05-06T09:10:02.000Z</time>
      </trkpt>
      <trkpt lat="43.52809" lon="2.85865">
        <ele>268</ele>
        <time>2012-05-06T09:10:03.000Z</time>
      </trkpt>
      <trkpt lat="43.52812" lon="2.85866">
        <ele>268.39999389648</ele>
        <time>2012-05-06T09:10:04.000Z</time>
      </trkpt>
      <trkpt lat="43.52814" lon="2.85868">
        <ele>268.79998779297</ele>
        <time>2012-05-06T09:10:05.000Z</time>
      </trkpt>
      <trkpt lat="43.52817" lon="2.85869">
        <ele>269</ele>
        <time>2012-05-06T09:10:06.000Z</time>
      </trkpt>
      <trkpt lat="43.5282" lon="2.85871">
        <ele>269.39999389648</ele>
        <time>2012-05-06T09:10:07.000Z</time>
      </trkpt>
      <trkpt lat="43.52823" lon="2.85873">
        <ele>269.79998779297</ele>
        <time>2012-05-06T09:10:08.000Z</time>
      </trkpt>
      <trkpt lat="43.52825" lon="2.85875">
        <ele>270.20001220703</ele>
        <time>2012-05-06T09:10:09.000Z</time>
      </trkpt>
      <trkpt lat="43.52827" lon="2.85878">
        <ele>270.79998779297</ele>
        <time>2012-05-06T09:10:10.000Z</time>
      </trkpt>
      <trkpt lat="43.5283" lon="2.8588">
        <ele>271.20001220703</ele>
        <time>2012-05-06T09:10:11.000Z</time>
      </trkpt>
      <trkpt lat="43.52832" lon="2.85884">
        <ele>272</ele>
        <time>2012-05-06T09:10:12.000Z</time>
      </trkpt>
      <trkpt lat="43.52835" lon="2.85886">
        <ele>272.20001220703</ele>
        <time>2012-05-06T09:10:13.000Z</time>
      </trkpt>
      <trkpt lat="43.52837" lon="2.85889">
        <ele>272</ele>
        <time>2012-05-06T09:10:14.000Z</time>
      </trkpt>
      <trkpt lat="43.52841" lon="2.85891">
        <ele>271.79998779297</ele>
        <time>2012-05-06T09:10:15.000Z</time>
      </trkpt>
      <trkpt lat="43.52845" lon="2.85894">
        <ele>271.20001220703</ele>
        <time>2012-05-06T09:10:16.000Z</time>
      </trkpt>
      <trkpt lat="43.52848" lon="2.85896">
        <ele>270.79998779297</ele>
        <time>2012-05-06T09:10:17.000Z</time>
      </trkpt>
      <trkpt lat="43.52851" lon="2.859">
        <ele>270.79998779297</ele>
        <time>2012-05-06T09:10:18.000Z</time>
      </trkpt>
      <trkpt lat="43.52853" lon="2.85904">
        <ele>271.20001220703</ele>
        <time>2012-05-06T09:10:19.000Z</time>
      </trkpt>
      <trkpt lat="43.52856" lon="2.85908">
        <ele>271.39999389648</ele>
        <time>2012-05-06T09:10:20.000Z</time>
      </trkpt>
      <trkpt lat="43.52857" lon="2.85912">
        <ele>272</ele>
        <time>2012-05-06T09:10:21.000Z</time>
      </trkpt>
      <trkpt lat="43.52859" lon="2.85916">
        <ele>272.20001220703</ele>
        <time>2012-05-06T09:10:22.000Z</time>
      </trkpt>
      <trkpt lat="43.52861" lon="2.85921">
        <ele>272</ele>
        <time>2012-05-06T09:10:23.000Z</time>
      </trkpt>
      <trkpt lat="43.52862" lon="2.85926">
        <ele>272.39999389648</ele>
        <time>2012-05-06T09:10:24.000Z</time>
      </trkpt>
      <trkpt lat="43.52864" lon="2.8593">
        <ele>272.20001220703</ele>
        <time>2012-05-06T09:10:25.000Z</time>
      </trkpt>
      <trkpt lat="43.52865" lon="2.85935">
        <ele>272.39999389648</ele>
        <time>2012-05-06T09:10:26.000Z</time>
      </trkpt>
      <trkpt lat="43.52867" lon="2.8594">
        <ele>272.39999389648</ele>
        <time>2012-05-06T09:10:27.000Z</time>
      </trkpt>
      <trkpt lat="43.52868" lon="2.85944">
        <ele>272.39999389648</ele>
        <time>2012-05-06T09:10:28.000Z</time>
      </trkpt>
      <trkpt lat="43.52869" lon="2.85948">
        <ele>272.39999389648</ele>
        <time>2012-05-06T09:10:29.000Z</time>
      </trkpt>
      <trkpt lat="43.5287" lon="2.85952">
        <ele>272.39999389648</ele>
        <time>2012-05-06T09:10:30.000Z</time>
      </trkpt>
      <trkpt lat="43.52872" lon="2.85956">
        <ele>272.39999389648</ele>
        <time>2012-05-06T09:10:31.000Z</time>
      </trkpt>
      <trkpt lat="43.52874" lon="2.8596">
        <ele>272</ele>
        <time>2012-05-06T09:10:32.000Z</time>
      </trkpt>
      <trkpt lat="43.52876" lon="2.85963">
        <ele>271.60000610352</ele>
        <time>2012-05-06T09:10:33.000Z</time>
      </trkpt>
      <trkpt lat="43.52878" lon="2.85967">
        <ele>271.39999389648</ele>
        <time>2012-05-06T09:10:34.000Z</time>
      </trkpt>
      <trkpt lat="43.52879" lon="2.85971">
        <ele>271.39999389648</ele>
        <time>2012-05-06T09:10:35.000Z</time>
      </trkpt>
      <trkpt lat="43.52881" lon="2.85975">
        <ele>271</ele>
        <time>2012-05-06T09:10:36.000Z</time>
      </trkpt>
      <trkpt lat="43.52883" lon="2.85978">
        <ele>270.39999389648</ele>
        <time>2012-05-06T09:10:37.000Z</time>
      </trkpt>
      <trkpt lat="43.52887" lon="2.85981">
        <ele>269.39999389648</ele>
        <time>2012-05-06T09:10:38.000Z</time>
      </trkpt>
      <trkpt lat="43.5289" lon="2.85984">
        <ele>268.39999389648</ele>
        <time>2012-05-06T09:10:39.000Z</time>
      </trkpt>
      <trkpt lat="43.52893" lon="2.85987">
        <ele>267.60000610352</ele>
        <time>2012-05-06T09:10:40.000Z</time>
      </trkpt>
      <trkpt lat="43.52896" lon="2.8599">
        <ele>267</ele>
        <time>2012-05-06T09:10:41.000Z</time>
      </trkpt>
      <trkpt lat="43.52898" lon="2.85994">
        <ele>266.20001220703</ele>
        <time>2012-05-06T09:10:42.000Z</time>
      </trkpt>
      <trkpt lat="43.52901" lon="2.85997">
        <ele>265.60000610352</ele>
        <time>2012-05-06T09:10:43.000Z</time>
      </trkpt>
      <trkpt lat="43.52903" lon="2.86">
        <ele>265</ele>
        <time>2012-05-06T09:10:44.000Z</time>
      </trkpt>
      <trkpt lat="43.52906" lon="2.86001">
        <ele>264</ele>
        <time>2012-05-06T09:10:45.000Z</time>
      </trkpt>
      <trkpt lat="43.52909" lon="2.86">
        <ele>262.79998779297</ele>
        <time>2012-05-06T09:10:46.000Z</time>
      </trkpt>
      <trkpt lat="43.52912" lon="2.85998">
        <ele>261.39999389648</ele>
        <time>2012-05-06T09:10:47.000Z</time>
      </trkpt>
      <trkpt lat="43.52915" lon="2.85994">
        <ele>260.20001220703</ele>
        <time>2012-05-06T09:10:48.000Z</time>
      </trkpt>
      <trkpt lat="43.52918" lon="2.8599">
        <ele>259.39999389648</ele>
        <time>2012-05-06T09:10:49.000Z</time>
      </trkpt>
      <trkpt lat="43.52921" lon="2.85986">
        <ele>258.79998779297</ele>
        <time>2012-05-06T09:10:50.000Z</time>
      </trkpt>
      <trkpt lat="43.52924" lon="2.85983">
        <ele>258</ele>
        <time>2012-05-06T09:10:51.000Z</time>
      </trkpt>
      <trkpt lat="43.52928" lon="2.85982">
        <ele>257.39999389648</ele>
        <time>2012-05-06T09:10:52.000Z</time>
      </trkpt>
      <trkpt lat="43.52932" lon="2.85981">
        <ele>256.60000610352</ele>
        <time>2012-05-06T09:10:53.000Z</time>
      </trkpt>
      <trkpt lat="43.52935" lon="2.8598">
        <ele>256</ele>
        <time>2012-05-06T09:10:54.000Z</time>
      </trkpt>
      <trkpt lat="43.52939" lon="2.8598">
        <ele>255.39999389648</ele>
        <time>2012-05-06T09:10:55.000Z</time>
      </trkpt>
      <trkpt lat="43.52943" lon="2.8598">
        <ele>254.60000610352</ele>
        <time>2012-05-06T09:10:56.000Z</time>
      </trkpt>
      <trkpt lat="43.52947" lon="2.85979">
        <ele>254</ele>
        <time>2012-05-06T09:10:57.000Z</time>
      </trkpt>
      <trkpt lat="43.5295" lon="2.85978">
        <ele>253.19999694824</ele>
        <time>2012-05-06T09:10:58.000Z</time>
      </trkpt>
      <trkpt lat="43.52954" lon="2.85976">
        <ele>252.60000610352</ele>
        <time>2012-05-06T09:10:59.000Z</time>
      </trkpt>
      <trkpt lat="43.52958" lon="2.85975">
        <ele>251.80000305176</ele>
        <time>2012-05-06T09:11:00.000Z</time>
      </trkpt>
      <trkpt lat="43.52961" lon="2.85973">
        <ele>251.19999694824</ele>
        <time>2012-05-06T09:11:01.000Z</time>
      </trkpt>
      <trkpt lat="43.52965" lon="2.85971">
        <ele>250.39999389648</ele>
        <time>2012-05-06T09:11:02.000Z</time>
      </trkpt>
      <trkpt lat="43.52968" lon="2.85968">
        <ele>249.80000305176</ele>
        <time>2012-05-06T09:11:03.000Z</time>
      </trkpt>
      <trkpt lat="43.52972" lon="2.85966">
        <ele>249.19999694824</ele>
        <time>2012-05-06T09:11:04.000Z</time>
      </trkpt>
      <trkpt lat="43.52975" lon="2.85963">
        <ele>248.39999389648</ele>
        <time>2012-05-06T09:11:05.000Z</time>
      </trkpt>
      <trkpt lat="43.52978" lon="2.8596">
        <ele>247.80000305176</ele>
        <time>2012-05-06T09:11:06.000Z</time>
      </trkpt>
      <trkpt lat="43.52982" lon="2.85957">
        <ele>247.19999694824</ele>
        <time>2012-05-06T09:11:07.000Z</time>
      </trkpt>
      <trkpt lat="43.52985" lon="2.85954">
        <ele>246.39999389648</ele>
        <time>2012-05-06T09:11:08.000Z</time>
      </trkpt>
      <trkpt lat="43.52988" lon="2.85951">
        <ele>245.80000305176</ele>
        <time>2012-05-06T09:11:09.000Z</time>
      </trkpt>
      <trkpt lat="43.52992" lon="2.85948">
        <ele>245.19999694824</ele>
        <time>2012-05-06T09:11:10.000Z</time>
      </trkpt>
      <trkpt lat="43.52995" lon="2.85945">
        <ele>244.60000610352</ele>
        <time>2012-05-06T09:11:11.000Z</time>
      </trkpt>
      <trkpt lat="43.52998" lon="2.85942">
        <ele>243.80000305176</ele>
        <time>2012-05-06T09:11:12.000Z</time>
      </trkpt>
      <trkpt lat="43.53002" lon="2.85939">
        <ele>243.19999694824</ele>
        <time>2012-05-06T09:11:13.000Z</time>
      </trkpt>
      <trkpt lat="43.53005" lon="2.85936">
        <ele>242.80000305176</ele>
        <time>2012-05-06T09:11:14.000Z</time>
      </trkpt>
      <trkpt lat="43.53008" lon="2.85933">
        <ele>242.19999694824</ele>
        <time>2012-05-06T09:11:15.000Z</time>
      </trkpt>
      <trkpt lat="43.53011" lon="2.8593">
        <ele>241.80000305176</ele>
        <time>2012-05-06T09:11:16.000Z</time>
      </trkpt>
      <trkpt lat="43.53015" lon="2.85927">
        <ele>241.19999694824</ele>
        <time>2012-05-06T09:11:17.000Z</time>
      </trkpt>
      <trkpt lat="43.53018" lon="2.85923">
        <ele>240.80000305176</ele>
        <time>2012-05-06T09:11:18.000Z</time>
      </trkpt>
      <trkpt lat="43.53021" lon="2.8592">
        <ele>240.19999694824</ele>
        <time>2012-05-06T09:11:19.000Z</time>
      </trkpt>
      <trkpt lat="43.53024" lon="2.85917">
        <ele>239.80000305176</ele>
        <time>2012-05-06T09:11:20.000Z</time>
      </trkpt>
      <trkpt lat="43.53027" lon="2.85912">
        <ele>239.19999694824</ele>
        <time>2012-05-06T09:11:21.000Z</time>
      </trkpt>
      <trkpt lat="43.53029" lon="2.85908">
        <ele>238.80000305176</ele>
        <time>2012-05-06T09:11:22.000Z</time>
      </trkpt>
      <trkpt lat="43.53032" lon="2.85904">
        <ele>238.19999694824</ele>
        <time>2012-05-06T09:11:23.000Z</time>
      </trkpt>
      <trkpt lat="43.53035" lon="2.85899">
        <ele>237.60000610352</ele>
        <time>2012-05-06T09:11:24.000Z</time>
      </trkpt>
      <trkpt lat="43.53037" lon="2.85895">
        <ele>237.19999694824</ele>
        <time>2012-05-06T09:11:25.000Z</time>
      </trkpt>
      <trkpt lat="43.53039" lon="2.85891">
        <ele>236.80000305176</ele>
        <time>2012-05-06T09:11:26.000Z</time>
      </trkpt>
      <trkpt lat="43.53041" lon="2.85888">
        <ele>236.39999389648</ele>
        <time>2012-05-06T09:11:27.000Z</time>
      </trkpt>
      <trkpt lat="43.53045" lon="2.85888">
        <ele>236</ele>
        <time>2012-05-06T09:11:28.000Z</time>
      </trkpt>
      <trkpt lat="43.53048" lon="2.8589">
        <ele>235.80000305176</ele>
        <time>2012-05-06T09:11:29.000Z</time>
      </trkpt>
      <trkpt lat="43.5305" lon="2.85894">
        <ele>235.60000610352</ele>
        <time>2012-05-06T09:11:30.000Z</time>
      </trkpt>
      <trkpt lat="43.53054" lon="2.85898">
        <ele>235.19999694824</ele>
        <time>2012-05-06T09:11:31.000Z</time>
      </trkpt>
      <trkpt lat="43.53057" lon="2.85901">
        <ele>235</ele>
        <time>2012-05-06T09:11:32.000Z</time>
      </trkpt>
      <trkpt lat="43.5306" lon="2.85905">
        <ele>234.80000305176</ele>
        <time>2012-05-06T09:11:33.000Z</time>
      </trkpt>
      <trkpt lat="43.53064" lon="2.85909">
        <ele>234.39999389648</ele>
        <time>2012-05-06T09:11:34.000Z</time>
      </trkpt>
      <trkpt lat="43.53067" lon="2.85913">
        <ele>234</ele>
        <time>2012-05-06T09:11:35.000Z</time>
      </trkpt>
      <trkpt lat="43.5307" lon="2.85916">
        <ele>233.80000305176</ele>
        <time>2012-05-06T09:11:36.000Z</time>
      </trkpt>
      <trkpt lat="43.53074" lon="2.85919">
        <ele>233.19999694824</ele>
        <time>2012-05-06T09:11:37.000Z</time>
      </trkpt>
      <trkpt lat="43.53077" lon="2.85922">
        <ele>232.60000610352</ele>
        <time>2012-05-06T09:11:38.000Z</time>
      </trkpt>
      <trkpt lat="43.53081" lon="2.85924">
        <ele>232.19999694824</ele>
        <time>2012-05-06T09:11:39.000Z</time>
      </trkpt>
      <trkpt lat="43.53084" lon="2.85927">
        <ele>231.60000610352</ele>
        <time>2012-05-06T09:11:40.000Z</time>
      </trkpt>
      <trkpt lat="43.53088" lon="2.85928">
        <ele>231.19999694824</ele>
        <time>2012-05-06T09:11:41.000Z</time>
      </trkpt>
      <trkpt lat="43.53091" lon="2.85929">
        <ele>230.60000610352</ele>
        <time>2012-05-06T09:11:42.000Z</time>
      </trkpt>
      <trkpt lat="43.53095" lon="2.85926">
        <ele>230.19999694824</ele>
        <time>2012-05-06T09:11:43.000Z</time>
      </trkpt>
      <trkpt lat="43.53099" lon="2.85924">
        <ele>229.80000305176</ele>
        <time>2012-05-06T09:11:44.000Z</time>
      </trkpt>
      <trkpt lat="43.53102" lon="2.85921">
        <ele>229.19999694824</ele>
        <time>2012-05-06T09:11:45.000Z</time>
      </trkpt>
      <trkpt lat="43.53106" lon="2.85918">
        <ele>228.80000305176</ele>
        <time>2012-05-06T09:11:46.000Z</time>
      </trkpt>
      <trkpt lat="43.5311" lon="2.85916">
        <ele>228.19999694824</ele>
        <time>2012-05-06T09:11:47.000Z</time>
      </trkpt>
      <trkpt lat="43.53114" lon="2.85913">
        <ele>227.39999389648</ele>
        <time>2012-05-06T09:11:48.000Z</time>
      </trkpt>
      <trkpt lat="43.53118" lon="2.85909">
        <ele>227</ele>
        <time>2012-05-06T09:11:49.000Z</time>
      </trkpt>
      <trkpt lat="43.53121" lon="2.85906">
        <ele>226.39999389648</ele>
        <time>2012-05-06T09:11:50.000Z</time>
      </trkpt>
      <trkpt lat="43.53124" lon="2.85902">
        <ele>226</ele>
        <time>2012-05-06T09:11:51.000Z</time>
      </trkpt>
      <trkpt lat="43.53127" lon="2.85899">
        <ele>225.39999389648</ele>
        <time>2012-05-06T09:11:52.000Z</time>
      </trkpt>
      <trkpt lat="43.53131" lon="2.85896">
        <ele>225</ele>
        <time>2012-05-06T09:11:53.000Z</time>
      </trkpt>
      <trkpt lat="43.53134" lon="2.85892">
        <ele>224.39999389648</ele>
        <time>2012-05-06T09:11:54.000Z</time>
      </trkpt>
      <trkpt lat="43.53137" lon="2.85889">
        <ele>223.80000305176</ele>
        <time>2012-05-06T09:11:55.000Z</time>
      </trkpt>
      <trkpt lat="43.53141" lon="2.85886">
        <ele>223.39999389648</ele>
        <time>2012-05-06T09:11:56.000Z</time>
      </trkpt>
      <trkpt lat="43.53144" lon="2.85884">
        <ele>222.80000305176</ele>
        <time>2012-05-06T09:11:57.000Z</time>
      </trkpt>
      <trkpt lat="43.53148" lon="2.85882">
        <ele>222.39999389648</ele>
        <time>2012-05-06T09:11:58.000Z</time>
      </trkpt>
      <trkpt lat="43.53151" lon="2.85881">
        <ele>221.80000305176</ele>
        <time>2012-05-06T09:11:59.000Z</time>
      </trkpt>
      <trkpt lat="43.53154" lon="2.8588">
        <ele>221.39999389648</ele>
        <time>2012-05-06T09:12:00.000Z</time>
      </trkpt>
      <trkpt lat="43.53158" lon="2.85878">
        <ele>220.80000305176</ele>
        <time>2012-05-06T09:12:01.000Z</time>
      </trkpt>
      <trkpt lat="43.53162" lon="2.85876">
        <ele>220.19999694824</ele>
        <time>2012-05-06T09:12:02.000Z</time>
      </trkpt>
      <trkpt lat="43.53165" lon="2.85874">
        <ele>219.60000610352</ele>
        <time>2012-05-06T09:12:03.000Z</time>
      </trkpt>
      <trkpt lat="43.53168" lon="2.85871">
        <ele>219.39999389648</ele>
        <time>2012-05-06T09:12:04.000Z</time>
      </trkpt>
      <trkpt lat="43.53171" lon="2.85868">
        <ele>219</ele>
        <time>2012-05-06T09:12:05.000Z</time>
      </trkpt>
      <trkpt lat="43.53174" lon="2.85864">
        <ele>218.80000305176</ele>
        <time>2012-05-06T09:12:06.000Z</time>
      </trkpt>
      <trkpt lat="43.53176" lon="2.85859">
        <ele>218.60000610352</ele>
        <time>2012-05-06T09:12:07.000Z</time>
      </trkpt>
      <trkpt lat="43.53178" lon="2.85856">
        <ele>218.39999389648</ele>
        <time>2012-05-06T09:12:08.000Z</time>
      </trkpt>
      <trkpt lat="43.53181" lon="2.85851">
        <ele>218</ele>
        <time>2012-05-06T09:12:09.000Z</time>
      </trkpt>
      <trkpt lat="43.53182" lon="2.85846">
        <ele>217.80000305176</ele>
        <time>2012-05-06T09:12:10.000Z</time>
      </trkpt>
      <trkpt lat="43.53183" lon="2.85841">
        <ele>217.80000305176</ele>
        <time>2012-05-06T09:12:11.000Z</time>
      </trkpt>
      <trkpt lat="43.53183" lon="2.85835">
        <ele>217.60000610352</ele>
        <time>2012-05-06T09:12:12.000Z</time>
      </trkpt>
      <trkpt lat="43.53183" lon="2.85829">
        <ele>217.60000610352</ele>
        <time>2012-05-06T09:12:13.000Z</time>
      </trkpt>
      <trkpt lat="43.53182" lon="2.85824">
        <ele>217.60000610352</ele>
        <time>2012-05-06T09:12:14.000Z</time>
      </trkpt>
      <trkpt lat="43.53181" lon="2.85819">
        <ele>217.60000610352</ele>
        <time>2012-05-06T09:12:15.000Z</time>
      </trkpt>
      <trkpt lat="43.53179" lon="2.85814">
        <ele>217.60000610352</ele>
        <time>2012-05-06T09:12:16.000Z</time>
      </trkpt>
      <trkpt lat="43.53177" lon="2.8581">
        <ele>217.60000610352</ele>
        <time>2012-05-06T09:12:17.000Z</time>
      </trkpt>
      <trkpt lat="43.53176" lon="2.85805">
        <ele>217.60000610352</ele>
        <time>2012-05-06T09:12:18.000Z</time>
      </trkpt>
      <trkpt lat="43.53174" lon="2.85799">
        <ele>217.39999389648</ele>
        <time>2012-05-06T09:12:19.000Z</time>
      </trkpt>
      <trkpt lat="43.53174" lon="2.85794">
        <ele>217.39999389648</ele>
        <time>2012-05-06T09:12:20.000Z</time>
      </trkpt>
      <trkpt lat="43.53174" lon="2.85789">
        <ele>217.19999694824</ele>
        <time>2012-05-06T09:12:21.000Z</time>
      </trkpt>
      <trkpt lat="43.53176" lon="2.85786">
        <ele>217</ele>
        <time>2012-05-06T09:12:22.000Z</time>
      </trkpt>
      <trkpt lat="43.53178" lon="2.85782">
        <ele>216.80000305176</ele>
        <time>2012-05-06T09:12:23.000Z</time>
      </trkpt>
      <trkpt lat="43.5318" lon="2.85778">
        <ele>216.80000305176</ele>
        <time>2012-05-06T09:12:24.000Z</time>
      </trkpt>
      <trkpt lat="43.53182" lon="2.85775">
        <ele>216.60000610352</ele>
        <time>2012-05-06T09:12:25.000Z</time>
      </trkpt>
      <trkpt lat="43.53184" lon="2.85771">
        <ele>216.60000610352</ele>
        <time>2012-05-06T09:12:26.000Z</time>
      </trkpt>
      <trkpt lat="43.53186" lon="2.85767">
        <ele>216.39999389648</ele>
        <time>2012-05-06T09:12:27.000Z</time>
      </trkpt>
      <trkpt lat="43.53187" lon="2.85763">
        <ele>216.39999389648</ele>
        <time>2012-05-06T09:12:28.000Z</time>
      </trkpt>
      <trkpt lat="43.53187" lon="2.85758">
        <ele>216.39999389648</ele>
        <time>2012-05-06T09:12:29.000Z</time>
      </trkpt>
      <trkpt lat="43.53187" lon="2.85753">
        <ele>216.19999694824</ele>
        <time>2012-05-06T09:12:30.000Z</time>
      </trkpt>
      <trkpt lat="43.53188" lon="2.85749">
        <ele>216.19999694824</ele>
        <time>2012-05-06T09:12:31.000Z</time>
      </trkpt>
      <trkpt lat="43.53188" lon="2.85744">
        <ele>216.39999389648</ele>
        <time>2012-05-06T09:12:32.000Z</time>
      </trkpt>
      <trkpt lat="43.53189" lon="2.8574">
        <ele>216.39999389648</ele>
        <time>2012-05-06T09:12:33.000Z</time>
      </trkpt>
      <trkpt lat="43.53189" lon="2.85736">
        <ele>216.60000610352</ele>
        <time>2012-05-06T09:12:34.000Z</time>
      </trkpt>
      <trkpt lat="43.5319" lon="2.85732">
        <ele>216.60000610352</ele>
        <time>2012-05-06T09:12:35.000Z</time>
      </trkpt>
      <trkpt lat="43.53191" lon="2.85728">
        <ele>216.80000305176</ele>
        <time>2012-05-06T09:12:36.000Z</time>
      </trkpt>
      <trkpt lat="43.53192" lon="2.85724">
        <ele>216.80000305176</ele>
        <time>2012-05-06T09:12:37.000Z</time>
      </trkpt>
      <trkpt lat="43.53194" lon="2.85721">
        <ele>217</ele>
        <time>2012-05-06T09:12:38.000Z</time>
      </trkpt>
      <trkpt lat="43.53196" lon="2.85717">
        <ele>217</ele>
        <time>2012-05-06T09:12:39.000Z</time>
      </trkpt>
      <trkpt lat="43.53197" lon="2.85714">
        <ele>217</ele>
        <time>2012-05-06T09:12:40.000Z</time>
      </trkpt>
      <trkpt lat="43.53198" lon="2.85712">
        <ele>217.19999694824</ele>
        <time>2012-05-06T09:12:41.000Z</time>
      </trkpt>
      <trkpt lat="43.532" lon="2.85709">
        <ele>217.19999694824</ele>
        <time>2012-05-06T09:12:42.000Z</time>
      </trkpt>
      <trkpt lat="43.53202" lon="2.85706">
        <ele>217.39999389648</ele>
        <time>2012-05-06T09:12:43.000Z</time>
      </trkpt>
      <trkpt lat="43.53205" lon="2.85703">
        <ele>217.60000610352</ele>
        <time>2012-05-06T09:12:44.000Z</time>
      </trkpt>
      <trkpt lat="43.53207" lon="2.85701">
        <ele>217.60000610352</ele>
        <time>2012-05-06T09:12:45.000Z</time>
      </trkpt>
      <trkpt lat="43.53209" lon="2.85699">
        <ele>217.80000305176</ele>
        <time>2012-05-06T09:12:46.000Z</time>
      </trkpt>
      <trkpt lat="43.53211" lon="2.85698">
        <ele>217.80000305176</ele>
        <time>2012-05-06T09:12:47.000Z</time>
      </trkpt>
      <trkpt lat="43.53213" lon="2.85697">
        <ele>218</ele>
        <time>2012-05-06T09:12:48.000Z</time>
      </trkpt>
      <trkpt lat="43.53216" lon="2.85696">
        <ele>218</ele>
        <time>2012-05-06T09:12:49.000Z</time>
      </trkpt>
      <trkpt lat="43.53218" lon="2.85696">
        <ele>218</ele>
        <time>2012-05-06T09:12:50.000Z</time>
      </trkpt>
      <trkpt lat="43.53221" lon="2.85697">
        <ele>218.19999694824</ele>
        <time>2012-05-06T09:12:51.000Z</time>
      </trkpt>
      <trkpt lat="43.53223" lon="2.85699">
        <ele>218.19999694824</ele>
        <time>2012-05-06T09:12:52.000Z</time>
      </trkpt>
      <trkpt lat="43.53226" lon="2.85701">
        <ele>218.19999694824</ele>
        <time>2012-05-06T09:12:53.000Z</time>
      </trkpt>
      <trkpt lat="43.53228" lon="2.85703">
        <ele>218.19999694824</ele>
        <time>2012-05-06T09:12:54.000Z</time>
      </trkpt>
      <trkpt lat="43.53231" lon="2.85706">
        <ele>218.19999694824</ele>
        <time>2012-05-06T09:12:55.000Z</time>
      </trkpt>
      <trkpt lat="43.53233" lon="2.85708">
        <ele>218</ele>
        <time>2012-05-06T09:12:56.000Z</time>
      </trkpt>
      <trkpt lat="43.53236" lon="2.85712">
        <ele>218</ele>
        <time>2012-05-06T09:12:57.000Z</time>
      </trkpt>
      <trkpt lat="43.53238" lon="2.85714">
        <ele>218</ele>
        <time>2012-05-06T09:12:58.000Z</time>
      </trkpt>
      <trkpt lat="43.53241" lon="2.85716">
        <ele>218</ele>
        <time>2012-05-06T09:12:59.000Z</time>
      </trkpt>
      <trkpt lat="43.53244" lon="2.85718">
        <ele>218</ele>
        <time>2012-05-06T09:13:00.000Z</time>
      </trkpt>
      <trkpt lat="43.53247" lon="2.85721">
        <ele>218</ele>
        <time>2012-05-06T09:13:01.000Z</time>
      </trkpt>
      <trkpt lat="43.5325" lon="2.85723">
        <ele>218</ele>
        <time>2012-05-06T09:13:02.000Z</time>
      </trkpt>
      <trkpt lat="43.53253" lon="2.85725">
        <ele>218.19999694824</ele>
        <time>2012-05-06T09:13:03.000Z</time>
      </trkpt>
      <trkpt lat="43.53256" lon="2.85728">
        <ele>218.19999694824</ele>
        <time>2012-05-06T09:13:04.000Z</time>
      </trkpt>
      <trkpt lat="43.53258" lon="2.85731">
        <ele>218.19999694824</ele>
        <time>2012-05-06T09:13:05.000Z</time>
      </trkpt>
      <trkpt lat="43.5326" lon="2.85734">
        <ele>218.19999694824</ele>
        <time>2012-05-06T09:13:06.000Z</time>
      </trkpt>
      <trkpt lat="43.53262" lon="2.85736">
        <ele>218.19999694824</ele>
        <time>2012-05-06T09:13:07.000Z</time>
      </trkpt>
      <trkpt lat="43.53263" lon="2.85739">
        <ele>218.19999694824</ele>
        <time>2012-05-06T09:13:08.000Z</time>
      </trkpt>
      <trkpt lat="43.53265" lon="2.8574">
        <ele>218.19999694824</ele>
        <time>2012-05-06T09:13:09.000Z</time>
      </trkpt>
      <trkpt lat="43.53268" lon="2.8574">
        <ele>218.39999389648</ele>
        <time>2012-05-06T09:13:10.000Z</time>
      </trkpt>
      <trkpt lat="43.53271" lon="2.85739">
        <ele>218.60000610352</ele>
        <time>2012-05-06T09:13:11.000Z</time>
      </trkpt>
      <trkpt lat="43.53273" lon="2.85737">
        <ele>219</ele>
        <time>2012-05-06T09:13:12.000Z</time>
      </trkpt>
      <trkpt lat="43.53276" lon="2.85734">
        <ele>219.19999694824</ele>
        <time>2012-05-06T09:13:13.000Z</time>
      </trkpt>
      <trkpt lat="43.53278" lon="2.85731">
        <ele>219.60000610352</ele>
        <time>2012-05-06T09:13:14.000Z</time>
      </trkpt>
      <trkpt lat="43.5328" lon="2.85728">
        <ele>220</ele>
        <time>2012-05-06T09:13:15.000Z</time>
      </trkpt>
      <trkpt lat="43.53282" lon="2.85725">
        <ele>220.39999389648</ele>
        <time>2012-05-06T09:13:16.000Z</time>
      </trkpt>
      <trkpt lat="43.53285" lon="2.85723">
        <ele>220.80000305176</ele>
        <time>2012-05-06T09:13:17.000Z</time>
      </trkpt>
      <trkpt lat="43.53288" lon="2.85721">
        <ele>221</ele>
        <time>2012-05-06T09:13:18.000Z</time>
      </trkpt>
      <trkpt lat="43.5329" lon="2.85719">
        <ele>221.39999389648</ele>
        <time>2012-05-06T09:13:19.000Z</time>
      </trkpt>
      <trkpt lat="43.53293" lon="2.85717">
        <ele>221.80000305176</ele>
        <time>2012-05-06T09:13:20.000Z</time>
      </trkpt>
      <trkpt lat="43.53295" lon="2.85715">
        <ele>222.19999694824</ele>
        <time>2012-05-06T09:13:21.000Z</time>
      </trkpt>
      <trkpt lat="43.53298" lon="2.85713">
        <ele>222.80000305176</ele>
        <time>2012-05-06T09:13:22.000Z</time>
      </trkpt>
      <trkpt lat="43.53301" lon="2.85711">
        <ele>223.19999694824</ele>
        <time>2012-05-06T09:13:23.000Z</time>
      </trkpt>
      <trkpt lat="43.53304" lon="2.8571">
        <ele>223.60000610352</ele>
        <time>2012-05-06T09:13:24.000Z</time>
      </trkpt>
      <trkpt lat="43.53307" lon="2.85709">
        <ele>224</ele>
        <time>2012-05-06T09:13:25.000Z</time>
      </trkpt>
      <trkpt lat="43.5331" lon="2.85708">
        <ele>224.39999389648</ele>
        <time>2012-05-06T09:13:26.000Z</time>
      </trkpt>
      <trkpt lat="43.53313" lon="2.85707">
        <ele>224.60000610352</ele>
        <time>2012-05-06T09:13:27.000Z</time>
      </trkpt>
      <trkpt lat="43.53316" lon="2.85707">
        <ele>225</ele>
        <time>2012-05-06T09:13:28.000Z</time>
      </trkpt>
      <trkpt lat="43.53319" lon="2.85708">
        <ele>225.19999694824</ele>
        <time>2012-05-06T09:13:29.000Z</time>
      </trkpt>
      <trkpt lat="43.53322" lon="2.85708">
        <ele>225.39999389648</ele>
        <time>2012-05-06T09:13:30.000Z</time>
      </trkpt>
      <trkpt lat="43.53325" lon="2.85709">
        <ele>225.60000610352</ele>
        <time>2012-05-06T09:13:31.000Z</time>
      </trkpt>
      <trkpt lat="43.53329" lon="2.8571">
        <ele>225.80000305176</ele>
        <time>2012-05-06T09:13:32.000Z</time>
      </trkpt>
      <trkpt lat="43.53332" lon="2.85711">
        <ele>226</ele>
        <time>2012-05-06T09:13:33.000Z</time>
      </trkpt>
      <trkpt lat="43.53335" lon="2.85712">
        <ele>226.19999694824</ele>
        <time>2012-05-06T09:13:34.000Z</time>
      </trkpt>
      <trkpt lat="43.53338" lon="2.85713">
        <ele>226.60000610352</ele>
        <time>2012-05-06T09:13:35.000Z</time>
      </trkpt>
      <trkpt lat="43.53341" lon="2.85714">
        <ele>227.19999694824</ele>
        <time>2012-05-06T09:13:36.000Z</time>
      </trkpt>
      <trkpt lat="43.53344" lon="2.85715">
        <ele>227.39999389648</ele>
        <time>2012-05-06T09:13:37.000Z</time>
      </trkpt>
      <trkpt lat="43.53346" lon="2.85718">
        <ele>227.60000610352</ele>
        <time>2012-05-06T09:13:38.000Z</time>
      </trkpt>
      <trkpt lat="43.53349" lon="2.8572">
        <ele>227.80000305176</ele>
        <time>2012-05-06T09:13:39.000Z</time>
      </trkpt>
      <trkpt lat="43.53351" lon="2.85723">
        <ele>227.80000305176</ele>
        <time>2012-05-06T09:13:40.000Z</time>
      </trkpt>
      <trkpt lat="43.53353" lon="2.85725">
        <ele>227.80000305176</ele>
        <time>2012-05-06T09:13:41.000Z</time>
      </trkpt>
      <trkpt lat="43.53356" lon="2.85728">
        <ele>227.80000305176</ele>
        <time>2012-05-06T09:13:42.000Z</time>
      </trkpt>
      <trkpt lat="43.53358" lon="2.85731">
        <ele>227.80000305176</ele>
        <time>2012-05-06T09:13:43.000Z</time>
      </trkpt>
      <trkpt lat="43.5336" lon="2.85734">
        <ele>227.80000305176</ele>
        <time>2012-05-06T09:13:44.000Z</time>
      </trkpt>
      <trkpt lat="43.53363" lon="2.85737">
        <ele>227.80000305176</ele>
        <time>2012-05-06T09:13:45.000Z</time>
      </trkpt>
      <trkpt lat="43.53364" lon="2.8574">
        <ele>227.60000610352</ele>
        <time>2012-05-06T09:13:46.000Z</time>
      </trkpt>
      <trkpt lat="43.53366" lon="2.85744">
        <ele>227.39999389648</ele>
        <time>2012-05-06T09:13:47.000Z</time>
      </trkpt>
      <trkpt lat="43.53368" lon="2.85748">
        <ele>227.19999694824</ele>
        <time>2012-05-06T09:13:48.000Z</time>
      </trkpt>
      <trkpt lat="43.5337" lon="2.85751">
        <ele>227</ele>
        <time>2012-05-06T09:13:49.000Z</time>
      </trkpt>
      <trkpt lat="43.53371" lon="2.85754">
        <ele>227</ele>
        <time>2012-05-06T09:13:50.000Z</time>
      </trkpt>
      <trkpt lat="43.53373" lon="2.85758">
        <ele>227</ele>
        <time>2012-05-06T09:13:51.000Z</time>
      </trkpt>
      <trkpt lat="43.53375" lon="2.85761">
        <ele>227</ele>
        <time>2012-05-06T09:13:52.000Z</time>
      </trkpt>
      <trkpt lat="43.53376" lon="2.85765">
        <ele>227</ele>
        <time>2012-05-06T09:13:53.000Z</time>
      </trkpt>
      <trkpt lat="43.53378" lon="2.85768">
        <ele>227</ele>
        <time>2012-05-06T09:13:54.000Z</time>
      </trkpt>
      <trkpt lat="43.5338" lon="2.85772">
        <ele>227</ele>
        <time>2012-05-06T09:13:55.000Z</time>
      </trkpt>
      <trkpt lat="43.53382" lon="2.85776">
        <ele>227</ele>
        <time>2012-05-06T09:13:56.000Z</time>
      </trkpt>
      <trkpt lat="43.53384" lon="2.85779">
        <ele>227</ele>
        <time>2012-05-06T09:13:57.000Z</time>
      </trkpt>
      <trkpt lat="43.53386" lon="2.85783">
        <ele>227</ele>
        <time>2012-05-06T09:13:58.000Z</time>
      </trkpt>
      <trkpt lat="43.53387" lon="2.85787">
        <ele>227</ele>
        <time>2012-05-06T09:13:59.000Z</time>
      </trkpt>
      <trkpt lat="43.53388" lon="2.85791">
        <ele>226.80000305176</ele>
        <time>2012-05-06T09:14:00.000Z</time>
      </trkpt>
      <trkpt lat="43.53389" lon="2.85794">
        <ele>226.60000610352</ele>
        <time>2012-05-06T09:14:01.000Z</time>
      </trkpt>
      <trkpt lat="43.5339" lon="2.85798">
        <ele>226.39999389648</ele>
        <time>2012-05-06T09:14:02.000Z</time>
      </trkpt>
      <trkpt lat="43.53391" lon="2.85801">
        <ele>226.39999389648</ele>
        <time>2012-05-06T09:14:03.000Z</time>
      </trkpt>
      <trkpt lat="43.53393" lon="2.85805">
        <ele>226.39999389648</ele>
        <time>2012-05-06T09:14:04.000Z</time>
      </trkpt>
      <trkpt lat="43.53395" lon="2.85809">
        <ele>226.39999389648</ele>
        <time>2012-05-06T09:14:05.000Z</time>
      </trkpt>
      <trkpt lat="43.53396" lon="2.85812">
        <ele>226.39999389648</ele>
        <time>2012-05-06T09:14:06.000Z</time>
      </trkpt>
      <trkpt lat="43.53398" lon="2.85816">
        <ele>226.39999389648</ele>
        <time>2012-05-06T09:14:07.000Z</time>
      </trkpt>
      <trkpt lat="43.534" lon="2.8582">
        <ele>226.39999389648</ele>
        <time>2012-05-06T09:14:08.000Z</time>
      </trkpt>
      <trkpt lat="43.53402" lon="2.85823">
        <ele>226.39999389648</ele>
        <time>2012-05-06T09:14:09.000Z</time>
      </trkpt>
      <trkpt lat="43.53403" lon="2.85827">
        <ele>226.19999694824</ele>
        <time>2012-05-06T09:14:10.000Z</time>
      </trkpt>
      <trkpt lat="43.53405" lon="2.8583">
        <ele>226.19999694824</ele>
        <time>2012-05-06T09:14:11.000Z</time>
      </trkpt>
      <trkpt lat="43.53407" lon="2.85834">
        <ele>226.19999694824</ele>
        <time>2012-05-06T09:14:12.000Z</time>
      </trkpt>
      <trkpt lat="43.53409" lon="2.85837">
        <ele>226.39999389648</ele>
        <time>2012-05-06T09:14:13.000Z</time>
      </trkpt>
      <trkpt lat="43.53411" lon="2.8584">
        <ele>226.39999389648</ele>
        <time>2012-05-06T09:14:14.000Z</time>
      </trkpt>
      <trkpt lat="43.53413" lon="2.85844">
        <ele>226.19999694824</ele>
        <time>2012-05-06T09:14:15.000Z</time>
      </trkpt>
      <trkpt lat="43.53415" lon="2.85847">
        <ele>226.19999694824</ele>
        <time>2012-05-06T09:14:16.000Z</time>
      </trkpt>
      <trkpt lat="43.53416" lon="2.85851">
        <ele>226</ele>
        <time>2012-05-06T09:14:17.000Z</time>
      </trkpt>
      <trkpt lat="43.53418" lon="2.85854">
        <ele>226</ele>
        <time>2012-05-06T09:14:18.000Z</time>
      </trkpt>
      <trkpt lat="43.5342" lon="2.85857">
        <ele>225.80000305176</ele>
        <time>2012-05-06T09:14:19.000Z</time>
      </trkpt>
      <trkpt lat="43.53422" lon="2.8586">
        <ele>225.80000305176</ele>
        <time>2012-05-06T09:14:20.000Z</time>
      </trkpt>
      <trkpt lat="43.53425" lon="2.85864">
        <ele>225.60000610352</ele>
        <time>2012-05-06T09:14:21.000Z</time>
      </trkpt>
      <trkpt lat="43.53426" lon="2.85867">
        <ele>225.60000610352</ele>
        <time>2012-05-06T09:14:22.000Z</time>
      </trkpt>
      <trkpt lat="43.53428" lon="2.8587">
        <ele>225.39999389648</ele>
        <time>2012-05-06T09:14:23.000Z</time>
      </trkpt>
      <trkpt lat="43.53431" lon="2.85873">
        <ele>225.39999389648</ele>
        <time>2012-05-06T09:14:24.000Z</time>
      </trkpt>
      <trkpt lat="43.53433" lon="2.85876">
        <ele>225.19999694824</ele>
        <time>2012-05-06T09:14:25.000Z</time>
      </trkpt>
      <trkpt lat="43.53435" lon="2.85879">
        <ele>225.19999694824</ele>
        <time>2012-05-06T09:14:26.000Z</time>
      </trkpt>
      <trkpt lat="43.53437" lon="2.85882">
        <ele>225.19999694824</ele>
        <time>2012-05-06T09:14:27.000Z</time>
      </trkpt>
      <trkpt lat="43.53439" lon="2.85885">
        <ele>225.19999694824</ele>
        <time>2012-05-06T09:14:28.000Z</time>
      </trkpt>
      <trkpt lat="43.53441" lon="2.85888">
        <ele>225.19999694824</ele>
        <time>2012-05-06T09:14:29.000Z</time>
      </trkpt>
      <trkpt lat="43.53444" lon="2.85891">
        <ele>225.19999694824</ele>
        <time>2012-05-06T09:14:30.000Z</time>
      </trkpt>
      <trkpt lat="43.53446" lon="2.85893">
        <ele>225.19999694824</ele>
        <time>2012-05-06T09:14:31.000Z</time>
      </trkpt>
      <trkpt lat="43.53448" lon="2.85896">
        <ele>225.19999694824</ele>
        <time>2012-05-06T09:14:32.000Z</time>
      </trkpt>
      <trkpt lat="43.53451" lon="2.85899">
        <ele>225.19999694824</ele>
        <time>2012-05-06T09:14:33.000Z</time>
      </trkpt>
      <trkpt lat="43.53453" lon="2.85902">
        <ele>225.19999694824</ele>
        <time>2012-05-06T09:14:34.000Z</time>
      </trkpt>
      <trkpt lat="43.53456" lon="2.85905">
        <ele>225.39999389648</ele>
        <time>2012-05-06T09:14:35.000Z</time>
      </trkpt>
      <trkpt lat="43.53459" lon="2.85907">
        <ele>225.60000610352</ele>
        <time>2012-05-06T09:14:36.000Z</time>
      </trkpt>
      <trkpt lat="43.53462" lon="2.8591">
        <ele>225.60000610352</ele>
        <time>2012-05-06T09:14:37.000Z</time>
      </trkpt>
      <trkpt lat="43.53464" lon="2.85912">
        <ele>225.80000305176</ele>
        <time>2012-05-06T09:14:38.000Z</time>
      </trkpt>
      <trkpt lat="43.53467" lon="2.85914">
        <ele>225.80000305176</ele>
        <time>2012-05-06T09:14:39.000Z</time>
      </trkpt>
      <trkpt lat="43.5347" lon="2.85917">
        <ele>226</ele>
        <time>2012-05-06T09:14:40.000Z</time>
      </trkpt>
      <trkpt lat="43.53473" lon="2.85918">
        <ele>226.19999694824</ele>
        <time>2012-05-06T09:14:41.000Z</time>
      </trkpt>
      <trkpt lat="43.53475" lon="2.8592">
        <ele>226.39999389648</ele>
        <time>2012-05-06T09:14:42.000Z</time>
      </trkpt>
      <trkpt lat="43.53478" lon="2.85921">
        <ele>226.60000610352</ele>
        <time>2012-05-06T09:14:43.000Z</time>
      </trkpt>
      <trkpt lat="43.53481" lon="2.85923">
        <ele>226.60000610352</ele>
        <time>2012-05-06T09:14:44.000Z</time>
      </trkpt>
      <trkpt lat="43.53485" lon="2.85924">
        <ele>227</ele>
        <time>2012-05-06T09:14:45.000Z</time>
      </trkpt>
      <trkpt lat="43.53488" lon="2.85925">
        <ele>227.19999694824</ele>
        <time>2012-05-06T09:14:46.000Z</time>
      </trkpt>
      <trkpt lat="43.53491" lon="2.85926">
        <ele>227.39999389648</ele>
        <time>2012-05-06T09:14:47.000Z</time>
      </trkpt>
      <trkpt lat="43.53494" lon="2.85928">
        <ele>227.60000610352</ele>
        <time>2012-05-06T09:14:48.000Z</time>
      </trkpt>
      <trkpt lat="43.53497" lon="2.85929">
        <ele>227.60000610352</ele>
        <time>2012-05-06T09:14:49.000Z</time>
      </trkpt>
      <trkpt lat="43.535" lon="2.8593">
        <ele>227.80000305176</ele>
        <time>2012-05-06T09:14:50.000Z</time>
      </trkpt>
      <trkpt lat="43.53504" lon="2.85932">
        <ele>227.80000305176</ele>
        <time>2012-05-06T09:14:51.000Z</time>
      </trkpt>
      <trkpt lat="43.53506" lon="2.85933">
        <ele>227.60000610352</ele>
        <time>2012-05-06T09:14:52.000Z</time>
      </trkpt>
      <trkpt lat="43.53509" lon="2.85935">
        <ele>227.39999389648</ele>
        <time>2012-05-06T09:14:53.000Z</time>
      </trkpt>
      <trkpt lat="43.53512" lon="2.85937">
        <ele>227.19999694824</ele>
        <time>2012-05-06T09:14:54.000Z</time>
      </trkpt>
      <trkpt lat="43.53516" lon="2.85938">
        <ele>227.19999694824</ele>
        <time>2012-05-06T09:14:55.000Z</time>
      </trkpt>
      <trkpt lat="43.53519" lon="2.85939">
        <ele>227</ele>
        <time>2012-05-06T09:14:56.000Z</time>
      </trkpt>
      <trkpt lat="43.53522" lon="2.85941">
        <ele>227</ele>
        <time>2012-05-06T09:14:57.000Z</time>
      </trkpt>
      <trkpt lat="43.53525" lon="2.85942">
        <ele>227</ele>
        <time>2012-05-06T09:14:58.000Z</time>
      </trkpt>
      <trkpt lat="43.53528" lon="2.85943">
        <ele>226.80000305176</ele>
        <time>2012-05-06T09:14:59.000Z</time>
      </trkpt>
      <trkpt lat="43.53531" lon="2.85944">
        <ele>226.80000305176</ele>
        <time>2012-05-06T09:15:00.000Z</time>
      </trkpt>
      <trkpt lat="43.53534" lon="2.85945">
        <ele>226.80000305176</ele>
        <time>2012-05-06T09:15:01.000Z</time>
      </trkpt>
      <trkpt lat="43.53538" lon="2.85945">
        <ele>226.80000305176</ele>
        <time>2012-05-06T09:15:02.000Z</time>
      </trkpt>
      <trkpt lat="43.53541" lon="2.85946">
        <ele>227</ele>
        <time>2012-05-06T09:15:03.000Z</time>
      </trkpt>
      <trkpt lat="43.53544" lon="2.85946">
        <ele>227</ele>
        <time>2012-05-06T09:15:04.000Z</time>
      </trkpt>
      <trkpt lat="43.53548" lon="2.85947">
        <ele>227</ele>
        <time>2012-05-06T09:15:05.000Z</time>
      </trkpt>
      <trkpt lat="43.53551" lon="2.85948">
        <ele>227</ele>
        <time>2012-05-06T09:15:06.000Z</time>
      </trkpt>
      <trkpt lat="43.53555" lon="2.85949">
        <ele>227</ele>
        <time>2012-05-06T09:15:07.000Z</time>
      </trkpt>
      <trkpt lat="43.53558" lon="2.8595">
        <ele>227</ele>
        <time>2012-05-06T09:15:08.000Z</time>
      </trkpt>
      <trkpt lat="43.53561" lon="2.8595">
        <ele>227.19999694824</ele>
        <time>2012-05-06T09:15:09.000Z</time>
      </trkpt>
      <trkpt lat="43.53565" lon="2.85951">
        <ele>227.19999694824</ele>
        <time>2012-05-06T09:15:10.000Z</time>
      </trkpt>
      <trkpt lat="43.53568" lon="2.85952">
        <ele>227.19999694824</ele>
        <time>2012-05-06T09:15:11.000Z</time>
      </trkpt>
      <trkpt lat="43.53571" lon="2.85952">
        <ele>227.19999694824</ele>
        <time>2012-05-06T09:15:12.000Z</time>
      </trkpt>
      <trkpt lat="43.53574" lon="2.85952">
        <ele>227.39999389648</ele>
        <time>2012-05-06T09:15:13.000Z</time>
      </trkpt>
      <trkpt lat="43.53578" lon="2.85952">
        <ele>227.60000610352</ele>
        <time>2012-05-06T09:15:14.000Z</time>
      </trkpt>
      <trkpt lat="43.53581" lon="2.85951">
        <ele>227.80000305176</ele>
        <time>2012-05-06T09:15:15.000Z</time>
      </trkpt>
      <trkpt lat="43.53584" lon="2.85948">
        <ele>228.19999694824</ele>
        <time>2012-05-06T09:15:16.000Z</time>
      </trkpt>
      <trkpt lat="43.53586" lon="2.85946">
        <ele>228.80000305176</ele>
        <time>2012-05-06T09:15:17.000Z</time>
      </trkpt>
      <trkpt lat="43.53589" lon="2.85944">
        <ele>229.39999389648</ele>
        <time>2012-05-06T09:15:18.000Z</time>
      </trkpt>
      <trkpt lat="43.53592" lon="2.85941">
        <ele>230.19999694824</ele>
        <time>2012-05-06T09:15:19.000Z</time>
      </trkpt>
      <trkpt lat="43.53594" lon="2.85937">
        <ele>230.80000305176</ele>
        <time>2012-05-06T09:15:20.000Z</time>
      </trkpt>
      <trkpt lat="43.53597" lon="2.85934">
        <ele>231.60000610352</ele>
        <time>2012-05-06T09:15:21.000Z</time>
      </trkpt>
      <trkpt lat="43.53599" lon="2.8593">
        <ele>232.39999389648</ele>
        <time>2012-05-06T09:15:22.000Z</time>
      </trkpt>
      <trkpt lat="43.53601" lon="2.85927">
        <ele>233</ele>
        <time>2012-05-06T09:15:23.000Z</time>
      </trkpt>
      <trkpt lat="43.53604" lon="2.85924">
        <ele>233.80000305176</ele>
        <time>2012-05-06T09:15:24.000Z</time>
      </trkpt>
      <trkpt lat="43.53605" lon="2.8592">
        <ele>234.39999389648</ele>
        <time>2012-05-06T09:15:25.000Z</time>
      </trkpt>
      <trkpt lat="43.53606" lon="2.85917">
        <ele>235</ele>
        <time>2012-05-06T09:15:26.000Z</time>
      </trkpt>
      <trkpt lat="43.53604" lon="2.85914">
        <ele>235.60000610352</ele>
        <time>2012-05-06T09:15:27.000Z</time>
      </trkpt>
      <trkpt lat="43.53602" lon="2.85912">
        <ele>235.80000305176</ele>
        <time>2012-05-06T09:15:28.000Z</time>
      </trkpt>
      <trkpt lat="43.536" lon="2.8591">
        <ele>235.80000305176</ele>
        <time>2012-05-06T09:15:29.000Z</time>
      </trkpt>
      <trkpt lat="43.53597" lon="2.85907">
        <ele>236</ele>
        <time>2012-05-06T09:15:30.000Z</time>
      </trkpt>
      <trkpt lat="43.53594" lon="2.85905">
        <ele>236.39999389648</ele>
        <time>2012-05-06T09:15:31.000Z</time>
      </trkpt>
      <trkpt lat="43.53592" lon="2.85902">
        <ele>236.60000610352</ele>
        <time>2012-05-06T09:15:32.000Z</time>
      </trkpt>
      <trkpt lat="43.5359" lon="2.859">
        <ele>237</ele>
        <time>2012-05-06T09:15:33.000Z</time>
      </trkpt>
      <trkpt lat="43.53588" lon="2.85898">
        <ele>237</ele>
        <time>2012-05-06T09:15:34.000Z</time>
      </trkpt>
      <trkpt lat="43.53586" lon="2.85896">
        <ele>237.19999694824</ele>
        <time>2012-05-06T09:15:35.000Z</time>
      </trkpt>
      <trkpt lat="43.53583" lon="2.85894">
        <ele>237.39999389648</ele>
        <time>2012-05-06T09:15:36.000Z</time>
      </trkpt>
      <trkpt lat="43.53581" lon="2.85892">
        <ele>237.80000305176</ele>
        <time>2012-05-06T09:15:37.000Z</time>
      </trkpt>
      <trkpt lat="43.53579" lon="2.8589">
        <ele>238</ele>
        <time>2012-05-06T09:15:38.000Z</time>
      </trkpt>
      <trkpt lat="43.53577" lon="2.85888">
        <ele>238.39999389648</ele>
        <time>2012-05-06T09:15:39.000Z</time>
      </trkpt>
      <trkpt lat="43.53574" lon="2.85886">
        <ele>238.60000610352</ele>
        <time>2012-05-06T09:15:40.000Z</time>
      </trkpt>
      <trkpt lat="43.53572" lon="2.85884">
        <ele>238.80000305176</ele>
        <time>2012-05-06T09:15:41.000Z</time>
      </trkpt>
      <trkpt lat="43.53569" lon="2.85882">
        <ele>239</ele>
        <time>2012-05-06T09:15:42.000Z</time>
      </trkpt>
      <trkpt lat="43.53567" lon="2.8588">
        <ele>239.19999694824</ele>
        <time>2012-05-06T09:15:43.000Z</time>
      </trkpt>
      <trkpt lat="43.53565" lon="2.85878">
        <ele>239.39999389648</ele>
        <time>2012-05-06T09:15:44.000Z</time>
      </trkpt>
      <trkpt lat="43.53562" lon="2.85877">
        <ele>239.39999389648</ele>
        <time>2012-05-06T09:15:45.000Z</time>
      </trkpt>
      <trkpt lat="43.53559" lon="2.85876">
        <ele>239.39999389648</ele>
        <time>2012-05-06T09:15:46.000Z</time>
      </trkpt>
      <trkpt lat="43.53557" lon="2.85875">
        <ele>239.39999389648</ele>
        <time>2012-05-06T09:15:47.000Z</time>
      </trkpt>
      <trkpt lat="43.53554" lon="2.85874">
        <ele>239.19999694824</ele>
        <time>2012-05-06T09:15:48.000Z</time>
      </trkpt>
      <trkpt lat="43.53551" lon="2.85872">
        <ele>239.19999694824</ele>
        <time>2012-05-06T09:15:49.000Z</time>
      </trkpt>
      <trkpt lat="43.53548" lon="2.85871">
        <ele>239.19999694824</ele>
        <time>2012-05-06T09:15:50.000Z</time>
      </trkpt>
      <trkpt lat="43.53545" lon="2.85869">
        <ele>239.19999694824</ele>
        <time>2012-05-06T09:15:51.000Z</time>
      </trkpt>
      <trkpt lat="43.53543" lon="2.85867">
        <ele>239.19999694824</ele>
        <time>2012-05-06T09:15:52.000Z</time>
      </trkpt>
      <trkpt lat="43.5354" lon="2.85865">
        <ele>239.19999694824</ele>
        <time>2012-05-06T09:15:53.000Z</time>
      </trkpt>
      <trkpt lat="43.53537" lon="2.85864">
        <ele>239</ele>
        <time>2012-05-06T09:15:54.000Z</time>
      </trkpt>
      <trkpt lat="43.53534" lon="2.85862">
        <ele>238.80000305176</ele>
        <time>2012-05-06T09:15:55.000Z</time>
      </trkpt>
      <trkpt lat="43.53531" lon="2.8586">
        <ele>238.80000305176</ele>
        <time>2012-05-06T09:15:56.000Z</time>
      </trkpt>
      <trkpt lat="43.53528" lon="2.85859">
        <ele>238.60000610352</ele>
        <time>2012-05-06T09:15:57.000Z</time>
      </trkpt>
      <trkpt lat="43.53525" lon="2.85856">
        <ele>238.60000610352</ele>
        <time>2012-05-06T09:15:58.000Z</time>
      </trkpt>
      <trkpt lat="43.53522" lon="2.85854">
        <ele>238.39999389648</ele>
        <time>2012-05-06T09:15:59.000Z</time>
      </trkpt>
      <trkpt lat="43.53519" lon="2.85852">
        <ele>238.19999694824</ele>
        <time>2012-05-06T09:16:00.000Z</time>
      </trkpt>
      <trkpt lat="43.53517" lon="2.85849">
        <ele>238.19999694824</ele>
        <time>2012-05-06T09:16:01.000Z</time>
      </trkpt>
      <trkpt lat="43.53513" lon="2.85847">
        <ele>238</ele>
        <time>2012-05-06T09:16:02.000Z</time>
      </trkpt>
      <trkpt lat="43.5351" lon="2.85845">
        <ele>237.60000610352</ele>
        <time>2012-05-06T09:16:03.000Z</time>
      </trkpt>
      <trkpt lat="43.53507" lon="2.85842">
        <ele>237.39999389648</ele>
        <time>2012-05-06T09:16:04.000Z</time>
      </trkpt>
      <trkpt lat="43.53504" lon="2.8584">
        <ele>237.19999694824</ele>
        <time>2012-05-06T09:16:05.000Z</time>
      </trkpt>
      <trkpt lat="43.53501" lon="2.85838">
        <ele>236.80000305176</ele>
        <time>2012-05-06T09:16:06.000Z</time>
      </trkpt>
      <trkpt lat="43.53498" lon="2.85835">
        <ele>236.60000610352</ele>
        <time>2012-05-06T09:16:07.000Z</time>
      </trkpt>
      <trkpt lat="43.53495" lon="2.85832">
        <ele>236.60000610352</ele>
        <time>2012-05-06T09:16:08.000Z</time>
      </trkpt>
      <trkpt lat="43.53493" lon="2.8583">
        <ele>236.80000305176</ele>
        <time>2012-05-06T09:16:09.000Z</time>
      </trkpt>
      <trkpt lat="43.5349" lon="2.85827">
        <ele>236.80000305176</ele>
        <time>2012-05-06T09:16:10.000Z</time>
      </trkpt>
      <trkpt lat="43.53487" lon="2.85824">
        <ele>236.80000305176</ele>
        <time>2012-05-06T09:16:11.000Z</time>
      </trkpt>
      <trkpt lat="43.53484" lon="2.85821">
        <ele>237</ele>
        <time>2012-05-06T09:16:12.000Z</time>
      </trkpt>
      <trkpt lat="43.53482" lon="2.85818">
        <ele>237</ele>
        <time>2012-05-06T09:16:13.000Z</time>
      </trkpt>
      <trkpt lat="43.53479" lon="2.85816">
        <ele>237</ele>
        <time>2012-05-06T09:16:14.000Z</time>
      </trkpt>
      <trkpt lat="43.53477" lon="2.85813">
        <ele>237.19999694824</ele>
        <time>2012-05-06T09:16:15.000Z</time>
      </trkpt>
      <trkpt lat="43.53474" lon="2.8581">
        <ele>237</ele>
        <time>2012-05-06T09:16:16.000Z</time>
      </trkpt>
      <trkpt lat="43.53471" lon="2.85808">
        <ele>237</ele>
        <time>2012-05-06T09:16:17.000Z</time>
      </trkpt>
      <trkpt lat="43.53468" lon="2.85805">
        <ele>237</ele>
        <time>2012-05-06T09:16:18.000Z</time>
      </trkpt>
      <trkpt lat="43.53466" lon="2.85803">
        <ele>237</ele>
        <time>2012-05-06T09:16:19.000Z</time>
      </trkpt>
      <trkpt lat="43.53463" lon="2.85801">
        <ele>236.80000305176</ele>
        <time>2012-05-06T09:16:20.000Z</time>
      </trkpt>
      <trkpt lat="43.5346" lon="2.85798">
        <ele>236.80000305176</ele>
        <time>2012-05-06T09:16:21.000Z</time>
      </trkpt>
      <trkpt lat="43.53457" lon="2.85796">
        <ele>236.60000610352</ele>
        <time>2012-05-06T09:16:22.000Z</time>
      </trkpt>
      <trkpt lat="43.53455" lon="2.85793">
        <ele>236.60000610352</ele>
        <time>2012-05-06T09:16:23.000Z</time>
      </trkpt>
      <trkpt lat="43.53452" lon="2.8579">
        <ele>236.60000610352</ele>
        <time>2012-05-06T09:16:24.000Z</time>
      </trkpt>
      <trkpt lat="43.53449" lon="2.85787">
        <ele>236.60000610352</ele>
        <time>2012-05-06T09:16:25.000Z</time>
      </trkpt>
      <trkpt lat="43.53447" lon="2.85783">
        <ele>236.60000610352</ele>
        <time>2012-05-06T09:16:26.000Z</time>
      </trkpt>
      <trkpt lat="43.53444" lon="2.85779">
        <ele>236.60000610352</ele>
        <time>2012-05-06T09:16:27.000Z</time>
      </trkpt>
      <trkpt lat="43.53441" lon="2.85776">
        <ele>236.60000610352</ele>
        <time>2012-05-06T09:16:28.000Z</time>
      </trkpt>
      <trkpt lat="43.53439" lon="2.85772">
        <ele>236.60000610352</ele>
        <time>2012-05-06T09:16:29.000Z</time>
      </trkpt>
      <trkpt lat="43.53437" lon="2.85768">
        <ele>236.60000610352</ele>
        <time>2012-05-06T09:16:30.000Z</time>
      </trkpt>
      <trkpt lat="43.53434" lon="2.85764">
        <ele>236.60000610352</ele>
        <time>2012-05-06T09:16:31.000Z</time>
      </trkpt>
      <trkpt lat="43.53431" lon="2.8576">
        <ele>236.60000610352</ele>
        <time>2012-05-06T09:16:32.000Z</time>
      </trkpt>
      <trkpt lat="43.53429" lon="2.85756">
        <ele>236.39999389648</ele>
        <time>2012-05-06T09:16:33.000Z</time>
      </trkpt>
      <trkpt lat="43.53426" lon="2.85753">
        <ele>236.39999389648</ele>
        <time>2012-05-06T09:16:34.000Z</time>
      </trkpt>
      <trkpt lat="43.53424" lon="2.8575">
        <ele>236.19999694824</ele>
        <time>2012-05-06T09:16:35.000Z</time>
      </trkpt>
      <trkpt lat="43.53421" lon="2.85746">
        <ele>236.39999389648</ele>
        <time>2012-05-06T09:16:36.000Z</time>
      </trkpt>
      <trkpt lat="43.53419" lon="2.85743">
        <ele>236.60000610352</ele>
        <time>2012-05-06T09:16:37.000Z</time>
      </trkpt>
      <trkpt lat="43.53416" lon="2.8574">
        <ele>236.60000610352</ele>
        <time>2012-05-06T09:16:38.000Z</time>
      </trkpt>
      <trkpt lat="43.53414" lon="2.85736">
        <ele>236.80000305176</ele>
        <time>2012-05-06T09:16:39.000Z</time>
      </trkpt>
      <trkpt lat="43.53411" lon="2.85732">
        <ele>237</ele>
        <time>2012-05-06T09:16:40.000Z</time>
      </trkpt>
      <trkpt lat="43.53409" lon="2.85729">
        <ele>237.19999694824</ele>
        <time>2012-05-06T09:16:41.000Z</time>
      </trkpt>
      <trkpt lat="43.53407" lon="2.85726">
        <ele>237.39999389648</ele>
        <time>2012-05-06T09:16:42.000Z</time>
      </trkpt>
      <trkpt lat="43.53405" lon="2.85722">
        <ele>237.39999389648</ele>
        <time>2012-05-06T09:16:43.000Z</time>
      </trkpt>
      <trkpt lat="43.53402" lon="2.8572">
        <ele>237.39999389648</ele>
        <time>2012-05-06T09:16:44.000Z</time>
      </trkpt>
      <trkpt lat="43.53399" lon="2.85717">
        <ele>237.39999389648</ele>
        <time>2012-05-06T09:16:45.000Z</time>
      </trkpt>
      <trkpt lat="43.53397" lon="2.85714">
        <ele>237.39999389648</ele>
        <time>2012-05-06T09:16:46.000Z</time>
      </trkpt>
      <trkpt lat="43.53394" lon="2.85711">
        <ele>237.39999389648</ele>
        <time>2012-05-06T09:16:47.000Z</time>
      </trkpt>
      <trkpt lat="43.53392" lon="2.85708">
        <ele>237.39999389648</ele>
        <time>2012-05-06T09:16:48.000Z</time>
      </trkpt>
      <trkpt lat="43.53389" lon="2.85705">
        <ele>237.39999389648</ele>
        <time>2012-05-06T09:16:49.000Z</time>
      </trkpt>
      <trkpt lat="43.53387" lon="2.85701">
        <ele>237.60000610352</ele>
        <time>2012-05-06T09:16:50.000Z</time>
      </trkpt>
      <trkpt lat="43.53385" lon="2.85698">
        <ele>237.60000610352</ele>
        <time>2012-05-06T09:16:51.000Z</time>
      </trkpt>
      <trkpt lat="43.53382" lon="2.85695">
        <ele>237.60000610352</ele>
        <time>2012-05-06T09:16:52.000Z</time>
      </trkpt>
      <trkpt lat="43.5338" lon="2.85692">
        <ele>237.60000610352</ele>
        <time>2012-05-06T09:16:53.000Z</time>
      </trkpt>
      <trkpt lat="43.53377" lon="2.85688">
        <ele>237.60000610352</ele>
        <time>2012-05-06T09:16:54.000Z</time>
      </trkpt>
      <trkpt lat="43.53375" lon="2.85685">
        <ele>237.80000305176</ele>
        <time>2012-05-06T09:16:55.000Z</time>
      </trkpt>
      <trkpt lat="43.53372" lon="2.85681">
        <ele>237.80000305176</ele>
        <time>2012-05-06T09:16:56.000Z</time>
      </trkpt>
      <trkpt lat="43.5337" lon="2.85678">
        <ele>237.80000305176</ele>
        <time>2012-05-06T09:16:57.000Z</time>
      </trkpt>
      <trkpt lat="43.53368" lon="2.85675">
        <ele>237.80000305176</ele>
        <time>2012-05-06T09:16:58.000Z</time>
      </trkpt>
      <trkpt lat="43.53365" lon="2.85672">
        <ele>237.60000610352</ele>
        <time>2012-05-06T09:16:59.000Z</time>
      </trkpt>
      <trkpt lat="43.53362" lon="2.85669">
        <ele>237.39999389648</ele>
        <time>2012-05-06T09:17:00.000Z</time>
      </trkpt>
      <trkpt lat="43.53359" lon="2.85666">
        <ele>237.39999389648</ele>
        <time>2012-05-06T09:17:01.000Z</time>
      </trkpt>
      <trkpt lat="43.53357" lon="2.85662">
        <ele>237.60000610352</ele>
        <time>2012-05-06T09:17:02.000Z</time>
      </trkpt>
      <trkpt lat="43.53355" lon="2.85659">
        <ele>237.60000610352</ele>
        <time>2012-05-06T09:17:03.000Z</time>
      </trkpt>
      <trkpt lat="43.53353" lon="2.85656">
        <ele>237.60000610352</ele>
        <time>2012-05-06T09:17:04.000Z</time>
      </trkpt>
      <trkpt lat="43.53351" lon="2.85653">
        <ele>237.60000610352</ele>
        <time>2012-05-06T09:17:05.000Z</time>
      </trkpt>
      <trkpt lat="43.53348" lon="2.8565">
        <ele>237.60000610352</ele>
        <time>2012-05-06T09:17:06.000Z</time>
      </trkpt>
      <trkpt lat="43.53346" lon="2.85647">
        <ele>237.60000610352</ele>
        <time>2012-05-06T09:17:07.000Z</time>
      </trkpt>
      <trkpt lat="43.53343" lon="2.85644">
        <ele>237.39999389648</ele>
        <time>2012-05-06T09:17:08.000Z</time>
      </trkpt>
      <trkpt lat="43.53341" lon="2.85641">
        <ele>237.39999389648</ele>
        <time>2012-05-06T09:17:09.000Z</time>
      </trkpt>
      <trkpt lat="43.53339" lon="2.85639">
        <ele>237.19999694824</ele>
        <time>2012-05-06T09:17:10.000Z</time>
      </trkpt>
      <trkpt lat="43.53336" lon="2.85636">
        <ele>237</ele>
        <time>2012-05-06T09:17:11.000Z</time>
      </trkpt>
      <trkpt lat="43.53334" lon="2.85633">
        <ele>237</ele>
        <time>2012-05-06T09:17:12.000Z</time>
      </trkpt>
      <trkpt lat="43.53332" lon="2.85631">
        <ele>237</ele>
        <time>2012-05-06T09:17:13.000Z</time>
      </trkpt>
      <trkpt lat="43.53329" lon="2.85629">
        <ele>236.80000305176</ele>
        <time>2012-05-06T09:17:14.000Z</time>
      </trkpt>
      <trkpt lat="43.53327" lon="2.85627">
        <ele>236.60000610352</ele>
        <time>2012-05-06T09:17:15.000Z</time>
      </trkpt>
      <trkpt lat="43.53324" lon="2.85624">
        <ele>236.39999389648</ele>
        <time>2012-05-06T09:17:16.000Z</time>
      </trkpt>
      <trkpt lat="43.53322" lon="2.85621">
        <ele>236.39999389648</ele>
        <time>2012-05-06T09:17:17.000Z</time>
      </trkpt>
      <trkpt lat="43.5332" lon="2.85617">
        <ele>236.39999389648</ele>
        <time>2012-05-06T09:17:18.000Z</time>
      </trkpt>
      <trkpt lat="43.53318" lon="2.85614">
        <ele>236.39999389648</ele>
        <time>2012-05-06T09:17:19.000Z</time>
      </trkpt>
      <trkpt lat="43.53316" lon="2.85611">
        <ele>236.39999389648</ele>
        <time>2012-05-06T09:17:20.000Z</time>
      </trkpt>
      <trkpt lat="43.53314" lon="2.85607">
        <ele>236.60000610352</ele>
        <time>2012-05-06T09:17:21.000Z</time>
      </trkpt>
      <trkpt lat="43.53311" lon="2.85604">
        <ele>236.60000610352</ele>
        <time>2012-05-06T09:17:22.000Z</time>
      </trkpt>
      <trkpt lat="43.53309" lon="2.856">
        <ele>236.60000610352</ele>
        <time>2012-05-06T09:17:23.000Z</time>
      </trkpt>
      <trkpt lat="43.53307" lon="2.85595">
        <ele>236.60000610352</ele>
        <time>2012-05-06T09:17:24.000Z</time>
      </trkpt>
      <trkpt lat="43.53305" lon="2.8559">
        <ele>236.80000305176</ele>
        <time>2012-05-06T09:17:25.000Z</time>
      </trkpt>
      <trkpt lat="43.53304" lon="2.85585">
        <ele>237</ele>
        <time>2012-05-06T09:17:26.000Z</time>
      </trkpt>
      <trkpt lat="43.53301" lon="2.85581">
        <ele>236.80000305176</ele>
        <time>2012-05-06T09:17:27.000Z</time>
      </trkpt>
      <trkpt lat="43.53299" lon="2.85578">
        <ele>236.19999694824</ele>
        <time>2012-05-06T09:17:28.000Z</time>
      </trkpt>
      <trkpt lat="43.53296" lon="2.85575">
        <ele>235.60000610352</ele>
        <time>2012-05-06T09:17:29.000Z</time>
      </trkpt>
      <trkpt lat="43.53293" lon="2.85574">
        <ele>235</ele>
        <time>2012-05-06T09:17:30.000Z</time>
      </trkpt>
      <trkpt lat="43.5329" lon="2.85574">
        <ele>234.19999694824</ele>
        <time>2012-05-06T09:17:31.000Z</time>
      </trkpt>
      <trkpt lat="43.53287" lon="2.85576">
        <ele>233.39999389648</ele>
        <time>2012-05-06T09:17:32.000Z</time>
      </trkpt>
      <trkpt lat="43.53283" lon="2.8558">
        <ele>232.60000610352</ele>
        <time>2012-05-06T09:17:33.000Z</time>
      </trkpt>
      <trkpt lat="43.5328" lon="2.85584">
        <ele>231.80000305176</ele>
        <time>2012-05-06T09:17:34.000Z</time>
      </trkpt>
      <trkpt lat="43.53277" lon="2.85588">
        <ele>230.80000305176</ele>
        <time>2012-05-06T09:17:35.000Z</time>
      </trkpt>
      <trkpt lat="43.53275" lon="2.8559">
        <ele>230</ele>
        <time>2012-05-06T09:17:36.000Z</time>
      </trkpt>
      <trkpt lat="43.53272" lon="2.85592">
        <ele>229.19999694824</ele>
        <time>2012-05-06T09:17:37.000Z</time>
      </trkpt>
      <trkpt lat="43.5327" lon="2.85596">
        <ele>228.60000610352</ele>
        <time>2012-05-06T09:17:38.000Z</time>
      </trkpt>
      <trkpt lat="43.5327" lon="2.856">
        <ele>228.19999694824</ele>
        <time>2012-05-06T09:17:39.000Z</time>
      </trkpt>
      <trkpt lat="43.5327" lon="2.85605">
        <ele>227.80000305176</ele>
        <time>2012-05-06T09:17:40.000Z</time>
      </trkpt>
      <trkpt lat="43.53271" lon="2.8561">
        <ele>227.80000305176</ele>
        <time>2012-05-06T09:17:41.000Z</time>
      </trkpt>
      <trkpt lat="43.53273" lon="2.85614">
        <ele>227.80000305176</ele>
        <time>2012-05-06T09:17:42.000Z</time>
      </trkpt>
      <trkpt lat="43.53276" lon="2.85617">
        <ele>228</ele>
        <time>2012-05-06T09:17:43.000Z</time>
      </trkpt>
      <trkpt lat="43.53279" lon="2.85621">
        <ele>228.19999694824</ele>
        <time>2012-05-06T09:17:44.000Z</time>
      </trkpt>
      <trkpt lat="43.53281" lon="2.85623">
        <ele>228.39999389648</ele>
        <time>2012-05-06T09:17:45.000Z</time>
      </trkpt>
      <trkpt lat="43.53285" lon="2.85626">
        <ele>228.80000305176</ele>
        <time>2012-05-06T09:17:46.000Z</time>
      </trkpt>
      <trkpt lat="43.53288" lon="2.85629">
        <ele>229.19999694824</ele>
        <time>2012-05-06T09:17:47.000Z</time>
      </trkpt>
      <trkpt lat="43.5329" lon="2.85632">
        <ele>229.19999694824</ele>
        <time>2012-05-06T09:17:48.000Z</time>
      </trkpt>
      <trkpt lat="43.53293" lon="2.85636">
        <ele>229.39999389648</ele>
        <time>2012-05-06T09:17:49.000Z</time>
      </trkpt>
      <trkpt lat="43.53295" lon="2.85639">
        <ele>229.39999389648</ele>
        <time>2012-05-06T09:17:50.000Z</time>
      </trkpt>
      <trkpt lat="43.53296" lon="2.85643">
        <ele>229.19999694824</ele>
        <time>2012-05-06T09:17:51.000Z</time>
      </trkpt>
      <trkpt lat="43.53294" lon="2.85647">
        <ele>228.60000610352</ele>
        <time>2012-05-06T09:17:52.000Z</time>
      </trkpt>
      <trkpt lat="43.53291" lon="2.8565">
        <ele>227.60000610352</ele>
        <time>2012-05-06T09:17:53.000Z</time>
      </trkpt>
      <trkpt lat="43.53288" lon="2.85653">
        <ele>226.80000305176</ele>
        <time>2012-05-06T09:17:54.000Z</time>
      </trkpt>
      <trkpt lat="43.53283" lon="2.85654">
        <ele>226</ele>
        <time>2012-05-06T09:17:55.000Z</time>
      </trkpt>
      <trkpt lat="43.53279" lon="2.85653">
        <ele>225.39999389648</ele>
        <time>2012-05-06T09:17:56.000Z</time>
      </trkpt>
      <trkpt lat="43.53276" lon="2.85651">
        <ele>225</ele>
        <time>2012-05-06T09:17:57.000Z</time>
      </trkpt>
      <trkpt lat="43.53273" lon="2.85649">
        <ele>224.80000305176</ele>
        <time>2012-05-06T09:17:58.000Z</time>
      </trkpt>
      <trkpt lat="43.5327" lon="2.85646">
        <ele>224.39999389648</ele>
        <time>2012-05-06T09:17:59.000Z</time>
      </trkpt>
      <trkpt lat="43.53266" lon="2.85644">
        <ele>224</ele>
        <time>2012-05-06T09:18:00.000Z</time>
      </trkpt>
      <trkpt lat="43.53263" lon="2.85643">
        <ele>223.60000610352</ele>
        <time>2012-05-06T09:18:01.000Z</time>
      </trkpt>
      <trkpt lat="43.5326" lon="2.85642">
        <ele>223.19999694824</ele>
        <time>2012-05-06T09:18:02.000Z</time>
      </trkpt>
      <trkpt lat="43.53256" lon="2.85642">
        <ele>222.60000610352</ele>
        <time>2012-05-06T09:18:03.000Z</time>
      </trkpt>
      <trkpt lat="43.53253" lon="2.85643">
        <ele>222</ele>
        <time>2012-05-06T09:18:04.000Z</time>
      </trkpt>
      <trkpt lat="43.5325" lon="2.85644">
        <ele>221.39999389648</ele>
        <time>2012-05-06T09:18:05.000Z</time>
      </trkpt>
      <trkpt lat="43.53246" lon="2.85645">
        <ele>221.19999694824</ele>
        <time>2012-05-06T09:18:06.000Z</time>
      </trkpt>
      <trkpt lat="43.53242" lon="2.85645">
        <ele>221</ele>
        <time>2012-05-06T09:18:07.000Z</time>
      </trkpt>
      <trkpt lat="43.53238" lon="2.85644">
        <ele>220.80000305176</ele>
        <time>2012-05-06T09:18:08.000Z</time>
      </trkpt>
      <trkpt lat="43.53235" lon="2.85642">
        <ele>220.80000305176</ele>
        <time>2012-05-06T09:18:09.000Z</time>
      </trkpt>
      <trkpt lat="43.53232" lon="2.85639">
        <ele>221</ele>
        <time>2012-05-06T09:18:10.000Z</time>
      </trkpt>
      <trkpt lat="43.53229" lon="2.85635">
        <ele>221</ele>
        <time>2012-05-06T09:18:11.000Z</time>
      </trkpt>
      <trkpt lat="43.53227" lon="2.85631">
        <ele>221.19999694824</ele>
        <time>2012-05-06T09:18:12.000Z</time>
      </trkpt>
      <trkpt lat="43.53225" lon="2.85626">
        <ele>221.39999389648</ele>
        <time>2012-05-06T09:18:13.000Z</time>
      </trkpt>
      <trkpt lat="43.53222" lon="2.85621">
        <ele>221.60000610352</ele>
        <time>2012-05-06T09:18:14.000Z</time>
      </trkpt>
      <trkpt lat="43.5322" lon="2.85617">
        <ele>221.60000610352</ele>
        <time>2012-05-06T09:18:15.000Z</time>
      </trkpt>
      <trkpt lat="43.53217" lon="2.85613">
        <ele>221.80000305176</ele>
        <time>2012-05-06T09:18:16.000Z</time>
      </trkpt>
      <trkpt lat="43.53214" lon="2.8561">
        <ele>221.80000305176</ele>
        <time>2012-05-06T09:18:17.000Z</time>
      </trkpt>
      <trkpt lat="43.53211" lon="2.85608">
        <ele>221.80000305176</ele>
        <time>2012-05-06T09:18:18.000Z</time>
      </trkpt>
      <trkpt lat="43.53207" lon="2.85606">
        <ele>221.80000305176</ele>
        <time>2012-05-06T09:18:19.000Z</time>
      </trkpt>
      <trkpt lat="43.53204" lon="2.85606">
        <ele>221.60000610352</ele>
        <time>2012-05-06T09:18:20.000Z</time>
      </trkpt>
      <trkpt lat="43.532" lon="2.85607">
        <ele>221.39999389648</ele>
        <time>2012-05-06T09:18:21.000Z</time>
      </trkpt>
      <trkpt lat="43.53197" lon="2.85608">
        <ele>221.19999694824</ele>
        <time>2012-05-06T09:18:22.000Z</time>
      </trkpt>
      <trkpt lat="43.53193" lon="2.85609">
        <ele>221</ele>
        <time>2012-05-06T09:18:23.000Z</time>
      </trkpt>
      <trkpt lat="43.5319" lon="2.85609">
        <ele>220.80000305176</ele>
        <time>2012-05-06T09:18:24.000Z</time>
      </trkpt>
      <trkpt lat="43.53187" lon="2.85607">
        <ele>220.80000305176</ele>
        <time>2012-05-06T09:18:25.000Z</time>
      </trkpt>
      <trkpt lat="43.53184" lon="2.85605">
        <ele>220.80000305176</ele>
        <time>2012-05-06T09:18:26.000Z</time>
      </trkpt>
      <trkpt lat="43.53182" lon="2.85603">
        <ele>220.80000305176</ele>
        <time>2012-05-06T09:18:27.000Z</time>
      </trkpt>
      <trkpt lat="43.5318" lon="2.856">
        <ele>220.80000305176</ele>
        <time>2012-05-06T09:18:28.000Z</time>
      </trkpt>
      <trkpt lat="43.53178" lon="2.85597">
        <ele>220.80000305176</ele>
        <time>2012-05-06T09:18:29.000Z</time>
      </trkpt>
      <trkpt lat="43.53176" lon="2.85595">
        <ele>220.80000305176</ele>
        <time>2012-05-06T09:18:30.000Z</time>
      </trkpt>
      <trkpt lat="43.53174" lon="2.85592">
        <ele>221</ele>
        <time>2012-05-06T09:18:31.000Z</time>
      </trkpt>
      <trkpt lat="43.53172" lon="2.85589">
        <ele>221</ele>
        <time>2012-05-06T09:18:32.000Z</time>
      </trkpt>
      <trkpt lat="43.53169" lon="2.85586">
        <ele>221</ele>
        <time>2012-05-06T09:18:33.000Z</time>
      </trkpt>
      <trkpt lat="43.53166" lon="2.85584">
        <ele>221</ele>
        <time>2012-05-06T09:18:34.000Z</time>
      </trkpt>
      <trkpt lat="43.53164" lon="2.85581">
        <ele>221</ele>
        <time>2012-05-06T09:18:35.000Z</time>
      </trkpt>
      <trkpt lat="43.53161" lon="2.85578">
        <ele>221</ele>
        <time>2012-05-06T09:18:36.000Z</time>
      </trkpt>
      <trkpt lat="43.53159" lon="2.85574">
        <ele>221</ele>
        <time>2012-05-06T09:18:37.000Z</time>
      </trkpt>
      <trkpt lat="43.53157" lon="2.8557">
        <ele>221</ele>
        <time>2012-05-06T09:18:38.000Z</time>
      </trkpt>
      <trkpt lat="43.53155" lon="2.85566">
        <ele>221</ele>
        <time>2012-05-06T09:18:39.000Z</time>
      </trkpt>
      <trkpt lat="43.53153" lon="2.85563">
        <ele>221</ele>
        <time>2012-05-06T09:18:40.000Z</time>
      </trkpt>
      <trkpt lat="43.53151" lon="2.85559">
        <ele>221</ele>
        <time>2012-05-06T09:18:41.000Z</time>
      </trkpt>
      <trkpt lat="43.53149" lon="2.85555">
        <ele>221.19999694824</ele>
        <time>2012-05-06T09:18:42.000Z</time>
      </trkpt>
      <trkpt lat="43.53147" lon="2.85551">
        <ele>221.19999694824</ele>
        <time>2012-05-06T09:18:43.000Z</time>
      </trkpt>
      <trkpt lat="43.53145" lon="2.85547">
        <ele>221.19999694824</ele>
        <time>2012-05-06T09:18:44.000Z</time>
      </trkpt>
      <trkpt lat="43.53143" lon="2.85543">
        <ele>221.19999694824</ele>
        <time>2012-05-06T09:18:45.000Z</time>
      </trkpt>
      <trkpt lat="43.53141" lon="2.85539">
        <ele>221.19999694824</ele>
        <time>2012-05-06T09:18:46.000Z</time>
      </trkpt>
      <trkpt lat="43.5314" lon="2.85535">
        <ele>221.19999694824</ele>
        <time>2012-05-06T09:18:47.000Z</time>
      </trkpt>
      <trkpt lat="43.53138" lon="2.85532">
        <ele>221.19999694824</ele>
        <time>2012-05-06T09:18:48.000Z</time>
      </trkpt>
      <trkpt lat="43.53135" lon="2.85529">
        <ele>221.19999694824</ele>
        <time>2012-05-06T09:18:49.000Z</time>
      </trkpt>
      <trkpt lat="43.53132" lon="2.85527">
        <ele>221.19999694824</ele>
        <time>2012-05-06T09:18:50.000Z</time>
      </trkpt>
      <trkpt lat="43.5313" lon="2.85525">
        <ele>221</ele>
        <time>2012-05-06T09:18:51.000Z</time>
      </trkpt>
      <trkpt lat="43.53127" lon="2.85523">
        <ele>221</ele>
        <time>2012-05-06T09:18:52.000Z</time>
      </trkpt>
      <trkpt lat="43.53124" lon="2.85521">
        <ele>220.80000305176</ele>
        <time>2012-05-06T09:18:53.000Z</time>
      </trkpt>
      <trkpt lat="43.53121" lon="2.85519">
        <ele>220.60000610352</ele>
        <time>2012-05-06T09:18:54.000Z</time>
      </trkpt>
      <trkpt lat="43.53117" lon="2.85517">
        <ele>220.60000610352</ele>
        <time>2012-05-06T09:18:55.000Z</time>
      </trkpt>
      <trkpt lat="43.53114" lon="2.85514">
        <ele>220.39999389648</ele>
        <time>2012-05-06T09:18:56.000Z</time>
      </trkpt>
      <trkpt lat="43.53111" lon="2.85512">
        <ele>220.39999389648</ele>
        <time>2012-05-06T09:18:57.000Z</time>
      </trkpt>
      <trkpt lat="43.53108" lon="2.85509">
        <ele>220.19999694824</ele>
        <time>2012-05-06T09:18:58.000Z</time>
      </trkpt>
      <trkpt lat="43.53105" lon="2.85506">
        <ele>220.19999694824</ele>
        <time>2012-05-06T09:18:59.000Z</time>
      </trkpt>
      <trkpt lat="43.53104" lon="2.85502">
        <ele>220.19999694824</ele>
        <time>2012-05-06T09:19:00.000Z</time>
      </trkpt>
      <trkpt lat="43.53102" lon="2.85499">
        <ele>220.19999694824</ele>
        <time>2012-05-06T09:19:01.000Z</time>
      </trkpt>
      <trkpt lat="43.53101" lon="2.85495">
        <ele>220</ele>
        <time>2012-05-06T09:19:02.000Z</time>
      </trkpt>
      <trkpt lat="43.53099" lon="2.85492">
        <ele>219.80000305176</ele>
        <time>2012-05-06T09:19:03.000Z</time>
      </trkpt>
      <trkpt lat="43.53098" lon="2.85488">
        <ele>219.60000610352</ele>
        <time>2012-05-06T09:19:04.000Z</time>
      </trkpt>
      <trkpt lat="43.53096" lon="2.85484">
        <ele>219.60000610352</ele>
        <time>2012-05-06T09:19:05.000Z</time>
      </trkpt>
      <trkpt lat="43.53095" lon="2.85481">
        <ele>219.39999389648</ele>
        <time>2012-05-06T09:19:06.000Z</time>
      </trkpt>
      <trkpt lat="43.53094" lon="2.85477">
        <ele>219.19999694824</ele>
        <time>2012-05-06T09:19:07.000Z</time>
      </trkpt>
      <trkpt lat="43.53093" lon="2.85473">
        <ele>219</ele>
        <time>2012-05-06T09:19:08.000Z</time>
      </trkpt>
      <trkpt lat="43.53092" lon="2.85469">
        <ele>219</ele>
        <time>2012-05-06T09:19:09.000Z</time>
      </trkpt>
      <trkpt lat="43.53091" lon="2.85465">
        <ele>218.80000305176</ele>
        <time>2012-05-06T09:19:10.000Z</time>
      </trkpt>
      <trkpt lat="43.53091" lon="2.85461">
        <ele>218.60000610352</ele>
        <time>2012-05-06T09:19:11.000Z</time>
      </trkpt>
      <trkpt lat="43.5309" lon="2.85457">
        <ele>218.60000610352</ele>
        <time>2012-05-06T09:19:12.000Z</time>
      </trkpt>
      <trkpt lat="43.53089" lon="2.85452">
        <ele>218.39999389648</ele>
        <time>2012-05-06T09:19:13.000Z</time>
      </trkpt>
      <trkpt lat="43.53089" lon="2.85448">
        <ele>218.19999694824</ele>
        <time>2012-05-06T09:19:14.000Z</time>
      </trkpt>
      <trkpt lat="43.53088" lon="2.85444">
        <ele>218</ele>
        <time>2012-05-06T09:19:15.000Z</time>
      </trkpt>
      <trkpt lat="43.53087" lon="2.8544">
        <ele>218</ele>
        <time>2012-05-06T09:19:16.000Z</time>
      </trkpt>
      <trkpt lat="43.53086" lon="2.85437">
        <ele>217.80000305176</ele>
        <time>2012-05-06T09:19:17.000Z</time>
      </trkpt>
      <trkpt lat="43.53084" lon="2.85434">
        <ele>217.60000610352</ele>
        <time>2012-05-06T09:19:18.000Z</time>
      </trkpt>
      <trkpt lat="43.53082" lon="2.85431">
        <ele>217.39999389648</ele>
        <time>2012-05-06T09:19:19.000Z</time>
      </trkpt>
      <trkpt lat="43.53079" lon="2.8543">
        <ele>217.39999389648</ele>
        <time>2012-05-06T09:19:20.000Z</time>
      </trkpt>
      <trkpt lat="43.53076" lon="2.8543">
        <ele>217.60000610352</ele>
        <time>2012-05-06T09:19:21.000Z</time>
      </trkpt>
      <trkpt lat="43.53073" lon="2.85431">
        <ele>217.60000610352</ele>
        <time>2012-05-06T09:19:22.000Z</time>
      </trkpt>
      <trkpt lat="43.53069" lon="2.85433">
        <ele>217.80000305176</ele>
        <time>2012-05-06T09:19:23.000Z</time>
      </trkpt>
      <trkpt lat="43.53066" lon="2.85434">
        <ele>218</ele>
        <time>2012-05-06T09:19:24.000Z</time>
      </trkpt>
      <trkpt lat="43.53063" lon="2.85435">
        <ele>218</ele>
        <time>2012-05-06T09:19:25.000Z</time>
      </trkpt>
      <trkpt lat="43.5306" lon="2.85435">
        <ele>218.19999694824</ele>
        <time>2012-05-06T09:19:26.000Z</time>
      </trkpt>
      <trkpt lat="43.53056" lon="2.85437">
        <ele>218.39999389648</ele>
        <time>2012-05-06T09:19:27.000Z</time>
      </trkpt>
      <trkpt lat="43.53053" lon="2.85437">
        <ele>218.39999389648</ele>
        <time>2012-05-06T09:19:28.000Z</time>
      </trkpt>
      <trkpt lat="43.5305" lon="2.85438">
        <ele>218.60000610352</ele>
        <time>2012-05-06T09:19:29.000Z</time>
      </trkpt>
      <trkpt lat="43.53046" lon="2.85439">
        <ele>218.80000305176</ele>
        <time>2012-05-06T09:19:30.000Z</time>
      </trkpt>
      <trkpt lat="43.53043" lon="2.85439">
        <ele>218.80000305176</ele>
        <time>2012-05-06T09:19:31.000Z</time>
      </trkpt>
      <trkpt lat="43.5304" lon="2.8544">
        <ele>219</ele>
        <time>2012-05-06T09:19:32.000Z</time>
      </trkpt>
      <trkpt lat="43.53037" lon="2.8544">
        <ele>219.19999694824</ele>
        <time>2012-05-06T09:19:33.000Z</time>
      </trkpt>
      <trkpt lat="43.53033" lon="2.85441">
        <ele>219.19999694824</ele>
        <time>2012-05-06T09:19:34.000Z</time>
      </trkpt>
      <trkpt lat="43.5303" lon="2.85442">
        <ele>219.39999389648</ele>
        <time>2012-05-06T09:19:35.000Z</time>
      </trkpt>
      <trkpt lat="43.53026" lon="2.85443">
        <ele>219.60000610352</ele>
        <time>2012-05-06T09:19:36.000Z</time>
      </trkpt>
      <trkpt lat="43.53023" lon="2.85443">
        <ele>219.80000305176</ele>
        <time>2012-05-06T09:19:37.000Z</time>
      </trkpt>
      <trkpt lat="43.53019" lon="2.85444">
        <ele>220</ele>
        <time>2012-05-06T09:19:38.000Z</time>
      </trkpt>
      <trkpt lat="43.53016" lon="2.85445">
        <ele>220.19999694824</ele>
        <time>2012-05-06T09:19:39.000Z</time>
      </trkpt>
      <trkpt lat="43.53013" lon="2.85446">
        <ele>220.19999694824</ele>
        <time>2012-05-06T09:19:40.000Z</time>
      </trkpt>
      <trkpt lat="43.5301" lon="2.85448">
        <ele>220.60000610352</ele>
        <time>2012-05-06T09:19:41.000Z</time>
      </trkpt>
      <trkpt lat="43.53008" lon="2.85451">
        <ele>220.80000305176</ele>
        <time>2012-05-06T09:19:42.000Z</time>
      </trkpt>
      <trkpt lat="43.53006" lon="2.85454">
        <ele>221</ele>
        <time>2012-05-06T09:19:43.000Z</time>
      </trkpt>
      <trkpt lat="43.53005" lon="2.85458">
        <ele>221.19999694824</ele>
        <time>2012-05-06T09:19:44.000Z</time>
      </trkpt>
      <trkpt lat="43.53005" lon="2.85462">
        <ele>221.60000610352</ele>
        <time>2012-05-06T09:19:45.000Z</time>
      </trkpt>
      <trkpt lat="43.53005" lon="2.85466">
        <ele>221.80000305176</ele>
        <time>2012-05-06T09:19:46.000Z</time>
      </trkpt>
      <trkpt lat="43.53005" lon="2.85471">
        <ele>222</ele>
        <time>2012-05-06T09:19:47.000Z</time>
      </trkpt>
      <trkpt lat="43.53006" lon="2.85476">
        <ele>222.19999694824</ele>
        <time>2012-05-06T09:19:48.000Z</time>
      </trkpt>
      <trkpt lat="43.53006" lon="2.85481">
        <ele>222.60000610352</ele>
        <time>2012-05-06T09:19:49.000Z</time>
      </trkpt>
      <trkpt lat="43.53007" lon="2.85486">
        <ele>222.80000305176</ele>
        <time>2012-05-06T09:19:50.000Z</time>
      </trkpt>
      <trkpt lat="43.53008" lon="2.8549">
        <ele>223</ele>
        <time>2012-05-06T09:19:51.000Z</time>
      </trkpt>
      <trkpt lat="43.53009" lon="2.85495">
        <ele>223.19999694824</ele>
        <time>2012-05-06T09:19:52.000Z</time>
      </trkpt>
      <trkpt lat="43.5301" lon="2.85499">
        <ele>223.39999389648</ele>
        <time>2012-05-06T09:19:53.000Z</time>
      </trkpt>
      <trkpt lat="43.53012" lon="2.85504">
        <ele>223.39999389648</ele>
        <time>2012-05-06T09:19:54.000Z</time>
      </trkpt>
      <trkpt lat="43.53014" lon="2.85508">
        <ele>223.39999389648</ele>
        <time>2012-05-06T09:19:55.000Z</time>
      </trkpt>
      <trkpt lat="43.53016" lon="2.85513">
        <ele>223.39999389648</ele>
        <time>2012-05-06T09:19:56.000Z</time>
      </trkpt>
      <trkpt lat="43.53018" lon="2.85517">
        <ele>223.39999389648</ele>
        <time>2012-05-06T09:19:57.000Z</time>
      </trkpt>
      <trkpt lat="43.53019" lon="2.85521">
        <ele>223.39999389648</ele>
        <time>2012-05-06T09:19:58.000Z</time>
      </trkpt>
      <trkpt lat="43.53021" lon="2.85526">
        <ele>223.19999694824</ele>
        <time>2012-05-06T09:19:59.000Z</time>
      </trkpt>
      <trkpt lat="43.53022" lon="2.8553">
        <ele>223.19999694824</ele>
        <time>2012-05-06T09:20:00.000Z</time>
      </trkpt>
      <trkpt lat="43.53024" lon="2.85534">
        <ele>223.19999694824</ele>
        <time>2012-05-06T09:20:01.000Z</time>
      </trkpt>
      <trkpt lat="43.53026" lon="2.85538">
        <ele>223</ele>
        <time>2012-05-06T09:20:02.000Z</time>
      </trkpt>
      <trkpt lat="43.53028" lon="2.85541">
        <ele>223</ele>
        <time>2012-05-06T09:20:03.000Z</time>
      </trkpt>
      <trkpt lat="43.5303" lon="2.85545">
        <ele>222.80000305176</ele>
        <time>2012-05-06T09:20:04.000Z</time>
      </trkpt>
      <trkpt lat="43.53032" lon="2.85549">
        <ele>222.80000305176</ele>
        <time>2012-05-06T09:20:05.000Z</time>
      </trkpt>
      <trkpt lat="43.53034" lon="2.85553">
        <ele>222.60000610352</ele>
        <time>2012-05-06T09:20:06.000Z</time>
      </trkpt>
      <trkpt lat="43.53037" lon="2.85556">
        <ele>222.39999389648</ele>
        <time>2012-05-06T09:20:07.000Z</time>
      </trkpt>
      <trkpt lat="43.53039" lon="2.8556">
        <ele>222.19999694824</ele>
        <time>2012-05-06T09:20:08.000Z</time>
      </trkpt>
      <trkpt lat="43.53041" lon="2.85564">
        <ele>222</ele>
        <time>2012-05-06T09:20:09.000Z</time>
      </trkpt>
      <trkpt lat="43.53044" lon="2.85568">
        <ele>221.60000610352</ele>
        <time>2012-05-06T09:20:10.000Z</time>
      </trkpt>
      <trkpt lat="43.53046" lon="2.85572">
        <ele>221.39999389648</ele>
        <time>2012-05-06T09:20:11.000Z</time>
      </trkpt>
      <trkpt lat="43.53048" lon="2.85577">
        <ele>221.19999694824</ele>
        <time>2012-05-06T09:20:12.000Z</time>
      </trkpt>
      <trkpt lat="43.5305" lon="2.85581">
        <ele>221</ele>
        <time>2012-05-06T09:20:13.000Z</time>
      </trkpt>
      <trkpt lat="43.53051" lon="2.85585">
        <ele>220.80000305176</ele>
        <time>2012-05-06T09:20:14.000Z</time>
      </trkpt>
      <trkpt lat="43.53053" lon="2.85589">
        <ele>220.39999389648</ele>
        <time>2012-05-06T09:20:15.000Z</time>
      </trkpt>
      <trkpt lat="43.53055" lon="2.85593">
        <ele>220.19999694824</ele>
        <time>2012-05-06T09:20:16.000Z</time>
      </trkpt>
      <trkpt lat="43.53056" lon="2.85598">
        <ele>219.80000305176</ele>
        <time>2012-05-06T09:20:17.000Z</time>
      </trkpt>
      <trkpt lat="43.53057" lon="2.85602">
        <ele>219.60000610352</ele>
        <time>2012-05-06T09:20:18.000Z</time>
      </trkpt>
      <trkpt lat="43.53058" lon="2.85606">
        <ele>219.39999389648</ele>
        <time>2012-05-06T09:20:19.000Z</time>
      </trkpt>
      <trkpt lat="43.53058" lon="2.85611">
        <ele>219.19999694824</ele>
        <time>2012-05-06T09:20:20.000Z</time>
      </trkpt>
      <trkpt lat="43.53059" lon="2.85616">
        <ele>219</ele>
        <time>2012-05-06T09:20:21.000Z</time>
      </trkpt>
      <trkpt lat="43.53058" lon="2.8562">
        <ele>218.80000305176</ele>
        <time>2012-05-06T09:20:22.000Z</time>
      </trkpt>
      <trkpt lat="43.53057" lon="2.85625">
        <ele>218.80000305176</ele>
        <time>2012-05-06T09:20:23.000Z</time>
      </trkpt>
      <trkpt lat="43.53056" lon="2.85629">
        <ele>218.80000305176</ele>
        <time>2012-05-06T09:20:24.000Z</time>
      </trkpt>
      <trkpt lat="43.53054" lon="2.85633">
        <ele>218.80000305176</ele>
        <time>2012-05-06T09:20:25.000Z</time>
      </trkpt>
      <trkpt lat="43.53051" lon="2.85636">
        <ele>219</ele>
        <time>2012-05-06T09:20:26.000Z</time>
      </trkpt>
      <trkpt lat="43.53049" lon="2.85638">
        <ele>219.19999694824</ele>
        <time>2012-05-06T09:20:27.000Z</time>
      </trkpt>
      <trkpt lat="43.53046" lon="2.8564">
        <ele>219.19999694824</ele>
        <time>2012-05-06T09:20:28.000Z</time>
      </trkpt>
      <trkpt lat="43.53043" lon="2.85642">
        <ele>219.39999389648</ele>
        <time>2012-05-06T09:20:29.000Z</time>
      </trkpt>
      <trkpt lat="43.5304" lon="2.85643">
        <ele>219.60000610352</ele>
        <time>2012-05-06T09:20:30.000Z</time>
      </trkpt>
      <trkpt lat="43.53037" lon="2.85645">
        <ele>219.80000305176</ele>
        <time>2012-05-06T09:20:31.000Z</time>
      </trkpt>
      <trkpt lat="43.53035" lon="2.85647">
        <ele>219.80000305176</ele>
        <time>2012-05-06T09:20:32.000Z</time>
      </trkpt>
      <trkpt lat="43.53032" lon="2.85648">
        <ele>220</ele>
        <time>2012-05-06T09:20:33.000Z</time>
      </trkpt>
      <trkpt lat="43.53029" lon="2.8565">
        <ele>220.19999694824</ele>
        <time>2012-05-06T09:20:34.000Z</time>
      </trkpt>
      <trkpt lat="43.53026" lon="2.85651">
        <ele>220.19999694824</ele>
        <time>2012-05-06T09:20:35.000Z</time>
      </trkpt>
      <trkpt lat="43.53023" lon="2.85653">
        <ele>220.39999389648</ele>
        <time>2012-05-06T09:20:36.000Z</time>
      </trkpt>
      <trkpt lat="43.53019" lon="2.85654">
        <ele>220.60000610352</ele>
        <time>2012-05-06T09:20:37.000Z</time>
      </trkpt>
      <trkpt lat="43.53016" lon="2.85656">
        <ele>220.60000610352</ele>
        <time>2012-05-06T09:20:38.000Z</time>
      </trkpt>
      <trkpt lat="43.53013" lon="2.85657">
        <ele>220.80000305176</ele>
        <time>2012-05-06T09:20:39.000Z</time>
      </trkpt>
      <trkpt lat="43.5301" lon="2.85659">
        <ele>220.80000305176</ele>
        <time>2012-05-06T09:20:40.000Z</time>
      </trkpt>
      <trkpt lat="43.53008" lon="2.8566">
        <ele>221</ele>
        <time>2012-05-06T09:20:41.000Z</time>
      </trkpt>
      <trkpt lat="43.53005" lon="2.8566">
        <ele>221.19999694824</ele>
        <time>2012-05-06T09:20:42.000Z</time>
      </trkpt>
      <trkpt lat="43.53002" lon="2.85661">
        <ele>221.19999694824</ele>
        <time>2012-05-06T09:20:43.000Z</time>
      </trkpt>
      <trkpt lat="43.53" lon="2.85662">
        <ele>221.39999389648</ele>
        <time>2012-05-06T09:20:44.000Z</time>
      </trkpt>
      <trkpt lat="43.52997" lon="2.85662">
        <ele>221.60000610352</ele>
        <time>2012-05-06T09:20:45.000Z</time>
      </trkpt>
      <trkpt lat="43.52994" lon="2.85664">
        <ele>221.80000305176</ele>
        <time>2012-05-06T09:20:46.000Z</time>
      </trkpt>
      <trkpt lat="43.52991" lon="2.85665">
        <ele>222</ele>
        <time>2012-05-06T09:20:47.000Z</time>
      </trkpt>
      <trkpt lat="43.52988" lon="2.85667">
        <ele>222.19999694824</ele>
        <time>2012-05-06T09:20:48.000Z</time>
      </trkpt>
      <trkpt lat="43.52985" lon="2.85669">
        <ele>222.60000610352</ele>
        <time>2012-05-06T09:20:49.000Z</time>
      </trkpt>
      <trkpt lat="43.52983" lon="2.85671">
        <ele>222.80000305176</ele>
        <time>2012-05-06T09:20:50.000Z</time>
      </trkpt>
      <trkpt lat="43.5298" lon="2.85673">
        <ele>223.19999694824</ele>
        <time>2012-05-06T09:20:51.000Z</time>
      </trkpt>
      <trkpt lat="43.52978" lon="2.85675">
        <ele>223.39999389648</ele>
        <time>2012-05-06T09:20:52.000Z</time>
      </trkpt>
      <trkpt lat="43.52976" lon="2.85677">
        <ele>223.80000305176</ele>
        <time>2012-05-06T09:20:53.000Z</time>
      </trkpt>
      <trkpt lat="43.52974" lon="2.85679">
        <ele>224</ele>
        <time>2012-05-06T09:20:54.000Z</time>
      </trkpt>
      <trkpt lat="43.52972" lon="2.85682">
        <ele>224.39999389648</ele>
        <time>2012-05-06T09:20:55.000Z</time>
      </trkpt>
      <trkpt lat="43.52971" lon="2.85685">
        <ele>224.60000610352</ele>
        <time>2012-05-06T09:20:56.000Z</time>
      </trkpt>
      <trkpt lat="43.52971" lon="2.8569">
        <ele>224.80000305176</ele>
        <time>2012-05-06T09:20:57.000Z</time>
      </trkpt>
      <trkpt lat="43.52971" lon="2.85695">
        <ele>224.80000305176</ele>
        <time>2012-05-06T09:20:58.000Z</time>
      </trkpt>
      <trkpt lat="43.52971" lon="2.85699">
        <ele>225</ele>
        <time>2012-05-06T09:20:59.000Z</time>
      </trkpt>
      <trkpt lat="43.52972" lon="2.85704">
        <ele>225.19999694824</ele>
        <time>2012-05-06T09:21:00.000Z</time>
      </trkpt>
      <trkpt lat="43.52973" lon="2.85708">
        <ele>225.19999694824</ele>
        <time>2012-05-06T09:21:01.000Z</time>
      </trkpt>
      <trkpt lat="43.52974" lon="2.85712">
        <ele>225.39999389648</ele>
        <time>2012-05-06T09:21:02.000Z</time>
      </trkpt>
      <trkpt lat="43.52975" lon="2.85717">
        <ele>225.60000610352</ele>
        <time>2012-05-06T09:21:03.000Z</time>
      </trkpt>
      <trkpt lat="43.52976" lon="2.85721">
        <ele>225.60000610352</ele>
        <time>2012-05-06T09:21:04.000Z</time>
      </trkpt>
      <trkpt lat="43.52977" lon="2.85725">
        <ele>225.80000305176</ele>
        <time>2012-05-06T09:21:05.000Z</time>
      </trkpt>
      <trkpt lat="43.52977" lon="2.85729">
        <ele>225.80000305176</ele>
        <time>2012-05-06T09:21:06.000Z</time>
      </trkpt>
      <trkpt lat="43.52978" lon="2.85733">
        <ele>226</ele>
        <time>2012-05-06T09:21:07.000Z</time>
      </trkpt>
      <trkpt lat="43.52978" lon="2.85738">
        <ele>226.19999694824</ele>
        <time>2012-05-06T09:21:08.000Z</time>
      </trkpt>
      <trkpt lat="43.52976" lon="2.85743">
        <ele>226.60000610352</ele>
        <time>2012-05-06T09:21:09.000Z</time>
      </trkpt>
      <trkpt lat="43.52974" lon="2.85748">
        <ele>226.80000305176</ele>
        <time>2012-05-06T09:21:10.000Z</time>
      </trkpt>
      <trkpt lat="43.52972" lon="2.85752">
        <ele>227.39999389648</ele>
        <time>2012-05-06T09:21:11.000Z</time>
      </trkpt>
      <trkpt lat="43.52971" lon="2.85756">
        <ele>228</ele>
        <time>2012-05-06T09:21:12.000Z</time>
      </trkpt>
      <trkpt lat="43.52969" lon="2.8576">
        <ele>228.60000610352</ele>
        <time>2012-05-06T09:21:13.000Z</time>
      </trkpt>
      <trkpt lat="43.52967" lon="2.85763">
        <ele>229.19999694824</ele>
        <time>2012-05-06T09:21:14.000Z</time>
      </trkpt>
      <trkpt lat="43.52965" lon="2.85766">
        <ele>229.80000305176</ele>
        <time>2012-05-06T09:21:15.000Z</time>
      </trkpt>
      <trkpt lat="43.52963" lon="2.85768">
        <ele>230.19999694824</ele>
        <time>2012-05-06T09:21:16.000Z</time>
      </trkpt>
      <trkpt lat="43.5296" lon="2.8577">
        <ele>230.80000305176</ele>
        <time>2012-05-06T09:21:17.000Z</time>
      </trkpt>
      <trkpt lat="43.52958" lon="2.85772">
        <ele>231.19999694824</ele>
        <time>2012-05-06T09:21:18.000Z</time>
      </trkpt>
      <trkpt lat="43.52955" lon="2.85774">
        <ele>231.60000610352</ele>
        <time>2012-05-06T09:21:19.000Z</time>
      </trkpt>
      <trkpt lat="43.52952" lon="2.85776">
        <ele>232</ele>
        <time>2012-05-06T09:21:20.000Z</time>
      </trkpt>
      <trkpt lat="43.52949" lon="2.85776">
        <ele>232.19999694824</ele>
        <time>2012-05-06T09:21:21.000Z</time>
      </trkpt>
      <trkpt lat="43.52946" lon="2.85777">
        <ele>232.60000610352</ele>
        <time>2012-05-06T09:21:22.000Z</time>
      </trkpt>
      <trkpt lat="43.52942" lon="2.85778">
        <ele>233</ele>
        <time>2012-05-06T09:21:23.000Z</time>
      </trkpt>
      <trkpt lat="43.52939" lon="2.85779">
        <ele>233.39999389648</ele>
        <time>2012-05-06T09:21:24.000Z</time>
      </trkpt>
      <trkpt lat="43.52936" lon="2.8578">
        <ele>233.60000610352</ele>
        <time>2012-05-06T09:21:25.000Z</time>
      </trkpt>
      <trkpt lat="43.52932" lon="2.85779">
        <ele>233.80000305176</ele>
        <time>2012-05-06T09:21:26.000Z</time>
      </trkpt>
      <trkpt lat="43.52929" lon="2.85779">
        <ele>233.80000305176</ele>
        <time>2012-05-06T09:21:27.000Z</time>
      </trkpt>
      <trkpt lat="43.52926" lon="2.85778">
        <ele>234</ele>
        <time>2012-05-06T09:21:28.000Z</time>
      </trkpt>
      <trkpt lat="43.52923" lon="2.85777">
        <ele>234</ele>
        <time>2012-05-06T09:21:29.000Z</time>
      </trkpt>
      <trkpt lat="43.52919" lon="2.85776">
        <ele>233.80000305176</ele>
        <time>2012-05-06T09:21:30.000Z</time>
      </trkpt>
      <trkpt lat="43.52917" lon="2.85775">
        <ele>233.80000305176</ele>
        <time>2012-05-06T09:21:31.000Z</time>
      </trkpt>
      <trkpt lat="43.52914" lon="2.85773">
        <ele>233.80000305176</ele>
        <time>2012-05-06T09:21:32.000Z</time>
      </trkpt>
      <trkpt lat="43.52911" lon="2.85771">
        <ele>233.60000610352</ele>
        <time>2012-05-06T09:21:33.000Z</time>
      </trkpt>
      <trkpt lat="43.52908" lon="2.8577">
        <ele>233.60000610352</ele>
        <time>2012-05-06T09:21:34.000Z</time>
      </trkpt>
      <trkpt lat="43.52905" lon="2.85768">
        <ele>233.80000305176</ele>
        <time>2012-05-06T09:21:35.000Z</time>
      </trkpt>
      <trkpt lat="43.52903" lon="2.85767">
        <ele>233.80000305176</ele>
        <time>2012-05-06T09:21:36.000Z</time>
      </trkpt>
      <trkpt lat="43.529" lon="2.85766">
        <ele>233.80000305176</ele>
        <time>2012-05-06T09:21:37.000Z</time>
      </trkpt>
      <trkpt lat="43.52897" lon="2.85764">
        <ele>233.60000610352</ele>
        <time>2012-05-06T09:21:38.000Z</time>
      </trkpt>
      <trkpt lat="43.52895" lon="2.85761">
        <ele>233.19999694824</ele>
        <time>2012-05-06T09:21:39.000Z</time>
      </trkpt>
      <trkpt lat="43.52894" lon="2.85758">
        <ele>232.80000305176</ele>
        <time>2012-05-06T09:21:40.000Z</time>
      </trkpt>
      <trkpt lat="43.52891" lon="2.85756">
        <ele>232.39999389648</ele>
        <time>2012-05-06T09:21:41.000Z</time>
      </trkpt>
      <trkpt lat="43.52889" lon="2.85754">
        <ele>232.19999694824</ele>
        <time>2012-05-06T09:21:42.000Z</time>
      </trkpt>
      <trkpt lat="43.52886" lon="2.85752">
        <ele>232</ele>
        <time>2012-05-06T09:21:43.000Z</time>
      </trkpt>
      <trkpt lat="43.52883" lon="2.85751">
        <ele>232</ele>
        <time>2012-05-06T09:21:44.000Z</time>
      </trkpt>
      <trkpt lat="43.5288" lon="2.8575">
        <ele>232</ele>
        <time>2012-05-06T09:21:45.000Z</time>
      </trkpt>
      <trkpt lat="43.52877" lon="2.85748">
        <ele>232.19999694824</ele>
        <time>2012-05-06T09:21:46.000Z</time>
      </trkpt>
      <trkpt lat="43.52874" lon="2.85747">
        <ele>232.39999389648</ele>
        <time>2012-05-06T09:21:47.000Z</time>
      </trkpt>
      <trkpt lat="43.52871" lon="2.85746">
        <ele>232.60000610352</ele>
        <time>2012-05-06T09:21:48.000Z</time>
      </trkpt>
      <trkpt lat="43.52868" lon="2.85746">
        <ele>233</ele>
        <time>2012-05-06T09:21:49.000Z</time>
      </trkpt>
      <trkpt lat="43.52865" lon="2.85745">
        <ele>233.19999694824</ele>
        <time>2012-05-06T09:21:50.000Z</time>
      </trkpt>
      <trkpt lat="43.52863" lon="2.85744">
        <ele>233.19999694824</ele>
        <time>2012-05-06T09:21:51.000Z</time>
      </trkpt>
      <trkpt lat="43.5286" lon="2.85744">
        <ele>233.60000610352</ele>
        <time>2012-05-06T09:21:52.000Z</time>
      </trkpt>
      <trkpt lat="43.52857" lon="2.85744">
        <ele>233.80000305176</ele>
        <time>2012-05-06T09:21:53.000Z</time>
      </trkpt>
      <trkpt lat="43.52854" lon="2.85744">
        <ele>234</ele>
        <time>2012-05-06T09:21:54.000Z</time>
      </trkpt>
      <trkpt lat="43.52851" lon="2.85743">
        <ele>234.19999694824</ele>
        <time>2012-05-06T09:21:55.000Z</time>
      </trkpt>
      <trkpt lat="43.52849" lon="2.85743">
        <ele>234.39999389648</ele>
        <time>2012-05-06T09:21:56.000Z</time>
      </trkpt>
      <trkpt lat="43.52846" lon="2.85742">
        <ele>234.60000610352</ele>
        <time>2012-05-06T09:21:57.000Z</time>
      </trkpt>
      <trkpt lat="43.52843" lon="2.85742">
        <ele>234.80000305176</ele>
        <time>2012-05-06T09:21:58.000Z</time>
      </trkpt>
      <trkpt lat="43.5284" lon="2.85742">
        <ele>235</ele>
        <time>2012-05-06T09:21:59.000Z</time>
      </trkpt>
      <trkpt lat="43.52837" lon="2.85742">
        <ele>235.19999694824</ele>
        <time>2012-05-06T09:22:00.000Z</time>
      </trkpt>
      <trkpt lat="43.52834" lon="2.85741">
        <ele>235.39999389648</ele>
        <time>2012-05-06T09:22:01.000Z</time>
      </trkpt>
      <trkpt lat="43.52831" lon="2.85741">
        <ele>235.39999389648</ele>
        <time>2012-05-06T09:22:02.000Z</time>
      </trkpt>
      <trkpt lat="43.52829" lon="2.85741">
        <ele>235.39999389648</ele>
        <time>2012-05-06T09:22:03.000Z</time>
      </trkpt>
      <trkpt lat="43.52825" lon="2.85741">
        <ele>235.39999389648</ele>
        <time>2012-05-06T09:22:04.000Z</time>
      </trkpt>
      <trkpt lat="43.52822" lon="2.85742">
        <ele>235.39999389648</ele>
        <time>2012-05-06T09:22:05.000Z</time>
      </trkpt>
      <trkpt lat="43.52819" lon="2.85742">
        <ele>235.39999389648</ele>
        <time>2012-05-06T09:22:06.000Z</time>
      </trkpt>
      <trkpt lat="43.52817" lon="2.85742">
        <ele>235.39999389648</ele>
        <time>2012-05-06T09:22:07.000Z</time>
      </trkpt>
      <trkpt lat="43.52814" lon="2.85742">
        <ele>235.39999389648</ele>
        <time>2012-05-06T09:22:08.000Z</time>
      </trkpt>
      <trkpt lat="43.52811" lon="2.85742">
        <ele>235.39999389648</ele>
        <time>2012-05-06T09:22:09.000Z</time>
      </trkpt>
      <trkpt lat="43.52808" lon="2.85743">
        <ele>235.19999694824</ele>
        <time>2012-05-06T09:22:10.000Z</time>
      </trkpt>
      <trkpt lat="43.52806" lon="2.85743">
        <ele>235.19999694824</ele>
        <time>2012-05-06T09:22:11.000Z</time>
      </trkpt>
      <trkpt lat="43.52802" lon="2.85743">
        <ele>235.19999694824</ele>
        <time>2012-05-06T09:22:12.000Z</time>
      </trkpt>
      <trkpt lat="43.528" lon="2.85744">
        <ele>235.19999694824</ele>
        <time>2012-05-06T09:22:13.000Z</time>
      </trkpt>
      <trkpt lat="43.52797" lon="2.85745">
        <ele>235.19999694824</ele>
        <time>2012-05-06T09:22:14.000Z</time>
      </trkpt>
      <trkpt lat="43.52794" lon="2.85746">
        <ele>235</ele>
        <time>2012-05-06T09:22:15.000Z</time>
      </trkpt>
      <trkpt lat="43.52791" lon="2.85747">
        <ele>235</ele>
        <time>2012-05-06T09:22:16.000Z</time>
      </trkpt>
      <trkpt lat="43.52788" lon="2.85747">
        <ele>235</ele>
        <time>2012-05-06T09:22:17.000Z</time>
      </trkpt>
      <trkpt lat="43.52785" lon="2.85747">
        <ele>235</ele>
        <time>2012-05-06T09:22:18.000Z</time>
      </trkpt>
      <trkpt lat="43.52783" lon="2.85748">
        <ele>234.80000305176</ele>
        <time>2012-05-06T09:22:19.000Z</time>
      </trkpt>
      <trkpt lat="43.5278" lon="2.85749">
        <ele>234.80000305176</ele>
        <time>2012-05-06T09:22:20.000Z</time>
      </trkpt>
      <trkpt lat="43.52777" lon="2.85751">
        <ele>234.80000305176</ele>
        <time>2012-05-06T09:22:21.000Z</time>
      </trkpt>
      <trkpt lat="43.52774" lon="2.85752">
        <ele>235</ele>
        <time>2012-05-06T09:22:22.000Z</time>
      </trkpt>
      <trkpt lat="43.52772" lon="2.85753">
        <ele>235.39999389648</ele>
        <time>2012-05-06T09:22:23.000Z</time>
      </trkpt>
      <trkpt lat="43.52769" lon="2.85754">
        <ele>235.80000305176</ele>
        <time>2012-05-06T09:22:24.000Z</time>
      </trkpt>
      <trkpt lat="43.52766" lon="2.85756">
        <ele>236.19999694824</ele>
        <time>2012-05-06T09:22:25.000Z</time>
      </trkpt>
      <trkpt lat="43.52764" lon="2.85758">
        <ele>236.80000305176</ele>
        <time>2012-05-06T09:22:26.000Z</time>
      </trkpt>
      <trkpt lat="43.52761" lon="2.8576">
        <ele>237.19999694824</ele>
        <time>2012-05-06T09:22:27.000Z</time>
      </trkpt>
      <trkpt lat="43.52759" lon="2.85762">
        <ele>237.80000305176</ele>
        <time>2012-05-06T09:22:28.000Z</time>
      </trkpt>
      <trkpt lat="43.52756" lon="2.85764">
        <ele>238.19999694824</ele>
        <time>2012-05-06T09:22:29.000Z</time>
      </trkpt>
      <trkpt lat="43.52754" lon="2.85766">
        <ele>238.80000305176</ele>
        <time>2012-05-06T09:22:30.000Z</time>
      </trkpt>
      <trkpt lat="43.52751" lon="2.85768">
        <ele>239.39999389648</ele>
        <time>2012-05-06T09:22:31.000Z</time>
      </trkpt>
      <trkpt lat="43.52749" lon="2.8577">
        <ele>239.80000305176</ele>
        <time>2012-05-06T09:22:32.000Z</time>
      </trkpt>
      <trkpt lat="43.52746" lon="2.85772">
        <ele>240.39999389648</ele>
        <time>2012-05-06T09:22:33.000Z</time>
      </trkpt>
      <trkpt lat="43.52744" lon="2.85774">
        <ele>240.80000305176</ele>
        <time>2012-05-06T09:22:34.000Z</time>
      </trkpt>
      <trkpt lat="43.52741" lon="2.85776">
        <ele>241.19999694824</ele>
        <time>2012-05-06T09:22:35.000Z</time>
      </trkpt>
      <trkpt lat="43.52739" lon="2.85778">
        <ele>241.80000305176</ele>
        <time>2012-05-06T09:22:36.000Z</time>
      </trkpt>
      <trkpt lat="43.52736" lon="2.8578">
        <ele>242.39999389648</ele>
        <time>2012-05-06T09:22:37.000Z</time>
      </trkpt>
      <trkpt lat="43.52734" lon="2.85782">
        <ele>242.80000305176</ele>
        <time>2012-05-06T09:22:38.000Z</time>
      </trkpt>
      <trkpt lat="43.52732" lon="2.85784">
        <ele>243.19999694824</ele>
        <time>2012-05-06T09:22:39.000Z</time>
      </trkpt>
      <trkpt lat="43.5273" lon="2.85786">
        <ele>243.39999389648</ele>
        <time>2012-05-06T09:22:40.000Z</time>
      </trkpt>
      <trkpt lat="43.52726" lon="2.85788">
        <ele>243.80000305176</ele>
        <time>2012-05-06T09:22:41.000Z</time>
      </trkpt>
      <trkpt lat="43.52723" lon="2.85791">
        <ele>244.19999694824</ele>
        <time>2012-05-06T09:22:42.000Z</time>
      </trkpt>
      <trkpt lat="43.52721" lon="2.85793">
        <ele>244.60000610352</ele>
        <time>2012-05-06T09:22:43.000Z</time>
      </trkpt>
      <trkpt lat="43.52719" lon="2.85796">
        <ele>245</ele>
        <time>2012-05-06T09:22:44.000Z</time>
      </trkpt>
      <trkpt lat="43.52717" lon="2.85798">
        <ele>245.19999694824</ele>
        <time>2012-05-06T09:22:45.000Z</time>
      </trkpt>
      <trkpt lat="43.52715" lon="2.85801">
        <ele>245.60000610352</ele>
        <time>2012-05-06T09:22:46.000Z</time>
      </trkpt>
      <trkpt lat="43.52712" lon="2.85803">
        <ele>245.80000305176</ele>
        <time>2012-05-06T09:22:47.000Z</time>
      </trkpt>
      <trkpt lat="43.5271" lon="2.85806">
        <ele>246</ele>
        <time>2012-05-06T09:22:48.000Z</time>
      </trkpt>
      <trkpt lat="43.52708" lon="2.85809">
        <ele>246.19999694824</ele>
        <time>2012-05-06T09:22:49.000Z</time>
      </trkpt>
      <trkpt lat="43.52706" lon="2.85811">
        <ele>246.19999694824</ele>
        <time>2012-05-06T09:22:50.000Z</time>
      </trkpt>
      <trkpt lat="43.52704" lon="2.85814">
        <ele>246.39999389648</ele>
        <time>2012-05-06T09:22:51.000Z</time>
      </trkpt>
      <trkpt lat="43.52702" lon="2.85817">
        <ele>246.39999389648</ele>
        <time>2012-05-06T09:22:52.000Z</time>
      </trkpt>
      <trkpt lat="43.52699" lon="2.85819">
        <ele>246.39999389648</ele>
        <time>2012-05-06T09:22:53.000Z</time>
      </trkpt>
      <trkpt lat="43.52697" lon="2.85822">
        <ele>246.60000610352</ele>
        <time>2012-05-06T09:22:54.000Z</time>
      </trkpt>
      <trkpt lat="43.52695" lon="2.85824">
        <ele>246.39999389648</ele>
        <time>2012-05-06T09:22:55.000Z</time>
      </trkpt>
      <trkpt lat="43.52693" lon="2.85827">
        <ele>246.39999389648</ele>
        <time>2012-05-06T09:22:56.000Z</time>
      </trkpt>
      <trkpt lat="43.52691" lon="2.8583">
        <ele>246.39999389648</ele>
        <time>2012-05-06T09:22:57.000Z</time>
      </trkpt>
      <trkpt lat="43.52689" lon="2.85832">
        <ele>246.19999694824</ele>
        <time>2012-05-06T09:22:58.000Z</time>
      </trkpt>
      <trkpt lat="43.52687" lon="2.85834">
        <ele>246.19999694824</ele>
        <time>2012-05-06T09:22:59.000Z</time>
      </trkpt>
      <trkpt lat="43.52685" lon="2.85837">
        <ele>246.60000610352</ele>
        <time>2012-05-06T09:23:00.000Z</time>
      </trkpt>
      <trkpt lat="43.52683" lon="2.8584">
        <ele>246.80000305176</ele>
        <time>2012-05-06T09:23:01.000Z</time>
      </trkpt>
      <trkpt lat="43.52681" lon="2.85842">
        <ele>247</ele>
        <time>2012-05-06T09:23:02.000Z</time>
      </trkpt>
      <trkpt lat="43.52679" lon="2.85844">
        <ele>247.39999389648</ele>
        <time>2012-05-06T09:23:03.000Z</time>
      </trkpt>
      <trkpt lat="43.52677" lon="2.85847">
        <ele>247.60000610352</ele>
        <time>2012-05-06T09:23:04.000Z</time>
      </trkpt>
      <trkpt lat="43.52675" lon="2.85849">
        <ele>247.80000305176</ele>
        <time>2012-05-06T09:23:05.000Z</time>
      </trkpt>
      <trkpt lat="43.52673" lon="2.85852">
        <ele>248.19999694824</ele>
        <time>2012-05-06T09:23:06.000Z</time>
      </trkpt>
      <trkpt lat="43.52671" lon="2.85855">
        <ele>248.60000610352</ele>
        <time>2012-05-06T09:23:07.000Z</time>
      </trkpt>
      <trkpt lat="43.52669" lon="2.85858">
        <ele>248.80000305176</ele>
        <time>2012-05-06T09:23:08.000Z</time>
      </trkpt>
      <trkpt lat="43.52667" lon="2.8586">
        <ele>249</ele>
        <time>2012-05-06T09:23:09.000Z</time>
      </trkpt>
      <trkpt lat="43.52666" lon="2.85863">
        <ele>249.39999389648</ele>
        <time>2012-05-06T09:23:10.000Z</time>
      </trkpt>
      <trkpt lat="43.52665" lon="2.85865">
        <ele>249.60000610352</ele>
        <time>2012-05-06T09:23:11.000Z</time>
      </trkpt>
      <trkpt lat="43.52663" lon="2.85867">
        <ele>250</ele>
        <time>2012-05-06T09:23:12.000Z</time>
      </trkpt>
      <trkpt lat="43.52662" lon="2.8587">
        <ele>250.39999389648</ele>
        <time>2012-05-06T09:23:13.000Z</time>
      </trkpt>
      <trkpt lat="43.52659" lon="2.85872">
        <ele>250.80000305176</ele>
        <time>2012-05-06T09:23:14.000Z</time>
      </trkpt>
      <trkpt lat="43.52657" lon="2.85875">
        <ele>251</ele>
        <time>2012-05-06T09:23:15.000Z</time>
      </trkpt>
      <trkpt lat="43.52655" lon="2.85878">
        <ele>251.19999694824</ele>
        <time>2012-05-06T09:23:16.000Z</time>
      </trkpt>
      <trkpt lat="43.52653" lon="2.85881">
        <ele>251.60000610352</ele>
        <time>2012-05-06T09:23:17.000Z</time>
      </trkpt>
      <trkpt lat="43.52651" lon="2.85883">
        <ele>251.80000305176</ele>
        <time>2012-05-06T09:23:18.000Z</time>
      </trkpt>
      <trkpt lat="43.52648" lon="2.85886">
        <ele>251.80000305176</ele>
        <time>2012-05-06T09:23:19.000Z</time>
      </trkpt>
      <trkpt lat="43.52646" lon="2.85888">
        <ele>252</ele>
        <time>2012-05-06T09:23:20.000Z</time>
      </trkpt>
      <trkpt lat="43.52644" lon="2.85891">
        <ele>252</ele>
        <time>2012-05-06T09:23:21.000Z</time>
      </trkpt>
      <trkpt lat="43.52642" lon="2.85894">
        <ele>252.19999694824</ele>
        <time>2012-05-06T09:23:22.000Z</time>
      </trkpt>
      <trkpt lat="43.5264" lon="2.85896">
        <ele>252.19999694824</ele>
        <time>2012-05-06T09:23:23.000Z</time>
      </trkpt>
      <trkpt lat="43.52638" lon="2.85899">
        <ele>252.19999694824</ele>
        <time>2012-05-06T09:23:24.000Z</time>
      </trkpt>
      <trkpt lat="43.52636" lon="2.85901">
        <ele>252.19999694824</ele>
        <time>2012-05-06T09:23:25.000Z</time>
      </trkpt>
      <trkpt lat="43.52634" lon="2.85904">
        <ele>252.19999694824</ele>
        <time>2012-05-06T09:23:26.000Z</time>
      </trkpt>
      <trkpt lat="43.52632" lon="2.85907">
        <ele>252.19999694824</ele>
        <time>2012-05-06T09:23:27.000Z</time>
      </trkpt>
      <trkpt lat="43.5263" lon="2.85909">
        <ele>252.19999694824</ele>
        <time>2012-05-06T09:23:28.000Z</time>
      </trkpt>
      <trkpt lat="43.52628" lon="2.85912">
        <ele>252</ele>
        <time>2012-05-06T09:23:29.000Z</time>
      </trkpt>
      <trkpt lat="43.52625" lon="2.85915">
        <ele>251.80000305176</ele>
        <time>2012-05-06T09:23:30.000Z</time>
      </trkpt>
      <trkpt lat="43.52623" lon="2.85918">
        <ele>251.80000305176</ele>
        <time>2012-05-06T09:23:31.000Z</time>
      </trkpt>
      <trkpt lat="43.52621" lon="2.8592">
        <ele>252</ele>
        <time>2012-05-06T09:23:32.000Z</time>
      </trkpt>
      <trkpt lat="43.52618" lon="2.85922">
        <ele>252</ele>
        <time>2012-05-06T09:23:33.000Z</time>
      </trkpt>
      <trkpt lat="43.52616" lon="2.85924">
        <ele>252</ele>
        <time>2012-05-06T09:23:34.000Z</time>
      </trkpt>
      <trkpt lat="43.52613" lon="2.85926">
        <ele>251.80000305176</ele>
        <time>2012-05-06T09:23:35.000Z</time>
      </trkpt>
      <trkpt lat="43.52611" lon="2.85928">
        <ele>251.80000305176</ele>
        <time>2012-05-06T09:23:36.000Z</time>
      </trkpt>
      <trkpt lat="43.52608" lon="2.85929">
        <ele>251.60000610352</ele>
        <time>2012-05-06T09:23:37.000Z</time>
      </trkpt>
      <trkpt lat="43.52605" lon="2.85931">
        <ele>251.19999694824</ele>
        <time>2012-05-06T09:23:38.000Z</time>
      </trkpt>
      <trkpt lat="43.52603" lon="2.85932">
        <ele>251</ele>
        <time>2012-05-06T09:23:39.000Z</time>
      </trkpt>
      <trkpt lat="43.526" lon="2.85934">
        <ele>250.80000305176</ele>
        <time>2012-05-06T09:23:40.000Z</time>
      </trkpt>
      <trkpt lat="43.52597" lon="2.85936">
        <ele>250.80000305176</ele>
        <time>2012-05-06T09:23:41.000Z</time>
      </trkpt>
      <trkpt lat="43.52595" lon="2.85938">
        <ele>250.60000610352</ele>
        <time>2012-05-06T09:23:42.000Z</time>
      </trkpt>
      <trkpt lat="43.52592" lon="2.85939">
        <ele>250.39999389648</ele>
        <time>2012-05-06T09:23:43.000Z</time>
      </trkpt>
      <trkpt lat="43.52589" lon="2.85941">
        <ele>250.19999694824</ele>
        <time>2012-05-06T09:23:44.000Z</time>
      </trkpt>
      <trkpt lat="43.52586" lon="2.85944">
        <ele>250.19999694824</ele>
        <time>2012-05-06T09:23:45.000Z</time>
      </trkpt>
      <trkpt lat="43.52583" lon="2.85946">
        <ele>250.19999694824</ele>
        <time>2012-05-06T09:23:46.000Z</time>
      </trkpt>
      <trkpt lat="43.52581" lon="2.85948">
        <ele>250.39999389648</ele>
        <time>2012-05-06T09:23:47.000Z</time>
      </trkpt>
      <trkpt lat="43.52578" lon="2.8595">
        <ele>250.60000610352</ele>
        <time>2012-05-06T09:23:48.000Z</time>
      </trkpt>
      <trkpt lat="43.52576" lon="2.85952">
        <ele>250.80000305176</ele>
        <time>2012-05-06T09:23:49.000Z</time>
      </trkpt>
      <trkpt lat="43.52573" lon="2.85954">
        <ele>251</ele>
        <time>2012-05-06T09:23:50.000Z</time>
      </trkpt>
      <trkpt lat="43.5257" lon="2.85956">
        <ele>251.19999694824</ele>
        <time>2012-05-06T09:23:51.000Z</time>
      </trkpt>
      <trkpt lat="43.52567" lon="2.85958">
        <ele>251.39999389648</ele>
        <time>2012-05-06T09:23:52.000Z</time>
      </trkpt>
      <trkpt lat="43.52565" lon="2.8596">
        <ele>251.80000305176</ele>
        <time>2012-05-06T09:23:53.000Z</time>
      </trkpt>
      <trkpt lat="43.52563" lon="2.85963">
        <ele>252</ele>
        <time>2012-05-06T09:23:54.000Z</time>
      </trkpt>
      <trkpt lat="43.52561" lon="2.85965">
        <ele>252.19999694824</ele>
        <time>2012-05-06T09:23:55.000Z</time>
      </trkpt>
      <trkpt lat="43.52558" lon="2.85967">
        <ele>252.39999389648</ele>
        <time>2012-05-06T09:23:56.000Z</time>
      </trkpt>
      <trkpt lat="43.52556" lon="2.85969">
        <ele>252.60000610352</ele>
        <time>2012-05-06T09:23:57.000Z</time>
      </trkpt>
      <trkpt lat="43.52554" lon="2.85972">
        <ele>252.80000305176</ele>
        <time>2012-05-06T09:23:58.000Z</time>
      </trkpt>
      <trkpt lat="43.52553" lon="2.85974">
        <ele>253.39999389648</ele>
        <time>2012-05-06T09:23:59.000Z</time>
      </trkpt>
      <trkpt lat="43.52553" lon="2.85977">
        <ele>253.80000305176</ele>
        <time>2012-05-06T09:24:00.000Z</time>
      </trkpt>
      <trkpt lat="43.52553" lon="2.85978">
        <ele>254.19999694824</ele>
        <time>2012-05-06T09:24:01.000Z</time>
      </trkpt>
      <trkpt lat="43.52555" lon="2.85977">
        <ele>254.39999389648</ele>
        <time>2012-05-06T09:24:02.000Z</time>
      </trkpt>
      <trkpt lat="43.52557" lon="2.85975">
        <ele>254.39999389648</ele>
        <time>2012-05-06T09:24:03.000Z</time>
      </trkpt>
      <trkpt lat="43.52559" lon="2.85973">
        <ele>254.19999694824</ele>
        <time>2012-05-06T09:24:04.000Z</time>
      </trkpt>
      <trkpt lat="43.52562" lon="2.85971">
        <ele>254</ele>
        <time>2012-05-06T09:24:05.000Z</time>
      </trkpt>
      <trkpt lat="43.52564" lon="2.85969">
        <ele>253.80000305176</ele>
        <time>2012-05-06T09:24:06.000Z</time>
      </trkpt>
      <trkpt lat="43.52566" lon="2.85966">
        <ele>253.39999389648</ele>
        <time>2012-05-06T09:24:07.000Z</time>
      </trkpt>
      <trkpt lat="43.52569" lon="2.85964">
        <ele>253.39999389648</ele>
        <time>2012-05-06T09:24:08.000Z</time>
      </trkpt>
      <trkpt lat="43.52571" lon="2.85962">
        <ele>253</ele>
        <time>2012-05-06T09:24:09.000Z</time>
      </trkpt>
      <trkpt lat="43.52573" lon="2.85959">
        <ele>252.80000305176</ele>
        <time>2012-05-06T09:24:10.000Z</time>
      </trkpt>
      <trkpt lat="43.52576" lon="2.85957">
        <ele>252.39999389648</ele>
        <time>2012-05-06T09:24:11.000Z</time>
      </trkpt>
      <trkpt lat="43.52578" lon="2.85955">
        <ele>252.39999389648</ele>
        <time>2012-05-06T09:24:12.000Z</time>
      </trkpt>
      <trkpt lat="43.52581" lon="2.85954">
        <ele>252.39999389648</ele>
        <time>2012-05-06T09:24:13.000Z</time>
      </trkpt>
      <trkpt lat="43.52583" lon="2.85953">
        <ele>252.19999694824</ele>
        <time>2012-05-06T09:24:14.000Z</time>
      </trkpt>
      <trkpt lat="43.52585" lon="2.85951">
        <ele>252.39999389648</ele>
        <time>2012-05-06T09:24:15.000Z</time>
      </trkpt>
      <trkpt lat="43.52588" lon="2.85951">
        <ele>252.80000305176</ele>
        <time>2012-05-06T09:24:16.000Z</time>
      </trkpt>
      <trkpt lat="43.5259" lon="2.8595">
        <ele>253.19999694824</ele>
        <time>2012-05-06T09:24:17.000Z</time>
      </trkpt>
      <trkpt lat="43.52593" lon="2.85949">
        <ele>253.39999389648</ele>
        <time>2012-05-06T09:24:18.000Z</time>
      </trkpt>
      <trkpt lat="43.52595" lon="2.85947">
        <ele>253.60000610352</ele>
        <time>2012-05-06T09:24:19.000Z</time>
      </trkpt>
      <trkpt lat="43.52597" lon="2.85946">
        <ele>253.80000305176</ele>
        <time>2012-05-06T09:24:20.000Z</time>
      </trkpt>
      <trkpt lat="43.526" lon="2.85945">
        <ele>254.19999694824</ele>
        <time>2012-05-06T09:24:21.000Z</time>
      </trkpt>
      <trkpt lat="43.52602" lon="2.85944">
        <ele>254.60000610352</ele>
        <time>2012-05-06T09:24:22.000Z</time>
      </trkpt>
      <trkpt lat="43.52605" lon="2.85943">
        <ele>254.80000305176</ele>
        <time>2012-05-06T09:24:23.000Z</time>
      </trkpt>
      <trkpt lat="43.52607" lon="2.85942">
        <ele>255.39999389648</ele>
        <time>2012-05-06T09:24:24.000Z</time>
      </trkpt>
      <trkpt lat="43.5261" lon="2.85941">
        <ele>255.80000305176</ele>
        <time>2012-05-06T09:24:25.000Z</time>
      </trkpt>
      <trkpt lat="43.52612" lon="2.8594">
        <ele>256.20001220703</ele>
        <time>2012-05-06T09:24:26.000Z</time>
      </trkpt>
      <trkpt lat="43.52615" lon="2.85939">
        <ele>256.60000610352</ele>
        <time>2012-05-06T09:24:27.000Z</time>
      </trkpt>
      <trkpt lat="43.52617" lon="2.85938">
        <ele>257</ele>
        <time>2012-05-06T09:24:28.000Z</time>
      </trkpt>
      <trkpt lat="43.5262" lon="2.85937">
        <ele>257.20001220703</ele>
        <time>2012-05-06T09:24:29.000Z</time>
      </trkpt>
      <trkpt lat="43.52622" lon="2.85936">
        <ele>257.39999389648</ele>
        <time>2012-05-06T09:24:30.000Z</time>
      </trkpt>
      <trkpt lat="43.52625" lon="2.85935">
        <ele>258</ele>
        <time>2012-05-06T09:24:31.000Z</time>
      </trkpt>
      <trkpt lat="43.52627" lon="2.85935">
        <ele>258.60000610352</ele>
        <time>2012-05-06T09:24:32.000Z</time>
      </trkpt>
      <trkpt lat="43.5263" lon="2.85934">
        <ele>258.79998779297</ele>
        <time>2012-05-06T09:24:33.000Z</time>
      </trkpt>
      <trkpt lat="43.52632" lon="2.85932">
        <ele>258.79998779297</ele>
        <time>2012-05-06T09:24:34.000Z</time>
      </trkpt>
      <trkpt lat="43.52635" lon="2.85931">
        <ele>259</ele>
        <time>2012-05-06T09:24:35.000Z</time>
      </trkpt>
      <trkpt lat="43.52637" lon="2.85928">
        <ele>258.79998779297</ele>
        <time>2012-05-06T09:24:36.000Z</time>
      </trkpt>
      <trkpt lat="43.52639" lon="2.85926">
        <ele>258.79998779297</ele>
        <time>2012-05-06T09:24:37.000Z</time>
      </trkpt>
      <trkpt lat="43.52642" lon="2.85925">
        <ele>259</ele>
        <time>2012-05-06T09:24:38.000Z</time>
      </trkpt>
      <trkpt lat="43.52644" lon="2.85924">
        <ele>259.20001220703</ele>
        <time>2012-05-06T09:24:39.000Z</time>
      </trkpt>
      <trkpt lat="43.52646" lon="2.85922">
        <ele>259.39999389648</ele>
        <time>2012-05-06T09:24:40.000Z</time>
      </trkpt>
      <trkpt lat="43.52649" lon="2.85921">
        <ele>259.60000610352</ele>
        <time>2012-05-06T09:24:41.000Z</time>
      </trkpt>
      <trkpt lat="43.52651" lon="2.8592">
        <ele>260.20001220703</ele>
        <time>2012-05-06T09:24:42.000Z</time>
      </trkpt>
      <trkpt lat="43.52653" lon="2.85919">
        <ele>260.39999389648</ele>
        <time>2012-05-06T09:24:43.000Z</time>
      </trkpt>
      <trkpt lat="43.52655" lon="2.85917">
        <ele>260.20001220703</ele>
        <time>2012-05-06T09:24:44.000Z</time>
      </trkpt>
      <trkpt lat="43.52657" lon="2.85915">
        <ele>260.20001220703</ele>
        <time>2012-05-06T09:24:45.000Z</time>
      </trkpt>
      <trkpt lat="43.52659" lon="2.85913">
        <ele>260.20001220703</ele>
        <time>2012-05-06T09:24:46.000Z</time>
      </trkpt>
      <trkpt lat="43.52662" lon="2.85911">
        <ele>260.20001220703</ele>
        <time>2012-05-06T09:24:47.000Z</time>
      </trkpt>
      <trkpt lat="43.52664" lon="2.85909">
        <ele>260.39999389648</ele>
        <time>2012-05-06T09:24:48.000Z</time>
      </trkpt>
      <trkpt lat="43.52666" lon="2.85908">
        <ele>260.79998779297</ele>
        <time>2012-05-06T09:24:49.000Z</time>
      </trkpt>
      <trkpt lat="43.52669" lon="2.85907">
        <ele>261.20001220703</ele>
        <time>2012-05-06T09:24:50.000Z</time>
      </trkpt>
      <trkpt lat="43.52671" lon="2.85906">
        <ele>261.60000610352</ele>
        <time>2012-05-06T09:24:51.000Z</time>
      </trkpt>
      <trkpt lat="43.52673" lon="2.85905">
        <ele>261.79998779297</ele>
        <time>2012-05-06T09:24:52.000Z</time>
      </trkpt>
      <trkpt lat="43.52675" lon="2.85903">
        <ele>261.79998779297</ele>
        <time>2012-05-06T09:24:53.000Z</time>
      </trkpt>
      <trkpt lat="43.52677" lon="2.859">
        <ele>261.39999389648</ele>
        <time>2012-05-06T09:24:54.000Z</time>
      </trkpt>
      <trkpt lat="43.52679" lon="2.85898">
        <ele>261.39999389648</ele>
        <time>2012-05-06T09:24:55.000Z</time>
      </trkpt>
      <trkpt lat="43.52681" lon="2.85896">
        <ele>261.39999389648</ele>
        <time>2012-05-06T09:24:56.000Z</time>
      </trkpt>
      <trkpt lat="43.52683" lon="2.85893">
        <ele>261.20001220703</ele>
        <time>2012-05-06T09:24:57.000Z</time>
      </trkpt>
      <trkpt lat="43.52685" lon="2.85891">
        <ele>261.39999389648</ele>
        <time>2012-05-06T09:24:58.000Z</time>
      </trkpt>
      <trkpt lat="43.52688" lon="2.8589">
        <ele>261.39999389648</ele>
        <time>2012-05-06T09:24:59.000Z</time>
      </trkpt>
      <trkpt lat="43.5269" lon="2.85888">
        <ele>261.60000610352</ele>
        <time>2012-05-06T09:25:00.000Z</time>
      </trkpt>
      <trkpt lat="43.52692" lon="2.85887">
        <ele>261.79998779297</ele>
        <time>2012-05-06T09:25:01.000Z</time>
      </trkpt>
      <trkpt lat="43.52695" lon="2.85885">
        <ele>261.79998779297</ele>
        <time>2012-05-06T09:25:02.000Z</time>
      </trkpt>
      <trkpt lat="43.52697" lon="2.85883">
        <ele>261.79998779297</ele>
        <time>2012-05-06T09:25:03.000Z</time>
      </trkpt>
      <trkpt lat="43.52699" lon="2.8588">
        <ele>261.60000610352</ele>
        <time>2012-05-06T09:25:04.000Z</time>
      </trkpt>
      <trkpt lat="43.52701" lon="2.85878">
        <ele>261.39999389648</ele>
        <time>2012-05-06T09:25:05.000Z</time>
      </trkpt>
      <trkpt lat="43.52703" lon="2.85876">
        <ele>261.39999389648</ele>
        <time>2012-05-06T09:25:06.000Z</time>
      </trkpt>
      <trkpt lat="43.52705" lon="2.85875">
        <ele>261.39999389648</ele>
        <time>2012-05-06T09:25:07.000Z</time>
      </trkpt>
      <trkpt lat="43.52708" lon="2.85873">
        <ele>261.60000610352</ele>
        <time>2012-05-06T09:25:08.000Z</time>
      </trkpt>
      <trkpt lat="43.5271" lon="2.85872">
        <ele>261.60000610352</ele>
        <time>2012-05-06T09:25:09.000Z</time>
      </trkpt>
      <trkpt lat="43.52712" lon="2.8587">
        <ele>261.60000610352</ele>
        <time>2012-05-06T09:25:10.000Z</time>
      </trkpt>
      <trkpt lat="43.52714" lon="2.85869">
        <ele>261.79998779297</ele>
        <time>2012-05-06T09:25:11.000Z</time>
      </trkpt>
      <trkpt lat="43.52717" lon="2.85869">
        <ele>262.39999389648</ele>
        <time>2012-05-06T09:25:12.000Z</time>
      </trkpt>
      <trkpt lat="43.5272" lon="2.85868">
        <ele>262.79998779297</ele>
        <time>2012-05-06T09:25:13.000Z</time>
      </trkpt>
      <trkpt lat="43.52722" lon="2.85867">
        <ele>263.20001220703</ele>
        <time>2012-05-06T09:25:14.000Z</time>
      </trkpt>
      <trkpt lat="43.52725" lon="2.85866">
        <ele>263.39999389648</ele>
        <time>2012-05-06T09:25:15.000Z</time>
      </trkpt>
      <trkpt lat="43.52728" lon="2.85865">
        <ele>263.79998779297</ele>
        <time>2012-05-06T09:25:16.000Z</time>
      </trkpt>
      <trkpt lat="43.5273" lon="2.85865">
        <ele>264.20001220703</ele>
        <time>2012-05-06T09:25:17.000Z</time>
      </trkpt>
      <trkpt lat="43.52733" lon="2.85864">
        <ele>264.60000610352</ele>
        <time>2012-05-06T09:25:18.000Z</time>
      </trkpt>
      <trkpt lat="43.52735" lon="2.85863">
        <ele>264.79998779297</ele>
        <time>2012-05-06T09:25:19.000Z</time>
      </trkpt>
      <trkpt lat="43.52738" lon="2.85863">
        <ele>265.20001220703</ele>
        <time>2012-05-06T09:25:20.000Z</time>
      </trkpt>
      <trkpt lat="43.5274" lon="2.85862">
        <ele>265.39999389648</ele>
        <time>2012-05-06T09:25:21.000Z</time>
      </trkpt>
      <trkpt lat="43.52742" lon="2.85861">
        <ele>265.60000610352</ele>
        <time>2012-05-06T09:25:22.000Z</time>
      </trkpt>
      <trkpt lat="43.52745" lon="2.8586">
        <ele>266</ele>
        <time>2012-05-06T09:25:23.000Z</time>
      </trkpt>
      <trkpt lat="43.52747" lon="2.85859">
        <ele>266.20001220703</ele>
        <time>2012-05-06T09:25:24.000Z</time>
      </trkpt>
      <trkpt lat="43.5275" lon="2.85858">
        <ele>266.39999389648</ele>
        <time>2012-05-06T09:25:25.000Z</time>
      </trkpt>
      <trkpt lat="43.52753" lon="2.85857">
        <ele>266.20001220703</ele>
        <time>2012-05-06T09:25:26.000Z</time>
      </trkpt>
      <trkpt lat="43.52755" lon="2.85857">
        <ele>265.79998779297</ele>
        <time>2012-05-06T09:25:27.000Z</time>
      </trkpt>
      <trkpt lat="43.52758" lon="2.85856">
        <ele>265.60000610352</ele>
        <time>2012-05-06T09:25:28.000Z</time>
      </trkpt>
      <trkpt lat="43.52761" lon="2.85856">
        <ele>265.60000610352</ele>
        <time>2012-05-06T09:25:29.000Z</time>
      </trkpt>
      <trkpt lat="43.52764" lon="2.85855">
        <ele>265.39999389648</ele>
        <time>2012-05-06T09:25:30.000Z</time>
      </trkpt>
      <trkpt lat="43.52766" lon="2.85854">
        <ele>265.20001220703</ele>
        <time>2012-05-06T09:25:31.000Z</time>
      </trkpt>
      <trkpt lat="43.52769" lon="2.85854">
        <ele>265</ele>
        <time>2012-05-06T09:25:32.000Z</time>
      </trkpt>
      <trkpt lat="43.52772" lon="2.85854">
        <ele>265</ele>
        <time>2012-05-06T09:25:33.000Z</time>
      </trkpt>
      <trkpt lat="43.52775" lon="2.85854">
        <ele>265.20001220703</ele>
        <time>2012-05-06T09:25:34.000Z</time>
      </trkpt>
      <trkpt lat="43.52778" lon="2.85854">
        <ele>265.20001220703</ele>
        <time>2012-05-06T09:25:35.000Z</time>
      </trkpt>
      <trkpt lat="43.52782" lon="2.85855">
        <ele>265.39999389648</ele>
        <time>2012-05-06T09:25:36.000Z</time>
      </trkpt>
      <trkpt lat="43.52784" lon="2.85855">
        <ele>265.60000610352</ele>
        <time>2012-05-06T09:25:37.000Z</time>
      </trkpt>
      <trkpt lat="43.52787" lon="2.85856">
        <ele>265.79998779297</ele>
        <time>2012-05-06T09:25:38.000Z</time>
      </trkpt>
      <trkpt lat="43.52791" lon="2.85857">
        <ele>266</ele>
        <time>2012-05-06T09:25:39.000Z</time>
      </trkpt>
      <trkpt lat="43.52793" lon="2.85857">
        <ele>266.20001220703</ele>
        <time>2012-05-06T09:25:40.000Z</time>
      </trkpt>
      <trkpt lat="43.52796" lon="2.85858">
        <ele>266.39999389648</ele>
        <time>2012-05-06T09:25:41.000Z</time>
      </trkpt>
      <trkpt lat="43.52799" lon="2.8586">
        <ele>266.79998779297</ele>
        <time>2012-05-06T09:25:42.000Z</time>
      </trkpt>
      <trkpt lat="43.52801" lon="2.85861">
        <ele>267.20001220703</ele>
        <time>2012-05-06T09:25:43.000Z</time>
      </trkpt>
      <trkpt lat="43.52804" lon="2.85863">
        <ele>267.39999389648</ele>
        <time>2012-05-06T09:25:44.000Z</time>
      </trkpt>
      <trkpt lat="43.52806" lon="2.85864">
        <ele>267.79998779297</ele>
        <time>2012-05-06T09:25:45.000Z</time>
      </trkpt>
      <trkpt lat="43.52809" lon="2.85865">
        <ele>268.20001220703</ele>
        <time>2012-05-06T09:25:46.000Z</time>
      </trkpt>
      <trkpt lat="43.52811" lon="2.85867">
        <ele>268.39999389648</ele>
        <time>2012-05-06T09:25:47.000Z</time>
      </trkpt>
      <trkpt lat="43.52814" lon="2.85868">
        <ele>268.79998779297</ele>
        <time>2012-05-06T09:25:48.000Z</time>
      </trkpt>
      <trkpt lat="43.52816" lon="2.8587">
        <ele>269.20001220703</ele>
        <time>2012-05-06T09:25:49.000Z</time>
      </trkpt>
      <trkpt lat="43.52818" lon="2.85871">
        <ele>269.39999389648</ele>
        <time>2012-05-06T09:25:50.000Z</time>
      </trkpt>
      <trkpt lat="43.52821" lon="2.85873">
        <ele>269.79998779297</ele>
        <time>2012-05-06T09:25:51.000Z</time>
      </trkpt>
      <trkpt lat="43.52824" lon="2.85875">
        <ele>270.39999389648</ele>
        <time>2012-05-06T09:25:52.000Z</time>
      </trkpt>
      <trkpt lat="43.52826" lon="2.85878">
        <ele>270.79998779297</ele>
        <time>2012-05-06T09:25:53.000Z</time>
      </trkpt>
      <trkpt lat="43.52829" lon="2.85881">
        <ele>271.39999389648</ele>
        <time>2012-05-06T09:25:54.000Z</time>
      </trkpt>
      <trkpt lat="43.52831" lon="2.85884">
        <ele>272</ele>
        <time>2012-05-06T09:25:55.000Z</time>
      </trkpt>
      <trkpt lat="43.52833" lon="2.85886">
        <ele>272.39999389648</ele>
        <time>2012-05-06T09:25:56.000Z</time>
      </trkpt>
      <trkpt lat="43.52835" lon="2.85889">
        <ele>272.60000610352</ele>
        <time>2012-05-06T09:25:57.000Z</time>
      </trkpt>
      <trkpt lat="43.52838" lon="2.85892">
        <ele>272.60000610352</ele>
        <time>2012-05-06T09:25:58.000Z</time>
      </trkpt>
      <trkpt lat="43.5284" lon="2.85895">
        <ele>272.60000610352</ele>
        <time>2012-05-06T09:25:59.000Z</time>
      </trkpt>
      <trkpt lat="43.52843" lon="2.85898">
        <ele>272.79998779297</ele>
        <time>2012-05-06T09:26:00.000Z</time>
      </trkpt>
      <trkpt lat="43.52844" lon="2.85902">
        <ele>273.20001220703</ele>
        <time>2012-05-06T09:26:01.000Z</time>
      </trkpt>
      <trkpt lat="43.52846" lon="2.85907">
        <ele>273.60000610352</ele>
        <time>2012-05-06T09:26:02.000Z</time>
      </trkpt>
      <trkpt lat="43.52848" lon="2.85911">
        <ele>274</ele>
        <time>2012-05-06T09:26:03.000Z</time>
      </trkpt>
      <trkpt lat="43.5285" lon="2.85916">
        <ele>274.39999389648</ele>
        <time>2012-05-06T09:26:04.000Z</time>
      </trkpt>
      <trkpt lat="43.52852" lon="2.8592">
        <ele>274.60000610352</ele>
        <time>2012-05-06T09:26:05.000Z</time>
      </trkpt>
      <trkpt lat="43.52854" lon="2.85925">
        <ele>274.60000610352</ele>
        <time>2012-05-06T09:26:06.000Z</time>
      </trkpt>
      <trkpt lat="43.52856" lon="2.85929">
        <ele>274.39999389648</ele>
        <time>2012-05-06T09:26:07.000Z</time>
      </trkpt>
      <trkpt lat="43.52858" lon="2.85934">
        <ele>274.39999389648</ele>
        <time>2012-05-06T09:26:08.000Z</time>
      </trkpt>
      <trkpt lat="43.52859" lon="2.85938">
        <ele>274.39999389648</ele>
        <time>2012-05-06T09:26:09.000Z</time>
      </trkpt>
      <trkpt lat="43.52861" lon="2.85942">
        <ele>274.20001220703</ele>
        <time>2012-05-06T09:26:10.000Z</time>
      </trkpt>
      <trkpt lat="43.52863" lon="2.85946">
        <ele>274</ele>
        <time>2012-05-06T09:26:11.000Z</time>
      </trkpt>
      <trkpt lat="43.52866" lon="2.8595">
        <ele>273.60000610352</ele>
        <time>2012-05-06T09:26:12.000Z</time>
      </trkpt>
      <trkpt lat="43.52869" lon="2.85954">
        <ele>273</ele>
        <time>2012-05-06T09:26:13.000Z</time>
      </trkpt>
      <trkpt lat="43.52871" lon="2.85957">
        <ele>272.60000610352</ele>
        <time>2012-05-06T09:26:14.000Z</time>
      </trkpt>
      <trkpt lat="43.52874" lon="2.85961">
        <ele>272</ele>
        <time>2012-05-06T09:26:15.000Z</time>
      </trkpt>
      <trkpt lat="43.52877" lon="2.85965">
        <ele>271.39999389648</ele>
        <time>2012-05-06T09:26:16.000Z</time>
      </trkpt>
      <trkpt lat="43.52879" lon="2.85969">
        <ele>271</ele>
        <time>2012-05-06T09:26:17.000Z</time>
      </trkpt>
      <trkpt lat="43.52882" lon="2.85973">
        <ele>270.39999389648</ele>
        <time>2012-05-06T09:26:18.000Z</time>
      </trkpt>
      <trkpt lat="43.52885" lon="2.85976">
        <ele>269.60000610352</ele>
        <time>2012-05-06T09:26:19.000Z</time>
      </trkpt>
      <trkpt lat="43.52888" lon="2.8598">
        <ele>269</ele>
        <time>2012-05-06T09:26:20.000Z</time>
      </trkpt>
      <trkpt lat="43.52891" lon="2.85983">
        <ele>268</ele>
        <time>2012-05-06T09:26:21.000Z</time>
      </trkpt>
      <trkpt lat="43.52895" lon="2.85987">
        <ele>267.20001220703</ele>
        <time>2012-05-06T09:26:22.000Z</time>
      </trkpt>
      <trkpt lat="43.52897" lon="2.85991">
        <ele>266.39999389648</ele>
        <time>2012-05-06T09:26:23.000Z</time>
      </trkpt>
      <trkpt lat="43.529" lon="2.85994">
        <ele>265.79998779297</ele>
        <time>2012-05-06T09:26:24.000Z</time>
      </trkpt>
      <trkpt lat="43.52902" lon="2.85998">
        <ele>265</ele>
        <time>2012-05-06T09:26:25.000Z</time>
      </trkpt>
      <trkpt lat="43.52905" lon="2.86001">
        <ele>264.39999389648</ele>
        <time>2012-05-06T09:26:26.000Z</time>
      </trkpt>
      <trkpt lat="43.52907" lon="2.86002">
        <ele>263.39999389648</ele>
        <time>2012-05-06T09:26:27.000Z</time>
      </trkpt>
      <trkpt lat="43.52911" lon="2.86001">
        <ele>262.20001220703</ele>
        <time>2012-05-06T09:26:28.000Z</time>
      </trkpt>
      <trkpt lat="43.52914" lon="2.85998">
        <ele>260.79998779297</ele>
        <time>2012-05-06T09:26:29.000Z</time>
      </trkpt>
      <trkpt lat="43.52917" lon="2.85994">
        <ele>259.60000610352</ele>
        <time>2012-05-06T09:26:30.000Z</time>
      </trkpt>
      <trkpt lat="43.5292" lon="2.8599">
        <ele>259</ele>
        <time>2012-05-06T09:26:31.000Z</time>
      </trkpt>
      <trkpt lat="43.52923" lon="2.85987">
        <ele>258.39999389648</ele>
        <time>2012-05-06T09:26:32.000Z</time>
      </trkpt>
      <trkpt lat="43.52927" lon="2.85984">
        <ele>257.60000610352</ele>
        <time>2012-05-06T09:26:33.000Z</time>
      </trkpt>
      <trkpt lat="43.5293" lon="2.85982">
        <ele>257</ele>
        <time>2012-05-06T09:26:34.000Z</time>
      </trkpt>
      <trkpt lat="43.52934" lon="2.8598">
        <ele>256.39999389648</ele>
        <time>2012-05-06T09:26:35.000Z</time>
      </trkpt>
      <trkpt lat="43.52937" lon="2.85979">
        <ele>255.60000610352</ele>
        <time>2012-05-06T09:26:36.000Z</time>
      </trkpt>
      <trkpt lat="43.52941" lon="2.85979">
        <ele>255</ele>
        <time>2012-05-06T09:26:37.000Z</time>
      </trkpt>
      <trkpt lat="43.52945" lon="2.85979">
        <ele>254.19999694824</ele>
        <time>2012-05-06T09:26:38.000Z</time>
      </trkpt>
      <trkpt lat="43.52948" lon="2.85978">
        <ele>253.60000610352</ele>
        <time>2012-05-06T09:26:39.000Z</time>
      </trkpt>
      <trkpt lat="43.52952" lon="2.85977">
        <ele>253</ele>
        <time>2012-05-06T09:26:40.000Z</time>
      </trkpt>
      <trkpt lat="43.52955" lon="2.85976">
        <ele>252.39999389648</ele>
        <time>2012-05-06T09:26:41.000Z</time>
      </trkpt>
      <trkpt lat="43.52959" lon="2.85974">
        <ele>251.60000610352</ele>
        <time>2012-05-06T09:26:42.000Z</time>
      </trkpt>
      <trkpt lat="43.52962" lon="2.85973">
        <ele>251</ele>
        <time>2012-05-06T09:26:43.000Z</time>
      </trkpt>
      <trkpt lat="43.52966" lon="2.85971">
        <ele>250.39999389648</ele>
        <time>2012-05-06T09:26:44.000Z</time>
      </trkpt>
      <trkpt lat="43.52969" lon="2.85969">
        <ele>249.60000610352</ele>
        <time>2012-05-06T09:26:45.000Z</time>
      </trkpt>
      <trkpt lat="43.52972" lon="2.85967">
        <ele>249</ele>
        <time>2012-05-06T09:26:46.000Z</time>
      </trkpt>
      <trkpt lat="43.52975" lon="2.85963">
        <ele>248.39999389648</ele>
        <time>2012-05-06T09:26:47.000Z</time>
      </trkpt>
      <trkpt lat="43.52978" lon="2.8596">
        <ele>247.80000305176</ele>
        <time>2012-05-06T09:26:48.000Z</time>
      </trkpt>
      <trkpt lat="43.52981" lon="2.85957">
        <ele>247.19999694824</ele>
        <time>2012-05-06T09:26:49.000Z</time>
      </trkpt>
      <trkpt lat="43.52985" lon="2.85954">
        <ele>246.60000610352</ele>
        <time>2012-05-06T09:26:50.000Z</time>
      </trkpt>
      <trkpt lat="43.52988" lon="2.85951">
        <ele>246</ele>
        <time>2012-05-06T09:26:51.000Z</time>
      </trkpt>
      <trkpt lat="43.52991" lon="2.85948">
        <ele>245.19999694824</ele>
        <time>2012-05-06T09:26:52.000Z</time>
      </trkpt>
      <trkpt lat="43.52994" lon="2.85945">
        <ele>244.80000305176</ele>
        <time>2012-05-06T09:26:53.000Z</time>
      </trkpt>
      <trkpt lat="43.52997" lon="2.85942">
        <ele>244</ele>
        <time>2012-05-06T09:26:54.000Z</time>
      </trkpt>
      <trkpt lat="43.53" lon="2.85938">
        <ele>243.39999389648</ele>
        <time>2012-05-06T09:26:55.000Z</time>
      </trkpt>
      <trkpt lat="43.53004" lon="2.85935">
        <ele>243</ele>
        <time>2012-05-06T09:26:56.000Z</time>
      </trkpt>
      <trkpt lat="43.53007" lon="2.85932">
        <ele>242.39999389648</ele>
        <time>2012-05-06T09:26:57.000Z</time>
      </trkpt>
      <trkpt lat="43.5301" lon="2.85929">
        <ele>241.80000305176</ele>
        <time>2012-05-06T09:26:58.000Z</time>
      </trkpt>
      <trkpt lat="43.53014" lon="2.85926">
        <ele>241.39999389648</ele>
        <time>2012-05-06T09:26:59.000Z</time>
      </trkpt>
      <trkpt lat="43.53017" lon="2.85923">
        <ele>240.80000305176</ele>
        <time>2012-05-06T09:27:00.000Z</time>
      </trkpt>
      <trkpt lat="43.5302" lon="2.8592">
        <ele>240.39999389648</ele>
        <time>2012-05-06T09:27:01.000Z</time>
      </trkpt>
      <trkpt lat="43.53022" lon="2.85917">
        <ele>240</ele>
        <time>2012-05-06T09:27:02.000Z</time>
      </trkpt>
      <trkpt lat="43.53025" lon="2.85914">
        <ele>239.39999389648</ele>
        <time>2012-05-06T09:27:03.000Z</time>
      </trkpt>
      <trkpt lat="43.53028" lon="2.8591">
        <ele>239</ele>
        <time>2012-05-06T09:27:04.000Z</time>
      </trkpt>
      <trkpt lat="43.53031" lon="2.85906">
        <ele>238.39999389648</ele>
        <time>2012-05-06T09:27:05.000Z</time>
      </trkpt>
      <trkpt lat="43.53034" lon="2.85902">
        <ele>237.80000305176</ele>
        <time>2012-05-06T09:27:06.000Z</time>
      </trkpt>
      <trkpt lat="43.53037" lon="2.85898">
        <ele>237.39999389648</ele>
        <time>2012-05-06T09:27:07.000Z</time>
      </trkpt>
      <trkpt lat="43.53039" lon="2.85894">
        <ele>236.80000305176</ele>
        <time>2012-05-06T09:27:08.000Z</time>
      </trkpt>
      <trkpt lat="43.53041" lon="2.85891">
        <ele>236.60000610352</ele>
        <time>2012-05-06T09:27:09.000Z</time>
      </trkpt>
      <trkpt lat="43.53044" lon="2.8589">
        <ele>236.19999694824</ele>
        <time>2012-05-06T09:27:10.000Z</time>
      </trkpt>
      <trkpt lat="43.53047" lon="2.8589">
        <ele>235.80000305176</ele>
        <time>2012-05-06T09:27:11.000Z</time>
      </trkpt>
      <trkpt lat="43.5305" lon="2.85894">
        <ele>235.60000610352</ele>
        <time>2012-05-06T09:27:12.000Z</time>
      </trkpt>
      <trkpt lat="43.53053" lon="2.85897">
        <ele>235.39999389648</ele>
        <time>2012-05-06T09:27:13.000Z</time>
      </trkpt>
      <trkpt lat="43.53056" lon="2.85901">
        <ele>235.19999694824</ele>
        <time>2012-05-06T09:27:14.000Z</time>
      </trkpt>
      <trkpt lat="43.53059" lon="2.85906">
        <ele>235</ele>
        <time>2012-05-06T09:27:15.000Z</time>
      </trkpt>
      <trkpt lat="43.53062" lon="2.8591">
        <ele>234.60000610352</ele>
        <time>2012-05-06T09:27:16.000Z</time>
      </trkpt>
      <trkpt lat="43.53065" lon="2.85914">
        <ele>234.39999389648</ele>
        <time>2012-05-06T09:27:17.000Z</time>
      </trkpt>
      <trkpt lat="43.53067" lon="2.85918">
        <ele>234.19999694824</ele>
        <time>2012-05-06T09:27:18.000Z</time>
      </trkpt>
      <trkpt lat="43.5307" lon="2.85921">
        <ele>233.60000610352</ele>
        <time>2012-05-06T09:27:19.000Z</time>
      </trkpt>
      <trkpt lat="43.53074" lon="2.85924">
        <ele>233.19999694824</ele>
        <time>2012-05-06T09:27:20.000Z</time>
      </trkpt>
      <trkpt lat="43.53078" lon="2.85926">
        <ele>232.60000610352</ele>
        <time>2012-05-06T09:27:21.000Z</time>
      </trkpt>
      <trkpt lat="43.53082" lon="2.85928">
        <ele>232</ele>
        <time>2012-05-06T09:27:22.000Z</time>
      </trkpt>
      <trkpt lat="43.53086" lon="2.85929">
        <ele>231.39999389648</ele>
        <time>2012-05-06T09:27:23.000Z</time>
      </trkpt>
      <trkpt lat="43.53089" lon="2.85929">
        <ele>231</ele>
        <time>2012-05-06T09:27:24.000Z</time>
      </trkpt>
      <trkpt lat="43.53093" lon="2.85928">
        <ele>230.39999389648</ele>
        <time>2012-05-06T09:27:25.000Z</time>
      </trkpt>
      <trkpt lat="43.53097" lon="2.85926">
        <ele>230</ele>
        <time>2012-05-06T09:27:26.000Z</time>
      </trkpt>
      <trkpt lat="43.53101" lon="2.85923">
        <ele>229.39999389648</ele>
        <time>2012-05-06T09:27:27.000Z</time>
      </trkpt>
      <trkpt lat="43.53105" lon="2.85921">
        <ele>228.80000305176</ele>
        <time>2012-05-06T09:27:28.000Z</time>
      </trkpt>
      <trkpt lat="43.53108" lon="2.85919">
        <ele>228.39999389648</ele>
        <time>2012-05-06T09:27:29.000Z</time>
      </trkpt>
      <trkpt lat="43.53112" lon="2.85916">
        <ele>228</ele>
        <time>2012-05-06T09:27:30.000Z</time>
      </trkpt>
      <trkpt lat="43.53115" lon="2.85914">
        <ele>227.39999389648</ele>
        <time>2012-05-06T09:27:31.000Z</time>
      </trkpt>
      <trkpt lat="43.53118" lon="2.85911">
        <ele>227</ele>
        <time>2012-05-06T09:27:32.000Z</time>
      </trkpt>
      <trkpt lat="43.53122" lon="2.85908">
        <ele>226.39999389648</ele>
        <time>2012-05-06T09:27:33.000Z</time>
      </trkpt>
      <trkpt lat="43.53125" lon="2.85903">
        <ele>225.80000305176</ele>
        <time>2012-05-06T09:27:34.000Z</time>
      </trkpt>
      <trkpt lat="43.53128" lon="2.85899">
        <ele>225.39999389648</ele>
        <time>2012-05-06T09:27:35.000Z</time>
      </trkpt>
      <trkpt lat="43.53131" lon="2.85895">
        <ele>224.80000305176</ele>
        <time>2012-05-06T09:27:36.000Z</time>
      </trkpt>
      <trkpt lat="43.53134" lon="2.85892">
        <ele>224.39999389648</ele>
        <time>2012-05-06T09:27:37.000Z</time>
      </trkpt>
      <trkpt lat="43.53138" lon="2.85889">
        <ele>223.80000305176</ele>
        <time>2012-05-06T09:27:38.000Z</time>
      </trkpt>
      <trkpt lat="43.53142" lon="2.85887">
        <ele>223.19999694824</ele>
        <time>2012-05-06T09:27:39.000Z</time>
      </trkpt>
      <trkpt lat="43.53146" lon="2.85885">
        <ele>222.60000610352</ele>
        <time>2012-05-06T09:27:40.000Z</time>
      </trkpt>
      <trkpt lat="43.5315" lon="2.85884">
        <ele>222</ele>
        <time>2012-05-06T09:27:41.000Z</time>
      </trkpt>
      <trkpt lat="43.53155" lon="2.85883">
        <ele>221.39999389648</ele>
        <time>2012-05-06T09:27:42.000Z</time>
      </trkpt>
      <trkpt lat="43.53158" lon="2.85882">
        <ele>220.80000305176</ele>
        <time>2012-05-06T09:27:43.000Z</time>
      </trkpt>
      <trkpt lat="43.53162" lon="2.85881">
        <ele>220.19999694824</ele>
        <time>2012-05-06T09:27:44.000Z</time>
      </trkpt>
      <trkpt lat="43.53166" lon="2.85878">
        <ele>219.60000610352</ele>
        <time>2012-05-06T09:27:45.000Z</time>
      </trkpt>
      <trkpt lat="43.53169" lon="2.85875">
        <ele>219.39999389648</ele>
        <time>2012-05-06T09:27:46.000Z</time>
      </trkpt>
      <trkpt lat="43.53172" lon="2.85872">
        <ele>219</ele>
        <time>2012-05-06T09:27:47.000Z</time>
      </trkpt>
      <trkpt lat="43.53175" lon="2.85867">
        <ele>218.80000305176</ele>
        <time>2012-05-06T09:27:48.000Z</time>
      </trkpt>
      <trkpt lat="43.53178" lon="2.85862">
        <ele>218.39999389648</ele>
        <time>2012-05-06T09:27:49.000Z</time>
      </trkpt>
      <trkpt lat="43.5318" lon="2.85858">
        <ele>218.19999694824</ele>
        <time>2012-05-06T09:27:50.000Z</time>
      </trkpt>
      <trkpt lat="43.53182" lon="2.85852">
        <ele>218</ele>
        <time>2012-05-06T09:27:51.000Z</time>
      </trkpt>
      <trkpt lat="43.53182" lon="2.85847">
        <ele>217.80000305176</ele>
        <time>2012-05-06T09:27:52.000Z</time>
      </trkpt>
      <trkpt lat="43.53182" lon="2.8584">
        <ele>217.80000305176</ele>
        <time>2012-05-06T09:27:53.000Z</time>
      </trkpt>
      <trkpt lat="43.53182" lon="2.85834">
        <ele>217.80000305176</ele>
        <time>2012-05-06T09:27:54.000Z</time>
      </trkpt>
      <trkpt lat="43.53181" lon="2.85828">
        <ele>217.60000610352</ele>
        <time>2012-05-06T09:27:55.000Z</time>
      </trkpt>
      <trkpt lat="43.5318" lon="2.85823">
        <ele>217.60000610352</ele>
        <time>2012-05-06T09:27:56.000Z</time>
      </trkpt>
      <trkpt lat="43.53178" lon="2.85817">
        <ele>217.80000305176</ele>
        <time>2012-05-06T09:27:57.000Z</time>
      </trkpt>
      <trkpt lat="43.53175" lon="2.85812">
        <ele>217.80000305176</ele>
        <time>2012-05-06T09:27:58.000Z</time>
      </trkpt>
      <trkpt lat="43.53173" lon="2.85807">
        <ele>217.60000610352</ele>
        <time>2012-05-06T09:27:59.000Z</time>
      </trkpt>
      <trkpt lat="43.53172" lon="2.85802">
        <ele>217.60000610352</ele>
        <time>2012-05-06T09:28:00.000Z</time>
      </trkpt>
      <trkpt lat="43.53171" lon="2.85797">
        <ele>217.39999389648</ele>
        <time>2012-05-06T09:28:01.000Z</time>
      </trkpt>
      <trkpt lat="43.53172" lon="2.85791">
        <ele>217.19999694824</ele>
        <time>2012-05-06T09:28:02.000Z</time>
      </trkpt>
      <trkpt lat="43.53174" lon="2.85787">
        <ele>217.19999694824</ele>
        <time>2012-05-06T09:28:03.000Z</time>
      </trkpt>
      <trkpt lat="43.53176" lon="2.85782">
        <ele>217</ele>
        <time>2012-05-06T09:28:04.000Z</time>
      </trkpt>
      <trkpt lat="43.53178" lon="2.85778">
        <ele>216.80000305176</ele>
        <time>2012-05-06T09:28:05.000Z</time>
      </trkpt>
      <trkpt lat="43.5318" lon="2.85775">
        <ele>216.60000610352</ele>
        <time>2012-05-06T09:28:06.000Z</time>
      </trkpt>
      <trkpt lat="43.53183" lon="2.85771">
        <ele>216.60000610352</ele>
        <time>2012-05-06T09:28:07.000Z</time>
      </trkpt>
      <trkpt lat="43.53184" lon="2.85768">
        <ele>216.39999389648</ele>
        <time>2012-05-06T09:28:08.000Z</time>
      </trkpt>
      <trkpt lat="43.53185" lon="2.85763">
        <ele>216.39999389648</ele>
        <time>2012-05-06T09:28:09.000Z</time>
      </trkpt>
      <trkpt lat="43.53185" lon="2.85758">
        <ele>216.39999389648</ele>
        <time>2012-05-06T09:28:10.000Z</time>
      </trkpt>
      <trkpt lat="43.53185" lon="2.85754">
        <ele>216.19999694824</ele>
        <time>2012-05-06T09:28:11.000Z</time>
      </trkpt>
      <trkpt lat="43.53185" lon="2.85749">
        <ele>216.19999694824</ele>
        <time>2012-05-06T09:28:12.000Z</time>
      </trkpt>
      <trkpt lat="43.53186" lon="2.85745">
        <ele>216.39999389648</ele>
        <time>2012-05-06T09:28:13.000Z</time>
      </trkpt>
      <trkpt lat="43.53186" lon="2.8574">
        <ele>216.39999389648</ele>
        <time>2012-05-06T09:28:14.000Z</time>
      </trkpt>
      <trkpt lat="43.53187" lon="2.85736">
        <ele>216.39999389648</ele>
        <time>2012-05-06T09:28:15.000Z</time>
      </trkpt>
      <trkpt lat="43.53188" lon="2.85732">
        <ele>216.60000610352</ele>
        <time>2012-05-06T09:28:16.000Z</time>
      </trkpt>
      <trkpt lat="43.53189" lon="2.85728">
        <ele>216.60000610352</ele>
        <time>2012-05-06T09:28:17.000Z</time>
      </trkpt>
      <trkpt lat="43.53191" lon="2.85725">
        <ele>216.80000305176</ele>
        <time>2012-05-06T09:28:18.000Z</time>
      </trkpt>
      <trkpt lat="43.53193" lon="2.85721">
        <ele>216.80000305176</ele>
        <time>2012-05-06T09:28:19.000Z</time>
      </trkpt>
      <trkpt lat="43.53195" lon="2.85718">
        <ele>217</ele>
        <time>2012-05-06T09:28:20.000Z</time>
      </trkpt>
      <trkpt lat="43.53197" lon="2.85714">
        <ele>217</ele>
        <time>2012-05-06T09:28:21.000Z</time>
      </trkpt>
      <trkpt lat="43.53199" lon="2.85711">
        <ele>217.19999694824</ele>
        <time>2012-05-06T09:28:22.000Z</time>
      </trkpt>
      <trkpt lat="43.53201" lon="2.85708">
        <ele>217.39999389648</ele>
        <time>2012-05-06T09:28:23.000Z</time>
      </trkpt>
      <trkpt lat="43.53204" lon="2.85706">
        <ele>217.39999389648</ele>
        <time>2012-05-06T09:28:24.000Z</time>
      </trkpt>
      <trkpt lat="43.53207" lon="2.85703">
        <ele>217.60000610352</ele>
        <time>2012-05-06T09:28:25.000Z</time>
      </trkpt>
      <trkpt lat="43.53209" lon="2.85701">
        <ele>217.60000610352</ele>
        <time>2012-05-06T09:28:26.000Z</time>
      </trkpt>
      <trkpt lat="43.53211" lon="2.85699">
        <ele>217.80000305176</ele>
        <time>2012-05-06T09:28:27.000Z</time>
      </trkpt>
      <trkpt lat="43.53214" lon="2.85698">
        <ele>218</ele>
        <time>2012-05-06T09:28:28.000Z</time>
      </trkpt>
      <trkpt lat="43.53217" lon="2.85697">
        <ele>218</ele>
        <time>2012-05-06T09:28:29.000Z</time>
      </trkpt>
      <trkpt lat="43.5322" lon="2.85698">
        <ele>218</ele>
        <time>2012-05-06T09:28:30.000Z</time>
      </trkpt>
      <trkpt lat="43.53223" lon="2.857">
        <ele>218</ele>
        <time>2012-05-06T09:28:31.000Z</time>
      </trkpt>
      <trkpt lat="43.53226" lon="2.85702">
        <ele>218.19999694824</ele>
        <time>2012-05-06T09:28:32.000Z</time>
      </trkpt>
      <trkpt lat="43.53229" lon="2.85704">
        <ele>218.19999694824</ele>
        <time>2012-05-06T09:28:33.000Z</time>
      </trkpt>
      <trkpt lat="43.53232" lon="2.85706">
        <ele>218.19999694824</ele>
        <time>2012-05-06T09:28:34.000Z</time>
      </trkpt>
      <trkpt lat="43.53235" lon="2.85709">
        <ele>218.19999694824</ele>
        <time>2012-05-06T09:28:35.000Z</time>
      </trkpt>
      <trkpt lat="43.53238" lon="2.85711">
        <ele>218.19999694824</ele>
        <time>2012-05-06T09:28:36.000Z</time>
      </trkpt>
      <trkpt lat="43.5324" lon="2.85714">
        <ele>218</ele>
        <time>2012-05-06T09:28:37.000Z</time>
      </trkpt>
      <trkpt lat="43.53243" lon="2.85716">
        <ele>218</ele>
        <time>2012-05-06T09:28:38.000Z</time>
      </trkpt>
      <trkpt lat="43.53246" lon="2.85719">
        <ele>218</ele>
        <time>2012-05-06T09:28:39.000Z</time>
      </trkpt>
      <trkpt lat="43.53249" lon="2.85722">
        <ele>218</ele>
        <time>2012-05-06T09:28:40.000Z</time>
      </trkpt>
      <trkpt lat="43.53252" lon="2.85725">
        <ele>218</ele>
        <time>2012-05-06T09:28:41.000Z</time>
      </trkpt>
      <trkpt lat="43.53254" lon="2.85728">
        <ele>218.19999694824</ele>
        <time>2012-05-06T09:28:42.000Z</time>
      </trkpt>
      <trkpt lat="43.53257" lon="2.85731">
        <ele>218.19999694824</ele>
        <time>2012-05-06T09:28:43.000Z</time>
      </trkpt>
      <trkpt lat="43.5326" lon="2.85734">
        <ele>218.19999694824</ele>
        <time>2012-05-06T09:28:44.000Z</time>
      </trkpt>
      <trkpt lat="43.53261" lon="2.85738">
        <ele>218.19999694824</ele>
        <time>2012-05-06T09:28:45.000Z</time>
      </trkpt>
      <trkpt lat="43.53263" lon="2.85741">
        <ele>218</ele>
        <time>2012-05-06T09:28:46.000Z</time>
      </trkpt>
      <trkpt lat="43.53266" lon="2.85743">
        <ele>218.19999694824</ele>
        <time>2012-05-06T09:28:47.000Z</time>
      </trkpt>
      <trkpt lat="43.53268" lon="2.85744">
        <ele>218.19999694824</ele>
        <time>2012-05-06T09:28:48.000Z</time>
      </trkpt>
      <trkpt lat="43.53271" lon="2.85743">
        <ele>218.39999389648</ele>
        <time>2012-05-06T09:28:49.000Z</time>
      </trkpt>
      <trkpt lat="43.53274" lon="2.85741">
        <ele>218.80000305176</ele>
        <time>2012-05-06T09:28:50.000Z</time>
      </trkpt>
      <trkpt lat="43.53277" lon="2.85739">
        <ele>219</ele>
        <time>2012-05-06T09:28:51.000Z</time>
      </trkpt>
      <trkpt lat="43.53279" lon="2.85736">
        <ele>219.39999389648</ele>
        <time>2012-05-06T09:28:52.000Z</time>
      </trkpt>
      <trkpt lat="43.53282" lon="2.85733">
        <ele>219.80000305176</ele>
        <time>2012-05-06T09:28:53.000Z</time>
      </trkpt>
      <trkpt lat="43.53284" lon="2.85731">
        <ele>220</ele>
        <time>2012-05-06T09:28:54.000Z</time>
      </trkpt>
      <trkpt lat="43.53286" lon="2.85728">
        <ele>220.39999389648</ele>
        <time>2012-05-06T09:28:55.000Z</time>
      </trkpt>
      <trkpt lat="43.53288" lon="2.85726">
        <ele>220.80000305176</ele>
        <time>2012-05-06T09:28:56.000Z</time>
      </trkpt>
      <trkpt lat="43.53292" lon="2.85725">
        <ele>221.19999694824</ele>
        <time>2012-05-06T09:28:57.000Z</time>
      </trkpt>
      <trkpt lat="43.53295" lon="2.85724">
        <ele>221.39999389648</ele>
        <time>2012-05-06T09:28:58.000Z</time>
      </trkpt>
      <trkpt lat="43.53297" lon="2.85722">
        <ele>221.80000305176</ele>
        <time>2012-05-06T09:28:59.000Z</time>
      </trkpt>
      <trkpt lat="43.53299" lon="2.8572">
        <ele>222.19999694824</ele>
        <time>2012-05-06T09:29:00.000Z</time>
      </trkpt>
      <trkpt lat="43.53302" lon="2.85718">
        <ele>222.39999389648</ele>
        <time>2012-05-06T09:29:01.000Z</time>
      </trkpt>
      <trkpt lat="43.53304" lon="2.85717">
        <ele>222.80000305176</ele>
        <time>2012-05-06T09:29:02.000Z</time>
      </trkpt>
      <trkpt lat="43.53307" lon="2.85716">
        <ele>223.19999694824</ele>
        <time>2012-05-06T09:29:03.000Z</time>
      </trkpt>
      <trkpt lat="43.5331" lon="2.85715">
        <ele>223.60000610352</ele>
        <time>2012-05-06T09:29:04.000Z</time>
      </trkpt>
      <trkpt lat="43.53313" lon="2.85715">
        <ele>223.80000305176</ele>
        <time>2012-05-06T09:29:05.000Z</time>
      </trkpt>
      <trkpt lat="43.53316" lon="2.85715">
        <ele>224.19999694824</ele>
        <time>2012-05-06T09:29:06.000Z</time>
      </trkpt>
      <trkpt lat="43.53318" lon="2.85714">
        <ele>224.39999389648</ele>
        <time>2012-05-06T09:29:07.000Z</time>
      </trkpt>
      <trkpt lat="43.53321" lon="2.85714">
        <ele>224.60000610352</ele>
        <time>2012-05-06T09:29:08.000Z</time>
      </trkpt>
      <trkpt lat="43.53324" lon="2.85714">
        <ele>225</ele>
        <time>2012-05-06T09:29:09.000Z</time>
      </trkpt>
      <trkpt lat="43.53327" lon="2.85714">
        <ele>225.19999694824</ele>
        <time>2012-05-06T09:29:10.000Z</time>
      </trkpt>
      <trkpt lat="43.5333" lon="2.85715">
        <ele>225.39999389648</ele>
        <time>2012-05-06T09:29:11.000Z</time>
      </trkpt>
      <trkpt lat="43.53333" lon="2.85715">
        <ele>225.60000610352</ele>
        <time>2012-05-06T09:29:12.000Z</time>
      </trkpt>
      <trkpt lat="43.53336" lon="2.85716">
        <ele>226</ele>
        <time>2012-05-06T09:29:13.000Z</time>
      </trkpt>
      <trkpt lat="43.5334" lon="2.85718">
        <ele>226.39999389648</ele>
        <time>2012-05-06T09:29:14.000Z</time>
      </trkpt>
      <trkpt lat="43.53342" lon="2.85719">
        <ele>226.80000305176</ele>
        <time>2012-05-06T09:29:15.000Z</time>
      </trkpt>
      <trkpt lat="43.53345" lon="2.85721">
        <ele>227</ele>
        <time>2012-05-06T09:29:16.000Z</time>
      </trkpt>
      <trkpt lat="43.53348" lon="2.85723">
        <ele>227.19999694824</ele>
        <time>2012-05-06T09:29:17.000Z</time>
      </trkpt>
      <trkpt lat="43.5335" lon="2.85725">
        <ele>227.39999389648</ele>
        <time>2012-05-06T09:29:18.000Z</time>
      </trkpt>
      <trkpt lat="43.53353" lon="2.85728">
        <ele>227.39999389648</ele>
        <time>2012-05-06T09:29:19.000Z</time>
      </trkpt>
      <trkpt lat="43.53355" lon="2.8573">
        <ele>227.60000610352</ele>
        <time>2012-05-06T09:29:20.000Z</time>
      </trkpt>
      <trkpt lat="43.53358" lon="2.85733">
        <ele>227.60000610352</ele>
        <time>2012-05-06T09:29:21.000Z</time>
      </trkpt>
      <trkpt lat="43.5336" lon="2.85736">
        <ele>227.39999389648</ele>
        <time>2012-05-06T09:29:22.000Z</time>
      </trkpt>
      <trkpt lat="43.53362" lon="2.85739">
        <ele>227.39999389648</ele>
        <time>2012-05-06T09:29:23.000Z</time>
      </trkpt>
      <trkpt lat="43.53364" lon="2.85742">
        <ele>227.19999694824</ele>
        <time>2012-05-06T09:29:24.000Z</time>
      </trkpt>
      <trkpt lat="43.53366" lon="2.85745">
        <ele>227.19999694824</ele>
        <time>2012-05-06T09:29:25.000Z</time>
      </trkpt>
      <trkpt lat="43.53368" lon="2.85749">
        <ele>227</ele>
        <time>2012-05-06T09:29:26.000Z</time>
      </trkpt>
      <trkpt lat="43.5337" lon="2.85752">
        <ele>227</ele>
        <time>2012-05-06T09:29:27.000Z</time>
      </trkpt>
      <trkpt lat="43.53371" lon="2.85756">
        <ele>227</ele>
        <time>2012-05-06T09:29:28.000Z</time>
      </trkpt>
      <trkpt lat="43.53373" lon="2.85759">
        <ele>227</ele>
        <time>2012-05-06T09:29:29.000Z</time>
      </trkpt>
      <trkpt lat="43.53375" lon="2.85762">
        <ele>227</ele>
        <time>2012-05-06T09:29:30.000Z</time>
      </trkpt>
      <trkpt lat="43.53377" lon="2.85765">
        <ele>227</ele>
        <time>2012-05-06T09:29:31.000Z</time>
      </trkpt>
      <trkpt lat="43.53379" lon="2.85768">
        <ele>227</ele>
        <time>2012-05-06T09:29:32.000Z</time>
      </trkpt>
      <trkpt lat="43.53381" lon="2.85772">
        <ele>227.19999694824</ele>
        <time>2012-05-06T09:29:33.000Z</time>
      </trkpt>
      <trkpt lat="43.53382" lon="2.85775">
        <ele>227</ele>
        <time>2012-05-06T09:29:34.000Z</time>
      </trkpt>
      <trkpt lat="43.53384" lon="2.85779">
        <ele>227</ele>
        <time>2012-05-06T09:29:35.000Z</time>
      </trkpt>
      <trkpt lat="43.53385" lon="2.85782">
        <ele>227</ele>
        <time>2012-05-06T09:29:36.000Z</time>
      </trkpt>
      <trkpt lat="43.53387" lon="2.85786">
        <ele>227</ele>
        <time>2012-05-06T09:29:37.000Z</time>
      </trkpt>
      <trkpt lat="43.53389" lon="2.8579">
        <ele>227</ele>
        <time>2012-05-06T09:29:38.000Z</time>
      </trkpt>
      <trkpt lat="43.5339" lon="2.85793">
        <ele>227</ele>
        <time>2012-05-06T09:29:39.000Z</time>
      </trkpt>
      <trkpt lat="43.53392" lon="2.85797">
        <ele>227</ele>
        <time>2012-05-06T09:29:40.000Z</time>
      </trkpt>
      <trkpt lat="43.53393" lon="2.858">
        <ele>226.80000305176</ele>
        <time>2012-05-06T09:29:41.000Z</time>
      </trkpt>
      <trkpt lat="43.53395" lon="2.85804">
        <ele>226.80000305176</ele>
        <time>2012-05-06T09:29:42.000Z</time>
      </trkpt>
      <trkpt lat="43.53397" lon="2.85807">
        <ele>226.80000305176</ele>
        <time>2012-05-06T09:29:43.000Z</time>
      </trkpt>
      <trkpt lat="43.53398" lon="2.85811">
        <ele>226.80000305176</ele>
        <time>2012-05-06T09:29:44.000Z</time>
      </trkpt>
      <trkpt lat="43.534" lon="2.85814">
        <ele>226.80000305176</ele>
        <time>2012-05-06T09:29:45.000Z</time>
      </trkpt>
      <trkpt lat="43.53401" lon="2.85817">
        <ele>226.80000305176</ele>
        <time>2012-05-06T09:29:46.000Z</time>
      </trkpt>
      <trkpt lat="43.53403" lon="2.85821">
        <ele>226.80000305176</ele>
        <time>2012-05-06T09:29:47.000Z</time>
      </trkpt>
      <trkpt lat="43.53405" lon="2.85824">
        <ele>226.80000305176</ele>
        <time>2012-05-06T09:29:48.000Z</time>
      </trkpt>
      <trkpt lat="43.53406" lon="2.85827">
        <ele>226.80000305176</ele>
        <time>2012-05-06T09:29:49.000Z</time>
      </trkpt>
      <trkpt lat="43.53408" lon="2.8583">
        <ele>226.80000305176</ele>
        <time>2012-05-06T09:29:50.000Z</time>
      </trkpt>
      <trkpt lat="43.5341" lon="2.85834">
        <ele>226.80000305176</ele>
        <time>2012-05-06T09:29:51.000Z</time>
      </trkpt>
      <trkpt lat="43.53411" lon="2.85837">
        <ele>226.80000305176</ele>
        <time>2012-05-06T09:29:52.000Z</time>
      </trkpt>
      <trkpt lat="43.53413" lon="2.8584">
        <ele>226.60000610352</ele>
        <time>2012-05-06T09:29:53.000Z</time>
      </trkpt>
      <trkpt lat="43.53415" lon="2.85844">
        <ele>226.60000610352</ele>
        <time>2012-05-06T09:29:54.000Z</time>
      </trkpt>
      <trkpt lat="43.53417" lon="2.85847">
        <ele>226.60000610352</ele>
        <time>2012-05-06T09:29:55.000Z</time>
      </trkpt>
      <trkpt lat="43.53419" lon="2.8585">
        <ele>226.39999389648</ele>
        <time>2012-05-06T09:29:56.000Z</time>
      </trkpt>
      <trkpt lat="43.53421" lon="2.85854">
        <ele>226.19999694824</ele>
        <time>2012-05-06T09:29:57.000Z</time>
      </trkpt>
      <trkpt lat="43.53423" lon="2.85857">
        <ele>226.19999694824</ele>
        <time>2012-05-06T09:29:58.000Z</time>
      </trkpt>
      <trkpt lat="43.53425" lon="2.8586">
        <ele>226</ele>
        <time>2012-05-06T09:29:59.000Z</time>
      </trkpt>
      <trkpt lat="43.53427" lon="2.85863">
        <ele>226</ele>
        <time>2012-05-06T09:30:00.000Z</time>
      </trkpt>
      <trkpt lat="43.53429" lon="2.85866">
        <ele>226</ele>
        <time>2012-05-06T09:30:01.000Z</time>
      </trkpt>
      <trkpt lat="43.53431" lon="2.85869">
        <ele>225.80000305176</ele>
        <time>2012-05-06T09:30:02.000Z</time>
      </trkpt>
      <trkpt lat="43.53433" lon="2.85873">
        <ele>225.80000305176</ele>
        <time>2012-05-06T09:30:03.000Z</time>
      </trkpt>
      <trkpt lat="43.53436" lon="2.85876">
        <ele>225.60000610352</ele>
        <time>2012-05-06T09:30:04.000Z</time>
      </trkpt>
      <trkpt lat="43.53438" lon="2.85879">
        <ele>225.60000610352</ele>
        <time>2012-05-06T09:30:05.000Z</time>
      </trkpt>
      <trkpt lat="43.5344" lon="2.85882">
        <ele>225.60000610352</ele>
        <time>2012-05-06T09:30:06.000Z</time>
      </trkpt>
      <trkpt lat="43.53442" lon="2.85884">
        <ele>225.60000610352</ele>
        <time>2012-05-06T09:30:07.000Z</time>
      </trkpt>
      <trkpt lat="43.53444" lon="2.85887">
        <ele>225.60000610352</ele>
        <time>2012-05-06T09:30:08.000Z</time>
      </trkpt>
      <trkpt lat="43.53446" lon="2.8589">
        <ele>225.39999389648</ele>
        <time>2012-05-06T09:30:09.000Z</time>
      </trkpt>
      <trkpt lat="43.53447" lon="2.85893">
        <ele>225.39999389648</ele>
        <time>2012-05-06T09:30:10.000Z</time>
      </trkpt>
      <trkpt lat="43.53449" lon="2.85895">
        <ele>225.39999389648</ele>
        <time>2012-05-06T09:30:11.000Z</time>
      </trkpt>
      <trkpt lat="43.53452" lon="2.85898">
        <ele>225.39999389648</ele>
        <time>2012-05-06T09:30:12.000Z</time>
      </trkpt>
      <trkpt lat="43.53454" lon="2.85901">
        <ele>225.39999389648</ele>
        <time>2012-05-06T09:30:13.000Z</time>
      </trkpt>
      <trkpt lat="43.53456" lon="2.85903">
        <ele>225.39999389648</ele>
        <time>2012-05-06T09:30:14.000Z</time>
      </trkpt>
      <trkpt lat="43.53458" lon="2.85906">
        <ele>225.39999389648</ele>
        <time>2012-05-06T09:30:15.000Z</time>
      </trkpt>
      <trkpt lat="43.5346" lon="2.85908">
        <ele>225.60000610352</ele>
        <time>2012-05-06T09:30:16.000Z</time>
      </trkpt>
      <trkpt lat="43.53463" lon="2.85911">
        <ele>225.60000610352</ele>
        <time>2012-05-06T09:30:17.000Z</time>
      </trkpt>
      <trkpt lat="43.53466" lon="2.85914">
        <ele>225.80000305176</ele>
        <time>2012-05-06T09:30:18.000Z</time>
      </trkpt>
      <trkpt lat="43.53468" lon="2.85916">
        <ele>226</ele>
        <time>2012-05-06T09:30:19.000Z</time>
      </trkpt>
      <trkpt lat="43.53471" lon="2.85918">
        <ele>226</ele>
        <time>2012-05-06T09:30:20.000Z</time>
      </trkpt>
      <trkpt lat="43.53475" lon="2.85919">
        <ele>226.39999389648</ele>
        <time>2012-05-06T09:30:21.000Z</time>
      </trkpt>
      <trkpt lat="43.53477" lon="2.85921">
        <ele>226.39999389648</ele>
        <time>2012-05-06T09:30:22.000Z</time>
      </trkpt>
      <trkpt lat="43.5348" lon="2.85923">
        <ele>226.60000610352</ele>
        <time>2012-05-06T09:30:23.000Z</time>
      </trkpt>
      <trkpt lat="43.53483" lon="2.85924">
        <ele>226.60000610352</ele>
        <time>2012-05-06T09:30:24.000Z</time>
      </trkpt>
      <trkpt lat="43.53486" lon="2.85926">
        <ele>226.80000305176</ele>
        <time>2012-05-06T09:30:25.000Z</time>
      </trkpt>
      <trkpt lat="43.53489" lon="2.85927">
        <ele>227</ele>
        <time>2012-05-06T09:30:26.000Z</time>
      </trkpt>
      <trkpt lat="43.53492" lon="2.85929">
        <ele>227.19999694824</ele>
        <time>2012-05-06T09:30:27.000Z</time>
      </trkpt>
    </trkseg>
  </trk>
</gpx>